Wetterdaten: Samstag, 27.05.2017
Datum Zeit Temp. A. Temp. A. max Feuchte A. Luftdruck Regen Wind Richtung Richtung Sonnenschein ET UV Solar Taupunkt Windchill Windböen
27.05.2017 00:00 9,8 °C 9,8 °C 86 % 1018,6 hPa 0,0 mm 0,0 km/h (0 Bft) O-SO 121 ° 0 min 0,000 mm 0,0 UV-I 0 W/m² 7,6 °C 9,8 °C 0,0 km/h (0 Bft)
27.05.2017 00:01 9,8 °C 9,8 °C 86 % 1018,7 hPa 0,0 mm 0,0 km/h (0 Bft) O-SO 121 ° 0 min 0,000 mm 0,0 UV-I 0 W/m² 7,6 °C 9,8 °C 0,0 km/h (0 Bft)
27.05.2017 00:02 9,7 °C 9,8 °C 86 % 1018,7 hPa 0,0 mm 0,0 km/h (0 Bft) O-SO 121 ° 0 min 0,000 mm 0,0 UV-I 0 W/m² 7,5 °C 9,7 °C 0,0 km/h (0 Bft)
27.05.2017 00:03 9,7 °C 9,8 °C 86 % 1018,7 hPa 0,0 mm 0,0 km/h (0 Bft) O-SO 121 ° 0 min 0,000 mm 0,0 UV-I 0 W/m² 7,5 °C 9,7 °C 0,0 km/h (0 Bft)
27.05.2017 00:04 9,7 °C 9,7 °C 86 % 1018,6 hPa 0,0 mm 0,0 km/h (0 Bft) O-SO 121 ° 0 min 0,000 mm 0,0 UV-I 0 W/m² 7,5 °C 9,7 °C 0,0 km/h (0 Bft)
27.05.2017 00:05 9,7 °C 9,7 °C 86 % 1018,6 hPa 0,0 mm 0,0 km/h (0 Bft) O-SO 121 ° 0 min 0,000 mm 0,0 UV-I 0 W/m² 7,5 °C 9,7 °C 0,0 km/h (0 Bft)
27.05.2017 00:06 9,7 °C 9,7 °C 86 % 1018,6 hPa 0,0 mm 0,0 km/h (0 Bft) O-SO 121 ° 0 min 0,000 mm 0,0 UV-I 0 W/m² 7,5 °C 9,7 °C 0,0 km/h (0 Bft)
27.05.2017 00:07 9,7 °C 9,7 °C 86 % 1018,6 hPa 0,0 mm 0,0 km/h (0 Bft) O-SO 121 ° 0 min 0,000 mm 0,0 UV-I 0 W/m² 7,5 °C 9,7 °C 0,0 km/h (0 Bft)
27.05.2017 00:08 9,8 °C 9,8 °C 85 % 1018,6 hPa 0,0 mm 0,0 km/h (0 Bft) O-SO 121 ° 0 min 0,000 mm 0,0 UV-I 0 W/m² 7,4 °C 9,8 °C 0,0 km/h (0 Bft)
27.05.2017 00:09 9,9 °C 9,9 °C 86 % 1018,6 hPa 0,0 mm 0,0 km/h (0 Bft) O-SO 121 ° 0 min 0,000 mm 0,0 UV-I 0 W/m² 7,7 °C 9,9 °C 0,0 km/h (0 Bft)
27.05.2017 00:10 10,1 °C 10,1 °C 85 % 1018,6 hPa 0,0 mm 0,7 km/h (0 Bft) O-SO 121 ° 0 min 0,000 mm 0,0 UV-I 0 W/m² 7,7 °C 10,1 °C 3,2 km/h (1 Bft)
27.05.2017 00:11 10,3 °C 10,3 °C 84 % 1018,6 hPa 0,0 mm 3,2 km/h (1 Bft) O-SO 121 ° 0 min 0,000 mm 0,0 UV-I 0 W/m² 7,7 °C 10,3 °C 4,8 km/h (1 Bft)
27.05.2017 00:12 10,5 °C 10,5 °C 83 % 1018,6 hPa 0,0 mm 3,3 km/h (1 Bft) O-SO 121 ° 0 min 0,000 mm 0,0 UV-I 0 W/m² 7,7 °C 10,5 °C 4,8 km/h (1 Bft)
27.05.2017 00:13 10,7 °C 10,7 °C 82 % 1018,6 hPa 0,0 mm 2,4 km/h (1 Bft) O-SO 121 ° 0 min 0,000 mm 0,0 UV-I 0 W/m² 7,8 °C 10,7 °C 3,2 km/h (1 Bft)
27.05.2017 00:14 10,8 °C 10,8 °C 81 % 1018,6 hPa 0,0 mm 1,7 km/h (1 Bft) O-SO 121 ° 0 min 0,000 mm 0,0 UV-I 0 W/m² 7,7 °C 10,8 °C 3,2 km/h (1 Bft)
27.05.2017 00:15 10,9 °C 10,9 °C 82 % 1018,6 hPa 0,0 mm 0,3 km/h (0 Bft) O-SO 121 ° 0 min 0,000 mm 0,0 UV-I 0 W/m² 7,9 °C 10,9 °C 1,6 km/h (1 Bft)
27.05.2017 00:16 11,0 °C 11,0 °C 81 % 1018,6 hPa 0,0 mm 0,3 km/h (0 Bft) O-SO 121 ° 0 min 0,000 mm 0,0 UV-I 0 W/m² 7,9 °C 11,0 °C 1,6 km/h (1 Bft)
27.05.2017 00:17 11,2 °C 11,2 °C 80 % 1018,6 hPa 0,0 mm 1,4 km/h (1 Bft) O-SO 121 ° 0 min 0,000 mm 0,0 UV-I 0 W/m² 7,9 °C 11,2 °C 3,2 km/h (1 Bft)
27.05.2017 00:18 11,2 °C 11,2 °C 79 % 1018,6 hPa 0,0 mm 2,5 km/h (1 Bft) O-SO 121 ° 0 min 0,000 mm 0,0 UV-I 0 W/m² 7,7 °C 11,2 °C 3,2 km/h (1 Bft)
27.05.2017 00:19 11,3 °C 11,3 °C 79 % 1018,6 hPa 0,0 mm 0,2 km/h (0 Bft) O-SO 121 ° 0 min 0,000 mm 0,0 UV-I 0 W/m² 7,8 °C 11,3 °C 1,6 km/h (1 Bft)
27.05.2017 00:20 11,2 °C 11,3 °C 79 % 1018,6 hPa 0,0 mm 0,3 km/h (0 Bft) O-SO 121 ° 0 min 0,000 mm 0,0 UV-I 0 W/m² 7,7 °C 11,2 °C 1,6 km/h (1 Bft)
27.05.2017 00:21 11,2 °C 11,3 °C 79 % 1018,6 hPa 0,0 mm 0,1 km/h (0 Bft) O-SO 121 ° 0 min 0,000 mm 0,0 UV-I 0 W/m² 7,7 °C 11,2 °C 1,6 km/h (1 Bft)
27.05.2017 00:22 11,1 °C 11,2 °C 79 % 1018,6 hPa 0,0 mm 0,0 km/h (0 Bft) O-SO 121 ° 0 min 0,000 mm 0,0 UV-I 0 W/m² 7,6 °C 11,1 °C 0,0 km/h (0 Bft)
27.05.2017 00:23 10,9 °C 11,1 °C 80 % 1018,5 hPa 0,0 mm 0,0 km/h (0 Bft) O-SO 121 ° 0 min 0,000 mm 0,0 UV-I 0 W/m² 7,6 °C 10,9 °C 0,0 km/h (0 Bft)
27.05.2017 00:24 10,7 °C 10,9 °C 80 % 1018,5 hPa 0,0 mm 0,0 km/h (0 Bft) O-SO 121 ° 0 min 0,000 mm 0,0 UV-I 0 W/m² 7,4 °C 10,7 °C 0,0 km/h (0 Bft)
27.05.2017 00:25 10,6 °C 10,7 °C 81 % 1018,5 hPa 0,0 mm 0,0 km/h (0 Bft) O-SO 121 ° 0 min 0,000 mm 0,0 UV-I 0 W/m² 7,5 °C 10,6 °C 0,0 km/h (0 Bft)
27.05.2017 00:26 10,5 °C 10,6 °C 81 % 1018,6 hPa 0,0 mm 0,0 km/h (0 Bft) O-SO 121 ° 0 min 0,000 mm 0,0 UV-I 0 W/m² 7,4 °C 10,5 °C 0,0 km/h (0 Bft)
27.05.2017 00:27 10,5 °C 10,5 °C 82 % 1018,5 hPa 0,0 mm 0,0 km/h (0 Bft) O-SO 121 ° 0 min 0,000 mm 0,0 UV-I 0 W/m² 7,6 °C 10,5 °C 0,0 km/h (0 Bft)
27.05.2017 00:28 10,4 °C 10,5 °C 82 % 1018,5 hPa 0,0 mm 0,0 km/h (0 Bft) O-SO 121 ° 0 min 0,000 mm 0,0 UV-I 0 W/m² 7,5 °C 10,4 °C 0,0 km/h (0 Bft)
27.05.2017 00:29 10,4 °C 10,4 °C 82 % 1018,5 hPa 0,0 mm 0,0 km/h (0 Bft) O-SO 121 ° 0 min 0,000 mm 0,0 UV-I 0 W/m² 7,5 °C 10,4 °C 0,0 km/h (0 Bft)
27.05.2017 00:30 10,3 °C 10,4 °C 82 % 1018,5 hPa 0,0 mm 0,0 km/h (0 Bft) O-SO 121 ° 0 min 0,000 mm 0,0 UV-I 0 W/m² 7,4 °C 10,3 °C 0,0 km/h (0 Bft)
27.05.2017 00:31 10,3 °C 10,3 °C 82 % 1018,5 hPa 0,0 mm 0,0 km/h (0 Bft) O-SO 121 ° 0 min 0,000 mm 0,0 UV-I 0 W/m² 7,4 °C 10,3 °C 0,0 km/h (0 Bft)
27.05.2017 00:32 10,3 °C 10,3 °C 82 % 1018,5 hPa 0,0 mm 0,0 km/h (0 Bft) O-SO 121 ° 0 min 0,000 mm 0,0 UV-I 0 W/m² 7,4 °C 10,3 °C 0,0 km/h (0 Bft)
27.05.2017 00:33 10,2 °C 10,3 °C 82 % 1018,5 hPa 0,0 mm 0,0 km/h (0 Bft) O-SO 121 ° 0 min 0,000 mm 0,0 UV-I 0 W/m² 7,3 °C 10,2 °C 0,0 km/h (0 Bft)
27.05.2017 00:34 10,1 °C 10,2 °C 83 % 1018,5 hPa 0,0 mm 0,3 km/h (0 Bft) O-SO 121 ° 0 min 0,000 mm 0,0 UV-I 0 W/m² 7,3 °C 10,1 °C 1,6 km/h (1 Bft)
27.05.2017 00:35 10,2 °C 10,2 °C 83 % 1018,5 hPa 0,0 mm 1,5 km/h (1 Bft) O-SO 121 ° 0 min 0,000 mm 0,0 UV-I 0 W/m² 7,4 °C 10,2 °C 3,2 km/h (1 Bft)
27.05.2017 00:36 10,3 °C 10,3 °C 83 % 1018,5 hPa 0,0 mm 1,6 km/h (1 Bft) SO 134 ° 0 min 0,000 mm 0,0 UV-I 0 W/m² 7,5 °C 10,3 °C 3,2 km/h (1 Bft)
27.05.2017 00:37 10,4 °C 10,4 °C 82 % 1018,5 hPa 0,0 mm 3,7 km/h (1 Bft) S-SO 167 ° 0 min 0,000 mm 0,0 UV-I 0 W/m² 7,5 °C 10,4 °C 6,4 km/h (2 Bft)
27.05.2017 00:38 10,6 °C 10,6 °C 82 % 1018,6 hPa 0,0 mm 1,9 km/h (1 Bft) S-SO 163 ° 0 min 0,000 mm 0,0 UV-I 0 W/m² 7,7 °C 10,6 °C 6,4 km/h (2 Bft)
27.05.2017 00:39 10,7 °C 10,7 °C 82 % 1018,6 hPa 0,0 mm 1,9 km/h (1 Bft) S-SO 153 ° 0 min 0,000 mm 0,0 UV-I 0 W/m² 7,8 °C 10,7 °C 3,2 km/h (1 Bft)
27.05.2017 00:40 10,8 °C 10,8 °C 81 % 1018,6 hPa 0,0 mm 2,9 km/h (1 Bft) S-SO 167 ° 0 min 0,000 mm 0,0 UV-I 0 W/m² 7,7 °C 10,8 °C 6,4 km/h (2 Bft)
27.05.2017 00:41 10,8 °C 10,8 °C 80 % 1018,6 hPa 0,0 mm 1,3 km/h (1 Bft) S-SO 167 ° 0 min 0,000 mm 0,0 UV-I 0 W/m² 7,5 °C 10,8 °C 4,8 km/h (1 Bft)
27.05.2017 00:42 10,8 °C 10,9 °C 81 % 1018,5 hPa 0,0 mm 0,0 km/h (0 Bft) S-SO 167 ° 0 min 0,000 mm 0,0 UV-I 0 W/m² 7,7 °C 10,8 °C 0,0 km/h (0 Bft)
27.05.2017 00:43 10,8 °C 10,8 °C 81 % 1018,5 hPa 0,0 mm 0,0 km/h (0 Bft) S-SO 167 ° 0 min 0,000 mm 0,0 UV-I 0 W/m² 7,7 °C 10,8 °C 0,0 km/h (0 Bft)
27.05.2017 00:44 10,8 °C 10,8 °C 82 % 1018,6 hPa 0,0 mm 0,0 km/h (0 Bft) S-SO 167 ° 0 min 0,000 mm 0,0 UV-I 0 W/m² 7,9 °C 10,8 °C 0,0 km/h (0 Bft)
27.05.2017 00:45 10,7 °C 10,8 °C 81 % 1018,6 hPa 0,0 mm 0,0 km/h (0 Bft) S-SO 167 ° 0 min 0,000 mm 0,0 UV-I 0 W/m² 7,6 °C 10,7 °C 0,0 km/h (0 Bft)
27.05.2017 00:46 10,6 °C 10,7 °C 82 % 1018,5 hPa 0,0 mm 0,0 km/h (0 Bft) S-SO 167 ° 0 min 0,000 mm 0,0 UV-I 0 W/m² 7,7 °C 10,6 °C 0,0 km/h (0 Bft)
27.05.2017 00:47 10,4 °C 10,6 °C 82 % 1018,5 hPa 0,0 mm 0,0 km/h (0 Bft) S-SO 167 ° 0 min 0,000 mm 0,0 UV-I 0 W/m² 7,5 °C 10,4 °C 0,0 km/h (0 Bft)
27.05.2017 00:48 10,4 °C 10,4 °C 82 % 1018,5 hPa 0,0 mm 0,1 km/h (0 Bft) S-SO 167 ° 0 min 0,000 mm 0,0 UV-I 0 W/m² 7,5 °C 10,4 °C 1,6 km/h (1 Bft)
27.05.2017 00:49 10,5 °C 10,5 °C 82 % 1018,5 hPa 0,0 mm 0,2 km/h (0 Bft) S-SO 167 ° 0 min 0,000 mm 0,0 UV-I 0 W/m² 7,6 °C 10,5 °C 1,6 km/h (1 Bft)
27.05.2017 00:50 10,4 °C 10,5 °C 81 % 1018,5 hPa 0,0 mm 0,0 km/h (0 Bft) S-SO 167 ° 0 min 0,000 mm 0,0 UV-I 0 W/m² 7,3 °C 10,4 °C 0,0 km/h (0 Bft)
27.05.2017 00:51 10,3 °C 10,4 °C 82 % 1018,5 hPa 0,0 mm 0,0 km/h (0 Bft) S-SO 167 ° 0 min 0,000 mm 0,0 UV-I 0 W/m² 7,4 °C 10,3 °C 0,0 km/h (0 Bft)
27.05.2017 00:52 10,3 °C 10,3 °C 82 % 1018,5 hPa 0,0 mm 0,7 km/h (0 Bft) S-SO 167 ° 0 min 0,000 mm 0,0 UV-I 0 W/m² 7,4 °C 10,3 °C 1,6 km/h (1 Bft)
27.05.2017 00:53 10,4 °C 10,4 °C 82 % 1018,5 hPa 0,0 mm 2,3 km/h (1 Bft) S-SO 167 ° 0 min 0,000 mm 0,0 UV-I 0 W/m² 7,5 °C 10,4 °C 4,8 km/h (1 Bft)
27.05.2017 00:54 10,4 °C 10,5 °C 82 % 1018,5 hPa 0,0 mm 0,5 km/h (0 Bft) S-SO 167 ° 0 min 0,000 mm 0,0 UV-I 0 W/m² 7,5 °C 10,4 °C 1,6 km/h (1 Bft)
27.05.2017 00:55 10,6 °C 10,6 °C 81 % 1018,5 hPa 0,0 mm 0,0 km/h (0 Bft) S-SO 167 ° 0 min 0,000 mm 0,0 UV-I 0 W/m² 7,5 °C 10,6 °C 0,0 km/h (0 Bft)
27.05.2017 00:56 10,6 °C 10,6 °C 81 % 1018,5 hPa 0,0 mm 0,0 km/h (0 Bft) S-SO 167 ° 0 min 0,000 mm 0,0 UV-I 0 W/m² 7,5 °C 10,6 °C 0,0 km/h (0 Bft)
27.05.2017 00:57 10,5 °C 10,6 °C 81 % 1018,5 hPa 0,0 mm 0,1 km/h (0 Bft) S-SO 167 ° 0 min 0,000 mm 0,0 UV-I 0 W/m² 7,4 °C 10,5 °C 1,6 km/h (1 Bft)
27.05.2017 00:58 10,3 °C 10,5 °C 81 % 1018,5 hPa 0,0 mm 0,0 km/h (0 Bft) S-SO 167 ° 0 min 0,000 mm 0,0 UV-I 0 W/m² 7,2 °C 10,3 °C 0,0 km/h (0 Bft)
27.05.2017 00:59 10,1 °C 10,3 °C 82 % 1018,5 hPa 0,0 mm 0,0 km/h (0 Bft) S-SO 167 ° 0 min 0,000 mm 0,0 UV-I 0 W/m² 7,2 °C 10,1 °C 0,0 km/h (0 Bft)
27.05.2017 01:00 9,9 °C 10,1 °C 83 % 1018,5 hPa 0,0 mm 0,0 km/h (0 Bft) S-SO 167 ° 0 min 0,025 mm 0,0 UV-I 0 W/m² 7,2 °C 9,9 °C 0,0 km/h (0 Bft)
27.05.2017 01:01 9,8 °C 9,9 °C 83 % 1018,5 hPa 0,0 mm 0,0 km/h (0 Bft) S-SO 167 ° 0 min 0,000 mm 0,0 UV-I 0 W/m² 7,1 °C 9,8 °C 0,0 km/h (0 Bft)
27.05.2017 01:02 9,8 °C 9,8 °C 84 % 1018,5 hPa 0,0 mm 0,0 km/h (0 Bft) S-SO 167 ° 0 min 0,000 mm 0,0 UV-I 0 W/m² 7,2 °C 9,8 °C 0,0 km/h (0 Bft)
27.05.2017 01:03 9,8 °C 9,8 °C 84 % 1018,6 hPa 0,0 mm 0,0 km/h (0 Bft) S-SO 167 ° 0 min 0,000 mm 0,0 UV-I 0 W/m² 7,2 °C 9,8 °C 0,0 km/h (0 Bft)
27.05.2017 01:04 9,8 °C 9,8 °C 84 % 1018,5 hPa 0,0 mm 0,0 km/h (0 Bft) S-SO 167 ° 0 min 0,000 mm 0,0 UV-I 0 W/m² 7,2 °C 9,8 °C 0,0 km/h (0 Bft)
27.05.2017 01:05 9,8 °C 9,8 °C 84 % 1018,6 hPa 0,0 mm 0,0 km/h (0 Bft) S-SO 167 ° 0 min 0,000 mm 0,0 UV-I 0 W/m² 7,2 °C 9,8 °C 0,0 km/h (0 Bft)
27.05.2017 01:06 9,7 °C 9,8 °C 84 % 1018,6 hPa 0,0 mm 0,0 km/h (0 Bft) S-SO 167 ° 0 min 0,000 mm 0,0 UV-I 0 W/m² 7,1 °C 9,7 °C 0,0 km/h (0 Bft)
27.05.2017 01:07 9,6 °C 9,7 °C 84 % 1018,6 hPa 0,0 mm 0,0 km/h (0 Bft) S-SO 167 ° 0 min 0,000 mm 0,0 UV-I 0 W/m² 7,0 °C 9,6 °C 0,0 km/h (0 Bft)
27.05.2017 01:08 9,4 °C 9,6 °C 85 % 1018,5 hPa 0,0 mm 0,0 km/h (0 Bft) S-SO 167 ° 0 min 0,000 mm 0,0 UV-I 0 W/m² 7,0 °C 9,4 °C 0,0 km/h (0 Bft)
27.05.2017 01:09 9,4 °C 9,4 °C 85 % 1018,5 hPa 0,0 mm 0,0 km/h (0 Bft) S-SO 167 ° 0 min 0,000 mm 0,0 UV-I 0 W/m² 7,0 °C 9,4 °C 0,0 km/h (0 Bft)
27.05.2017 01:10 9,3 °C 9,4 °C 86 % 1018,5 hPa 0,0 mm 0,0 km/h (0 Bft) S-SO 167 ° 0 min 0,000 mm 0,0 UV-I 0 W/m² 7,1 °C 9,3 °C 0,0 km/h (0 Bft)
27.05.2017 01:11 9,3 °C 9,3 °C 85 % 1018,5 hPa 0,0 mm 0,0 km/h (0 Bft) S-SO 167 ° 0 min 0,000 mm 0,0 UV-I 0 W/m² 6,9 °C 9,3 °C 0,0 km/h (0 Bft)
27.05.2017 01:12 9,3 °C 9,3 °C 86 % 1018,6 hPa 0,0 mm 0,0 km/h (0 Bft) S-SO 167 ° 0 min 0,000 mm 0,0 UV-I 0 W/m² 7,1 °C 9,3 °C 0,0 km/h (0 Bft)
27.05.2017 01:13 9,3 °C 9,3 °C 86 % 1018,6 hPa 0,0 mm 0,0 km/h (0 Bft) S-SO 167 ° 0 min 0,000 mm 0,0 UV-I 0 W/m² 7,1 °C 9,3 °C 0,0 km/h (0 Bft)
27.05.2017 01:14 9,2 °C 9,3 °C 86 % 1018,5 hPa 0,0 mm 0,0 km/h (0 Bft) S-SO 167 ° 0 min 0,000 mm 0,0 UV-I 0 W/m² 7,0 °C 9,2 °C 0,0 km/h (0 Bft)
27.05.2017 01:15 9,2 °C 9,2 °C 86 % 1018,5 hPa 0,0 mm 0,0 km/h (0 Bft) S-SO 167 ° 0 min 0,000 mm 0,0 UV-I 0 W/m² 7,0 °C 9,2 °C 0,0 km/h (0 Bft)
27.05.2017 01:16 9,2 °C 9,2 °C 86 % 1018,5 hPa 0,0 mm 0,0 km/h (0 Bft) S-SO 167 ° 0 min 0,000 mm 0,0 UV-I 0 W/m² 7,0 °C 9,2 °C 0,0 km/h (0 Bft)
27.05.2017 01:17 9,1 °C 9,2 °C 86 % 1018,5 hPa 0,0 mm 0,2 km/h (0 Bft) S-SO 167 ° 0 min 0,000 mm 0,0 UV-I 0 W/m² 6,9 °C 9,1 °C 1,6 km/h (1 Bft)
27.05.2017 01:18 9,1 °C 9,1 °C 86 % 1018,6 hPa 0,0 mm 0,0 km/h (0 Bft) S-SO 167 ° 0 min 0,000 mm 0,0 UV-I 0 W/m² 6,9 °C 9,1 °C 0,0 km/h (0 Bft)
27.05.2017 01:19 9,0 °C 9,1 °C 86 % 1018,5 hPa 0,0 mm 0,0 km/h (0 Bft) S-SO 167 ° 0 min 0,000 mm 0,0 UV-I 0 W/m² 6,8 °C 9,0 °C 0,0 km/h (0 Bft)
27.05.2017 01:20 8,9 °C 9,0 °C 86 % 1018,5 hPa 0,0 mm 0,0 km/h (0 Bft) S-SO 167 ° 0 min 0,000 mm 0,0 UV-I 0 W/m² 6,7 °C 8,9 °C 0,0 km/h (0 Bft)
27.05.2017 01:21 8,9 °C 8,9 °C 86 % 1018,6 hPa 0,0 mm 0,0 km/h (0 Bft) S-SO 167 ° 0 min 0,000 mm 0,0 UV-I 0 W/m² 6,7 °C 8,9 °C 0,0 km/h (0 Bft)
27.05.2017 01:22 8,8 °C 8,9 °C 87 % 1018,6 hPa 0,0 mm 0,0 km/h (0 Bft) S-SO 167 ° 0 min 0,000 mm 0,0 UV-I 0 W/m² 6,8 °C 8,8 °C 0,0 km/h (0 Bft)
27.05.2017 01:23 8,7 °C 8,8 °C 87 % 1018,6 hPa 0,0 mm 0,0 km/h (0 Bft) S-SO 167 ° 0 min 0,000 mm 0,0 UV-I 0 W/m² 6,7 °C 8,7 °C 0,0 km/h (0 Bft)
27.05.2017 01:24 8,7 °C 8,7 °C 87 % 1018,5 hPa 0,0 mm 0,0 km/h (0 Bft) S-SO 167 ° 0 min 0,000 mm 0,0 UV-I 0 W/m² 6,7 °C 8,7 °C 0,0 km/h (0 Bft)
27.05.2017 01:25 8,7 °C 8,7 °C 87 % 1018,5 hPa 0,0 mm 0,0 km/h (0 Bft) S-SO 167 ° 0 min 0,000 mm 0,0 UV-I 0 W/m² 6,7 °C 8,7 °C 0,0 km/h (0 Bft)
27.05.2017 01:26 8,6 °C 8,7 °C 87 % 1018,5 hPa 0,0 mm 0,0 km/h (0 Bft) S-SO 167 ° 0 min 0,000 mm 0,0 UV-I 0 W/m² 6,6 °C 8,6 °C 0,0 km/h (0 Bft)
27.05.2017 01:27 8,6 °C 8,6 °C 88 % 1018,5 hPa 0,0 mm 0,0 km/h (0 Bft) S-SO 167 ° 0 min 0,000 mm 0,0 UV-I 0 W/m² 6,7 °C 8,6 °C 0,0 km/h (0 Bft)
27.05.2017 01:28 8,6 °C 8,6 °C 88 % 1018,6 hPa 0,0 mm 0,0 km/h (0 Bft) S-SO 167 ° 0 min 0,000 mm 0,0 UV-I 0 W/m² 6,7 °C 8,6 °C 0,0 km/h (0 Bft)
27.05.2017 01:29 8,6 °C 8,6 °C 88 % 1018,5 hPa 0,0 mm 0,0 km/h (0 Bft) S-SO 167 ° 0 min 0,000 mm 0,0 UV-I 0 W/m² 6,7 °C 8,6 °C 0,0 km/h (0 Bft)
27.05.2017 01:30 8,7 °C 8,7 °C 88 % 1018,6 hPa 0,0 mm 0,0 km/h (0 Bft) S-SO 167 ° 0 min 0,000 mm 0,0 UV-I 0 W/m² 6,8 °C 8,7 °C 0,0 km/h (0 Bft)
27.05.2017 01:31 8,7 °C 8,7 °C 88 % 1018,6 hPa 0,0 mm 0,0 km/h (0 Bft) S-SO 167 ° 0 min 0,000 mm 0,0 UV-I 0 W/m² 6,8 °C 8,7 °C 0,0 km/h (0 Bft)
27.05.2017 01:32 8,7 °C 8,7 °C 88 % 1018,5 hPa 0,0 mm 0,0 km/h (0 Bft) S-SO 167 ° 0 min 0,000 mm 0,0 UV-I 0 W/m² 6,8 °C 8,7 °C 0,0 km/h (0 Bft)
27.05.2017 01:33 8,7 °C 8,7 °C 88 % 1018,5 hPa 0,0 mm 0,0 km/h (0 Bft) S-SO 167 ° 0 min 0,000 mm 0,0 UV-I 0 W/m² 6,8 °C 8,7 °C 0,0 km/h (0 Bft)
27.05.2017 01:34 8,8 °C 8,8 °C 87 % 1018,5 hPa 0,0 mm 0,0 km/h (0 Bft) S-SO 167 ° 0 min 0,000 mm 0,0 UV-I 0 W/m² 6,8 °C 8,8 °C 0,0 km/h (0 Bft)
27.05.2017 01:35 8,8 °C 8,8 °C 87 % 1018,5 hPa 0,0 mm 0,0 km/h (0 Bft) S-SO 167 ° 0 min 0,000 mm 0,0 UV-I 0 W/m² 6,8 °C 8,8 °C 0,0 km/h (0 Bft)
27.05.2017 01:36 8,8 °C 8,8 °C 87 % 1018,5 hPa 0,0 mm 0,0 km/h (0 Bft) S-SO 167 ° 0 min 0,000 mm 0,0 UV-I 0 W/m² 6,8 °C 8,8 °C 0,0 km/h (0 Bft)
27.05.2017 01:37 8,7 °C 8,8 °C 87 % 1018,5 hPa 0,0 mm 0,0 km/h (0 Bft) S-SO 167 ° 0 min 0,000 mm 0,0 UV-I 0 W/m² 6,7 °C 8,7 °C 0,0 km/h (0 Bft)
27.05.2017 01:38 8,6 °C 8,7 °C 87 % 1018,5 hPa 0,0 mm 0,0 km/h (0 Bft) S-SO 167 ° 0 min 0,000 mm 0,0 UV-I 0 W/m² 6,6 °C 8,6 °C 0,0 km/h (0 Bft)
27.05.2017 01:39 8,6 °C 8,6 °C 88 % 1018,5 hPa 0,0 mm 0,0 km/h (0 Bft) S-SO 167 ° 0 min 0,000 mm 0,0 UV-I 0 W/m² 6,7 °C 8,6 °C 0,0 km/h (0 Bft)
27.05.2017 01:40 8,6 °C 8,6 °C 88 % 1018,4 hPa 0,0 mm 0,0 km/h (0 Bft) S-SO 167 ° 0 min 0,000 mm 0,0 UV-I 0 W/m² 6,7 °C 8,6 °C 0,0 km/h (0 Bft)
27.05.2017 01:41 8,6 °C 8,6 °C 88 % 1018,4 hPa 0,0 mm 0,0 km/h (0 Bft) S-SO 167 ° 0 min 0,000 mm 0,0 UV-I 0 W/m² 6,7 °C 8,6 °C 0,0 km/h (0 Bft)
27.05.2017 01:42 8,6 °C 8,6 °C 88 % 1018,4 hPa 0,0 mm 0,0 km/h (0 Bft) S-SO 167 ° 0 min 0,000 mm 0,0 UV-I 0 W/m² 6,7 °C 8,6 °C 0,0 km/h (0 Bft)
27.05.2017 01:43 8,6 °C 8,6 °C 88 % 1018,4 hPa 0,0 mm 0,0 km/h (0 Bft) S-SO 167 ° 0 min 0,000 mm 0,0 UV-I 0 W/m² 6,7 °C 8,6 °C 0,0 km/h (0 Bft)
27.05.2017 01:44 8,6 °C 8,6 °C 88 % 1018,4 hPa 0,0 mm 0,0 km/h (0 Bft) S-SO 167 ° 0 min 0,000 mm 0,0 UV-I 0 W/m² 6,7 °C 8,6 °C 0,0 km/h (0 Bft)
27.05.2017 01:45 8,6 °C 8,6 °C 88 % 1018,4 hPa 0,0 mm 0,0 km/h (0 Bft) S-SO 167 ° 0 min 0,000 mm 0,0 UV-I 0 W/m² 6,7 °C 8,6 °C 0,0 km/h (0 Bft)
27.05.2017 01:46 8,6 °C 8,6 °C 88 % 1018,3 hPa 0,0 mm 0,0 km/h (0 Bft) S-SO 167 ° 0 min 0,000 mm 0,0 UV-I 0 W/m² 6,7 °C 8,6 °C 0,0 km/h (0 Bft)
27.05.2017 01:47 8,6 °C 8,6 °C 88 % 1018,3 hPa 0,0 mm 0,0 km/h (0 Bft) S-SO 167 ° 0 min 0,000 mm 0,0 UV-I 0 W/m² 6,7 °C 8,6 °C 0,0 km/h (0 Bft)
27.05.2017 01:48 8,6 °C 8,6 °C 88 % 1018,3 hPa 0,0 mm 0,0 km/h (0 Bft) S-SO 167 ° 0 min 0,000 mm 0,0 UV-I 0 W/m² 6,7 °C 8,6 °C 0,0 km/h (0 Bft)
27.05.2017 01:49 8,7 °C 8,7 °C 88 % 1018,3 hPa 0,0 mm 0,0 km/h (0 Bft) S-SO 167 ° 0 min 0,000 mm 0,0 UV-I 0 W/m² 6,8 °C 8,7 °C 0,0 km/h (0 Bft)
27.05.2017 01:50 8,7 °C 8,7 °C 88 % 1018,3 hPa 0,0 mm 0,0 km/h (0 Bft) S-SO 167 ° 0 min 0,000 mm 0,0 UV-I 0 W/m² 6,8 °C 8,7 °C 0,0 km/h (0 Bft)
27.05.2017 01:51 8,7 °C 8,7 °C 88 % 1018,3 hPa 0,0 mm 0,0 km/h (0 Bft) S-SO 167 ° 0 min 0,000 mm 0,0 UV-I 0 W/m² 6,8 °C 8,7 °C 0,0 km/h (0 Bft)
27.05.2017 01:52 8,8 °C 8,8 °C 88 % 1018,3 hPa 0,0 mm 0,0 km/h (0 Bft) S-SO 167 ° 0 min 0,000 mm 0,0 UV-I 0 W/m² 6,9 °C 8,8 °C 0,0 km/h (0 Bft)
27.05.2017 01:53 8,8 °C 8,8 °C 87 % 1018,3 hPa 0,0 mm 0,0 km/h (0 Bft) S-SO 167 ° 0 min 0,000 mm 0,0 UV-I 0 W/m² 6,8 °C 8,8 °C 0,0 km/h (0 Bft)
27.05.2017 01:54 8,8 °C 8,8 °C 87 % 1018,4 hPa 0,0 mm 0,0 km/h (0 Bft) S-SO 167 ° 0 min 0,000 mm 0,0 UV-I 0 W/m² 6,8 °C 8,8 °C 0,0 km/h (0 Bft)
27.05.2017 01:55 8,7 °C 8,8 °C 87 % 1018,4 hPa 0,0 mm 0,0 km/h (0 Bft) S-SO 167 ° 0 min 0,000 mm 0,0 UV-I 0 W/m² 6,7 °C 8,7 °C 0,0 km/h (0 Bft)
27.05.2017 01:56 8,8 °C 8,8 °C 87 % 1018,4 hPa 0,0 mm 0,0 km/h (0 Bft) S-SO 167 ° 0 min 0,000 mm 0,0 UV-I 0 W/m² 6,8 °C 8,8 °C 0,0 km/h (0 Bft)
27.05.2017 01:57 8,8 °C 8,8 °C 87 % 1018,4 hPa 0,0 mm 0,0 km/h (0 Bft) S-SO 167 ° 0 min 0,000 mm 0,0 UV-I 0 W/m² 6,8 °C 8,8 °C 0,0 km/h (0 Bft)
27.05.2017 01:58 8,8 °C 8,8 °C 87 % 1018,3 hPa 0,0 mm 0,0 km/h (0 Bft) S-SO 167 ° 0 min 0,000 mm 0,0 UV-I 0 W/m² 6,8 °C 8,8 °C 0,0 km/h (0 Bft)
27.05.2017 01:59 8,9 °C 8,9 °C 87 % 1018,4 hPa 0,0 mm 0,0 km/h (0 Bft) S-SO 167 ° 0 min 0,000 mm 0,0 UV-I 0 W/m² 6,9 °C 8,9 °C 0,0 km/h (0 Bft)
27.05.2017 02:00 9,0 °C 9,0 °C 88 % 1018,4 hPa 0,0 mm 0,0 km/h (0 Bft) S-SO 167 ° 0 min 0,000 mm 0,0 UV-I 0 W/m² 7,1 °C 9,0 °C 0,0 km/h (0 Bft)
27.05.2017 02:01 9,1 °C 9,1 °C 88 % 1018,3 hPa 0,0 mm 0,0 km/h (0 Bft) S-SO 167 ° 0 min 0,000 mm 0,0 UV-I 0 W/m² 7,2 °C 9,1 °C 0,0 km/h (0 Bft)
27.05.2017 02:02 9,2 °C 9,2 °C 88 % 1018,3 hPa 0,0 mm 0,0 km/h (0 Bft) S-SO 167 ° 0 min 0,000 mm 0,0 UV-I 0 W/m² 7,3 °C 9,2 °C 0,0 km/h (0 Bft)
27.05.2017 02:03 9,1 °C 9,2 °C 86 % 1018,3 hPa 0,0 mm 0,0 km/h (0 Bft) S-SO 167 ° 0 min 0,000 mm 0,0 UV-I 0 W/m² 6,9 °C 9,1 °C 0,0 km/h (0 Bft)
27.05.2017 02:04 8,9 °C 9,1 °C 86 % 1018,3 hPa 0,0 mm 0,7 km/h (0 Bft) S-SO 167 ° 0 min 0,000 mm 0,0 UV-I 0 W/m² 6,7 °C 8,9 °C 1,6 km/h (1 Bft)
27.05.2017 02:05 8,8 °C 8,9 °C 86 % 1018,3 hPa 0,0 mm 0,0 km/h (0 Bft) S-SO 167 ° 0 min 0,000 mm 0,0 UV-I 0 W/m² 6,6 °C 8,8 °C 0,0 km/h (0 Bft)
27.05.2017 02:06 8,7 °C 8,8 °C 86 % 1018,3 hPa 0,0 mm 0,0 km/h (0 Bft) S-SO 167 ° 0 min 0,000 mm 0,0 UV-I 0 W/m² 6,5 °C 8,7 °C 0,0 km/h (0 Bft)
27.05.2017 02:07 8,7 °C 8,7 °C 87 % 1018,3 hPa 0,0 mm 0,0 km/h (0 Bft) S-SO 167 ° 0 min 0,000 mm 0,0 UV-I 0 W/m² 6,7 °C 8,7 °C 0,0 km/h (0 Bft)
27.05.2017 02:08 8,6 °C 8,7 °C 88 % 1018,3 hPa 0,0 mm 0,0 km/h (0 Bft) S-SO 167 ° 0 min 0,000 mm 0,0 UV-I 0 W/m² 6,7 °C 8,6 °C 0,0 km/h (0 Bft)
27.05.2017 02:09 8,6 °C 8,6 °C 88 % 1018,3 hPa 0,0 mm 0,0 km/h (0 Bft) S-SO 167 ° 0 min 0,000 mm 0,0 UV-I 0 W/m² 6,7 °C 8,6 °C 0,0 km/h (0 Bft)
27.05.2017 02:10 8,6 °C 8,6 °C 88 % 1018,3 hPa 0,0 mm 0,0 km/h (0 Bft) S-SO 167 ° 0 min 0,000 mm 0,0 UV-I 0 W/m² 6,7 °C 8,6 °C 0,0 km/h (0 Bft)
27.05.2017 02:11 8,7 °C 8,7 °C 88 % 1018,3 hPa 0,0 mm 0,0 km/h (0 Bft) S-SO 167 ° 0 min 0,000 mm 0,0 UV-I 0 W/m² 6,8 °C 8,7 °C 0,0 km/h (0 Bft)
27.05.2017 02:12 8,6 °C 8,7 °C 88 % 1018,3 hPa 0,0 mm 0,0 km/h (0 Bft) S-SO 167 ° 0 min 0,000 mm 0,0 UV-I 0 W/m² 6,7 °C 8,6 °C 0,0 km/h (0 Bft)
27.05.2017 02:13 8,6 °C 8,6 °C 88 % 1018,3 hPa 0,0 mm 0,0 km/h (0 Bft) S-SO 167 ° 0 min 0,000 mm 0,0 UV-I 0 W/m² 6,7 °C 8,6 °C 0,0 km/h (0 Bft)
27.05.2017 02:14 8,5 °C 8,6 °C 88 % 1018,3 hPa 0,0 mm 0,0 km/h (0 Bft) S-SO 167 ° 0 min 0,000 mm 0,0 UV-I 0 W/m² 6,6 °C 8,5 °C 0,0 km/h (0 Bft)
27.05.2017 02:15 8,4 °C 8,5 °C 88 % 1018,2 hPa 0,0 mm 0,0 km/h (0 Bft) S-SO 167 ° 0 min 0,000 mm 0,0 UV-I 0 W/m² 6,5 °C 8,4 °C 0,0 km/h (0 Bft)
27.05.2017 02:16 8,3 °C 8,4 °C 88 % 1018,2 hPa 0,0 mm 0,0 km/h (0 Bft) S-SO 167 ° 0 min 0,000 mm 0,0 UV-I 0 W/m² 6,4 °C 8,3 °C 0,0 km/h (0 Bft)
27.05.2017 02:17 8,2 °C 8,3 °C 88 % 1018,3 hPa 0,0 mm 0,0 km/h (0 Bft) S-SO 167 ° 0 min 0,000 mm 0,0 UV-I 0 W/m² 6,3 °C 8,2 °C 0,0 km/h (0 Bft)
27.05.2017 02:18 8,2 °C 8,2 °C 89 % 1018,2 hPa 0,0 mm 0,0 km/h (0 Bft) S-SO 167 ° 0 min 0,000 mm 0,0 UV-I 0 W/m² 6,5 °C 8,2 °C 0,0 km/h (0 Bft)
27.05.2017 02:19 8,2 °C 8,2 °C 89 % 1018,3 hPa 0,0 mm 0,0 km/h (0 Bft) S-SO 167 ° 0 min 0,000 mm 0,0 UV-I 0 W/m² 6,5 °C 8,2 °C 0,0 km/h (0 Bft)
27.05.2017 02:20 8,3 °C 8,3 °C 89 % 1018,2 hPa 0,0 mm 0,0 km/h (0 Bft) S-SO 167 ° 0 min 0,000 mm 0,0 UV-I 0 W/m² 6,6 °C 8,3 °C 0,0 km/h (0 Bft)
27.05.2017 02:21 8,3 °C 8,3 °C 89 % 1018,3 hPa 0,0 mm 0,0 km/h (0 Bft) S-SO 167 ° 0 min 0,000 mm 0,0 UV-I 0 W/m² 6,6 °C 8,3 °C 0,0 km/h (0 Bft)
27.05.2017 02:22 8,3 °C 8,3 °C 89 % 1018,2 hPa 0,0 mm 0,0 km/h (0 Bft) S-SO 167 ° 0 min 0,000 mm 0,0 UV-I 0 W/m² 6,6 °C 8,3 °C 0,0 km/h (0 Bft)
27.05.2017 02:23 8,4 °C 8,4 °C 89 % 1018,2 hPa 0,0 mm 0,0 km/h (0 Bft) S-SO 167 ° 0 min 0,000 mm 0,0 UV-I 0 W/m² 6,7 °C 8,4 °C 0,0 km/h (0 Bft)
27.05.2017 02:24 8,3 °C 8,4 °C 89 % 1018,2 hPa 0,0 mm 0,0 km/h (0 Bft) S-SO 167 ° 0 min 0,000 mm 0,0 UV-I 0 W/m² 6,6 °C 8,3 °C 0,0 km/h (0 Bft)
27.05.2017 02:25 8,3 °C 8,3 °C 89 % 1018,2 hPa 0,0 mm 0,0 km/h (0 Bft) S-SO 167 ° 0 min 0,000 mm 0,0 UV-I 0 W/m² 6,6 °C 8,3 °C 0,0 km/h (0 Bft)
27.05.2017 02:26 8,3 °C 8,3 °C 89 % 1018,2 hPa 0,0 mm 0,0 km/h (0 Bft) S-SO 167 ° 0 min 0,000 mm 0,0 UV-I 0 W/m² 6,6 °C 8,3 °C 0,0 km/h (0 Bft)
27.05.2017 02:27 8,3 °C 8,3 °C 89 % 1018,2 hPa 0,0 mm 0,0 km/h (0 Bft) S-SO 167 ° 0 min 0,000 mm 0,0 UV-I 0 W/m² 6,6 °C 8,3 °C 0,0 km/h (0 Bft)
27.05.2017 02:28 8,4 °C 8,4 °C 89 % 1018,2 hPa 0,0 mm 0,0 km/h (0 Bft) S-SO 167 ° 0 min 0,000 mm 0,0 UV-I 0 W/m² 6,7 °C 8,4 °C 0,0 km/h (0 Bft)
27.05.2017 02:29 8,4 °C 8,4 °C 89 % 1018,2 hPa 0,0 mm 0,0 km/h (0 Bft) S-SO 167 ° 0 min 0,000 mm 0,0 UV-I 0 W/m² 6,7 °C 8,4 °C 0,0 km/h (0 Bft)
27.05.2017 02:30 8,3 °C 8,4 °C 89 % 1018,2 hPa 0,0 mm 0,0 km/h (0 Bft) S-SO 167 ° 0 min 0,000 mm 0,0 UV-I 0 W/m² 6,6 °C 8,3 °C 0,0 km/h (0 Bft)
27.05.2017 02:31 8,3 °C 8,3 °C 89 % 1018,3 hPa 0,0 mm 0,0 km/h (0 Bft) S-SO 167 ° 0 min 0,000 mm 0,0 UV-I 0 W/m² 6,6 °C 8,3 °C 0,0 km/h (0 Bft)
27.05.2017 02:32 8,3 °C 8,3 °C 89 % 1018,2 hPa 0,0 mm 0,0 km/h (0 Bft) S-SO 167 ° 0 min 0,000 mm 0,0 UV-I 0 W/m² 6,6 °C 8,3 °C 0,0 km/h (0 Bft)
27.05.2017 02:33 8,2 °C 8,3 °C 90 % 1018,3 hPa 0,0 mm 0,0 km/h (0 Bft) S-SO 167 ° 0 min 0,000 mm 0,0 UV-I 0 W/m² 6,7 °C 8,2 °C 0,0 km/h (0 Bft)
27.05.2017 02:34 8,2 °C 8,2 °C 90 % 1018,3 hPa 0,0 mm 0,0 km/h (0 Bft) S-SO 167 ° 0 min 0,000 mm 0,0 UV-I 0 W/m² 6,7 °C 8,2 °C 0,0 km/h (0 Bft)
27.05.2017 02:35 8,2 °C 8,2 °C 90 % 1018,3 hPa 0,0 mm 0,0 km/h (0 Bft) S-SO 167 ° 0 min 0,000 mm 0,0 UV-I 0 W/m² 6,7 °C 8,2 °C 0,0 km/h (0 Bft)
27.05.2017 02:36 8,2 °C 8,2 °C 90 % 1018,3 hPa 0,0 mm 0,0 km/h (0 Bft) S-SO 167 ° 0 min 0,000 mm 0,0 UV-I 0 W/m² 6,7 °C 8,2 °C 0,0 km/h (0 Bft)
27.05.2017 02:37 8,1 °C 8,2 °C 90 % 1018,3 hPa 0,0 mm 0,0 km/h (0 Bft) S-SO 167 ° 0 min 0,000 mm 0,0 UV-I 0 W/m² 6,6 °C 8,1 °C 0,0 km/h (0 Bft)
27.05.2017 02:38 8,1 °C 8,1 °C 90 % 1018,3 hPa 0,0 mm 0,0 km/h (0 Bft) S-SO 167 ° 0 min 0,000 mm 0,0 UV-I 0 W/m² 6,6 °C 8,1 °C 0,0 km/h (0 Bft)
27.05.2017 02:39 8,1 °C 8,1 °C 90 % 1018,3 hPa 0,0 mm 0,0 km/h (0 Bft) S-SO 167 ° 0 min 0,000 mm 0,0 UV-I 0 W/m² 6,6 °C 8,1 °C 0,0 km/h (0 Bft)
27.05.2017 02:40 8,0 °C 8,1 °C 90 % 1018,3 hPa 0,0 mm 0,5 km/h (0 Bft) S-SO 167 ° 0 min 0,000 mm 0,0 UV-I 0 W/m² 6,5 °C 8,0 °C 1,6 km/h (1 Bft)
27.05.2017 02:41 8,0 °C 8,1 °C 90 % 1018,3 hPa 0,0 mm 0,0 km/h (0 Bft) S-SO 167 ° 0 min 0,000 mm 0,0 UV-I 0 W/m² 6,5 °C 8,0 °C 0,0 km/h (0 Bft)
27.05.2017 02:42 7,9 °C 8,0 °C 90 % 1018,3 hPa 0,0 mm 0,0 km/h (0 Bft) S-SO 167 ° 0 min 0,000 mm 0,0 UV-I 0 W/m² 6,4 °C 7,9 °C 0,0 km/h (0 Bft)
27.05.2017 02:43 7,9 °C 8,0 °C 90 % 1018,3 hPa 0,0 mm 0,0 km/h (0 Bft) S-SO 167 ° 0 min 0,000 mm 0,0 UV-I 0 W/m² 6,4 °C 7,9 °C 0,0 km/h (0 Bft)
27.05.2017 02:44 8,0 °C 8,0 °C 90 % 1018,3 hPa 0,0 mm 0,0 km/h (0 Bft) S-SO 167 ° 0 min 0,000 mm 0,0 UV-I 0 W/m² 6,5 °C 8,0 °C 0,0 km/h (0 Bft)
27.05.2017 02:45 7,9 °C 8,0 °C 90 % 1018,3 hPa 0,0 mm 0,0 km/h (0 Bft) S-SO 167 ° 0 min 0,000 mm 0,0 UV-I 0 W/m² 6,4 °C 7,9 °C 0,0 km/h (0 Bft)
27.05.2017 02:46 7,9 °C 8,0 °C 90 % 1018,3 hPa 0,0 mm 0,0 km/h (0 Bft) S-SO 167 ° 0 min 0,000 mm 0,0 UV-I 0 W/m² 6,4 °C 7,9 °C 0,0 km/h (0 Bft)
27.05.2017 02:47 7,9 °C 7,9 °C 90 % 1018,3 hPa 0,0 mm 0,0 km/h (0 Bft) S-SO 167 ° 0 min 0,000 mm 0,0 UV-I 0 W/m² 6,4 °C 7,9 °C 0,0 km/h (0 Bft)
27.05.2017 02:48 7,9 °C 7,9 °C 90 % 1018,3 hPa 0,0 mm 0,0 km/h (0 Bft) S-SO 167 ° 0 min 0,000 mm 0,0 UV-I 0 W/m² 6,4 °C 7,9 °C 0,0 km/h (0 Bft)
27.05.2017 02:49 7,8 °C 7,9 °C 90 % 1018,3 hPa 0,0 mm 0,0 km/h (0 Bft) S-SO 167 ° 0 min 0,000 mm 0,0 UV-I 0 W/m² 6,3 °C 7,8 °C 0,0 km/h (0 Bft)
27.05.2017 02:50 7,8 °C 7,8 °C 90 % 1018,3 hPa 0,0 mm 0,0 km/h (0 Bft) S-SO 167 ° 0 min 0,000 mm 0,0 UV-I 0 W/m² 6,3 °C 7,8 °C 0,0 km/h (0 Bft)
27.05.2017 02:51 7,7 °C 7,8 °C 90 % 1018,3 hPa 0,0 mm 0,0 km/h (0 Bft) S-SO 167 ° 0 min 0,000 mm 0,0 UV-I 0 W/m² 6,2 °C 7,7 °C 0,0 km/h (0 Bft)
27.05.2017 02:52 7,8 °C 7,8 °C 90 % 1018,2 hPa 0,0 mm 0,0 km/h (0 Bft) S-SO 167 ° 0 min 0,000 mm 0,0 UV-I 0 W/m² 6,3 °C 7,8 °C 0,0 km/h (0 Bft)
27.05.2017 02:53 7,8 °C 7,8 °C 90 % 1018,2 hPa 0,0 mm 0,0 km/h (0 Bft) S-SO 167 ° 0 min 0,000 mm 0,0 UV-I 0 W/m² 6,3 °C 7,8 °C 0,0 km/h (0 Bft)
27.05.2017 02:54 7,8 °C 7,8 °C 90 % 1018,3 hPa 0,0 mm 0,0 km/h (0 Bft) S-SO 167 ° 0 min 0,000 mm 0,0 UV-I 0 W/m² 6,3 °C 7,8 °C 0,0 km/h (0 Bft)
27.05.2017 02:55 7,9 °C 7,9 °C 90 % 1018,3 hPa 0,0 mm 0,0 km/h (0 Bft) S-SO 167 ° 0 min 0,000 mm 0,0 UV-I 0 W/m² 6,4 °C 7,9 °C 0,0 km/h (0 Bft)
27.05.2017 02:56 7,9 °C 7,9 °C 90 % 1018,2 hPa 0,0 mm 0,0 km/h (0 Bft) S-SO 167 ° 0 min 0,000 mm 0,0 UV-I 0 W/m² 6,4 °C 7,9 °C 0,0 km/h (0 Bft)
27.05.2017 02:57 8,0 °C 8,0 °C 90 % 1018,3 hPa 0,0 mm 0,0 km/h (0 Bft) S-SO 167 ° 0 min 0,000 mm 0,0 UV-I 0 W/m² 6,5 °C 8,0 °C 0,0 km/h (0 Bft)
27.05.2017 02:58 7,9 °C 8,0 °C 90 % 1018,3 hPa 0,0 mm 0,0 km/h (0 Bft) S-SO 167 ° 0 min 0,000 mm 0,0 UV-I 0 W/m² 6,4 °C 7,9 °C 0,0 km/h (0 Bft)
27.05.2017 02:59 8,0 °C 8,0 °C 90 % 1018,2 hPa 0,0 mm 0,0 km/h (0 Bft) S-SO 167 ° 0 min 0,000 mm 0,0 UV-I 0 W/m² 6,5 °C 8,0 °C 0,0 km/h (0 Bft)
27.05.2017 03:00 8,0 °C 8,0 °C 90 % 1018,2 hPa 0,0 mm 0,0 km/h (0 Bft) S-SO 167 ° 0 min 0,000 mm 0,0 UV-I 0 W/m² 6,5 °C 8,0 °C 0,0 km/h (0 Bft)
27.05.2017 03:01 8,0 °C 8,0 °C 90 % 1018,2 hPa 0,0 mm 0,0 km/h (0 Bft) S-SO 167 ° 0 min 0,000 mm 0,0 UV-I 0 W/m² 6,5 °C 8,0 °C 0,0 km/h (0 Bft)
27.05.2017 03:02 7,9 °C 8,0 °C 90 % 1018,2 hPa 0,0 mm 0,0 km/h (0 Bft) S-SO 167 ° 0 min 0,000 mm 0,0 UV-I 0 W/m² 6,4 °C 7,9 °C 0,0 km/h (0 Bft)
27.05.2017 03:03 7,9 °C 7,9 °C 90 % 1018,2 hPa 0,0 mm 0,0 km/h (0 Bft) S-SO 167 ° 0 min 0,000 mm 0,0 UV-I 0 W/m² 6,4 °C 7,9 °C 0,0 km/h (0 Bft)
27.05.2017 03:04 7,9 °C 7,9 °C 90 % 1018,2 hPa 0,0 mm 0,0 km/h (0 Bft) S-SO 167 ° 0 min 0,000 mm 0,0 UV-I 0 W/m² 6,4 °C 7,9 °C 0,0 km/h (0 Bft)
27.05.2017 03:05 7,9 °C 7,9 °C 90 % 1018,2 hPa 0,0 mm 0,0 km/h (0 Bft) S-SO 167 ° 0 min 0,000 mm 0,0 UV-I 0 W/m² 6,4 °C 7,9 °C 0,0 km/h (0 Bft)
27.05.2017 03:06 8,0 °C 8,0 °C 90 % 1018,2 hPa 0,0 mm 0,0 km/h (0 Bft) S-SO 167 ° 0 min 0,000 mm 0,0 UV-I 0 W/m² 6,5 °C 8,0 °C 0,0 km/h (0 Bft)
27.05.2017 03:07 8,1 °C 8,1 °C 90 % 1018,1 hPa 0,0 mm 0,0 km/h (0 Bft) S-SO 167 ° 0 min 0,000 mm 0,0 UV-I 0 W/m² 6,6 °C 8,1 °C 0,0 km/h (0 Bft)
27.05.2017 03:08 8,0 °C 8,1 °C 90 % 1018,1 hPa 0,0 mm 0,0 km/h (0 Bft) S-SO 167 ° 0 min 0,000 mm 0,0 UV-I 0 W/m² 6,5 °C 8,0 °C 0,0 km/h (0 Bft)
27.05.2017 03:09 8,1 °C 8,1 °C 90 % 1018,1 hPa 0,0 mm 0,0 km/h (0 Bft) S-SO 167 ° 0 min 0,000 mm 0,0 UV-I 0 W/m² 6,6 °C 8,1 °C 0,0 km/h (0 Bft)
27.05.2017 03:10 8,1 °C 8,1 °C 90 % 1018,1 hPa 0,0 mm 0,0 km/h (0 Bft) S-SO 167 ° 0 min 0,000 mm 0,0 UV-I 0 W/m² 6,6 °C 8,1 °C 0,0 km/h (0 Bft)
27.05.2017 03:11 8,1 °C 8,1 °C 89 % 1018,0 hPa 0,0 mm 0,0 km/h (0 Bft) S-SO 167 ° 0 min 0,000 mm 0,0 UV-I 0 W/m² 6,4 °C 8,1 °C 0,0 km/h (0 Bft)
27.05.2017 03:12 8,1 °C 8,1 °C 89 % 1018,0 hPa 0,0 mm 0,0 km/h (0 Bft) S-SO 167 ° 0 min 0,000 mm 0,0 UV-I 0 W/m² 6,4 °C 8,1 °C 0,0 km/h (0 Bft)
27.05.2017 03:13 8,1 °C 8,1 °C 89 % 1018,0 hPa 0,0 mm 0,0 km/h (0 Bft) S-SO 167 ° 0 min 0,000 mm 0,0 UV-I 0 W/m² 6,4 °C 8,1 °C 0,0 km/h (0 Bft)
27.05.2017 03:14 8,1 °C 8,1 °C 89 % 1018,0 hPa 0,0 mm 0,0 km/h (0 Bft) S-SO 167 ° 0 min 0,000 mm 0,0 UV-I 0 W/m² 6,4 °C 8,1 °C 0,0 km/h (0 Bft)
27.05.2017 03:15 8,1 °C 8,1 °C 89 % 1018,1 hPa 0,0 mm 0,0 km/h (0 Bft) S-SO 167 ° 0 min 0,000 mm 0,0 UV-I 0 W/m² 6,4 °C 8,1 °C 0,0 km/h (0 Bft)
27.05.2017 03:16 8,1 °C 8,1 °C 89 % 1018,1 hPa 0,0 mm 0,0 km/h (0 Bft) S-SO 167 ° 0 min 0,000 mm 0,0 UV-I 0 W/m² 6,4 °C 8,1 °C 0,0 km/h (0 Bft)
27.05.2017 03:17 7,9 °C 8,1 °C 89 % 1018,1 hPa 0,0 mm 0,0 km/h (0 Bft) S-SO 167 ° 0 min 0,000 mm 0,0 UV-I 0 W/m² 6,2 °C 7,9 °C 0,0 km/h (0 Bft)
27.05.2017 03:18 7,9 °C 7,9 °C 89 % 1018,1 hPa 0,0 mm 0,0 km/h (0 Bft) S-SO 167 ° 0 min 0,000 mm 0,0 UV-I 0 W/m² 6,2 °C 7,9 °C 0,0 km/h (0 Bft)
27.05.2017 03:19 7,8 °C 7,9 °C 90 % 1018,1 hPa 0,0 mm 0,0 km/h (0 Bft) S-SO 167 ° 0 min 0,000 mm 0,0 UV-I 0 W/m² 6,3 °C 7,8 °C 0,0 km/h (0 Bft)
27.05.2017 03:20 7,8 °C 7,9 °C 90 % 1018,1 hPa 0,0 mm 0,0 km/h (0 Bft) S-SO 167 ° 0 min 0,000 mm 0,0 UV-I 0 W/m² 6,3 °C 7,8 °C 0,0 km/h (0 Bft)
27.05.2017 03:21 7,8 °C 7,8 °C 90 % 1018,1 hPa 0,0 mm 0,0 km/h (0 Bft) S-SO 167 ° 0 min 0,000 mm 0,0 UV-I 0 W/m² 6,3 °C 7,8 °C 0,0 km/h (0 Bft)
27.05.2017 03:22 7,8 °C 7,8 °C 90 % 1018,1 hPa 0,0 mm 0,0 km/h (0 Bft) S-SO 167 ° 0 min 0,000 mm 0,0 UV-I 0 W/m² 6,3 °C 7,8 °C 0,0 km/h (0 Bft)
27.05.2017 03:23 7,7 °C 7,8 °C 89 % 1018,1 hPa 0,0 mm 0,0 km/h (0 Bft) S-SO 167 ° 0 min 0,000 mm 0,0 UV-I 0 W/m² 6,0 °C 7,7 °C 0,0 km/h (0 Bft)
27.05.2017 03:24 7,7 °C 7,7 °C 90 % 1018,1 hPa 0,0 mm 0,0 km/h (0 Bft) S-SO 167 ° 0 min 0,000 mm 0,0 UV-I 0 W/m² 6,2 °C 7,7 °C 0,0 km/h (0 Bft)
27.05.2017 03:25 7,7 °C 7,7 °C 91 % 1018,1 hPa 0,0 mm 0,0 km/h (0 Bft) S-SO 167 ° 0 min 0,000 mm 0,0 UV-I 0 W/m² 6,3 °C 7,7 °C 0,0 km/h (0 Bft)
27.05.2017 03:26 7,7 °C 7,7 °C 91 % 1018,1 hPa 0,0 mm 0,0 km/h (0 Bft) S-SO 167 ° 0 min 0,000 mm 0,0 UV-I 0 W/m² 6,3 °C 7,7 °C 0,0 km/h (0 Bft)
27.05.2017 03:27 7,7 °C 7,7 °C 91 % 1018,0 hPa 0,0 mm 0,0 km/h (0 Bft) S-SO 167 ° 0 min 0,000 mm 0,0 UV-I 0 W/m² 6,3 °C 7,7 °C 0,0 km/h (0 Bft)
27.05.2017 03:28 7,7 °C 7,7 °C 91 % 1018,0 hPa 0,0 mm 0,0 km/h (0 Bft) S-SO 167 ° 0 min 0,000 mm 0,0 UV-I 0 W/m² 6,3 °C 7,7 °C 0,0 km/h (0 Bft)
27.05.2017 03:29 7,7 °C 7,7 °C 91 % 1018,0 hPa 0,0 mm 0,0 km/h (0 Bft) S-SO 167 ° 0 min 0,000 mm 0,0 UV-I 0 W/m² 6,3 °C 7,7 °C 0,0 km/h (0 Bft)
27.05.2017 03:30 7,7 °C 7,7 °C 91 % 1018,0 hPa 0,0 mm 0,0 km/h (0 Bft) S-SO 167 ° 0 min 0,000 mm 0,0 UV-I 0 W/m² 6,3 °C 7,7 °C 0,0 km/h (0 Bft)
27.05.2017 03:31 7,7 °C 7,7 °C 91 % 1018,0 hPa 0,0 mm 0,0 km/h (0 Bft) S-SO 167 ° 0 min 0,000 mm 0,0 UV-I 0 W/m² 6,3 °C 7,7 °C 0,0 km/h (0 Bft)
27.05.2017 03:32 7,7 °C 7,7 °C 91 % 1018,0 hPa 0,0 mm 0,0 km/h (0 Bft) S-SO 167 ° 0 min 0,000 mm 0,0 UV-I 0 W/m² 6,3 °C 7,7 °C 0,0 km/h (0 Bft)
27.05.2017 03:33 7,7 °C 7,7 °C 91 % 1018,0 hPa 0,0 mm 0,0 km/h (0 Bft) S-SO 167 ° 0 min 0,000 mm 0,0 UV-I 0 W/m² 6,3 °C 7,7 °C 0,0 km/h (0 Bft)
27.05.2017 03:34 7,7 °C 7,7 °C 91 % 1018,1 hPa 0,0 mm 0,0 km/h (0 Bft) S-SO 167 ° 0 min 0,000 mm 0,0 UV-I 0 W/m² 6,3 °C 7,7 °C 0,0 km/h (0 Bft)
27.05.2017 03:35 7,7 °C 7,7 °C 91 % 1018,1 hPa 0,0 mm 0,0 km/h (0 Bft) S-SO 167 ° 0 min 0,000 mm 0,0 UV-I 0 W/m² 6,3 °C 7,7 °C 0,0 km/h (0 Bft)
27.05.2017 03:36 7,6 °C 7,7 °C 91 % 1018,1 hPa 0,0 mm 0,0 km/h (0 Bft) S-SO 167 ° 0 min 0,000 mm 0,0 UV-I 0 W/m² 6,2 °C 7,6 °C 0,0 km/h (0 Bft)
27.05.2017 03:37 7,6 °C 7,6 °C 91 % 1018,1 hPa 0,0 mm 0,0 km/h (0 Bft) S-SO 167 ° 0 min 0,000 mm 0,0 UV-I 0 W/m² 6,2 °C 7,6 °C 0,0 km/h (0 Bft)
27.05.2017 03:38 7,6 °C 7,6 °C 91 % 1018,1 hPa 0,0 mm 0,0 km/h (0 Bft) S-SO 167 ° 0 min 0,000 mm 0,0 UV-I 0 W/m² 6,2 °C 7,6 °C 0,0 km/h (0 Bft)
27.05.2017 03:39 7,7 °C 7,7 °C 91 % 1018,1 hPa 0,0 mm 0,0 km/h (0 Bft) S-SO 167 ° 0 min 0,000 mm 0,0 UV-I 0 W/m² 6,3 °C 7,7 °C 0,0 km/h (0 Bft)
27.05.2017 03:40 7,7 °C 7,7 °C 92 % 1018,0 hPa 0,0 mm 0,0 km/h (0 Bft) S-SO 167 ° 0 min 0,000 mm 0,0 UV-I 0 W/m² 6,5 °C 7,7 °C 0,0 km/h (0 Bft)
27.05.2017 03:41 7,7 °C 7,7 °C 91 % 1018,0 hPa 0,0 mm 0,0 km/h (0 Bft) S-SO 167 ° 0 min 0,000 mm 0,0 UV-I 0 W/m² 6,3 °C 7,7 °C 0,0 km/h (0 Bft)
27.05.2017 03:42 7,7 °C 7,7 °C 91 % 1018,0 hPa 0,0 mm 0,0 km/h (0 Bft) S-SO 167 ° 0 min 0,000 mm 0,0 UV-I 0 W/m² 6,3 °C 7,7 °C 0,0 km/h (0 Bft)
27.05.2017 03:43 7,6 °C 7,7 °C 91 % 1018,0 hPa 0,0 mm 0,0 km/h (0 Bft) S-SO 167 ° 0 min 0,000 mm 0,0 UV-I 0 W/m² 6,2 °C 7,6 °C 0,0 km/h (0 Bft)
27.05.2017 03:44 7,6 °C 7,6 °C 91 % 1018,0 hPa 0,0 mm 0,0 km/h (0 Bft) S-SO 167 ° 0 min 0,000 mm 0,0 UV-I 0 W/m² 6,2 °C 7,6 °C 0,0 km/h (0 Bft)
27.05.2017 03:45 7,6 °C 7,6 °C 91 % 1018,0 hPa 0,0 mm 0,0 km/h (0 Bft) S-SO 167 ° 0 min 0,000 mm 0,0 UV-I 0 W/m² 6,2 °C 7,6 °C 0,0 km/h (0 Bft)
27.05.2017 03:46 7,5 °C 7,6 °C 91 % 1018,0 hPa 0,0 mm 0,0 km/h (0 Bft) S-SO 167 ° 0 min 0,000 mm 0,0 UV-I 0 W/m² 6,1 °C 7,5 °C 0,0 km/h (0 Bft)
27.05.2017 03:47 7,6 °C 7,6 °C 92 % 1018,0 hPa 0,0 mm 0,0 km/h (0 Bft) S-SO 167 ° 0 min 0,000 mm 0,0 UV-I 0 W/m² 6,4 °C 7,6 °C 0,0 km/h (0 Bft)
27.05.2017 03:48 7,6 °C 7,6 °C 92 % 1018,0 hPa 0,0 mm 0,0 km/h (0 Bft) S-SO 167 ° 0 min 0,000 mm 0,0 UV-I 0 W/m² 6,4 °C 7,6 °C 0,0 km/h (0 Bft)
27.05.2017 03:49 7,6 °C 7,6 °C 92 % 1018,0 hPa 0,0 mm 0,0 km/h (0 Bft) S-SO 167 ° 0 min 0,000 mm 0,0 UV-I 0 W/m² 6,4 °C 7,6 °C 0,0 km/h (0 Bft)
27.05.2017 03:50 7,6 °C 7,6 °C 92 % 1018,1 hPa 0,0 mm 0,0 km/h (0 Bft) S-SO 167 ° 0 min 0,000 mm 0,0 UV-I 0 W/m² 6,4 °C 7,6 °C 0,0 km/h (0 Bft)
27.05.2017 03:51 7,6 °C 7,6 °C 92 % 1018,1 hPa 0,0 mm 0,0 km/h (0 Bft) S-SO 167 ° 0 min 0,000 mm 0,0 UV-I 0 W/m² 6,4 °C 7,6 °C 0,0 km/h (0 Bft)
27.05.2017 03:52 7,4 °C 7,6 °C 92 % 1018,0 hPa 0,0 mm 0,0 km/h (0 Bft) S-SO 167 ° 0 min 0,000 mm 0,0 UV-I 0 W/m² 6,2 °C 7,4 °C 0,0 km/h (0 Bft)
27.05.2017 03:53 7,4 °C 7,4 °C 91 % 1018,0 hPa 0,0 mm 0,0 km/h (0 Bft) S-SO 167 ° 0 min 0,000 mm 0,0 UV-I 0 W/m² 6,0 °C 7,4 °C 0,0 km/h (0 Bft)
27.05.2017 03:54 7,4 °C 7,4 °C 92 % 1018,0 hPa 0,0 mm 0,0 km/h (0 Bft) S-SO 167 ° 0 min 0,000 mm 0,0 UV-I 0 W/m² 6,2 °C 7,4 °C 0,0 km/h (0 Bft)
27.05.2017 03:55 7,4 °C 7,4 °C 92 % 1018,0 hPa 0,0 mm 0,0 km/h (0 Bft) S-SO 167 ° 0 min 0,000 mm 0,0 UV-I 0 W/m² 6,2 °C 7,4 °C 0,0 km/h (0 Bft)
27.05.2017 03:56 7,4 °C 7,4 °C 92 % 1018,0 hPa 0,0 mm 0,0 km/h (0 Bft) S-SO 167 ° 0 min 0,000 mm 0,0 UV-I 0 W/m² 6,2 °C 7,4 °C 0,0 km/h (0 Bft)
27.05.2017 03:57 7,4 °C 7,4 °C 92 % 1018,0 hPa 0,0 mm 0,0 km/h (0 Bft) S-SO 167 ° 0 min 0,000 mm 0,0 UV-I 0 W/m² 6,2 °C 7,4 °C 0,0 km/h (0 Bft)
27.05.2017 03:58 7,3 °C 7,4 °C 92 % 1018,0 hPa 0,0 mm 0,0 km/h (0 Bft) S-SO 167 ° 0 min 0,000 mm 0,0 UV-I 0 W/m² 6,1 °C 7,3 °C 0,0 km/h (0 Bft)
27.05.2017 03:59 7,3 °C 7,3 °C 92 % 1018,0 hPa 0,0 mm 0,0 km/h (0 Bft) S-SO 167 ° 0 min 0,000 mm 0,0 UV-I 0 W/m² 6,1 °C 7,3 °C 0,0 km/h (0 Bft)
27.05.2017 04:00 7,3 °C 7,3 °C 92 % 1018,0 hPa 0,0 mm 0,0 km/h (0 Bft) S-SO 167 ° 0 min 0,000 mm 0,0 UV-I 0 W/m² 6,1 °C 7,3 °C 0,0 km/h (0 Bft)
27.05.2017 04:01 7,2 °C 7,3 °C 92 % 1018,0 hPa 0,0 mm 0,0 km/h (0 Bft) S-SO 167 ° 0 min 0,000 mm 0,0 UV-I 0 W/m² 6,0 °C 7,2 °C 0,0 km/h (0 Bft)
27.05.2017 04:02 7,2 °C 7,2 °C 92 % 1018,0 hPa 0,0 mm 0,0 km/h (0 Bft) S-SO 167 ° 0 min 0,000 mm 0,0 UV-I 0 W/m² 6,0 °C 7,2 °C 0,0 km/h (0 Bft)
27.05.2017 04:03 7,1 °C 7,2 °C 92 % 1018,0 hPa 0,0 mm 0,0 km/h (0 Bft) S-SO 167 ° 0 min 0,000 mm 0,0 UV-I 0 W/m² 5,9 °C 7,1 °C 0,0 km/h (0 Bft)
27.05.2017 04:04 7,1 °C 7,1 °C 92 % 1018,0 hPa 0,0 mm 0,0 km/h (0 Bft) S-SO 167 ° 0 min 0,000 mm 0,0 UV-I 0 W/m² 5,9 °C 7,1 °C 0,0 km/h (0 Bft)
27.05.2017 04:05 7,1 °C 7,1 °C 92 % 1018,0 hPa 0,0 mm 0,0 km/h (0 Bft) S-SO 167 ° 0 min 0,000 mm 0,0 UV-I 0 W/m² 5,9 °C 7,1 °C 0,0 km/h (0 Bft)
27.05.2017 04:06 7,0 °C 7,1 °C 92 % 1018,0 hPa 0,0 mm 0,0 km/h (0 Bft) S-SO 167 ° 0 min 0,000 mm 0,0 UV-I 0 W/m² 5,8 °C 7,0 °C 0,0 km/h (0 Bft)
27.05.2017 04:07 6,9 °C 7,0 °C 92 % 1018,0 hPa 0,0 mm 0,0 km/h (0 Bft) S-SO 167 ° 0 min 0,000 mm 0,0 UV-I 0 W/m² 5,7 °C 6,9 °C 0,0 km/h (0 Bft)
27.05.2017 04:08 6,9 °C 6,9 °C 92 % 1018,0 hPa 0,0 mm 0,0 km/h (0 Bft) S-SO 167 ° 0 min 0,000 mm 0,0 UV-I 0 W/m² 5,7 °C 6,9 °C 0,0 km/h (0 Bft)
27.05.2017 04:09 6,9 °C 6,9 °C 92 % 1018,0 hPa 0,0 mm 0,0 km/h (0 Bft) S-SO 167 ° 0 min 0,000 mm 0,0 UV-I 0 W/m² 5,7 °C 6,9 °C 0,0 km/h (0 Bft)
27.05.2017 04:10 7,0 °C 7,0 °C 92 % 1018,0 hPa 0,0 mm 0,0 km/h (0 Bft) S-SO 167 ° 0 min 0,000 mm 0,0 UV-I 0 W/m² 5,8 °C 7,0 °C 0,0 km/h (0 Bft)
27.05.2017 04:11 7,0 °C 7,0 °C 92 % 1018,0 hPa 0,0 mm 0,0 km/h (0 Bft) S-SO 167 ° 0 min 0,000 mm 0,0 UV-I 0 W/m² 5,8 °C 7,0 °C 0,0 km/h (0 Bft)
27.05.2017 04:12 7,0 °C 7,0 °C 92 % 1018,0 hPa 0,0 mm 0,0 km/h (0 Bft) S-SO 167 ° 0 min 0,000 mm 0,0 UV-I 0 W/m² 5,8 °C 7,0 °C 0,0 km/h (0 Bft)
27.05.2017 04:13 7,1 °C 7,1 °C 92 % 1018,0 hPa 0,0 mm 0,0 km/h (0 Bft) S-SO 167 ° 0 min 0,000 mm 0,0 UV-I 0 W/m² 5,9 °C 7,1 °C 0,0 km/h (0 Bft)
27.05.2017 04:14 7,1 °C 7,1 °C 92 % 1017,9 hPa 0,0 mm 0,0 km/h (0 Bft) S-SO 167 ° 0 min 0,000 mm 0,0 UV-I 0 W/m² 5,9 °C 7,1 °C 0,0 km/h (0 Bft)
27.05.2017 04:15 7,1 °C 7,1 °C 92 % 1018,0 hPa 0,0 mm 0,0 km/h (0 Bft) S-SO 167 ° 0 min 0,000 mm 0,0 UV-I 0 W/m² 5,9 °C 7,1 °C 0,0 km/h (0 Bft)
27.05.2017 04:16 7,1 °C 7,1 °C 92 % 1017,9 hPa 0,0 mm 0,0 km/h (0 Bft) S-SO 167 ° 0 min 0,000 mm 0,0 UV-I 0 W/m² 5,9 °C 7,1 °C 0,0 km/h (0 Bft)
27.05.2017 04:17 7,1 °C 7,1 °C 92 % 1017,9 hPa 0,0 mm 0,0 km/h (0 Bft) S-SO 167 ° 0 min 0,000 mm 0,0 UV-I 0 W/m² 5,9 °C 7,1 °C 0,0 km/h (0 Bft)
27.05.2017 04:18 7,1 °C 7,1 °C 92 % 1018,0 hPa 0,0 mm 0,0 km/h (0 Bft) S-SO 167 ° 0 min 0,000 mm 0,0 UV-I 0 W/m² 5,9 °C 7,1 °C 0,0 km/h (0 Bft)
27.05.2017 04:19 7,0 °C 7,1 °C 92 % 1018,0 hPa 0,0 mm 0,0 km/h (0 Bft) S-SO 167 ° 0 min 0,000 mm 0,0 UV-I 0 W/m² 5,8 °C 7,0 °C 0,0 km/h (0 Bft)
27.05.2017 04:20 7,0 °C 7,0 °C 92 % 1018,0 hPa 0,0 mm 0,0 km/h (0 Bft) S-SO 167 ° 0 min 0,000 mm 0,0 UV-I 0 W/m² 5,8 °C 7,0 °C 0,0 km/h (0 Bft)
27.05.2017 04:21 7,0 °C 7,0 °C 92 % 1018,0 hPa 0,0 mm 0,0 km/h (0 Bft) S-SO 167 ° 0 min 0,000 mm 0,0 UV-I 0 W/m² 5,8 °C 7,0 °C 0,0 km/h (0 Bft)
27.05.2017 04:22 6,9 °C 7,0 °C 92 % 1018,0 hPa 0,0 mm 0,0 km/h (0 Bft) S-SO 167 ° 0 min 0,000 mm 0,0 UV-I 0 W/m² 5,7 °C 6,9 °C 0,0 km/h (0 Bft)
27.05.2017 04:23 6,9 °C 6,9 °C 92 % 1018,0 hPa 0,0 mm 0,0 km/h (0 Bft) S-SO 167 ° 0 min 0,000 mm 0,0 UV-I 0 W/m² 5,7 °C 6,9 °C 0,0 km/h (0 Bft)
27.05.2017 04:24 6,9 °C 7,0 °C 93 % 1018,0 hPa 0,0 mm 0,0 km/h (0 Bft) S-SO 167 ° 0 min 0,000 mm 0,0 UV-I 0 W/m² 5,8 °C 6,9 °C 0,0 km/h (0 Bft)
27.05.2017 04:25 7,0 °C 7,0 °C 93 % 1018,0 hPa 0,0 mm 0,0 km/h (0 Bft) S-SO 167 ° 0 min 0,000 mm 0,0 UV-I 0 W/m² 5,9 °C 7,0 °C 0,0 km/h (0 Bft)
27.05.2017 04:26 7,0 °C 7,1 °C 93 % 1017,9 hPa 0,0 mm 0,0 km/h (0 Bft) S-SO 167 ° 0 min 0,000 mm 0,0 UV-I 0 W/m² 5,9 °C 7,0 °C 0,0 km/h (0 Bft)
27.05.2017 04:27 7,1 °C 7,1 °C 93 % 1017,9 hPa 0,0 mm 0,0 km/h (0 Bft) S-SO 167 ° 0 min 0,000 mm 0,0 UV-I 0 W/m² 6,0 °C 7,1 °C 0,0 km/h (0 Bft)
27.05.2017 04:28 7,1 °C 7,1 °C 93 % 1017,9 hPa 0,0 mm 0,0 km/h (0 Bft) S-SO 167 ° 0 min 0,000 mm 0,0 UV-I 0 W/m² 6,0 °C 7,1 °C 0,0 km/h (0 Bft)
27.05.2017 04:29 7,1 °C 7,2 °C 93 % 1017,9 hPa 0,0 mm 0,0 km/h (0 Bft) S-SO 167 ° 0 min 0,000 mm 0,0 UV-I 0 W/m² 6,0 °C 7,1 °C 0,0 km/h (0 Bft)
27.05.2017 04:30 7,1 °C 7,2 °C 92 % 1017,9 hPa 0,0 mm 0,0 km/h (0 Bft) S-SO 167 ° 0 min 0,000 mm 0,0 UV-I 0 W/m² 5,9 °C 7,1 °C 0,0 km/h (0 Bft)
27.05.2017 04:31 6,9 °C 7,1 °C 92 % 1017,9 hPa 0,0 mm 0,0 km/h (0 Bft) S-SO 167 ° 0 min 0,000 mm 0,0 UV-I 0 W/m² 5,7 °C 6,9 °C 0,0 km/h (0 Bft)
27.05.2017 04:32 6,9 °C 7,0 °C 92 % 1017,9 hPa 0,0 mm 0,0 km/h (0 Bft) S-SO 167 ° 0 min 0,000 mm 0,0 UV-I 0 W/m² 5,7 °C 6,9 °C 0,0 km/h (0 Bft)
27.05.2017 04:33 6,8 °C 6,9 °C 92 % 1017,9 hPa 0,0 mm 0,0 km/h (0 Bft) S-SO 167 ° 0 min 0,000 mm 0,0 UV-I 0 W/m² 5,6 °C 6,8 °C 0,0 km/h (0 Bft)
27.05.2017 04:34 6,8 °C 6,8 °C 92 % 1017,9 hPa 0,0 mm 0,0 km/h (0 Bft) S-SO 167 ° 0 min 0,000 mm 0,0 UV-I 0 W/m² 5,6 °C 6,8 °C 0,0 km/h (0 Bft)
27.05.2017 04:35 6,8 °C 6,8 °C 92 % 1017,9 hPa 0,0 mm 0,0 km/h (0 Bft) S-SO 167 ° 0 min 0,000 mm 0,0 UV-I 0 W/m² 5,6 °C 6,8 °C 0,0 km/h (0 Bft)
27.05.2017 04:36 6,8 °C 6,8 °C 92 % 1017,9 hPa 0,0 mm 0,0 km/h (0 Bft) S-SO 167 ° 0 min 0,000 mm 0,0 UV-I 0 W/m² 5,6 °C 6,8 °C 0,0 km/h (0 Bft)
27.05.2017 04:37 6,8 °C 6,8 °C 92 % 1017,9 hPa 0,0 mm 0,0 km/h (0 Bft) S-SO 167 ° 0 min 0,000 mm 0,0 UV-I 0 W/m² 5,6 °C 6,8 °C 0,0 km/h (0 Bft)
27.05.2017 04:38 6,8 °C 6,8 °C 93 % 1017,9 hPa 0,0 mm 0,0 km/h (0 Bft) S-SO 167 ° 0 min 0,000 mm 0,0 UV-I 0 W/m² 5,7 °C 6,8 °C 0,0 km/h (0 Bft)
27.05.2017 04:39 6,7 °C 6,8 °C 92 % 1017,9 hPa 0,0 mm 0,0 km/h (0 Bft) S-SO 167 ° 0 min 0,000 mm 0,0 UV-I 0 W/m² 5,5 °C 6,7 °C 0,0 km/h (0 Bft)
27.05.2017 04:40 6,7 °C 6,7 °C 92 % 1017,9 hPa 0,0 mm 0,0 km/h (0 Bft) S-SO 167 ° 0 min 0,000 mm 0,0 UV-I 0 W/m² 5,5 °C 6,7 °C 0,0 km/h (0 Bft)
27.05.2017 04:41 6,6 °C 6,7 °C 92 % 1017,9 hPa 0,0 mm 0,0 km/h (0 Bft) S-SO 167 ° 0 min 0,000 mm 0,0 UV-I 0 W/m² 5,4 °C 6,6 °C 0,0 km/h (0 Bft)
27.05.2017 04:42 6,6 °C 6,6 °C 92 % 1017,8 hPa 0,0 mm 0,0 km/h (0 Bft) S-SO 167 ° 0 min 0,000 mm 0,0 UV-I 0 W/m² 5,4 °C 6,6 °C 0,0 km/h (0 Bft)
27.05.2017 04:43 6,6 °C 6,6 °C 92 % 1017,9 hPa 0,0 mm 0,0 km/h (0 Bft) S-SO 167 ° 0 min 0,000 mm 0,0 UV-I 0 W/m² 5,4 °C 6,6 °C 0,0 km/h (0 Bft)
27.05.2017 04:44 6,6 °C 6,6 °C 92 % 1017,9 hPa 0,0 mm 0,0 km/h (0 Bft) S-SO 167 ° 0 min 0,000 mm 0,0 UV-I 0 W/m² 5,4 °C 6,6 °C 0,0 km/h (0 Bft)
27.05.2017 04:45 6,6 °C 6,6 °C 92 % 1017,8 hPa 0,0 mm 0,0 km/h (0 Bft) S-SO 167 ° 0 min 0,000 mm 0,0 UV-I 0 W/m² 5,4 °C 6,6 °C 0,0 km/h (0 Bft)
27.05.2017 04:46 6,7 °C 6,7 °C 93 % 1017,9 hPa 0,0 mm 0,0 km/h (0 Bft) S-SO 167 ° 0 min 0,000 mm 0,0 UV-I 0 W/m² 5,6 °C 6,7 °C 0,0 km/h (0 Bft)
27.05.2017 04:47 6,7 °C 6,7 °C 93 % 1017,8 hPa 0,0 mm 0,0 km/h (0 Bft) S-SO 167 ° 0 min 0,000 mm 0,0 UV-I 0 W/m² 5,6 °C 6,7 °C 0,0 km/h (0 Bft)
27.05.2017 04:48 6,7 °C 6,7 °C 93 % 1017,9 hPa 0,0 mm 0,0 km/h (0 Bft) S-SO 167 ° 0 min 0,000 mm 0,0 UV-I 0 W/m² 5,6 °C 6,7 °C 0,0 km/h (0 Bft)
27.05.2017 04:49 6,7 °C 6,7 °C 93 % 1017,8 hPa 0,0 mm 0,0 km/h (0 Bft) S-SO 167 ° 0 min 0,000 mm 0,0 UV-I 0 W/m² 5,6 °C 6,7 °C 0,0 km/h (0 Bft)
27.05.2017 04:50 6,8 °C 6,8 °C 93 % 1017,8 hPa 0,0 mm 0,0 km/h (0 Bft) S-SO 167 ° 0 min 0,000 mm 0,0 UV-I 0 W/m² 5,7 °C 6,8 °C 0,0 km/h (0 Bft)
27.05.2017 04:51 6,9 °C 6,9 °C 93 % 1017,8 hPa 0,0 mm 0,0 km/h (0 Bft) S-SO 167 ° 0 min 0,000 mm 0,0 UV-I 0 W/m² 5,8 °C 6,9 °C 0,0 km/h (0 Bft)
27.05.2017 04:52 6,9 °C 6,9 °C 93 % 1017,8 hPa 0,0 mm 0,0 km/h (0 Bft) S-SO 167 ° 0 min 0,000 mm 0,0 UV-I 0 W/m² 5,8 °C 6,9 °C 0,0 km/h (0 Bft)
27.05.2017 04:53 6,9 °C 6,9 °C 93 % 1017,8 hPa 0,0 mm 0,0 km/h (0 Bft) S-SO 167 ° 0 min 0,000 mm 0,0 UV-I 0 W/m² 5,8 °C 6,9 °C 0,0 km/h (0 Bft)
27.05.2017 04:54 6,9 °C 6,9 °C 93 % 1017,8 hPa 0,0 mm 0,0 km/h (0 Bft) S-SO 167 ° 0 min 0,000 mm 0,0 UV-I 0 W/m² 5,8 °C 6,9 °C 0,0 km/h (0 Bft)
27.05.2017 04:55 6,9 °C 6,9 °C 93 % 1017,8 hPa 0,0 mm 0,0 km/h (0 Bft) S-SO 167 ° 0 min 0,000 mm 0,0 UV-I 0 W/m² 5,8 °C 6,9 °C 0,0 km/h (0 Bft)
27.05.2017 04:56 6,8 °C 6,9 °C 93 % 1017,7 hPa 0,0 mm 0,0 km/h (0 Bft) S-SO 167 ° 0 min 0,000 mm 0,0 UV-I 0 W/m² 5,7 °C 6,8 °C 0,0 km/h (0 Bft)
27.05.2017 04:57 6,8 °C 6,9 °C 93 % 1017,8 hPa 0,0 mm 0,0 km/h (0 Bft) S-SO 167 ° 0 min 0,000 mm 0,0 UV-I 0 W/m² 5,7 °C 6,8 °C 0,0 km/h (0 Bft)
27.05.2017 04:58 6,8 °C 6,9 °C 93 % 1017,7 hPa 0,0 mm 0,0 km/h (0 Bft) S-SO 167 ° 0 min 0,000 mm 0,0 UV-I 0 W/m² 5,7 °C 6,8 °C 0,0 km/h (0 Bft)
27.05.2017 04:59 6,8 °C 6,8 °C 93 % 1017,7 hPa 0,0 mm 0,0 km/h (0 Bft) S-SO 167 ° 0 min 0,000 mm 0,0 UV-I 0 W/m² 5,7 °C 6,8 °C 0,0 km/h (0 Bft)
27.05.2017 05:00 6,8 °C 6,8 °C 93 % 1017,7 hPa 0,0 mm 0,0 km/h (0 Bft) S-SO 167 ° 0 min 0,000 mm 0,0 UV-I 0 W/m² 5,7 °C 6,8 °C 0,0 km/h (0 Bft)
27.05.2017 05:01 6,8 °C 6,8 °C 93 % 1017,7 hPa 0,0 mm 0,0 km/h (0 Bft) S-SO 167 ° 0 min 0,000 mm 0,0 UV-I 0 W/m² 5,7 °C 6,8 °C 0,0 km/h (0 Bft)
27.05.2017 05:02 6,8 °C 6,8 °C 93 % 1017,7 hPa 0,0 mm 0,0 km/h (0 Bft) S-SO 167 ° 0 min 0,000 mm 0,0 UV-I 0 W/m² 5,7 °C 6,8 °C 0,0 km/h (0 Bft)
27.05.2017 05:03 6,7 °C 6,8 °C 93 % 1017,7 hPa 0,0 mm 0,0 km/h (0 Bft) S-SO 167 ° 0 min 0,000 mm 0,0 UV-I 0 W/m² 5,6 °C 6,7 °C 0,0 km/h (0 Bft)
27.05.2017 05:04 6,8 °C 6,8 °C 93 % 1017,7 hPa 0,0 mm 0,0 km/h (0 Bft) S-SO 167 ° 0 min 0,000 mm 0,0 UV-I 0 W/m² 5,7 °C 6,8 °C 0,0 km/h (0 Bft)
27.05.2017 05:05 6,8 °C 6,8 °C 93 % 1017,7 hPa 0,0 mm 0,0 km/h (0 Bft) S-SO 167 ° 0 min 0,000 mm 0,0 UV-I 0 W/m² 5,7 °C 6,8 °C 0,0 km/h (0 Bft)
27.05.2017 05:06 6,8 °C 6,8 °C 93 % 1017,7 hPa 0,0 mm 0,0 km/h (0 Bft) S-SO 167 ° 0 min 0,000 mm 0,0 UV-I 0 W/m² 5,7 °C 6,8 °C 0,0 km/h (0 Bft)
27.05.2017 05:07 6,8 °C 6,8 °C 93 % 1017,7 hPa 0,0 mm 0,0 km/h (0 Bft) S-SO 167 ° 0 min 0,000 mm 0,0 UV-I 0 W/m² 5,7 °C 6,8 °C 0,0 km/h (0 Bft)
27.05.2017 05:08 6,8 °C 6,8 °C 93 % 1017,7 hPa 0,0 mm 0,0 km/h (0 Bft) S-SO 167 ° 0 min 0,000 mm 0,0 UV-I 0 W/m² 5,7 °C 6,8 °C 0,0 km/h (0 Bft)
27.05.2017 05:09 6,8 °C 6,8 °C 93 % 1017,7 hPa 0,0 mm 0,0 km/h (0 Bft) S-SO 167 ° 0 min 0,000 mm 0,0 UV-I 0 W/m² 5,7 °C 6,8 °C 0,0 km/h (0 Bft)
27.05.2017 05:10 6,8 °C 6,8 °C 93 % 1017,8 hPa 0,0 mm 0,0 km/h (0 Bft) S-SO 167 ° 0 min 0,000 mm 0,0 UV-I 0 W/m² 5,7 °C 6,8 °C 0,0 km/h (0 Bft)
27.05.2017 05:11 6,8 °C 6,8 °C 93 % 1017,7 hPa 0,0 mm 0,0 km/h (0 Bft) S-SO 167 ° 0 min 0,000 mm 0,0 UV-I 0 W/m² 5,7 °C 6,8 °C 0,0 km/h (0 Bft)
27.05.2017 05:12 6,7 °C 6,8 °C 93 % 1017,8 hPa 0,0 mm 0,0 km/h (0 Bft) S-SO 167 ° 0 min 0,000 mm 0,0 UV-I 0 W/m² 5,6 °C 6,7 °C 0,0 km/h (0 Bft)
27.05.2017 05:13 6,6 °C 6,7 °C 92 % 1017,7 hPa 0,0 mm 0,0 km/h (0 Bft) S-SO 167 ° 0 min 0,000 mm 0,0 UV-I 0 W/m² 5,4 °C 6,6 °C 0,0 km/h (0 Bft)
27.05.2017 05:14 6,5 °C 6,6 °C 92 % 1017,8 hPa 0,0 mm 0,0 km/h (0 Bft) S-SO 167 ° 0 min 0,000 mm 0,0 UV-I 0 W/m² 5,3 °C 6,5 °C 0,0 km/h (0 Bft)
27.05.2017 05:15 6,4 °C 6,5 °C 93 % 1017,8 hPa 0,0 mm 0,0 km/h (0 Bft) S-SO 167 ° 0 min 0,000 mm 0,0 UV-I 0 W/m² 5,4 °C 6,4 °C 0,0 km/h (0 Bft)
27.05.2017 05:16 6,4 °C 6,4 °C 93 % 1017,8 hPa 0,0 mm 0,0 km/h (0 Bft) S-SO 167 ° 0 min 0,000 mm 0,0 UV-I 0 W/m² 5,4 °C 6,4 °C 0,0 km/h (0 Bft)
27.05.2017 05:17 6,5 °C 6,5 °C 93 % 1017,8 hPa 0,0 mm 0,0 km/h (0 Bft) S-SO 167 ° 0 min 0,000 mm 0,0 UV-I 0 W/m² 5,5 °C 6,5 °C 0,0 km/h (0 Bft)
27.05.2017 05:18 6,5 °C 6,5 °C 93 % 1017,8 hPa 0,0 mm 0,0 km/h (0 Bft) S-SO 167 ° 0 min 0,000 mm 0,0 UV-I 0 W/m² 5,5 °C 6,5 °C 0,0 km/h (0 Bft)
27.05.2017 05:19 6,6 °C 6,6 °C 93 % 1017,8 hPa 0,0 mm 0,0 km/h (0 Bft) S-SO 167 ° 0 min 0,000 mm 0,0 UV-I 0 W/m² 5,6 °C 6,6 °C 0,0 km/h (0 Bft)
27.05.2017 05:20 6,6 °C 6,6 °C 94 % 1017,8 hPa 0,0 mm 0,0 km/h (0 Bft) S-SO 167 ° 0 min 0,000 mm 0,0 UV-I 0 W/m² 5,7 °C 6,6 °C 0,0 km/h (0 Bft)
27.05.2017 05:21 6,7 °C 6,7 °C 94 % 1017,8 hPa 0,0 mm 0,0 km/h (0 Bft) S-SO 167 ° 0 min 0,000 mm 0,0 UV-I 0 W/m² 5,8 °C 6,7 °C 0,0 km/h (0 Bft)
27.05.2017 05:22 6,7 °C 6,7 °C 94 % 1017,8 hPa 0,0 mm 0,0 km/h (0 Bft) S-SO 167 ° 0 min 0,000 mm 0,0 UV-I 0 W/m² 5,8 °C 6,7 °C 0,0 km/h (0 Bft)
27.05.2017 05:23 6,8 °C 6,8 °C 94 % 1017,8 hPa 0,0 mm 0,0 km/h (0 Bft) S-SO 167 ° 0 min 0,000 mm 0,0 UV-I 0 W/m² 5,9 °C 6,8 °C 0,0 km/h (0 Bft)
27.05.2017 05:24 6,8 °C 6,8 °C 94 % 1017,8 hPa 0,0 mm 0,0 km/h (0 Bft) S-SO 167 ° 0 min 0,000 mm 0,0 UV-I 0 W/m² 5,9 °C 6,8 °C 0,0 km/h (0 Bft)
27.05.2017 05:25 6,8 °C 6,9 °C 94 % 1017,9 hPa 0,0 mm 0,0 km/h (0 Bft) S-SO 167 ° 0 min 0,000 mm 0,0 UV-I 0 W/m² 5,9 °C 6,8 °C 0,0 km/h (0 Bft)
27.05.2017 05:26 6,8 °C 6,9 °C 93 % 1017,9 hPa 0,0 mm 0,0 km/h (0 Bft) S-SO 167 ° 0 min 0,000 mm 0,0 UV-I 0 W/m² 5,7 °C 6,8 °C 0,0 km/h (0 Bft)
27.05.2017 05:27 6,8 °C 6,8 °C 93 % 1017,9 hPa 0,0 mm 0,0 km/h (0 Bft) S-SO 167 ° 0 min 0,000 mm 0,0 UV-I 0 W/m² 5,7 °C 6,8 °C 0,0 km/h (0 Bft)
27.05.2017 05:28 6,8 °C 6,8 °C 93 % 1017,9 hPa 0,0 mm 0,0 km/h (0 Bft) S-SO 167 ° 0 min 0,000 mm 0,0 UV-I 5 W/m² 5,7 °C 6,8 °C 0,0 km/h (0 Bft)
27.05.2017 05:29 6,8 °C 6,8 °C 93 % 1018,0 hPa 0,0 mm 0,0 km/h (0 Bft) S-SO 167 ° 0 min 0,000 mm 0,0 UV-I 5 W/m² 5,7 °C 6,8 °C 0,0 km/h (0 Bft)
27.05.2017 05:30 6,8 °C 6,8 °C 93 % 1018,0 hPa 0,0 mm 0,0 km/h (0 Bft) S-SO 167 ° 0 min 0,000 mm 0,0 UV-I 5 W/m² 5,7 °C 6,8 °C 0,0 km/h (0 Bft)
27.05.2017 05:31 6,8 °C 6,8 °C 93 % 1018,0 hPa 0,0 mm 0,0 km/h (0 Bft) S-SO 167 ° 0 min 0,000 mm 0,0 UV-I 5 W/m² 5,7 °C 6,8 °C 0,0 km/h (0 Bft)
27.05.2017 05:32 6,7 °C 6,8 °C 93 % 1018,0 hPa 0,0 mm 0,0 km/h (0 Bft) S-SO 167 ° 0 min 0,000 mm 0,0 UV-I 5 W/m² 5,6 °C 6,7 °C 0,0 km/h (0 Bft)
27.05.2017 05:33 6,7 °C 6,8 °C 93 % 1018,0 hPa 0,0 mm 0,0 km/h (0 Bft) S-SO 167 ° 0 min 0,000 mm 0,0 UV-I 7 W/m² 5,6 °C 6,7 °C 0,0 km/h (0 Bft)
27.05.2017 05:34 6,8 °C 6,8 °C 93 % 1017,9 hPa 0,0 mm 0,0 km/h (0 Bft) S-SO 167 ° 0 min 0,000 mm 0,0 UV-I 7 W/m² 5,7 °C 6,8 °C 0,0 km/h (0 Bft)
27.05.2017 05:35 6,8 °C 6,8 °C 93 % 1017,9 hPa 0,0 mm 0,0 km/h (0 Bft) S-SO 167 ° 0 min 0,000 mm 0,0 UV-I 7 W/m² 5,7 °C 6,8 °C 0,0 km/h (0 Bft)
27.05.2017 05:36 6,8 °C 6,8 °C 93 % 1017,9 hPa 0,0 mm 0,0 km/h (0 Bft) S-SO 167 ° 0 min 0,000 mm 0,0 UV-I 7 W/m² 5,7 °C 6,8 °C 0,0 km/h (0 Bft)
27.05.2017 05:37 6,8 °C 6,8 °C 93 % 1017,9 hPa 0,0 mm 0,0 km/h (0 Bft) S-SO 167 ° 0 min 0,000 mm 0,0 UV-I 9 W/m² 5,7 °C 6,8 °C 0,0 km/h (0 Bft)
27.05.2017 05:38 6,7 °C 6,8 °C 93 % 1017,9 hPa 0,0 mm 0,0 km/h (0 Bft) S-SO 167 ° 0 min 0,000 mm 0,0 UV-I 9 W/m² 5,6 °C 6,7 °C 0,0 km/h (0 Bft)
27.05.2017 05:39 6,6 °C 6,7 °C 92 % 1017,9 hPa 0,0 mm 0,0 km/h (0 Bft) S-SO 167 ° 0 min 0,000 mm 0,0 UV-I 9 W/m² 5,4 °C 6,6 °C 0,0 km/h (0 Bft)
27.05.2017 05:40 6,4 °C 6,6 °C 92 % 1017,9 hPa 0,0 mm 0,0 km/h (0 Bft) S-SO 167 ° 0 min 0,000 mm 0,0 UV-I 9 W/m² 5,2 °C 6,4 °C 0,0 km/h (0 Bft)
27.05.2017 05:41 6,4 °C 6,4 °C 92 % 1017,9 hPa 0,0 mm 0,0 km/h (0 Bft) S-SO 167 ° 0 min 0,000 mm 0,0 UV-I 11 W/m² 5,2 °C 6,4 °C 0,0 km/h (0 Bft)
27.05.2017 05:42 6,4 °C 6,4 °C 93 % 1017,9 hPa 0,0 mm 0,0 km/h (0 Bft) S-SO 167 ° 0 min 0,000 mm 0,0 UV-I 11 W/m² 5,4 °C 6,4 °C 0,0 km/h (0 Bft)
27.05.2017 05:43 6,4 °C 6,4 °C 93 % 1017,9 hPa 0,0 mm 0,0 km/h (0 Bft) S-SO 167 ° 0 min 0,000 mm 0,0 UV-I 11 W/m² 5,4 °C 6,4 °C 0,0 km/h (0 Bft)
27.05.2017 05:44 6,4 °C 6,4 °C 93 % 1017,9 hPa 0,0 mm 0,0 km/h (0 Bft) S-SO 167 ° 0 min 0,000 mm 0,0 UV-I 11 W/m² 5,4 °C 6,4 °C 0,0 km/h (0 Bft)
27.05.2017 05:45 6,4 °C 6,4 °C 93 % 1017,9 hPa 0,0 mm 0,0 km/h (0 Bft) S-SO 167 ° 0 min 0,000 mm 0,0 UV-I 11 W/m² 5,4 °C 6,4 °C 0,0 km/h (0 Bft)
27.05.2017 05:46 6,4 °C 6,4 °C 93 % 1017,9 hPa 0,0 mm 0,0 km/h (0 Bft) S-SO 167 ° 0 min 0,000 mm 0,0 UV-I 12 W/m² 5,4 °C 6,4 °C 0,0 km/h (0 Bft)
27.05.2017 05:47 6,4 °C 6,4 °C 93 % 1017,9 hPa 0,0 mm 0,0 km/h (0 Bft) S-SO 167 ° 0 min 0,000 mm 0,0 UV-I 12 W/m² 5,4 °C 6,4 °C 0,0 km/h (0 Bft)
27.05.2017 05:48 6,6 °C 6,6 °C 93 % 1017,9 hPa 0,0 mm 0,0 km/h (0 Bft) S-SO 167 ° 0 min 0,000 mm 0,0 UV-I 12 W/m² 5,6 °C 6,6 °C 0,0 km/h (0 Bft)
27.05.2017 05:49 6,7 °C 6,7 °C 94 % 1017,9 hPa 0,0 mm 0,0 km/h (0 Bft) S-SO 167 ° 0 min 0,000 mm 0,0 UV-I 14 W/m² 5,8 °C 6,7 °C 0,0 km/h (0 Bft)
27.05.2017 05:50 6,7 °C 6,7 °C 94 % 1017,9 hPa 0,0 mm 0,0 km/h (0 Bft) S-SO 167 ° 0 min 0,000 mm 0,0 UV-I 14 W/m² 5,8 °C 6,7 °C 0,0 km/h (0 Bft)
27.05.2017 05:51 6,7 °C 6,8 °C 94 % 1017,9 hPa 0,0 mm 0,0 km/h (0 Bft) S-SO 167 ° 0 min 0,000 mm 0,0 UV-I 14 W/m² 5,8 °C 6,7 °C 0,0 km/h (0 Bft)
27.05.2017 05:52 6,7 °C 6,7 °C 93 % 1017,9 hPa 0,0 mm 0,0 km/h (0 Bft) S-SO 167 ° 0 min 0,000 mm 0,0 UV-I 16 W/m² 5,6 °C 6,7 °C 0,0 km/h (0 Bft)
27.05.2017 05:53 6,7 °C 6,7 °C 93 % 1017,9 hPa 0,0 mm 0,0 km/h (0 Bft) S-SO 167 ° 0 min 0,000 mm 0,0 UV-I 16 W/m² 5,6 °C 6,7 °C 0,0 km/h (0 Bft)
27.05.2017 05:54 6,7 °C 6,7 °C 93 % 1018,0 hPa 0,0 mm 0,0 km/h (0 Bft) S-SO 167 ° 0 min 0,000 mm 0,0 UV-I 16 W/m² 5,6 °C 6,7 °C 0,0 km/h (0 Bft)
27.05.2017 05:55 6,7 °C 6,7 °C 93 % 1018,0 hPa 0,0 mm 0,0 km/h (0 Bft) S-SO 167 ° 0 min 0,000 mm 0,0 UV-I 16 W/m² 5,6 °C 6,7 °C 0,0 km/h (0 Bft)
27.05.2017 05:56 6,6 °C 6,7 °C 93 % 1018,0 hPa 0,0 mm 0,0 km/h (0 Bft) S-SO 167 ° 0 min 0,000 mm 0,0 UV-I 18 W/m² 5,6 °C 6,6 °C 0,0 km/h (0 Bft)
27.05.2017 05:57 6,7 °C 6,7 °C 93 % 1018,0 hPa 0,0 mm 0,0 km/h (0 Bft) S-SO 167 ° 0 min 0,000 mm 0,0 UV-I 19 W/m² 5,6 °C 6,7 °C 0,0 km/h (0 Bft)
27.05.2017 05:58 6,7 °C 6,7 °C 93 % 1018,0 hPa 0,0 mm 0,0 km/h (0 Bft) S-SO 167 ° 0 min 0,000 mm 0,0 UV-I 21 W/m² 5,6 °C 6,7 °C 0,0 km/h (0 Bft)
27.05.2017 05:59 6,7 °C 6,7 °C 93 % 1018,0 hPa 0,0 mm 0,0 km/h (0 Bft) S-SO 167 ° 0 min 0,000 mm 0,0 UV-I 25 W/m² 5,6 °C 6,7 °C 0,0 km/h (0 Bft)
27.05.2017 06:00 6,6 °C 6,7 °C 93 % 1018,0 hPa 0,0 mm 0,0 km/h (0 Bft) S-SO 167 ° 0 min 0,000 mm 0,0 UV-I 26 W/m² 5,6 °C 6,6 °C 0,0 km/h (0 Bft)
27.05.2017 06:01 6,6 °C 6,6 °C 93 % 1018,1 hPa 0,0 mm 0,0 km/h (0 Bft) S-SO 167 ° 0 min 0,000 mm 0,0 UV-I 28 W/m² 5,6 °C 6,6 °C 0,0 km/h (0 Bft)
27.05.2017 06:02 6,5 °C 6,6 °C 93 % 1018,0 hPa 0,0 mm 0,0 km/h (0 Bft) S-SO 167 ° 0 min 0,000 mm 0,0 UV-I 30 W/m² 5,5 °C 6,5 °C 0,0 km/h (0 Bft)
27.05.2017 06:03 6,6 °C 6,6 °C 93 % 1018,0 hPa 0,0 mm 0,0 km/h (0 Bft) S-SO 167 ° 0 min 0,000 mm 0,0 UV-I 30 W/m² 5,6 °C 6,6 °C 0,0 km/h (0 Bft)
27.05.2017 06:04 6,7 °C 6,7 °C 93 % 1018,1 hPa 0,0 mm 0,0 km/h (0 Bft) S-SO 167 ° 0 min 0,000 mm 0,0 UV-I 33 W/m² 5,6 °C 6,7 °C 0,0 km/h (0 Bft)
27.05.2017 06:05 6,7 °C 6,7 °C 94 % 1018,1 hPa 0,0 mm 0,0 km/h (0 Bft) S-SO 167 ° 0 min 0,000 mm 0,0 UV-I 35 W/m² 5,8 °C 6,7 °C 0,0 km/h (0 Bft)
27.05.2017 06:06 6,7 °C 6,7 °C 93 % 1018,1 hPa 0,0 mm 0,0 km/h (0 Bft) S-SO 167 ° 0 min 0,000 mm 0,0 UV-I 35 W/m² 5,6 °C 6,7 °C 0,0 km/h (0 Bft)
27.05.2017 06:07 6,7 °C 6,7 °C 93 % 1018,1 hPa 0,0 mm 0,0 km/h (0 Bft) S-SO 167 ° 0 min 0,000 mm 0,0 UV-I 37 W/m² 5,6 °C 6,7 °C 0,0 km/h (0 Bft)
27.05.2017 06:08 6,8 °C 6,8 °C 93 % 1018,1 hPa 0,0 mm 0,0 km/h (0 Bft) S-SO 167 ° 0 min 0,000 mm 0,0 UV-I 39 W/m² 5,7 °C 6,8 °C 0,0 km/h (0 Bft)
27.05.2017 06:09 6,8 °C 6,8 °C 93 % 1018,1 hPa 0,0 mm 0,0 km/h (0 Bft) S-SO 167 ° 0 min 0,000 mm 0,0 UV-I 40 W/m² 5,7 °C 6,8 °C 0,0 km/h (0 Bft)
27.05.2017 06:10 6,8 °C 6,8 °C 93 % 1018,2 hPa 0,0 mm 0,0 km/h (0 Bft) S-SO 167 ° 0 min 0,000 mm 0,0 UV-I 44 W/m² 5,7 °C 6,8 °C 0,0 km/h (0 Bft)
27.05.2017 06:11 6,9 °C 6,9 °C 93 % 1018,2 hPa 0,0 mm 0,0 km/h (0 Bft) S-SO 167 ° 0 min 0,000 mm 0,0 UV-I 46 W/m² 5,8 °C 6,9 °C 0,0 km/h (0 Bft)
27.05.2017 06:12 6,9 °C 6,9 °C 93 % 1018,2 hPa 0,0 mm 0,0 km/h (0 Bft) S-SO 167 ° 0 min 0,000 mm 0,0 UV-I 47 W/m² 5,8 °C 6,9 °C 0,0 km/h (0 Bft)
27.05.2017 06:13 7,0 °C 7,0 °C 93 % 1018,2 hPa 0,0 mm 0,0 km/h (0 Bft) S-SO 167 ° 0 min 0,000 mm 0,0 UV-I 47 W/m² 5,9 °C 7,0 °C 0,0 km/h (0 Bft)
27.05.2017 06:14 7,0 °C 7,0 °C 93 % 1018,2 hPa 0,0 mm 0,0 km/h (0 Bft) S-SO 167 ° 0 min 0,000 mm 0,0 UV-I 51 W/m² 5,9 °C 7,0 °C 0,0 km/h (0 Bft)
27.05.2017 06:15 6,9 °C 7,0 °C 92 % 1018,1 hPa 0,0 mm 0,0 km/h (0 Bft) S-SO 167 ° 0 min 0,000 mm 0,0 UV-I 54 W/m² 5,7 °C 6,9 °C 0,0 km/h (0 Bft)
27.05.2017 06:16 7,0 °C 7,0 °C 92 % 1018,1 hPa 0,0 mm 0,0 km/h (0 Bft) S-SO 167 ° 0 min 0,000 mm 0,0 UV-I 60 W/m² 5,8 °C 7,0 °C 0,0 km/h (0 Bft)
27.05.2017 06:17 7,1 °C 7,1 °C 93 % 1018,2 hPa 0,0 mm 0,0 km/h (0 Bft) S-SO 167 ° 0 min 0,000 mm 0,0 UV-I 62 W/m² 6,0 °C 7,1 °C 0,0 km/h (0 Bft)
27.05.2017 06:18 7,1 °C 7,1 °C 93 % 1018,2 hPa 0,0 mm 0,0 km/h (0 Bft) S-SO 167 ° 0 min 0,000 mm 0,0 UV-I 63 W/m² 6,0 °C 7,1 °C 0,0 km/h (0 Bft)
27.05.2017 06:19 7,2 °C 7,2 °C 93 % 1018,2 hPa 0,0 mm 0,0 km/h (0 Bft) S-SO 167 ° 0 min 0,000 mm 0,0 UV-I 67 W/m² 6,1 °C 7,2 °C 0,0 km/h (0 Bft)
27.05.2017 06:20 7,2 °C 7,2 °C 93 % 1018,2 hPa 0,0 mm 0,0 km/h (0 Bft) S-SO 167 ° 0 min 0,000 mm 0,0 UV-I 69 W/m² 6,1 °C 7,2 °C 0,0 km/h (0 Bft)
27.05.2017 06:21 7,2 °C 7,2 °C 93 % 1018,2 hPa 0,0 mm 0,0 km/h (0 Bft) S-SO 167 ° 0 min 0,000 mm 0,0 UV-I 69 W/m² 6,1 °C 7,2 °C 0,0 km/h (0 Bft)
27.05.2017 06:22 7,2 °C 7,2 °C 92 % 1018,2 hPa 0,0 mm 0,0 km/h (0 Bft) S-SO 167 ° 0 min 0,000 mm 0,0 UV-I 74 W/m² 6,0 °C 7,2 °C 0,0 km/h (0 Bft)
27.05.2017 06:23 7,2 °C 7,2 °C 93 % 1018,2 hPa 0,0 mm 0,0 km/h (0 Bft) S-SO 167 ° 0 min 0,000 mm 0,0 UV-I 74 W/m² 6,1 °C 7,2 °C 0,0 km/h (0 Bft)
27.05.2017 06:24 7,3 °C 7,3 °C 93 % 1018,1 hPa 0,0 mm 0,0 km/h (0 Bft) S-SO 167 ° 0 min 0,000 mm 0,0 UV-I 65 W/m² 6,2 °C 7,3 °C 0,0 km/h (0 Bft)
27.05.2017 06:25 7,3 °C 7,3 °C 93 % 1018,1 hPa 0,0 mm 0,0 km/h (0 Bft) S-SO 167 ° 0 min 0,000 mm 0,0 UV-I 63 W/m² 6,2 °C 7,3 °C 0,0 km/h (0 Bft)
27.05.2017 06:26 7,4 °C 7,4 °C 92 % 1018,1 hPa 0,0 mm 0,0 km/h (0 Bft) S-SO 167 ° 0 min 0,000 mm 0,0 UV-I 65 W/m² 6,2 °C 7,4 °C 0,0 km/h (0 Bft)
27.05.2017 06:27 7,5 °C 7,5 °C 93 % 1018,2 hPa 0,0 mm 0,0 km/h (0 Bft) S-SO 167 ° 0 min 0,000 mm 0,0 UV-I 56 W/m² 6,4 °C 7,5 °C 0,0 km/h (0 Bft)
27.05.2017 06:28 7,5 °C 7,6 °C 92 % 1018,1 hPa 0,0 mm 0,0 km/h (0 Bft) S-SO 167 ° 0 min 0,000 mm 0,0 UV-I 44 W/m² 6,3 °C 7,5 °C 0,0 km/h (0 Bft)
27.05.2017 06:29 7,5 °C 7,5 °C 92 % 1018,2 hPa 0,0 mm 0,0 km/h (0 Bft) S-SO 167 ° 0 min 0,000 mm 0,0 UV-I 42 W/m² 6,3 °C 7,5 °C 0,0 km/h (0 Bft)
27.05.2017 06:30 7,5 °C 7,5 °C 92 % 1018,1 hPa 0,0 mm 0,0 km/h (0 Bft) S-SO 167 ° 0 min 0,000 mm 0,0 UV-I 44 W/m² 6,3 °C 7,5 °C 0,0 km/h (0 Bft)
27.05.2017 06:31 7,5 °C 7,5 °C 92 % 1018,1 hPa 0,0 mm 0,0 km/h (0 Bft) S-SO 167 ° 0 min 0,000 mm 0,0 UV-I 47 W/m² 6,3 °C 7,5 °C 0,0 km/h (0 Bft)
27.05.2017 06:32 7,5 °C 7,5 °C 92 % 1018,1 hPa 0,0 mm 0,0 km/h (0 Bft) S-SO 167 ° 0 min 0,000 mm 0,0 UV-I 67 W/m² 6,3 °C 7,5 °C 0,0 km/h (0 Bft)
27.05.2017 06:33 7,6 °C 7,6 °C 92 % 1018,1 hPa 0,0 mm 0,0 km/h (0 Bft) S-SO 167 ° 0 min 0,000 mm 0,0 UV-I 93 W/m² 6,4 °C 7,6 °C 0,0 km/h (0 Bft)
27.05.2017 06:34 7,6 °C 7,6 °C 93 % 1018,1 hPa 0,0 mm 0,0 km/h (0 Bft) S-SO 167 ° 0 min 0,000 mm 0,0 UV-I 104 W/m² 6,5 °C 7,6 °C 0,0 km/h (0 Bft)
27.05.2017 06:35 7,7 °C 7,7 °C 93 % 1018,1 hPa 0,0 mm 0,0 km/h (0 Bft) S-SO 167 ° 0 min 0,000 mm 0,0 UV-I 107 W/m² 6,6 °C 7,7 °C 0,0 km/h (0 Bft)
27.05.2017 06:36 7,8 °C 7,8 °C 93 % 1018,1 hPa 0,0 mm 0,0 km/h (0 Bft) S-SO 167 ° 0 min 0,000 mm 0,0 UV-I 109 W/m² 6,7 °C 7,8 °C 0,0 km/h (0 Bft)
27.05.2017 06:37 7,9 °C 7,9 °C 92 % 1018,1 hPa 0,0 mm 0,0 km/h (0 Bft) S-SO 167 ° 0 min 0,000 mm 0,0 UV-I 111 W/m² 6,7 °C 7,9 °C 0,0 km/h (0 Bft)
27.05.2017 06:38 8,0 °C 8,0 °C 92 % 1018,1 hPa 0,0 mm 0,0 km/h (0 Bft) S-SO 167 ° 0 min 0,000 mm 0,0 UV-I 113 W/m² 6,8 °C 8,0 °C 0,0 km/h (0 Bft)
27.05.2017 06:39 8,1 °C 8,1 °C 93 % 1018,1 hPa 0,0 mm 0,0 km/h (0 Bft) S-SO 167 ° 0 min 0,000 mm 0,0 UV-I 113 W/m² 7,0 °C 8,1 °C 0,0 km/h (0 Bft)
27.05.2017 06:40 8,2 °C 8,2 °C 92 % 1018,2 hPa 0,0 mm 0,0 km/h (0 Bft) S-SO 167 ° 0 min 0,000 mm 0,0 UV-I 121 W/m² 7,0 °C 8,2 °C 0,0 km/h (0 Bft)
27.05.2017 06:41 8,3 °C 8,3 °C 92 % 1018,2 hPa 0,0 mm 0,0 km/h (0 Bft) S-SO 167 ° 0 min 0,000 mm 0,0 UV-I 123 W/m² 7,1 °C 8,3 °C 0,0 km/h (0 Bft)
27.05.2017 06:42 8,4 °C 8,4 °C 92 % 1018,2 hPa 0,0 mm 0,0 km/h (0 Bft) S-SO 167 ° 0 min 0,000 mm 0,0 UV-I 125 W/m² 7,2 °C 8,4 °C 0,0 km/h (0 Bft)
27.05.2017 06:43 8,4 °C 8,4 °C 92 % 1018,2 hPa 0,0 mm 0,0 km/h (0 Bft) S-SO 167 ° 0 min 0,000 mm 0,0 UV-I 128 W/m² 7,2 °C 8,4 °C 0,0 km/h (0 Bft)
27.05.2017 06:44 8,4 °C 8,4 °C 92 % 1018,1 hPa 0,0 mm 0,0 km/h (0 Bft) S-SO 167 ° 0 min 0,000 mm 0,5 UV-I 130 W/m² 7,2 °C 8,4 °C 0,0 km/h (0 Bft)
27.05.2017 06:45 8,4 °C 8,5 °C 92 % 1018,1 hPa 0,0 mm 0,0 km/h (0 Bft) S-SO 167 ° 0 min 0,000 mm 0,5 UV-I 135 W/m² 7,2 °C 8,4 °C 0,0 km/h (0 Bft)
27.05.2017 06:46 8,6 °C 8,6 °C 92 % 1018,2 hPa 0,0 mm 0,0 km/h (0 Bft) S-SO 167 ° 0 min 0,000 mm 0,5 UV-I 137 W/m² 7,4 °C 8,6 °C 0,0 km/h (0 Bft)
27.05.2017 06:47 8,7 °C 8,7 °C 92 % 1018,2 hPa 0,0 mm 0,0 km/h (0 Bft) S-SO 167 ° 0 min 0,000 mm 0,5 UV-I 139 W/m² 7,5 °C 8,7 °C 0,0 km/h (0 Bft)
27.05.2017 06:48 8,8 °C 8,8 °C 91 % 1018,2 hPa 0,0 mm 0,0 km/h (0 Bft) S-SO 167 ° 0 min 0,000 mm 0,5 UV-I 139 W/m² 7,4 °C 8,8 °C 0,0 km/h (0 Bft)
27.05.2017 06:49 8,9 °C 8,9 °C 91 % 1018,2 hPa 0,0 mm 0,0 km/h (0 Bft) S-SO 167 ° 0 min 0,000 mm 0,5 UV-I 141 W/m² 7,5 °C 8,9 °C 0,0 km/h (0 Bft)
27.05.2017 06:50 8,9 °C 8,9 °C 90 % 1018,2 hPa 0,0 mm 0,0 km/h (0 Bft) S-SO 167 ° 0 min 0,000 mm 0,5 UV-I 141 W/m² 7,4 °C 8,9 °C 0,0 km/h (0 Bft)
27.05.2017 06:51 9,0 °C 9,0 °C 90 % 1018,2 hPa 0,0 mm 0,0 km/h (0 Bft) S-SO 167 ° 0 min 0,000 mm 0,5 UV-I 142 W/m² 7,4 °C 9,0 °C 0,0 km/h (0 Bft)
27.05.2017 06:52 9,0 °C 9,1 °C 90 % 1018,2 hPa 0,0 mm 0,0 km/h (0 Bft) S-SO 167 ° 0 min 0,000 mm 0,5 UV-I 142 W/m² 7,4 °C 9,0 °C 0,0 km/h (0 Bft)
27.05.2017 06:53 9,1 °C 9,1 °C 90 % 1018,2 hPa 0,0 mm 0,0 km/h (0 Bft) S-SO 167 ° 0 min 0,000 mm 0,6 UV-I 144 W/m² 7,5 °C 9,1 °C 0,0 km/h (0 Bft)
27.05.2017 06:54 9,2 °C 9,2 °C 89 % 1018,2 hPa 0,0 mm 0,0 km/h (0 Bft) S-SO 167 ° 0 min 0,000 mm 0,6 UV-I 144 W/m² 7,5 °C 9,2 °C 0,0 km/h (0 Bft)
27.05.2017 06:55 9,2 °C 9,2 °C 89 % 1018,2 hPa 0,0 mm 0,0 km/h (0 Bft) S-SO 167 ° 0 min 0,000 mm 0,6 UV-I 144 W/m² 7,5 °C 9,2 °C 0,0 km/h (0 Bft)
27.05.2017 06:56 9,2 °C 9,2 °C 89 % 1018,2 hPa 0,0 mm 0,0 km/h (0 Bft) S-SO 167 ° 0 min 0,000 mm 0,6 UV-I 144 W/m² 7,5 °C 9,2 °C 0,0 km/h (0 Bft)
27.05.2017 06:57 9,3 °C 9,3 °C 89 % 1018,3 hPa 0,0 mm 0,0 km/h (0 Bft) S-SO 167 ° 0 min 0,000 mm 0,6 UV-I 144 W/m² 7,6 °C 9,3 °C 0,0 km/h (0 Bft)
27.05.2017 06:58 9,2 °C 9,3 °C 89 % 1018,2 hPa 0,0 mm 0,0 km/h (0 Bft) S-SO 167 ° 0 min 0,000 mm 0,6 UV-I 146 W/m² 7,5 °C 9,2 °C 0,0 km/h (0 Bft)
27.05.2017 06:59 9,2 °C 9,3 °C 90 % 1018,2 hPa 0,0 mm 0,0 km/h (0 Bft) S-SO 167 ° 0 min 0,000 mm 0,6 UV-I 146 W/m² 7,6 °C 9,2 °C 0,0 km/h (0 Bft)
27.05.2017 07:00 9,3 °C 9,3 °C 90 % 1018,2 hPa 0,0 mm 0,0 km/h (0 Bft) S-SO 167 ° 0 min 0,000 mm 0,6 UV-I 146 W/m² 7,7 °C 9,3 °C 0,0 km/h (0 Bft)
27.05.2017 07:01 9,3 °C 9,3 °C 90 % 1018,2 hPa 0,0 mm 0,0 km/h (0 Bft) S-SO 167 ° 0 min 0,051 mm 0,7 UV-I 148 W/m² 7,7 °C 9,3 °C 0,0 km/h (0 Bft)
27.05.2017 07:02 9,3 °C 9,3 °C 89 % 1018,2 hPa 0,0 mm 0,0 km/h (0 Bft) S-SO 167 ° 0 min 0,000 mm 0,7 UV-I 149 W/m² 7,6 °C 9,3 °C 0,0 km/h (0 Bft)
27.05.2017 07:03 9,3 °C 9,4 °C 88 % 1018,3 hPa 0,0 mm 0,0 km/h (0 Bft) S-SO 167 ° 0 min 0,000 mm 0,7 UV-I 155 W/m² 7,4 °C 9,3 °C 0,0 km/h (0 Bft)
27.05.2017 07:04 9,4 °C 9,4 °C 89 % 1018,3 hPa 0,0 mm 0,0 km/h (0 Bft) S-SO 167 ° 0 min 0,000 mm 0,7 UV-I 156 W/m² 7,7 °C 9,4 °C 0,0 km/h (0 Bft)
27.05.2017 07:05 9,5 °C 9,6 °C 88 % 1018,3 hPa 0,0 mm 0,0 km/h (0 Bft) S-SO 167 ° 0 min 0,000 mm 0,7 UV-I 160 W/m² 7,6 °C 9,5 °C 0,0 km/h (0 Bft)
27.05.2017 07:06 9,6 °C 9,6 °C 88 % 1018,3 hPa 0,0 mm 0,0 km/h (0 Bft) S-SO 167 ° 0 min 0,000 mm 0,7 UV-I 165 W/m² 7,7 °C 9,6 °C 0,0 km/h (0 Bft)
27.05.2017 07:07 9,7 °C 9,7 °C 88 % 1018,3 hPa 0,0 mm 0,0 km/h (0 Bft) S-SO 167 ° 0 min 0,000 mm 0,7 UV-I 169 W/m² 7,8 °C 9,7 °C 0,0 km/h (0 Bft)
27.05.2017 07:08 9,8 °C 9,8 °C 89 % 1018,3 hPa 0,0 mm 0,0 km/h (0 Bft) S-SO 167 ° 0 min 0,000 mm 0,7 UV-I 174 W/m² 8,1 °C 9,8 °C 0,0 km/h (0 Bft)
27.05.2017 07:09 9,8 °C 9,8 °C 88 % 1018,3 hPa 0,0 mm 0,0 km/h (0 Bft) S-SO 167 ° 0 min 0,000 mm 0,8 UV-I 185 W/m² 7,9 °C 9,8 °C 0,0 km/h (0 Bft)
27.05.2017 07:10 9,9 °C 9,9 °C 89 % 1018,3 hPa 0,0 mm 0,0 km/h (0 Bft) S-SO 167 ° 0 min 0,000 mm 0,8 UV-I 188 W/m² 8,2 °C 9,9 °C 0,0 km/h (0 Bft)
27.05.2017 07:11 10,2 °C 10,2 °C 89 % 1018,2 hPa 0,0 mm 0,0 km/h (0 Bft) S-SO 167 ° 0 min 0,000 mm 0,8 UV-I 193 W/m² 8,5 °C 10,2 °C 0,0 km/h (0 Bft)
27.05.2017 07:12 10,3 °C 10,3 °C 88 % 1018,2 hPa 0,0 mm 0,0 km/h (0 Bft) S-SO 167 ° 0 min 0,000 mm 0,8 UV-I 199 W/m² 8,4 °C 10,3 °C 0,0 km/h (0 Bft)
27.05.2017 07:13 10,4 °C 10,4 °C 88 % 1018,2 hPa 0,0 mm 0,0 km/h (0 Bft) S-SO 167 ° 0 min 0,000 mm 0,8 UV-I 202 W/m² 8,5 °C 10,4 °C 0,0 km/h (0 Bft)
27.05.2017 07:14 10,6 °C 10,6 °C 88 % 1018,3 hPa 0,0 mm 0,0 km/h (0 Bft) S-SO 167 ° 0 min 0,000 mm 0,9 UV-I 207 W/m² 8,7 °C 10,6 °C 0,0 km/h (0 Bft)
27.05.2017 07:15 10,6 °C 10,6 °C 86 % 1018,2 hPa 0,0 mm 0,0 km/h (0 Bft) S-SO 167 ° 0 min 0,000 mm 0,9 UV-I 216 W/m² 8,4 °C 10,6 °C 0,0 km/h (0 Bft)
27.05.2017 07:16 10,6 °C 10,6 °C 87 % 1018,2 hPa 0,0 mm 0,0 km/h (0 Bft) S-SO 167 ° 0 min 0,000 mm 0,9 UV-I 220 W/m² 8,5 °C 10,6 °C 0,0 km/h (0 Bft)
27.05.2017 07:17 10,7 °C 10,7 °C 89 % 1018,2 hPa 0,0 mm 0,0 km/h (0 Bft) S-SO 167 ° 0 min 0,000 mm 0,9 UV-I 223 W/m² 9,0 °C 10,7 °C 0,0 km/h (0 Bft)
27.05.2017 07:18 10,8 °C 10,8 °C 88 % 1018,2 hPa 0,0 mm 0,0 km/h (0 Bft) S-SO 167 ° 0 min 0,000 mm 0,9 UV-I 225 W/m² 8,9 °C 10,8 °C 0,0 km/h (0 Bft)
27.05.2017 07:19 10,9 °C 10,9 °C 86 % 1018,2 hPa 0,0 mm 0,0 km/h (0 Bft) S-SO 167 ° 0 min 0,000 mm 0,9 UV-I 225 W/m² 8,7 °C 10,9 °C 0,0 km/h (0 Bft)
27.05.2017 07:20 11,1 °C 11,1 °C 86 % 1018,2 hPa 0,0 mm 0,0 km/h (0 Bft) S-SO 167 ° 0 min 0,000 mm 1,0 UV-I 229 W/m² 8,8 °C 11,1 °C 0,0 km/h (0 Bft)
27.05.2017 07:21 11,1 °C 11,2 °C 86 % 1018,3 hPa 0,0 mm 0,0 km/h (0 Bft) S-SO 167 ° 0 min 0,000 mm 1,0 UV-I 230 W/m² 8,8 °C 11,1 °C 0,0 km/h (0 Bft)
27.05.2017 07:22 11,1 °C 11,1 °C 87 % 1018,3 hPa 0,0 mm 0,0 km/h (0 Bft) S-SO 167 ° 0 min 0,000 mm 1,0 UV-I 232 W/m² 9,0 °C 11,1 °C 0,0 km/h (0 Bft)
27.05.2017 07:23 11,1 °C 11,1 °C 88 % 1018,2 hPa 0,0 mm 0,0 km/h (0 Bft) S-SO 167 ° 0 min 0,000 mm 1,0 UV-I 232 W/m² 9,2 °C 11,1 °C 0,0 km/h (0 Bft)
27.05.2017 07:24 11,2 °C 11,2 °C 87 % 1018,3 hPa 0,0 mm 0,0 km/h (0 Bft) S-SO 167 ° 0 min 0,000 mm 1,0 UV-I 234 W/m² 9,1 °C 11,2 °C 0,0 km/h (0 Bft)
27.05.2017 07:25 11,3 °C 11,3 °C 87 % 1018,2 hPa 0,0 mm 0,0 km/h (0 Bft) S-SO 167 ° 0 min 0,000 mm 1,0 UV-I 234 W/m² 9,2 °C 11,3 °C 0,0 km/h (0 Bft)
27.05.2017 07:26 11,4 °C 11,4 °C 87 % 1018,2 hPa 0,0 mm 0,0 km/h (0 Bft) S-SO 167 ° 0 min 0,000 mm 1,1 UV-I 234 W/m² 9,3 °C 11,4 °C 0,0 km/h (0 Bft)
27.05.2017 07:27 11,6 °C 11,6 °C 85 % 1018,3 hPa 0,0 mm 0,0 km/h (0 Bft) S-SO 167 ° 0 min 0,000 mm 1,1 UV-I 236 W/m² 9,2 °C 11,6 °C 0,0 km/h (0 Bft)
27.05.2017 07:28 11,9 °C 11,9 °C 87 % 1018,3 hPa 0,0 mm 0,0 km/h (0 Bft) S-SO 167 ° 0 min 0,000 mm 1,1 UV-I 234 W/m² 9,8 °C 11,9 °C 0,0 km/h (0 Bft)
27.05.2017 07:29 12,1 °C 12,1 °C 87 % 1018,2 hPa 0,0 mm 0,0 km/h (0 Bft) S-SO 167 ° 0 min 0,000 mm 1,1 UV-I 234 W/m² 10,0 °C 12,1 °C 0,0 km/h (0 Bft)
27.05.2017 07:30 12,1 °C 12,1 °C 87 % 1018,2 hPa 0,0 mm 0,0 km/h (0 Bft) S-SO 167 ° 0 min 0,000 mm 1,1 UV-I 234 W/m² 10,0 °C 12,1 °C 0,0 km/h (0 Bft)
27.05.2017 07:31 12,1 °C 12,1 °C 87 % 1018,2 hPa 0,0 mm 0,0 km/h (0 Bft) S-SO 167 ° 0 min 0,000 mm 1,1 UV-I 236 W/m² 10,0 °C 12,1 °C 0,0 km/h (0 Bft)
27.05.2017 07:32 12,1 °C 12,1 °C 86 % 1018,2 hPa 0,0 mm 0,0 km/h (0 Bft) S-SO 167 ° 0 min 0,000 mm 1,2 UV-I 236 W/m² 9,8 °C 12,1 °C 0,0 km/h (0 Bft)
27.05.2017 07:33 12,1 °C 12,1 °C 85 % 1018,2 hPa 0,0 mm 0,0 km/h (0 Bft) S-SO 167 ° 0 min 0,000 mm 1,2 UV-I 236 W/m² 9,7 °C 12,1 °C 0,0 km/h (0 Bft)
27.05.2017 07:34 12,2 °C 12,2 °C 84 % 1018,2 hPa 0,0 mm 0,0 km/h (0 Bft) S-SO 167 ° 0 min 0,000 mm 1,2 UV-I 236 W/m² 9,6 °C 12,2 °C 0,0 km/h (0 Bft)
27.05.2017 07:35 12,2 °C 12,2 °C 85 % 1018,2 hPa 0,0 mm 0,0 km/h (0 Bft) S-SO 167 ° 0 min 0,000 mm 1,2 UV-I 237 W/m² 9,8 °C 12,2 °C 0,0 km/h (0 Bft)
27.05.2017 07:36 12,3 °C 12,3 °C 85 % 1018,3 hPa 0,0 mm 0,0 km/h (0 Bft) S-SO 167 ° 0 min 0,000 mm 1,2 UV-I 239 W/m² 9,9 °C 12,3 °C 0,0 km/h (0 Bft)
27.05.2017 07:37 12,5 °C 12,5 °C 86 % 1018,3 hPa 0,0 mm 0,0 km/h (0 Bft) S-SO 167 ° 0 min 0,000 mm 1,2 UV-I 239 W/m² 10,2 °C 12,5 °C 0,0 km/h (0 Bft)
27.05.2017 07:38 12,6 °C 12,6 °C 85 % 1018,3 hPa 0,0 mm 0,0 km/h (0 Bft) S-SO 167 ° 0 min 0,000 mm 1,3 UV-I 236 W/m² 10,1 °C 12,6 °C 0,0 km/h (0 Bft)
27.05.2017 07:39 12,7 °C 12,7 °C 84 % 1018,2 hPa 0,0 mm 0,1 km/h (0 Bft) S-SO 167 ° 0 min 0,000 mm 1,3 UV-I 232 W/m² 10,1 °C 12,7 °C 1,6 km/h (1 Bft)
27.05.2017 07:40 12,8 °C 12,8 °C 84 % 1018,2 hPa 0,0 mm 1,2 km/h (1 Bft) S-SO 167 ° 0 min 0,000 mm 1,3 UV-I 229 W/m² 10,2 °C 12,8 °C 1,6 km/h (1 Bft)
27.05.2017 07:41 13,0 °C 13,0 °C 82 % 1018,3 hPa 0,0 mm 0,3 km/h (0 Bft) S-SO 167 ° 0 min 0,000 mm 1,3 UV-I 225 W/m² 10,0 °C 13,0 °C 1,6 km/h (1 Bft)
27.05.2017 07:42 13,1 °C 13,1 °C 80 % 1018,3 hPa 0,0 mm 0,0 km/h (0 Bft) S-SO 167 ° 0 min 0,000 mm 1,3 UV-I 221 W/m² 9,7 °C 13,1 °C 0,0 km/h (0 Bft)
27.05.2017 07:43 13,2 °C 13,2 °C 81 % 1018,3 hPa 0,0 mm 0,6 km/h (0 Bft) S-SO 167 ° 0 min 0,000 mm 1,3 UV-I 216 W/m² 10,0 °C 13,2 °C 1,6 km/h (1 Bft)
27.05.2017 07:44 13,3 °C 13,3 °C 79 % 1018,3 hPa 0,0 mm 0,3 km/h (0 Bft) S-SO 167 ° 0 min 0,000 mm 1,4 UV-I 209 W/m² 9,7 °C 13,3 °C 1,6 km/h (1 Bft)
27.05.2017 07:45 13,5 °C 13,5 °C 79 % 1018,3 hPa 0,0 mm 0,0 km/h (0 Bft) S-SO 167 ° 0 min 0,000 mm 1,4 UV-I 206 W/m² 9,9 °C 13,5 °C 0,0 km/h (0 Bft)
27.05.2017 07:46 13,4 °C 13,5 °C 80 % 1018,3 hPa 0,0 mm 0,0 km/h (0 Bft) S-SO 167 ° 0 min 0,000 mm 1,4 UV-I 202 W/m² 10,0 °C 13,4 °C 0,0 km/h (0 Bft)
27.05.2017 07:47 13,3 °C 13,4 °C 81 % 1018,3 hPa 0,0 mm 0,0 km/h (0 Bft) S-SO 167 ° 0 min 0,000 mm 1,4 UV-I 199 W/m² 10,1 °C 13,3 °C 0,0 km/h (0 Bft)
27.05.2017 07:48 13,2 °C 13,3 °C 81 % 1018,3 hPa 0,0 mm 0,0 km/h (0 Bft) S-SO 167 ° 0 min 0,000 mm 1,5 UV-I 197 W/m² 10,0 °C 13,2 °C 0,0 km/h (0 Bft)
27.05.2017 07:49 13,1 °C 13,2 °C 82 % 1018,3 hPa 0,0 mm 0,0 km/h (0 Bft) S-SO 167 ° 0 min 0,000 mm 1,5 UV-I 195 W/m² 10,1 °C 13,1 °C 0,0 km/h (0 Bft)
27.05.2017 07:50 13,1 °C 13,2 °C 81 % 1018,3 hPa 0,0 mm 0,0 km/h (0 Bft) S-SO 167 ° 0 min 0,000 mm 1,5 UV-I 193 W/m² 9,9 °C 13,1 °C 0,0 km/h (0 Bft)
27.05.2017 07:51 13,2 °C 13,2 °C 81 % 1018,3 hPa 0,0 mm 0,0 km/h (0 Bft) S-SO 167 ° 0 min 0,000 mm 1,5 UV-I 195 W/m² 10,0 °C 13,2 °C 0,0 km/h (0 Bft)
27.05.2017 07:52 13,2 °C 13,2 °C 80 % 1018,2 hPa 0,0 mm 0,0 km/h (0 Bft) S-SO 167 ° 0 min 0,000 mm 1,5 UV-I 199 W/m² 9,8 °C 13,2 °C 0,0 km/h (0 Bft)
27.05.2017 07:53 13,3 °C 13,3 °C 81 % 1018,3 hPa 0,0 mm 0,0 km/h (0 Bft) S-SO 167 ° 0 min 0,000 mm 1,6 UV-I 199 W/m² 10,1 °C 13,3 °C 0,0 km/h (0 Bft)
27.05.2017 07:54 13,4 °C 13,4 °C 79 % 1018,3 hPa 0,0 mm 0,0 km/h (0 Bft) S-SO 167 ° 0 min 0,000 mm 1,6 UV-I 207 W/m² 9,8 °C 13,4 °C 0,0 km/h (0 Bft)
27.05.2017 07:55 13,6 °C 13,6 °C 83 % 1018,3 hPa 0,0 mm 1,3 km/h (1 Bft) S-SO 167 ° 0 min 0,000 mm 1,6 UV-I 213 W/m² 10,8 °C 13,6 °C 4,8 km/h (1 Bft)
27.05.2017 07:56 13,8 °C 13,8 °C 81 % 1018,2 hPa 0,0 mm 1,8 km/h (1 Bft) S-SO 167 ° 0 min 0,000 mm 1,6 UV-I 225 W/m² 10,6 °C 13,8 °C 4,8 km/h (1 Bft)
27.05.2017 07:57 14,1 °C 14,1 °C 78 % 1018,3 hPa 0,0 mm 0,6 km/h (0 Bft) S-SO 167 ° 0 min 0,000 mm 1,6 UV-I 232 W/m² 10,3 °C 14,1 °C 1,6 km/h (1 Bft)
27.05.2017 07:58 14,0 °C 14,1 °C 77 % 1018,3 hPa 0,0 mm 3,1 km/h (1 Bft) S-SO 167 ° 0 min 0,000 mm 1,7 UV-I 239 W/m² 10,0 °C 14,0 °C 4,8 km/h (1 Bft)
27.05.2017 07:59 13,8 °C 14,0 °C 81 % 1018,3 hPa 0,0 mm 1,5 km/h (1 Bft) S-SO 167 ° 0 min 0,000 mm 1,7 UV-I 246 W/m² 10,6 °C 13,8 °C 1,6 km/h (1 Bft)
27.05.2017 08:00 13,8 °C 13,8 °C 81 % 1018,3 hPa 0,0 mm 0,4 km/h (0 Bft) S-SO 167 ° 0 min 0,102 mm 1,7 UV-I 253 W/m² 10,6 °C 13,8 °C 1,6 km/h (1 Bft)
27.05.2017 08:01 13,8 °C 13,8 °C 79 % 1018,4 hPa 0,0 mm 0,0 km/h (0 Bft) S-SO 167 ° 0 min 0,000 mm 1,7 UV-I 262 W/m² 10,2 °C 13,8 °C 0,0 km/h (0 Bft)
27.05.2017 08:02 13,8 °C 13,8 °C 80 % 1018,4 hPa 0,0 mm 0,0 km/h (0 Bft) S-SO 167 ° 0 min 0,000 mm 1,7 UV-I 276 W/m² 10,4 °C 13,8 °C 0,0 km/h (0 Bft)
27.05.2017 08:03 13,8 °C 13,8 °C 78 % 1018,3 hPa 0,0 mm 0,0 km/h (0 Bft) S-SO 167 ° 0 min 0,000 mm 1,8 UV-I 283 W/m² 10,0 °C 13,8 °C 0,0 km/h (0 Bft)
27.05.2017 08:04 14,1 °C 14,1 °C 79 % 1018,3 hPa 0,0 mm 0,1 km/h (0 Bft) S-SO 167 ° 1 min 0,000 mm 1,8 UV-I 290 W/m² 10,5 °C 14,1 °C 1,6 km/h (1 Bft)
27.05.2017 08:05 14,2 °C 14,2 °C 77 % 1018,4 hPa 0,0 mm 0,0 km/h (0 Bft) S-SO 167 ° 1 min 0,000 mm 1,8 UV-I 297 W/m² 10,2 °C 14,2 °C 0,0 km/h (0 Bft)
27.05.2017 08:06 14,2 °C 14,2 °C 75 % 1018,4 hPa 0,0 mm 0,0 km/h (0 Bft) S-SO 167 ° 1 min 0,000 mm 1,8 UV-I 302 W/m² 9,8 °C 14,2 °C 0,0 km/h (0 Bft)
27.05.2017 08:07 14,3 °C 14,3 °C 75 % 1018,4 hPa 0,0 mm 0,0 km/h (0 Bft) S-SO 167 ° 1 min 0,000 mm 1,8 UV-I 315 W/m² 9,9 °C 14,3 °C 0,0 km/h (0 Bft)
27.05.2017 08:08 14,3 °C 14,3 °C 75 % 1018,4 hPa 0,0 mm 0,0 km/h (0 Bft) S-SO 167 ° 1 min 0,000 mm 1,9 UV-I 320 W/m² 9,9 °C 14,3 °C 0,0 km/h (0 Bft)
27.05.2017 08:09 14,4 °C 14,4 °C 76 % 1018,4 hPa 0,0 mm 0,0 km/h (0 Bft) S-SO 167 ° 1 min 0,000 mm 1,9 UV-I 325 W/m² 10,2 °C 14,4 °C 0,0 km/h (0 Bft)
27.05.2017 08:10 14,5 °C 14,5 °C 77 % 1018,4 hPa 0,0 mm 0,0 km/h (0 Bft) S-SO 167 ° 1 min 0,000 mm 1,9 UV-I 330 W/m² 10,5 °C 14,5 °C 0,0 km/h (0 Bft)
27.05.2017 08:11 14,6 °C 14,6 °C 74 % 1018,4 hPa 0,0 mm 0,0 km/h (0 Bft) S-SO 167 ° 1 min 0,000 mm 1,9 UV-I 336 W/m² 10,0 °C 14,6 °C 0,0 km/h (0 Bft)
27.05.2017 08:12 14,6 °C 14,6 °C 75 % 1018,4 hPa 0,0 mm 0,0 km/h (0 Bft) S-SO 167 ° 1 min 0,000 mm 2,0 UV-I 341 W/m² 10,2 °C 14,6 °C 0,0 km/h (0 Bft)
27.05.2017 08:13 14,7 °C 14,7 °C 75 % 1018,4 hPa 0,0 mm 0,0 km/h (0 Bft) S-SO 167 ° 1 min 0,000 mm 2,0 UV-I 350 W/m² 10,3 °C 14,7 °C 0,0 km/h (0 Bft)
27.05.2017 08:14 14,7 °C 14,7 °C 75 % 1018,4 hPa 0,0 mm 0,0 km/h (0 Bft) S-SO 167 ° 1 min 0,000 mm 2,0 UV-I 355 W/m² 10,3 °C 14,7 °C 0,0 km/h (0 Bft)
27.05.2017 08:15 14,7 °C 14,7 °C 73 % 1018,4 hPa 0,0 mm 0,0 km/h (0 Bft) S-SO 167 ° 1 min 0,000 mm 2,0 UV-I 360 W/m² 9,9 °C 14,7 °C 0,0 km/h (0 Bft)
27.05.2017 08:16 14,8 °C 14,8 °C 75 % 1018,5 hPa 0,0 mm 1,1 km/h (1 Bft) S-SO 167 ° 1 min 0,000 mm 2,0 UV-I 366 W/m² 10,4 °C 14,8 °C 4,8 km/h (1 Bft)
27.05.2017 08:17 14,8 °C 14,8 °C 80 % 1018,4 hPa 0,0 mm 1,3 km/h (1 Bft) S-SO 167 ° 1 min 0,000 mm 2,1 UV-I 371 W/m² 11,4 °C 14,8 °C 1,6 km/h (1 Bft)
27.05.2017 08:18 14,8 °C 14,8 °C 77 % 1018,5 hPa 0,0 mm 0,4 km/h (0 Bft) S-SO 167 ° 1 min 0,000 mm 2,1 UV-I 376 W/m² 10,8 °C 14,8 °C 1,6 km/h (1 Bft)
27.05.2017 08:19 14,8 °C 14,8 °C 75 % 1018,5 hPa 0,0 mm 0,2 km/h (0 Bft) S-SO 167 ° 1 min 0,000 mm 2,1 UV-I 385 W/m² 10,4 °C 14,8 °C 1,6 km/h (1 Bft)
27.05.2017 08:20 14,9 °C 14,9 °C 75 % 1018,5 hPa 0,0 mm 0,1 km/h (0 Bft) S-SO 167 ° 1 min 0,000 mm 2,1 UV-I 388 W/m² 10,5 °C 14,9 °C 1,6 km/h (1 Bft)
27.05.2017 08:21 15,1 °C 15,1 °C 72 % 1018,4 hPa 0,0 mm 0,0 km/h (0 Bft) S-SO 167 ° 1 min 0,000 mm 2,2 UV-I 394 W/m² 10,1 °C 15,1 °C 0,0 km/h (0 Bft)
27.05.2017 08:22 15,2 °C 15,2 °C 69 % 1018,5 hPa 0,0 mm 0,0 km/h (0 Bft) S-SO 167 ° 1 min 0,000 mm 2,2 UV-I 397 W/m² 9,6 °C 15,2 °C 0,0 km/h (0 Bft)
27.05.2017 08:23 15,3 °C 15,3 °C 69 % 1018,5 hPa 0,0 mm 0,0 km/h (0 Bft) S-SO 167 ° 1 min 0,000 mm 2,2 UV-I 401 W/m² 9,6 °C 15,3 °C 0,0 km/h (0 Bft)
27.05.2017 08:24 15,4 °C 15,4 °C 72 % 1018,5 hPa 0,0 mm 0,1 km/h (0 Bft) S-SO 167 ° 1 min 0,000 mm 2,2 UV-I 406 W/m² 10,4 °C 15,4 °C 1,6 km/h (1 Bft)
27.05.2017 08:25 15,6 °C 15,6 °C 70 % 1018,5 hPa 0,0 mm 0,0 km/h (0 Bft) S-SO 167 ° 1 min 0,000 mm 2,2 UV-I 413 W/m² 10,1 °C 15,6 °C 0,0 km/h (0 Bft)
27.05.2017 08:26 15,7 °C 15,7 °C 71 % 1018,5 hPa 0,0 mm 0,0 km/h (0 Bft) S-SO 167 ° 1 min 0,000 mm 2,3 UV-I 417 W/m² 10,5 °C 15,7 °C 0,0 km/h (0 Bft)
27.05.2017 08:27 15,6 °C 15,7 °C 72 % 1018,5 hPa 0,0 mm 0,0 km/h (0 Bft) S-SO 167 ° 1 min 0,000 mm 2,3 UV-I 418 W/m² 10,6 °C 15,6 °C 0,0 km/h (0 Bft)
27.05.2017 08:28 15,8 °C 15,8 °C 75 % 1018,6 hPa 0,0 mm 0,0 km/h (0 Bft) S-SO 167 ° 1 min 0,000 mm 2,3 UV-I 422 W/m² 11,4 °C 15,8 °C 0,0 km/h (0 Bft)
27.05.2017 08:29 15,9 °C 15,9 °C 77 % 1018,5 hPa 0,0 mm 0,0 km/h (0 Bft) S-SO 167 ° 1 min 0,000 mm 2,3 UV-I 424 W/m² 11,9 °C 15,9 °C 0,0 km/h (0 Bft)
27.05.2017 08:30 15,9 °C 16,0 °C 74 % 1018,4 hPa 0,0 mm 0,0 km/h (0 Bft) S-SO 167 ° 1 min 0,000 mm 2,3 UV-I 427 W/m² 11,3 °C 15,9 °C 0,0 km/h (0 Bft)
27.05.2017 08:31 16,0 °C 16,0 °C 73 % 1018,5 hPa 0,0 mm 0,3 km/h (0 Bft) S-SO 167 ° 1 min 0,000 mm 2,4 UV-I 432 W/m² 11,2 °C 16,0 °C 1,6 km/h (1 Bft)
27.05.2017 08:32 15,9 °C 16,0 °C 71 % 1018,5 hPa 0,0 mm 0,1 km/h (0 Bft) S-SO 167 ° 1 min 0,000 mm 2,4 UV-I 434 W/m² 10,6 °C 15,9 °C 1,6 km/h (1 Bft)
27.05.2017 08:33 15,9 °C 15,9 °C 71 % 1018,5 hPa 0,0 mm 0,7 km/h (0 Bft) S-SO 167 ° 1 min 0,000 mm 2,4 UV-I 438 W/m² 10,6 °C 15,9 °C 1,6 km/h (1 Bft)
27.05.2017 08:34 16,0 °C 16,0 °C 77 % 1018,5 hPa 0,0 mm 0,0 km/h (0 Bft) S-SO 167 ° 1 min 0,000 mm 2,4 UV-I 439 W/m² 12,0 °C 16,0 °C 0,0 km/h (0 Bft)
27.05.2017 08:35 16,1 °C 16,1 °C 75 % 1018,5 hPa 0,0 mm 0,0 km/h (0 Bft) S-SO 167 ° 1 min 0,000 mm 2,5 UV-I 443 W/m² 11,7 °C 16,1 °C 0,0 km/h (0 Bft)
27.05.2017 08:36 16,2 °C 16,2 °C 70 % 1018,5 hPa 0,0 mm 0,0 km/h (0 Bft) S-SO 167 ° 1 min 0,000 mm 2,5 UV-I 445 W/m² 10,7 °C 16,2 °C 0,0 km/h (0 Bft)
27.05.2017 08:37 16,3 °C 16,3 °C 71 % 1018,4 hPa 0,0 mm 0,0 km/h (0 Bft) S-SO 167 ° 1 min 0,000 mm 2,5 UV-I 450 W/m² 11,0 °C 16,3 °C 0,0 km/h (0 Bft)
27.05.2017 08:38 16,2 °C 16,3 °C 72 % 1018,5 hPa 0,0 mm 0,0 km/h (0 Bft) S-SO 167 ° 1 min 0,000 mm 2,5 UV-I 452 W/m² 11,1 °C 16,2 °C 0,0 km/h (0 Bft)
27.05.2017 08:39 16,3 °C 16,3 °C 74 % 1018,5 hPa 0,0 mm 0,0 km/h (0 Bft) S-SO 167 ° 1 min 0,000 mm 2,6 UV-I 455 W/m² 11,7 °C 16,3 °C 0,0 km/h (0 Bft)
27.05.2017 08:40 16,5 °C 16,5 °C 70 % 1018,4 hPa 0,0 mm 0,0 km/h (0 Bft) S-SO 167 ° 1 min 0,000 mm 2,6 UV-I 457 W/m² 11,0 °C 16,5 °C 0,0 km/h (0 Bft)
27.05.2017 08:41 16,6 °C 16,6 °C 70 % 1018,4 hPa 0,0 mm 0,0 km/h (0 Bft) S-SO 167 ° 1 min 0,000 mm 2,6 UV-I 459 W/m² 11,1 °C 16,6 °C 0,0 km/h (0 Bft)
27.05.2017 08:42 16,8 °C 16,8 °C 68 % 1018,4 hPa 0,0 mm 0,5 km/h (0 Bft) S-SO 167 ° 1 min 0,000 mm 2,6 UV-I 464 W/m² 10,9 °C 16,8 °C 1,6 km/h (1 Bft)
27.05.2017 08:43 16,9 °C 16,9 °C 66 % 1018,4 hPa 0,0 mm 1,7 km/h (1 Bft) S-SO 167 ° 1 min 0,000 mm 2,7 UV-I 466 W/m² 10,5 °C 16,9 °C 4,8 km/h (1 Bft)
27.05.2017 08:44 17,0 °C 17,0 °C 66 % 1018,5 hPa 0,0 mm 1,9 km/h (1 Bft) S-SO 167 ° 1 min 0,000 mm 2,7 UV-I 469 W/m² 10,6 °C 17,0 °C 4,8 km/h (1 Bft)
27.05.2017 08:45 17,0 °C 17,0 °C 66 % 1018,5 hPa 0,0 mm 0,3 km/h (0 Bft) S-SO 167 ° 1 min 0,000 mm 2,7 UV-I 471 W/m² 10,6 °C 17,0 °C 1,6 km/h (1 Bft)
27.05.2017 08:46 17,0 °C 17,0 °C 62 % 1018,4 hPa 0,0 mm 0,3 km/h (0 Bft) S-SO 167 ° 1 min 0,000 mm 2,7 UV-I 471 W/m² 9,7 °C 17,0 °C 1,6 km/h (1 Bft)
27.05.2017 08:47 17,1 °C 17,1 °C 66 % 1018,4 hPa 0,0 mm 0,0 km/h (0 Bft) S-SO 167 ° 1 min 0,000 mm 2,7 UV-I 475 W/m² 10,7 °C 17,1 °C 0,0 km/h (0 Bft)
27.05.2017 08:48 17,1 °C 17,1 °C 65 % 1018,5 hPa 0,0 mm 0,0 km/h (0 Bft) S-SO 167 ° 1 min 0,000 mm 2,8 UV-I 480 W/m² 10,5 °C 17,1 °C 0,0 km/h (0 Bft)
27.05.2017 08:49 17,2 °C 17,2 °C 66 % 1018,5 hPa 0,0 mm 0,2 km/h (0 Bft) S-SO 167 ° 1 min 0,000 mm 2,8 UV-I 483 W/m² 10,8 °C 17,2 °C 1,6 km/h (1 Bft)
27.05.2017 08:50 17,3 °C 17,3 °C 62 % 1018,5 hPa 0,0 mm 0,0 km/h (0 Bft) S-SO 167 ° 1 min 0,000 mm 2,8 UV-I 483 W/m² 9,9 °C 17,3 °C 0,0 km/h (0 Bft)
27.05.2017 08:51 17,3 °C 17,3 °C 67 % 1018,5 hPa 0,0 mm 2,7 km/h (1 Bft) NW 312 ° 1 min 0,000 mm 2,9 UV-I 489 W/m² 11,1 °C 17,3 °C 4,8 km/h (1 Bft)
27.05.2017 08:52 17,4 °C 17,4 °C 62 % 1018,5 hPa 0,0 mm 0,9 km/h (0 Bft) NW 314 ° 1 min 0,000 mm 2,9 UV-I 490 W/m² 10,0 °C 17,4 °C 4,8 km/h (1 Bft)
27.05.2017 08:53 17,4 °C 17,4 °C 63 % 1018,6 hPa 0,0 mm 0,1 km/h (0 Bft) NW 314 ° 1 min 0,000 mm 2,9 UV-I 494 W/m² 10,3 °C 17,4 °C 1,6 km/h (1 Bft)
27.05.2017 08:54 17,6 °C 17,6 °C 63 % 1018,6 hPa 0,0 mm 0,4 km/h (0 Bft) N-NW 330 ° 1 min 0,000 mm 2,9 UV-I 497 W/m² 10,5 °C 17,6 °C 3,2 km/h (1 Bft)
27.05.2017 08:55 17,6 °C 17,6 °C 63 % 1018,6 hPa 0,0 mm 3,6 km/h (1 Bft) N-NW 344 ° 1 min 0,000 mm 3,0 UV-I 501 W/m² 10,5 °C 17,6 °C 6,4 km/h (2 Bft)
27.05.2017 08:56 17,6 °C 17,7 °C 61 % 1018,6 hPa 0,0 mm 0,4 km/h (0 Bft) N-NW 344 ° 1 min 0,000 mm 3,0 UV-I 503 W/m² 10,0 °C 17,6 °C 1,6 km/h (1 Bft)
27.05.2017 08:57 17,6 °C 17,6 °C 60 % 1018,6 hPa 0,0 mm 1,3 km/h (1 Bft) N-NO 15 ° 1 min 0,000 mm 3,0 UV-I 506 W/m² 9,7 °C 17,6 °C 3,2 km/h (1 Bft)
27.05.2017 08:58 17,4 °C 17,6 °C 60 % 1018,6 hPa 0,0 mm 0,8 km/h (0 Bft) N-NO 15 ° 1 min 0,000 mm 3,0 UV-I 508 W/m² 9,6 °C 17,4 °C 1,6 km/h (1 Bft)
27.05.2017 08:59 17,4 °C 17,4 °C 63 % 1018,6 hPa 0,0 mm 3,5 km/h (1 Bft) NO 47 ° 1 min 0,000 mm 3,1 UV-I 510 W/m² 10,3 °C 17,4 °C 4,8 km/h (1 Bft)
27.05.2017 09:00 17,3 °C 17,4 °C 61 % 1018,6 hPa 0,0 mm 1,9 km/h (1 Bft) NO 47 ° 1 min 0,228 mm 3,1 UV-I 515 W/m² 9,7 °C 17,3 °C 3,2 km/h (1 Bft)
27.05.2017 09:01 17,3 °C 17,3 °C 65 % 1018,6 hPa 0,0 mm 2,1 km/h (1 Bft) NO 46 ° 1 min 0,000 mm 3,1 UV-I 519 W/m² 10,7 °C 17,3 °C 3,2 km/h (1 Bft)
27.05.2017 09:02 17,3 °C 17,3 °C 64 % 1018,7 hPa 0,0 mm 0,0 km/h (0 Bft) NO 46 ° 1 min 0,000 mm 3,1 UV-I 520 W/m² 10,4 °C 17,3 °C 0,0 km/h (0 Bft)
27.05.2017 09:03 17,5 °C 17,5 °C 67 % 1018,7 hPa 0,0 mm 0,6 km/h (0 Bft) NO 46 ° 1 min 0,000 mm 3,1 UV-I 524 W/m² 11,3 °C 17,5 °C 1,6 km/h (1 Bft)
27.05.2017 09:04 17,4 °C 17,5 °C 61 % 1018,7 hPa 0,0 mm 0,0 km/h (0 Bft) NO 46 ° 1 min 0,000 mm 3,2 UV-I 526 W/m² 9,8 °C 17,4 °C 0,0 km/h (0 Bft)
27.05.2017 09:05 17,4 °C 17,5 °C 62 % 1018,7 hPa 0,0 mm 1,8 km/h (1 Bft) NO 46 ° 1 min 0,000 mm 3,2 UV-I 527 W/m² 10,0 °C 17,4 °C 3,2 km/h (1 Bft)
27.05.2017 09:06 17,3 °C 17,4 °C 64 % 1018,7 hPa 0,0 mm 2,4 km/h (1 Bft) NO 49 ° 1 min 0,000 mm 3,2 UV-I 533 W/m² 10,4 °C 17,3 °C 3,2 km/h (1 Bft)
27.05.2017 09:07 17,4 °C 17,4 °C 67 % 1018,6 hPa 0,0 mm 3,0 km/h (1 Bft) NO 49 ° 1 min 0,000 mm 3,2 UV-I 536 W/m² 11,2 °C 17,4 °C 4,8 km/h (1 Bft)
27.05.2017 09:08 17,4 °C 17,4 °C 66 % 1018,7 hPa 0,0 mm 3,0 km/h (1 Bft) NO 49 ° 1 min 0,000 mm 3,3 UV-I 538 W/m² 11,0 °C 17,4 °C 4,8 km/h (1 Bft)
27.05.2017 09:09 17,3 °C 17,4 °C 68 % 1018,6 hPa 0,0 mm 3,6 km/h (1 Bft) NO 49 ° 1 min 0,000 mm 3,3 UV-I 540 W/m² 11,3 °C 17,3 °C 4,8 km/h (1 Bft)
27.05.2017 09:10 17,4 °C 17,4 °C 68 % 1018,7 hPa 0,0 mm 2,4 km/h (1 Bft) NO 51 ° 1 min 0,000 mm 3,3 UV-I 543 W/m² 11,4 °C 17,4 °C 3,2 km/h (1 Bft)
27.05.2017 09:11 17,4 °C 17,4 °C 69 % 1018,7 hPa 0,0 mm 2,9 km/h (1 Bft) NO 51 ° 1 min 0,000 mm 3,3 UV-I 545 W/m² 11,7 °C 17,4 °C 3,2 km/h (1 Bft)
27.05.2017 09:12 17,4 °C 17,4 °C 62 % 1018,7 hPa 0,0 mm 2,6 km/h (1 Bft) NO 51 ° 1 min 0,000 mm 3,3 UV-I 550 W/m² 10,0 °C 17,4 °C 3,2 km/h (1 Bft)
27.05.2017 09:13 17,4 °C 17,5 °C 62 % 1018,7 hPa 0,0 mm 0,4 km/h (0 Bft) NO 51 ° 1 min 0,000 mm 3,4 UV-I 550 W/m² 10,0 °C 17,4 °C 1,6 km/h (1 Bft)
27.05.2017 09:14 17,5 °C 17,5 °C 64 % 1018,7 hPa 0,0 mm 0,0 km/h (0 Bft) NO 51 ° 1 min 0,000 mm 3,4 UV-I 554 W/m² 10,6 °C 17,5 °C 0,0 km/h (0 Bft)
27.05.2017 09:15 17,6 °C 17,6 °C 63 % 1018,7 hPa 0,0 mm 0,3 km/h (0 Bft) NO 51 ° 1 min 0,000 mm 3,4 UV-I 555 W/m² 10,5 °C 17,6 °C 1,6 km/h (1 Bft)
27.05.2017 09:16 17,7 °C 17,7 °C 67 % 1018,7 hPa 0,0 mm 2,7 km/h (1 Bft) NO 51 ° 1 min 0,000 mm 3,4 UV-I 559 W/m² 11,5 °C 17,7 °C 4,8 km/h (1 Bft)
27.05.2017 09:17 17,8 °C 17,8 °C 71 % 1018,8 hPa 0,0 mm 0,5 km/h (0 Bft) NO 51 ° 1 min 0,000 mm 3,5 UV-I 561 W/m² 12,5 °C 17,8 °C 1,6 km/h (1 Bft)
27.05.2017 09:18 17,9 °C 17,9 °C 69 % 1018,7 hPa 0,0 mm 1,7 km/h (1 Bft) NO 51 ° 1 min 0,000 mm 3,5 UV-I 566 W/m² 12,1 °C 17,9 °C 3,2 km/h (1 Bft)
27.05.2017 09:19 18,1 °C 18,1 °C 69 % 1018,7 hPa 0,0 mm 0,7 km/h (0 Bft) NO 51 ° 1 min 0,000 mm 3,5 UV-I 568 W/m² 12,3 °C 18,1 °C 3,2 km/h (1 Bft)
27.05.2017 09:20 18,1 °C 18,1 °C 63 % 1018,7 hPa 0,0 mm 2,3 km/h (1 Bft) NO 52 ° 1 min 0,000 mm 3,6 UV-I 570 W/m² 10,9 °C 18,1 °C 4,8 km/h (1 Bft)
27.05.2017 09:21 17,9 °C 18,1 °C 61 % 1018,7 hPa 0,0 mm 3,5 km/h (1 Bft) O-NO 75 ° 1 min 0,000 mm 3,6 UV-I 573 W/m² 10,3 °C 17,9 °C 4,8 km/h (1 Bft)
27.05.2017 09:22 17,8 °C 17,9 °C 62 % 1018,7 hPa 0,0 mm 1,3 km/h (1 Bft) O-NO 75 ° 1 min 0,000 mm 3,6 UV-I 575 W/m² 10,4 °C 17,8 °C 3,2 km/h (1 Bft)
27.05.2017 09:23 17,8 °C 17,8 °C 64 % 1018,7 hPa 0,0 mm 0,4 km/h (0 Bft) O-NO 75 ° 1 min 0,000 mm 3,6 UV-I 580 W/m² 10,9 °C 17,8 °C 1,6 km/h (1 Bft)
27.05.2017 09:24 17,9 °C 17,9 °C 65 % 1018,7 hPa 0,0 mm 0,8 km/h (0 Bft) NW 321 ° 1 min 0,000 mm 3,6 UV-I 584 W/m² 11,2 °C 17,9 °C 1,6 km/h (1 Bft)
27.05.2017 09:25 18,1 °C 18,1 °C 64 % 1018,7 hPa 0,0 mm 2,7 km/h (1 Bft) NW 321 ° 1 min 0,000 mm 3,7 UV-I 584 W/m² 11,2 °C 18,1 °C 4,8 km/h (1 Bft)
27.05.2017 09:26 18,2 °C 18,2 °C 65 % 1018,7 hPa 0,0 mm 3,7 km/h (1 Bft) N-NO 24 ° 1 min 0,000 mm 3,7 UV-I 587 W/m² 11,5 °C 18,2 °C 4,8 km/h (1 Bft)
27.05.2017 09:27 18,2 °C 18,2 °C 63 % 1018,8 hPa 0,0 mm 2,8 km/h (1 Bft) N-NO 28 ° 1 min 0,000 mm 3,7 UV-I 589 W/m² 11,0 °C 18,2 °C 6,4 km/h (2 Bft)
27.05.2017 09:28 18,2 °C 18,2 °C 64 % 1018,8 hPa 0,0 mm 6,5 km/h (2 Bft) N-NW 336 ° 1 min 0,000 mm 3,7 UV-I 591 W/m² 11,3 °C 18,2 °C 12,9 km/h (3 Bft)
27.05.2017 09:29 18,2 °C 18,2 °C 63 % 1018,8 hPa 0,0 mm 3,4 km/h (1 Bft) N-NW 327 ° 1 min 0,000 mm 3,7 UV-I 596 W/m² 11,0 °C 18,2 °C 4,8 km/h (1 Bft)
27.05.2017 09:30 18,2 °C 18,2 °C 61 % 1018,7 hPa 0,0 mm 1,6 km/h (1 Bft) N-NW 340 ° 1 min 0,000 mm 3,8 UV-I 598 W/m² 10,6 °C 18,2 °C 3,2 km/h (1 Bft)
27.05.2017 09:31 18,3 °C 18,3 °C 65 % 1018,7 hPa 0,0 mm 4,0 km/h (1 Bft) N-NW 345 ° 1 min 0,000 mm 3,8 UV-I 601 W/m² 11,6 °C 18,3 °C 6,4 km/h (2 Bft)
27.05.2017 09:32 18,3 °C 18,3 °C 63 % 1018,7 hPa 0,0 mm 3,9 km/h (1 Bft) NW 318 ° 1 min 0,000 mm 3,8 UV-I 603 W/m² 11,1 °C 18,3 °C 6,4 km/h (2 Bft)
27.05.2017 09:33 18,3 °C 18,3 °C 64 % 1018,6 hPa 0,0 mm 2,7 km/h (1 Bft) NW 318 ° 1 min 0,000 mm 3,8 UV-I 603 W/m² 11,4 °C 18,3 °C 3,2 km/h (1 Bft)
27.05.2017 09:34 18,3 °C 18,3 °C 64 % 1018,7 hPa 0,0 mm 0,7 km/h (0 Bft) NW 318 ° 1 min 0,000 mm 3,9 UV-I 606 W/m² 11,4 °C 18,3 °C 3,2 km/h (1 Bft)
27.05.2017 09:35 18,4 °C 18,4 °C 64 % 1018,7 hPa 0,0 mm 0,0 km/h (0 Bft) NW 318 ° 1 min 0,000 mm 3,9 UV-I 612 W/m² 11,5 °C 18,4 °C 0,0 km/h (0 Bft)
27.05.2017 09:36 18,3 °C 18,4 °C 61 % 1018,8 hPa 0,0 mm 0,3 km/h (0 Bft) NW 318 ° 1 min 0,000 mm 3,9 UV-I 613 W/m² 10,6 °C 18,3 °C 1,6 km/h (1 Bft)
27.05.2017 09:37 18,2 °C 18,3 °C 62 % 1018,7 hPa 0,0 mm 1,1 km/h (1 Bft) NW 318 ° 1 min 0,000 mm 3,9 UV-I 615 W/m² 10,8 °C 18,2 °C 4,8 km/h (1 Bft)
27.05.2017 09:38 18,2 °C 18,2 °C 68 % 1018,7 hPa 0,0 mm 2,3 km/h (1 Bft) NW 325 ° 1 min 0,000 mm 4,0 UV-I 617 W/m² 12,2 °C 18,2 °C 6,4 km/h (2 Bft)
27.05.2017 09:39 18,3 °C 18,3 °C 65 % 1018,7 hPa 0,0 mm 4,2 km/h (1 Bft) W-NW 293 ° 1 min 0,000 mm 4,0 UV-I 617 W/m² 11,6 °C 18,3 °C 6,4 km/h (2 Bft)
27.05.2017 09:40 18,4 °C 18,4 °C 64 % 1018,7 hPa 0,0 mm 7,2 km/h (2 Bft) W-NW 284 ° 1 min 0,000 mm 4,0 UV-I 622 W/m² 11,5 °C 18,4 °C 9,7 km/h (2 Bft)
27.05.2017 09:41 18,4 °C 18,4 °C 62 % 1018,8 hPa 0,0 mm 6,0 km/h (2 Bft) W-NW 288 ° 1 min 0,000 mm 4,0 UV-I 624 W/m² 11,0 °C 18,4 °C 8,0 km/h (2 Bft)
27.05.2017 09:42 18,4 °C 18,5 °C 62 % 1018,8 hPa 0,0 mm 1,7 km/h (1 Bft) N 355 ° 1 min 0,000 mm 4,0 UV-I 629 W/m² 11,0 °C 18,4 °C 3,2 km/h (1 Bft)
27.05.2017 09:43 18,5 °C 18,5 °C 63 % 1018,8 hPa 0,0 mm 2,5 km/h (1 Bft) N 355 ° 1 min 0,000 mm 4,1 UV-I 629 W/m² 11,3 °C 18,5 °C 4,8 km/h (1 Bft)
27.05.2017 09:44 18,5 °C 18,5 °C 62 % 1018,8 hPa 0,0 mm 3,9 km/h (1 Bft) N 355 ° 1 min 0,000 mm 4,1 UV-I 631 W/m² 11,1 °C 18,5 °C 4,8 km/h (1 Bft)
27.05.2017 09:45 18,7 °C 18,7 °C 67 % 1018,9 hPa 0,0 mm 5,2 km/h (1 Bft) NW 304 ° 1 min 0,000 mm 4,1 UV-I 633 W/m² 12,4 °C 18,7 °C 6,4 km/h (2 Bft)
27.05.2017 09:46 18,9 °C 18,9 °C 64 % 1018,8 hPa 0,0 mm 1,3 km/h (1 Bft) NW 304 ° 1 min 0,000 mm 4,2 UV-I 635 W/m² 11,9 °C 18,9 °C 1,6 km/h (1 Bft)
27.05.2017 09:47 18,8 °C 18,9 °C 63 % 1018,8 hPa 0,0 mm 2,7 km/h (1 Bft) W-NW 290 ° 1 min 0,000 mm 4,2 UV-I 640 W/m² 11,6 °C 18,8 °C 6,4 km/h (2 Bft)
27.05.2017 09:48 18,8 °C 18,8 °C 61 % 1018,8 hPa 0,0 mm 1,3 km/h (1 Bft) W-NW 290 ° 1 min 0,000 mm 4,2 UV-I 642 W/m² 11,1 °C 18,8 °C 3,2 km/h (1 Bft)
27.05.2017 09:49 18,8 °C 18,9 °C 67 % 1018,8 hPa 0,0 mm 6,4 km/h (2 Bft) NW 315 ° 1 min 0,000 mm 4,2 UV-I 643 W/m² 12,5 °C 18,8 °C 8,0 km/h (2 Bft)
27.05.2017 09:50 18,8 °C 18,8 °C 61 % 1018,8 hPa 0,0 mm 4,4 km/h (1 Bft) N-NW 338 ° 1 min 0,000 mm 4,3 UV-I 645 W/m² 11,1 °C 18,8 °C 6,4 km/h (2 Bft)
27.05.2017 09:51 18,8 °C 18,8 °C 60 % 1018,9 hPa 0,0 mm 3,1 km/h (1 Bft) N-NW 348 ° 1 min 0,000 mm 4,3 UV-I 647 W/m² 10,9 °C 18,8 °C 4,8 km/h (1 Bft)
27.05.2017 09:52 18,7 °C 18,8 °C 61 % 1018,8 hPa 0,0 mm 2,8 km/h (1 Bft) N 9 ° 1 min 0,000 mm 4,3 UV-I 649 W/m² 11,0 °C 18,7 °C 6,4 km/h (2 Bft)
27.05.2017 09:53 18,7 °C 18,7 °C 61 % 1018,8 hPa 0,0 mm 2,2 km/h (1 Bft) N-NW 331 ° 1 min 0,000 mm 4,3 UV-I 654 W/m² 11,0 °C 18,7 °C 3,2 km/h (1 Bft)
27.05.2017 09:54 18,8 °C 18,8 °C 69 % 1018,8 hPa 0,0 mm 4,6 km/h (1 Bft) NW 320 ° 1 min 0,000 mm 4,4 UV-I 652 W/m² 13,0 °C 18,8 °C 6,4 km/h (2 Bft)
27.05.2017 09:55 18,9 °C 18,9 °C 65 % 1018,8 hPa 0,0 mm 6,6 km/h (2 Bft) N-NW 332 ° 1 min 0,000 mm 4,4 UV-I 657 W/m² 12,2 °C 18,9 °C 8,0 km/h (2 Bft)
27.05.2017 09:56 18,9 °C 18,9 °C 63 % 1018,8 hPa 0,0 mm 4,4 km/h (1 Bft) N-NW 335 ° 1 min 0,000 mm 4,4 UV-I 661 W/m² 11,7 °C 18,9 °C 6,4 km/h (2 Bft)
27.05.2017 09:57 19,1 °C 19,1 °C 63 % 1018,8 hPa 0,0 mm 3,7 km/h (1 Bft) N-NW 328 ° 1 min 0,000 mm 4,4 UV-I 663 W/m² 11,9 °C 19,1 °C 4,8 km/h (1 Bft)
27.05.2017 09:58 18,9 °C 19,1 °C 61 % 1018,8 hPa 0,0 mm 4,3 km/h (1 Bft) NW 325 ° 1 min 0,000 mm 4,4 UV-I 666 W/m² 11,2 °C 18,9 °C 6,4 km/h (2 Bft)
27.05.2017 09:59 18,8 °C 18,9 °C 61 % 1018,8 hPa 0,0 mm 0,8 km/h (0 Bft) NW 325 ° 1 min 0,000 mm 4,5 UV-I 668 W/m² 11,1 °C 18,8 °C 3,2 km/h (1 Bft)
27.05.2017 10:00 18,7 °C 18,8 °C 66 % 1018,8 hPa 0,0 mm 0,0 km/h (0 Bft) NW 325 ° 1 min 0,000 mm 4,5 UV-I 670 W/m² 12,2 °C 18,7 °C 0,0 km/h (0 Bft)
27.05.2017 10:01 18,8 °C 18,8 °C 64 % 1018,8 hPa 0,0 mm 0,5 km/h (0 Bft) NW 325 ° 1 min 0,356 mm 4,5 UV-I 673 W/m² 11,8 °C 18,8 °C 1,6 km/h (1 Bft)
27.05.2017 10:02 18,8 °C 18,8 °C 67 % 1018,8 hPa 0,0 mm 0,7 km/h (0 Bft) N-NW 335 ° 1 min 0,000 mm 4,6 UV-I 675 W/m² 12,5 °C 18,8 °C 3,2 km/h (1 Bft)
27.05.2017 10:03 19,0 °C 19,0 °C 63 % 1018,7 hPa 0,0 mm 0,7 km/h (0 Bft) N-NW 335 ° 1 min 0,000 mm 4,6 UV-I 677 W/m² 11,8 °C 19,0 °C 1,6 km/h (1 Bft)
27.05.2017 10:04 18,9 °C 19,0 °C 64 % 1018,8 hPa 0,0 mm 1,0 km/h (0 Bft) N-NW 331 ° 1 min 0,000 mm 4,6 UV-I 679 W/m² 11,9 °C 18,9 °C 3,2 km/h (1 Bft)
27.05.2017 10:05 19,0 °C 19,0 °C 66 % 1018,8 hPa 0,0 mm 1,8 km/h (1 Bft) W-SW 245 ° 1 min 0,000 mm 4,7 UV-I 684 W/m² 12,5 °C 19,0 °C 4,8 km/h (1 Bft)
27.05.2017 10:06 18,9 °C 19,0 °C 63 % 1018,8 hPa 0,0 mm 3,8 km/h (1 Bft) W 277 ° 1 min 0,000 mm 4,7 UV-I 686 W/m² 11,7 °C 18,9 °C 6,4 km/h (2 Bft)
27.05.2017 10:07 18,9 °C 18,9 °C 62 % 1018,7 hPa 0,0 mm 2,7 km/h (1 Bft) N-NW 344 ° 1 min 0,000 mm 4,7 UV-I 686 W/m² 11,5 °C 18,9 °C 4,8 km/h (1 Bft)
27.05.2017 10:08 19,2 °C 19,2 °C 65 % 1018,7 hPa 0,0 mm 3,6 km/h (1 Bft) N-NW 336 ° 1 min 0,000 mm 4,7 UV-I 687 W/m² 12,5 °C 19,2 °C 6,4 km/h (2 Bft)
27.05.2017 10:09 19,4 °C 19,4 °C 67 % 1018,7 hPa 0,0 mm 3,8 km/h (1 Bft) NW 305 ° 1 min 0,000 mm 4,7 UV-I 691 W/m² 13,1 °C 19,4 °C 6,4 km/h (2 Bft)
27.05.2017 10:10 19,6 °C 19,6 °C 65 % 1018,7 hPa 0,0 mm 4,4 km/h (1 Bft) N-NW 335 ° 1 min 0,000 mm 4,8 UV-I 694 W/m² 12,8 °C 19,6 °C 6,4 km/h (2 Bft)
27.05.2017 10:11 19,5 °C 19,6 °C 61 % 1018,7 hPa 0,0 mm 4,4 km/h (1 Bft) N-NO 20 ° 1 min 0,000 mm 4,8 UV-I 694 W/m² 11,8 °C 19,5 °C 6,4 km/h (2 Bft)
27.05.2017 10:12 19,4 °C 19,5 °C 61 % 1018,7 hPa 0,0 mm 5,5 km/h (1 Bft) N-NW 336 ° 1 min 0,000 mm 4,8 UV-I 700 W/m² 11,7 °C 19,4 °C 8,0 km/h (2 Bft)
27.05.2017 10:13 19,4 °C 19,4 °C 64 % 1018,7 hPa 0,0 mm 2,8 km/h (1 Bft) NW 311 ° 1 min 0,000 mm 4,9 UV-I 701 W/m² 12,4 °C 19,4 °C 4,8 km/h (1 Bft)
27.05.2017 10:14 19,5 °C 19,5 °C 64 % 1018,8 hPa 0,0 mm 6,0 km/h (2 Bft) N-NO 24 ° 1 min 0,000 mm 4,9 UV-I 701 W/m² 12,5 °C 19,5 °C 8,0 km/h (2 Bft)
27.05.2017 10:15 19,5 °C 19,6 °C 63 % 1018,8 hPa 0,0 mm 5,4 km/h (1 Bft) N-NO 16 ° 1 min 0,000 mm 4,9 UV-I 703 W/m² 12,3 °C 19,5 °C 6,4 km/h (2 Bft)
27.05.2017 10:16 19,4 °C 19,5 °C 60 % 1018,8 hPa 0,0 mm 5,0 km/h (1 Bft) N-NO 16 ° 1 min 0,000 mm 4,9 UV-I 707 W/m² 11,4 °C 19,4 °C 6,4 km/h (2 Bft)
27.05.2017 10:17 19,3 °C 19,4 °C 61 % 1018,8 hPa 0,0 mm 4,2 km/h (1 Bft) N-NO 16 ° 1 min 0,000 mm 4,9 UV-I 710 W/m² 11,6 °C 19,3 °C 4,8 km/h (1 Bft)
27.05.2017 10:18 19,2 °C 19,3 °C 61 % 1018,8 hPa 0,0 mm 1,9 km/h (1 Bft) N-NO 16 ° 1 min 0,000 mm 4,9 UV-I 710 W/m² 11,5 °C 19,2 °C 3,2 km/h (1 Bft)
27.05.2017 10:19 19,2 °C 19,2 °C 61 % 1018,8 hPa 0,0 mm 0,6 km/h (0 Bft) N-NO 16 ° 1 min 0,000 mm 4,9 UV-I 714 W/m² 11,5 °C 19,2 °C 1,6 km/h (1 Bft)
27.05.2017 10:20 19,1 °C 19,2 °C 62 % 1018,8 hPa 0,0 mm 1,4 km/h (1 Bft) N-NO 18 ° 1 min 0,000 mm 5,0 UV-I 715 W/m² 11,6 °C 19,1 °C 3,2 km/h (1 Bft)
27.05.2017 10:21 18,9 °C 19,1 °C 64 % 1018,7 hPa 0,0 mm 1,7 km/h (1 Bft) N-NO 18 ° 1 min 0,000 mm 5,0 UV-I 719 W/m² 11,9 °C 18,9 °C 3,2 km/h (1 Bft)
27.05.2017 10:22 18,9 °C 18,9 °C 65 % 1018,7 hPa 0,0 mm 2,1 km/h (1 Bft) N-NO 18 ° 1 min 0,000 mm 5,0 UV-I 722 W/m² 12,2 °C 18,9 °C 3,2 km/h (1 Bft)
27.05.2017 10:23 19,1 °C 19,1 °C 66 % 1018,7 hPa 0,0 mm 2,6 km/h (1 Bft) N-NO 18 ° 1 min 0,000 mm 5,0 UV-I 724 W/m² 12,6 °C 19,1 °C 4,8 km/h (1 Bft)
27.05.2017 10:24 19,2 °C 19,2 °C 63 % 1018,8 hPa 0,0 mm 1,7 km/h (1 Bft) N 355 ° 1 min 0,000 mm 5,0 UV-I 726 W/m² 12,0 °C 19,2 °C 3,2 km/h (1 Bft)
27.05.2017 10:25 19,4 °C 19,4 °C 67 % 1018,8 hPa 0,0 mm 2,8 km/h (1 Bft) N-NW 336 ° 1 min 0,000 mm 5,1 UV-I 728 W/m² 13,1 °C 19,4 °C 3,2 km/h (1 Bft)
27.05.2017 10:26 19,6 °C 19,6 °C 67 % 1018,8 hPa 0,0 mm 2,2 km/h (1 Bft) N 9 ° 1 min 0,000 mm 5,1 UV-I 728 W/m² 13,3 °C 19,6 °C 4,8 km/h (1 Bft)
27.05.2017 10:27 19,6 °C 19,6 °C 60 % 1018,7 hPa 0,0 mm 0,1 km/h (0 Bft) N 9 ° 1 min 0,000 mm 5,1 UV-I 729 W/m² 11,6 °C 19,6 °C 1,6 km/h (1 Bft)
27.05.2017 10:28 19,6 °C 19,6 °C 60 % 1018,7 hPa 0,0 mm 0,0 km/h (0 Bft) N 9 ° 1 min 0,000 mm 5,1 UV-I 737 W/m² 11,6 °C 19,6 °C 0,0 km/h (0 Bft)
27.05.2017 10:29 19,7 °C 19,7 °C 61 % 1018,7 hPa 0,0 mm 1,1 km/h (1 Bft) N 9 ° 1 min 0,000 mm 5,2 UV-I 737 W/m² 12,0 °C 19,7 °C 1,6 km/h (1 Bft)
27.05.2017 10:30 19,7 °C 19,7 °C 65 % 1018,7 hPa 0,0 mm 0,0 km/h (0 Bft) N 9 ° 1 min 0,000 mm 5,2 UV-I 738 W/m² 12,9 °C 19,7 °C 0,0 km/h (0 Bft)
27.05.2017 10:31 19,7 °C 19,7 °C 62 % 1018,7 hPa 0,0 mm 3,2 km/h (1 Bft) N-NW 334 ° 1 min 0,000 mm 5,2 UV-I 740 W/m² 12,2 °C 19,7 °C 6,4 km/h (2 Bft)
27.05.2017 10:32 19,8 °C 19,8 °C 64 % 1018,7 hPa 0,0 mm 5,0 km/h (1 Bft) NW 304 ° 1 min 0,000 mm 5,2 UV-I 740 W/m² 12,8 °C 19,8 °C 6,4 km/h (2 Bft)
27.05.2017 10:33 20,0 °C 20,0 °C 61 % 1018,7 hPa 0,0 mm 3,9 km/h (1 Bft) NW 310 ° 1 min 0,000 mm 5,3 UV-I 742 W/m² 12,2 °C 20,0 °C 6,4 km/h (2 Bft)
27.05.2017 10:34 19,9 °C 20,0 °C 61 % 1018,7 hPa 0,0 mm 1,1 km/h (1 Bft) NW 309 ° 1 min 0,000 mm 5,3 UV-I 747 W/m² 12,2 °C 19,9 °C 1,6 km/h (1 Bft)
27.05.2017 10:35 19,8 °C 19,9 °C 61 % 1018,6 hPa 0,0 mm 0,1 km/h (0 Bft) NW 309 ° 1 min 0,000 mm 5,3 UV-I 751 W/m² 12,1 °C 19,8 °C 1,6 km/h (1 Bft)
27.05.2017 10:36 19,6 °C 19,8 °C 59 % 1018,7 hPa 0,0 mm 0,0 km/h (0 Bft) NW 309 ° 1 min 0,000 mm 5,3 UV-I 752 W/m² 11,4 °C 19,6 °C 0,0 km/h (0 Bft)
27.05.2017 10:37 19,5 °C 19,6 °C 61 % 1018,7 hPa 0,0 mm 1,1 km/h (1 Bft) N-NW 336 ° 1 min 0,000 mm 5,4 UV-I 752 W/m² 11,8 °C 19,5 °C 3,2 km/h (1 Bft)
27.05.2017 10:38 19,6 °C 19,6 °C 66 % 1018,6 hPa 0,0 mm 3,6 km/h (1 Bft) N 5 ° 1 min 0,000 mm 5,4 UV-I 756 W/m² 13,1 °C 19,6 °C 6,4 km/h (2 Bft)
27.05.2017 10:39 19,9 °C 19,9 °C 62 % 1018,7 hPa 0,0 mm 4,1 km/h (1 Bft) N-NW 335 ° 1 min 0,000 mm 5,4 UV-I 756 W/m² 12,4 °C 19,9 °C 6,4 km/h (2 Bft)
27.05.2017 10:40 19,9 °C 19,9 °C 62 % 1018,6 hPa 0,0 mm 2,5 km/h (1 Bft) NO 43 ° 1 min 0,000 mm 5,4 UV-I 761 W/m² 12,4 °C 19,9 °C 6,4 km/h (2 Bft)
27.05.2017 10:41 20,0 °C 20,0 °C 63 % 1018,6 hPa 0,0 mm 1,7 km/h (1 Bft) NO 43 ° 1 min 0,000 mm 5,5 UV-I 761 W/m² 12,7 °C 20,0 °C 4,8 km/h (1 Bft)
27.05.2017 10:42 20,1 °C 20,1 °C 63 % 1018,6 hPa 0,0 mm 2,4 km/h (1 Bft) N 5 ° 1 min 0,000 mm 5,5 UV-I 761 W/m² 12,8 °C 20,1 °C 4,8 km/h (1 Bft)
27.05.2017 10:43 20,1 °C 20,1 °C 63 % 1018,6 hPa 0,0 mm 0,8 km/h (0 Bft) N 5 ° 1 min 0,000 mm 5,5 UV-I 766 W/m² 12,8 °C 20,1 °C 1,6 km/h (1 Bft)
27.05.2017 10:44 20,1 °C 20,1 °C 60 % 1018,6 hPa 0,0 mm 2,0 km/h (1 Bft) NO 50 ° 1 min 0,000 mm 5,5 UV-I 770 W/m² 12,1 °C 20,1 °C 3,2 km/h (1 Bft)
27.05.2017 10:45 20,0 °C 20,1 °C 56 % 1018,6 hPa 0,0 mm 2,1 km/h (1 Bft) NO 50 ° 1 min 0,000 mm 5,6 UV-I 772 W/m² 11,0 °C 20,0 °C 3,2 km/h (1 Bft)
27.05.2017 10:46 20,0 °C 20,0 °C 62 % 1018,6 hPa 0,0 mm 1,4 km/h (1 Bft) NO 50 ° 1 min 0,000 mm 5,6 UV-I 773 W/m² 12,5 °C 20,0 °C 3,2 km/h (1 Bft)
27.05.2017 10:47 20,1 °C 20,1 °C 57 % 1018,6 hPa 0,0 mm 0,1 km/h (0 Bft) NO 50 ° 1 min 0,000 mm 5,6 UV-I 775 W/m² 11,3 °C 20,1 °C 1,6 km/h (1 Bft)
27.05.2017 10:48 20,1 °C 20,1 °C 62 % 1018,6 hPa 0,0 mm 0,6 km/h (0 Bft) NO 50 ° 1 min 0,000 mm 5,6 UV-I 777 W/m² 12,6 °C 20,1 °C 3,2 km/h (1 Bft)
27.05.2017 10:49 20,1 °C 20,1 °C 62 % 1018,6 hPa 0,0 mm 3,0 km/h (1 Bft) NO 51 ° 1 min 0,000 mm 5,6 UV-I 779 W/m² 12,6 °C 20,1 °C 4,8 km/h (1 Bft)
27.05.2017 10:50 20,2 °C 20,2 °C 57 % 1018,6 hPa 0,0 mm 5,0 km/h (1 Bft) O 90 ° 1 min 0,000 mm 5,7 UV-I 782 W/m² 11,4 °C 20,2 °C 6,4 km/h (2 Bft)
27.05.2017 10:51 20,2 °C 20,3 °C 53 % 1018,6 hPa 0,0 mm 5,2 km/h (1 Bft) O-NO 78 ° 1 min 0,000 mm 5,7 UV-I 784 W/m² 10,3 °C 20,2 °C 6,4 km/h (2 Bft)
27.05.2017 10:52 20,2 °C 20,2 °C 54 % 1018,6 hPa 0,0 mm 3,3 km/h (1 Bft) O 94 ° 1 min 0,000 mm 5,7 UV-I 786 W/m² 10,6 °C 20,2 °C 6,4 km/h (2 Bft)
27.05.2017 10:53 20,2 °C 20,2 °C 54 % 1018,5 hPa 0,0 mm 3,8 km/h (1 Bft) O-NO 57 ° 1 min 0,000 mm 5,7 UV-I 788 W/m² 10,6 °C 20,2 °C 8,0 km/h (2 Bft)
27.05.2017 10:54 20,4 °C 20,4 °C 56 % 1018,6 hPa 0,0 mm 7,6 km/h (2 Bft) O 79 ° 1 min 0,000 mm 5,7 UV-I 789 W/m² 11,3 °C 20,4 °C 14,5 km/h (3 Bft)
27.05.2017 10:55 20,4 °C 20,5 °C 56 % 1018,6 hPa 0,0 mm 3,7 km/h (1 Bft) O-NO 62 ° 1 min 0,000 mm 5,7 UV-I 791 W/m² 11,3 °C 20,4 °C 4,8 km/h (1 Bft)
27.05.2017 10:56 20,3 °C 20,5 °C 52 % 1018,5 hPa 0,0 mm 0,6 km/h (0 Bft) O-NO 62 ° 1 min 0,000 mm 5,8 UV-I 793 W/m² 10,1 °C 20,3 °C 1,6 km/h (1 Bft)
27.05.2017 10:57 20,2 °C 20,3 °C 54 % 1018,6 hPa 0,0 mm 1,3 km/h (1 Bft) O-NO 62 ° 1 min 0,000 mm 5,8 UV-I 796 W/m² 10,6 °C 20,2 °C 3,2 km/h (1 Bft)
27.05.2017 10:58 20,2 °C 20,2 °C 56 % 1018,6 hPa 0,0 mm 4,1 km/h (1 Bft) N-NO 12 ° 1 min 0,000 mm 5,8 UV-I 796 W/m² 11,1 °C 20,2 °C 12,9 km/h (3 Bft)
27.05.2017 10:59 20,3 °C 20,3 °C 55 % 1018,6 hPa 0,0 mm 3,8 km/h (1 Bft) NO 47 ° 1 min 0,000 mm 5,8 UV-I 800 W/m² 11,0 °C 20,3 °C 11,3 km/h (2 Bft)
27.05.2017 11:00 20,2 °C 20,3 °C 50 % 1018,6 hPa 0,0 mm 3,0 km/h (1 Bft) O-NO 74 ° 1 min 0,432 mm 5,8 UV-I 802 W/m² 9,4 °C 20,2 °C 4,8 km/h (1 Bft)
27.05.2017 11:01 20,3 °C 20,3 °C 54 % 1018,6 hPa 0,0 mm 4,2 km/h (1 Bft) O-NO 61 ° 1 min 0,000 mm 5,8 UV-I 802 W/m² 10,7 °C 20,3 °C 6,4 km/h (2 Bft)
27.05.2017 11:02 20,5 °C 20,5 °C 54 % 1018,6 hPa 0,0 mm 3,8 km/h (1 Bft) O-NO 70 ° 1 min 0,000 mm 5,8 UV-I 803 W/m² 10,9 °C 20,5 °C 4,8 km/h (1 Bft)
27.05.2017 11:03 20,7 °C 20,7 °C 55 % 1018,6 hPa 0,0 mm 9,4 km/h (2 Bft) O-NO 75 ° 1 min 0,000 mm 5,8 UV-I 807 W/m² 11,3 °C 20,7 °C 14,5 km/h (3 Bft)
27.05.2017 11:04 20,7 °C 20,7 °C 54 % 1018,6 hPa 0,0 mm 8,0 km/h (2 Bft) NO 42 ° 1 min 0,000 mm 5,9 UV-I 807 W/m² 11,1 °C 20,7 °C 14,5 km/h (3 Bft)
27.05.2017 11:05 20,6 °C 20,7 °C 52 % 1018,6 hPa 0,0 mm 3,0 km/h (1 Bft) O-NO 65 ° 1 min 0,000 mm 5,9 UV-I 809 W/m² 10,4 °C 20,6 °C 6,4 km/h (2 Bft)
27.05.2017 11:06 20,6 °C 20,6 °C 57 % 1018,6 hPa 0,0 mm 0,7 km/h (0 Bft) O-NO 65 ° 1 min 0,000 mm 5,9 UV-I 810 W/m² 11,8 °C 20,6 °C 3,2 km/h (1 Bft)
27.05.2017 11:07 20,6 °C 20,6 °C 53 % 1018,6 hPa 0,0 mm 4,2 km/h (1 Bft) NO 43 ° 1 min 0,000 mm 5,9 UV-I 810 W/m² 10,7 °C 20,6 °C 8,0 km/h (2 Bft)
27.05.2017 11:08 20,7 °C 20,7 °C 51 % 1018,6 hPa 0,0 mm 4,2 km/h (1 Bft) NO 56 ° 1 min 0,000 mm 5,9 UV-I 814 W/m² 10,2 °C 20,7 °C 6,4 km/h (2 Bft)
27.05.2017 11:09 20,7 °C 20,7 °C 53 % 1018,6 hPa 0,0 mm 1,6 km/h (1 Bft) O-NO 57 ° 1 min 0,000 mm 6,0 UV-I 816 W/m² 10,8 °C 20,7 °C 3,2 km/h (1 Bft)
27.05.2017 11:10 20,6 °C 20,7 °C 55 % 1018,7 hPa 0,0 mm 9,1 km/h (2 Bft) O-NO 76 ° 1 min 0,000 mm 6,0 UV-I 817 W/m² 11,2 °C 20,6 °C 14,5 km/h (3 Bft)
27.05.2017 11:11 20,6 °C 20,7 °C 52 % 1018,7 hPa 0,0 mm 9,0 km/h (2 Bft) N 5 ° 1 min 0,000 mm 6,0 UV-I 823 W/m² 10,4 °C 20,6 °C 12,9 km/h (3 Bft)
27.05.2017 11:12 20,6 °C 20,6 °C 56 % 1018,7 hPa 0,0 mm 6,0 km/h (2 Bft) O 93 ° 1 min 0,000 mm 6,0 UV-I 824 W/m² 11,5 °C 20,6 °C 9,7 km/h (2 Bft)
27.05.2017 11:13 20,6 °C 20,6 °C 52 % 1018,7 hPa 0,0 mm 7,6 km/h (2 Bft) NO 55 ° 1 min 0,000 mm 6,0 UV-I 823 W/m² 10,4 °C 20,6 °C 11,3 km/h (2 Bft)
27.05.2017 11:14 20,6 °C 20,6 °C 52 % 1018,7 hPa 0,0 mm 5,4 km/h (1 Bft) NO 54 ° 1 min 0,000 mm 6,0 UV-I 823 W/m² 10,4 °C 20,6 °C 9,7 km/h (2 Bft)
27.05.2017 11:15 20,6 °C 20,6 °C 51 % 1018,7 hPa 0,0 mm 1,1 km/h (1 Bft) NO 54 ° 1 min 0,000 mm 6,0 UV-I 824 W/m² 10,1 °C 20,6 °C 3,2 km/h (1 Bft)
27.05.2017 11:16 20,6 °C 20,6 °C 53 % 1018,7 hPa 0,0 mm 2,3 km/h (1 Bft) O-SO 109 ° 1 min 0,000 mm 6,1 UV-I 828 W/m² 10,7 °C 20,6 °C 9,7 km/h (2 Bft)
27.05.2017 11:17 20,6 °C 20,6 °C 56 % 1018,7 hPa 0,0 mm 5,0 km/h (1 Bft) NO 50 ° 1 min 0,000 mm 6,1 UV-I 826 W/m² 11,5 °C 20,6 °C 6,4 km/h (2 Bft)
27.05.2017 11:18 20,5 °C 20,6 °C 52 % 1018,8 hPa 0,0 mm 7,6 km/h (2 Bft) O-NO 78 ° 1 min 0,000 mm 6,1 UV-I 828 W/m² 10,3 °C 20,5 °C 11,3 km/h (2 Bft)
27.05.2017 11:19 20,4 °C 20,5 °C 53 % 1018,8 hPa 0,0 mm 8,0 km/h (2 Bft) O-SO 103 ° 1 min 0,000 mm 6,1 UV-I 830 W/m² 10,5 °C 20,4 °C 9,7 km/h (2 Bft)
27.05.2017 11:20 20,4 °C 20,4 °C 52 % 1018,8 hPa 0,0 mm 5,2 km/h (1 Bft) O 98 ° 1 min 0,000 mm 6,2 UV-I 833 W/m² 10,2 °C 20,4 °C 9,7 km/h (2 Bft)
27.05.2017 11:21 20,3 °C 20,4 °C 52 % 1018,8 hPa 0,0 mm 3,7 km/h (1 Bft) O 98 ° 1 min 0,000 mm 6,2 UV-I 835 W/m² 10,1 °C 20,3 °C 4,8 km/h (1 Bft)
27.05.2017 11:22 20,3 °C 20,3 °C 51 % 1018,8 hPa 0,0 mm 3,3 km/h (1 Bft) S-SW 203 ° 1 min 0,000 mm 6,2 UV-I 837 W/m² 9,8 °C 20,3 °C 6,4 km/h (2 Bft)
27.05.2017 11:23 20,3 °C 20,3 °C 53 % 1018,8 hPa 0,0 mm 4,1 km/h (1 Bft) O 90 ° 1 min 0,000 mm 6,2 UV-I 837 W/m² 10,4 °C 20,3 °C 6,4 km/h (2 Bft)
27.05.2017 11:24 20,3 °C 20,3 °C 55 % 1018,8 hPa 0,0 mm 6,9 km/h (2 Bft) O 90 ° 1 min 0,000 mm 6,2 UV-I 840 W/m² 11,0 °C 20,3 °C 11,3 km/h (2 Bft)
27.05.2017 11:25 20,4 °C 20,4 °C 54 % 1018,8 hPa 0,0 mm 7,0 km/h (2 Bft) O-NO 61 ° 1 min 0,000 mm 6,2 UV-I 840 W/m² 10,8 °C 20,4 °C 9,7 km/h (2 Bft)
27.05.2017 11:26 20,6 °C 20,6 °C 51 % 1018,8 hPa 0,0 mm 9,5 km/h (2 Bft) N-NO 28 ° 1 min 0,000 mm 6,3 UV-I 846 W/m² 10,1 °C 20,6 °C 14,5 km/h (3 Bft)
27.05.2017 11:27 20,8 °C 20,8 °C 51 % 1018,8 hPa 0,0 mm 6,2 km/h (2 Bft) O-NO 68 ° 1 min 0,000 mm 6,3 UV-I 844 W/m² 10,3 °C 20,8 °C 8,0 km/h (2 Bft)
27.05.2017 11:28 20,9 °C 20,9 °C 50 % 1018,8 hPa 0,0 mm 2,6 km/h (1 Bft) O-SO 103 ° 1 min 0,000 mm 6,3 UV-I 846 W/m² 10,1 °C 20,9 °C 4,8 km/h (1 Bft)
27.05.2017 11:29 21,0 °C 21,0 °C 52 % 1018,8 hPa 0,0 mm 0,9 km/h (0 Bft) O 82 ° 1 min 0,000 mm 6,3 UV-I 847 W/m² 10,8 °C 21,0 °C 4,8 km/h (1 Bft)
27.05.2017 11:30 21,1 °C 21,1 °C 52 % 1018,8 hPa 0,0 mm 3,6 km/h (1 Bft) O-NO 77 ° 1 min 0,000 mm 6,3 UV-I 849 W/m² 10,9 °C 21,1 °C 6,4 km/h (2 Bft)
27.05.2017 11:31 21,0 °C 21,1 °C 49 % 1018,9 hPa 0,0 mm 4,7 km/h (1 Bft) NO 47 ° 1 min 0,000 mm 6,4 UV-I 849 W/m² 9,9 °C 21,0 °C 6,4 km/h (2 Bft)
27.05.2017 11:32 21,1 °C 21,1 °C 51 % 1018,9 hPa 0,0 mm 3,9 km/h (1 Bft) O-NO 63 ° 1 min 0,000 mm 6,4 UV-I 851 W/m² 10,6 °C 21,1 °C 8,0 km/h (2 Bft)
27.05.2017 11:33 21,2 °C 21,2 °C 57 % 1018,9 hPa 0,0 mm 2,4 km/h (1 Bft) O-NO 73 ° 1 min 0,000 mm 6,4 UV-I 851 W/m² 12,3 °C 21,2 °C 6,4 km/h (2 Bft)
27.05.2017 11:34 21,1 °C 21,2 °C 49 % 1018,9 hPa 0,0 mm 2,9 km/h (1 Bft) O-NO 74 ° 1 min 0,000 mm 6,4 UV-I 853 W/m² 10,0 °C 21,1 °C 4,8 km/h (1 Bft)
27.05.2017 11:35 21,1 °C 21,1 °C 50 % 1018,9 hPa 0,0 mm 2,0 km/h (1 Bft) O-NO 74 ° 1 min 0,000 mm 6,4 UV-I 854 W/m² 10,3 °C 21,1 °C 3,2 km/h (1 Bft)
27.05.2017 11:36 20,9 °C 21,1 °C 49 % 1018,9 hPa 0,0 mm 2,2 km/h (1 Bft) O-NO 74 ° 1 min 0,000 mm 6,5 UV-I 854 W/m² 9,8 °C 20,9 °C 3,2 km/h (1 Bft)
27.05.2017 11:37 20,9 °C 20,9 °C 50 % 1018,9 hPa 0,0 mm 1,6 km/h (1 Bft) O-NO 74 ° 1 min 0,000 mm 6,5 UV-I 858 W/m² 10,1 °C 20,9 °C 3,2 km/h (1 Bft)
27.05.2017 11:38 20,9 °C 20,9 °C 52 % 1018,8 hPa 0,0 mm 4,0 km/h (1 Bft) N-NO 31 ° 1 min 0,000 mm 6,5 UV-I 860 W/m² 10,7 °C 20,9 °C 8,0 km/h (2 Bft)
27.05.2017 11:39 21,1 °C 21,1 °C 52 % 1018,8 hPa 0,0 mm 9,5 km/h (2 Bft) N-NO 32 ° 1 min 0,000 mm 6,5 UV-I 858 W/m² 10,9 °C 21,1 °C 14,5 km/h (3 Bft)
27.05.2017 11:40 21,1 °C 21,1 °C 50 % 1018,8 hPa 0,0 mm 4,0 km/h (1 Bft) NO 38 ° 1 min 0,000 mm 6,5 UV-I 861 W/m² 10,3 °C 21,1 °C 6,4 km/h (2 Bft)
27.05.2017 11:41 21,2 °C 21,2 °C 49 % 1018,8 hPa 0,0 mm 3,6 km/h (1 Bft) NO 49 ° 1 min 0,000 mm 6,5 UV-I 861 W/m² 10,1 °C 21,2 °C 9,7 km/h (2 Bft)
27.05.2017 11:42 21,1 °C 21,2 °C 49 % 1018,9 hPa 0,0 mm 7,2 km/h (2 Bft) O 85 ° 1 min 0,000 mm 6,6 UV-I 865 W/m² 10,0 °C 21,1 °C 11,3 km/h (2 Bft)
27.05.2017 11:43 21,0 °C 21,1 °C 52 % 1018,8 hPa 0,0 mm 6,4 km/h (2 Bft) O 97 ° 1 min 0,000 mm 6,6 UV-I 865 W/m² 10,8 °C 21,0 °C 9,7 km/h (2 Bft)
27.05.2017 11:44 21,0 °C 21,0 °C 60 % 1018,8 hPa 0,0 mm 3,3 km/h (1 Bft) O 84 ° 1 min 0,000 mm 6,6 UV-I 865 W/m² 12,9 °C 21,0 °C 6,4 km/h (2 Bft)
27.05.2017 11:45 21,1 °C 21,1 °C 52 % 1018,9 hPa 0,0 mm 6,4 km/h (2 Bft) O-SO 105 ° 1 min 0,000 mm 6,6 UV-I 868 W/m² 10,9 °C 21,1 °C 9,7 km/h (2 Bft)
27.05.2017 11:46 21,2 °C 21,2 °C 54 % 1018,8 hPa 0,0 mm 4,2 km/h (1 Bft) O-SO 104 ° 1 min 0,000 mm 6,6 UV-I 867 W/m² 11,5 °C 21,2 °C 6,4 km/h (2 Bft)
27.05.2017 11:47 21,2 °C 21,2 °C 51 % 1018,8 hPa 0,0 mm 3,8 km/h (1 Bft) O-SO 103 ° 1 min 0,000 mm 6,6 UV-I 867 W/m² 10,7 °C 21,2 °C 6,4 km/h (2 Bft)
27.05.2017 11:48 21,2 °C 21,2 °C 50 % 1018,8 hPa 0,0 mm 2,7 km/h (1 Bft) O 83 ° 1 min 0,000 mm 6,6 UV-I 868 W/m² 10,4 °C 21,2 °C 4,8 km/h (1 Bft)
27.05.2017 11:49 21,3 °C 21,3 °C 50 % 1018,8 hPa 0,0 mm 2,5 km/h (1 Bft) O 97 ° 1 min 0,000 mm 6,7 UV-I 867 W/m² 10,4 °C 21,3 °C 4,8 km/h (1 Bft)
27.05.2017 11:50 21,3 °C 21,3 °C 50 % 1018,8 hPa 0,0 mm 3,9 km/h (1 Bft) O 93 ° 1 min 0,000 mm 6,7 UV-I 872 W/m² 10,4 °C 21,3 °C 6,4 km/h (2 Bft)
27.05.2017 11:51 21,3 °C 21,3 °C 52 % 1018,8 hPa 0,0 mm 2,8 km/h (1 Bft) O 80 ° 1 min 0,000 mm 6,7 UV-I 872 W/m² 11,0 °C 21,3 °C 4,8 km/h (1 Bft)
27.05.2017 11:52 21,3 °C 21,3 °C 51 % 1018,8 hPa 0,0 mm 4,8 km/h (1 Bft) NO 34 ° 1 min 0,000 mm 6,7 UV-I 874 W/m² 10,7 °C 21,3 °C 6,4 km/h (2 Bft)
27.05.2017 11:53 21,5 °C 21,5 °C 51 % 1018,9 hPa 0,0 mm 7,4 km/h (2 Bft) N-NO 32 ° 1 min 0,000 mm 6,7 UV-I 874 W/m² 10,9 °C 21,5 °C 11,3 km/h (2 Bft)
27.05.2017 11:54 21,6 °C 21,6 °C 51 % 1018,9 hPa 0,0 mm 6,2 km/h (2 Bft) NO 42 ° 1 min 0,000 mm 6,7 UV-I 874 W/m² 11,0 °C 21,6 °C 9,7 km/h (2 Bft)
27.05.2017 11:55 21,7 °C 21,7 °C 49 % 1018,9 hPa 0,0 mm 4,6 km/h (1 Bft) O-NO 64 ° 1 min 0,000 mm 6,7 UV-I 875 W/m² 10,5 °C 21,7 °C 6,4 km/h (2 Bft)
27.05.2017 11:56 21,6 °C 21,7 °C 48 % 1018,9 hPa 0,0 mm 4,5 km/h (1 Bft) O-NO 67 ° 1 min 0,000 mm 6,7 UV-I 879 W/m² 10,1 °C 21,6 °C 6,4 km/h (2 Bft)
27.05.2017 11:57 21,4 °C 21,6 °C 47 % 1018,9 hPa 0,0 mm 5,5 km/h (1 Bft) O-NO 61 ° 1 min 0,000 mm 6,7 UV-I 879 W/m² 9,6 °C 21,4 °C 8,0 km/h (2 Bft)
27.05.2017 11:58 21,3 °C 21,4 °C 47 % 1018,9 hPa 0,0 mm 2,4 km/h (1 Bft) NO 46 ° 1 min 0,000 mm 6,8 UV-I 882 W/m² 9,5 °C 21,3 °C 4,8 km/h (1 Bft)
27.05.2017 11:59 21,3 °C 21,3 °C 50 % 1018,9 hPa 0,0 mm 1,9 km/h (1 Bft) NO 46 ° 1 min 0,000 mm 6,8 UV-I 882 W/m² 10,4 °C 21,3 °C 3,2 km/h (1 Bft)
27.05.2017 12:00 21,5 °C 21,5 °C 49 % 1018,9 hPa 0,0 mm 3,1 km/h (1 Bft) NO 46 ° 1 min 0,000 mm 6,8 UV-I 881 W/m² 10,3 °C 21,5 °C 4,8 km/h (1 Bft)
27.05.2017 12:01 21,5 °C 21,5 °C 47 % 1018,9 hPa 0,0 mm 5,4 km/h (1 Bft) NO 51 ° 1 min 0,533 mm 6,8 UV-I 884 W/m² 9,7 °C 21,5 °C 8,0 km/h (2 Bft)
27.05.2017 12:02 21,6 °C 21,6 °C 49 % 1018,9 hPa 0,0 mm 6,5 km/h (2 Bft) NO 54 ° 1 min 0,000 mm 6,8 UV-I 888 W/m² 10,4 °C 21,6 °C 8,0 km/h (2 Bft)
27.05.2017 12:03 21,7 °C 21,7 °C 45 % 1018,9 hPa 0,0 mm 6,0 km/h (2 Bft) O 99 ° 1 min 0,000 mm 6,9 UV-I 888 W/m² 9,2 °C 21,7 °C 8,0 km/h (2 Bft)
27.05.2017 12:04 21,7 °C 21,7 °C 45 % 1018,8 hPa 0,0 mm 4,3 km/h (1 Bft) O 82 ° 1 min 0,000 mm 6,9 UV-I 888 W/m² 9,2 °C 21,7 °C 8,0 km/h (2 Bft)
27.05.2017 12:05 21,6 °C 21,7 °C 47 % 1018,8 hPa 0,0 mm 3,9 km/h (1 Bft) O-NO 67 ° 1 min 0,000 mm 6,9 UV-I 889 W/m² 9,8 °C 21,6 °C 6,4 km/h (2 Bft)
27.05.2017 12:06 21,6 °C 21,6 °C 45 % 1018,9 hPa 0,0 mm 6,6 km/h (2 Bft) O 84 ° 1 min 0,000 mm 6,9 UV-I 889 W/m² 9,2 °C 21,6 °C 8,0 km/h (2 Bft)
27.05.2017 12:07 21,5 °C 21,6 °C 44 % 1018,8 hPa 0,0 mm 4,9 km/h (1 Bft) O 79 ° 1 min 0,000 mm 6,9 UV-I 891 W/m² 8,7 °C 21,5 °C 6,4 km/h (2 Bft)
27.05.2017 12:08 21,5 °C 21,5 °C 48 % 1018,8 hPa 0,0 mm 5,2 km/h (1 Bft) O-NO 75 ° 1 min 0,000 mm 6,9 UV-I 891 W/m² 10,0 °C 21,5 °C 8,0 km/h (2 Bft)
27.05.2017 12:09 21,5 °C 21,5 °C 44 % 1018,8 hPa 0,0 mm 6,2 km/h (2 Bft) O 96 ° 1 min 0,000 mm 6,9 UV-I 893 W/m² 8,7 °C 21,5 °C 11,3 km/h (2 Bft)
27.05.2017 12:10 21,6 °C 21,6 °C 41 % 1018,8 hPa 0,0 mm 5,2 km/h (1 Bft) O-NO 58 ° 1 min 0,000 mm 6,9 UV-I 895 W/m² 7,8 °C 21,6 °C 6,4 km/h (2 Bft)
27.05.2017 12:11 21,4 °C 21,6 °C 47 % 1018,8 hPa 0,0 mm 1,9 km/h (1 Bft) O-NO 58 ° 1 min 0,000 mm 6,9 UV-I 895 W/m² 9,6 °C 21,4 °C 3,2 km/h (1 Bft)
27.05.2017 12:12 21,4 °C 21,4 °C 45 % 1018,8 hPa 0,0 mm 1,7 km/h (1 Bft) NO 51 ° 1 min 0,000 mm 6,9 UV-I 895 W/m² 9,0 °C 21,4 °C 4,8 km/h (1 Bft)
27.05.2017 12:13 21,4 °C 21,4 °C 47 % 1018,8 hPa 0,0 mm 2,2 km/h (1 Bft) N-NO 28 ° 1 min 0,000 mm 6,9 UV-I 896 W/m² 9,6 °C 21,4 °C 4,8 km/h (1 Bft)
27.05.2017 12:14 21,7 °C 21,7 °C 47 % 1018,8 hPa 0,0 mm 6,2 km/h (2 Bft) NO 39 ° 1 min 0,000 mm 7,0 UV-I 896 W/m² 9,9 °C 21,7 °C 8,0 km/h (2 Bft)
27.05.2017 12:15 21,9 °C 21,9 °C 51 % 1018,8 hPa 0,0 mm 8,2 km/h (2 Bft) N 5 ° 1 min 0,000 mm 7,0 UV-I 896 W/m² 11,3 °C 21,9 °C 11,3 km/h (2 Bft)
27.05.2017 12:16 22,1 °C 22,1 °C 51 % 1018,8 hPa 0,0 mm 6,8 km/h (2 Bft) N-NW 346 ° 1 min 0,000 mm 7,0 UV-I 898 W/m² 11,5 °C 22,1 °C 11,3 km/h (2 Bft)
27.05.2017 12:17 22,2 °C 22,2 °C 53 % 1018,8 hPa 0,0 mm 4,8 km/h (1 Bft) N 355 ° 1 min 0,000 mm 7,0 UV-I 896 W/m² 12,2 °C 22,2 °C 6,4 km/h (2 Bft)
27.05.2017 12:18 22,3 °C 22,3 °C 57 % 1018,8 hPa 0,0 mm 3,3 km/h (1 Bft) N-NW 340 ° 1 min 0,000 mm 7,0 UV-I 898 W/m² 13,4 °C 22,3 °C 6,4 km/h (2 Bft)
27.05.2017 12:19 22,3 °C 22,3 °C 47 % 1018,8 hPa 0,0 mm 2,0 km/h (1 Bft) O-NO 73 ° 1 min 0,000 mm 7,0 UV-I 898 W/m² 10,4 °C 22,3 °C 4,8 km/h (1 Bft)
27.05.2017 12:20 22,2 °C 22,3 °C 50 % 1018,9 hPa 0,0 mm 5,1 km/h (1 Bft) O 93 ° 1 min 0,000 mm 7,0 UV-I 898 W/m² 11,3 °C 22,2 °C 9,7 km/h (2 Bft)
27.05.2017 12:21 22,1 °C 22,2 °C 49 % 1018,8 hPa 0,0 mm 4,0 km/h (1 Bft) O-NO 66 ° 1 min 0,000 mm 7,1 UV-I 900 W/m² 10,9 °C 22,1 °C 11,3 km/h (2 Bft)
27.05.2017 12:22 22,0 °C 22,1 °C 51 % 1018,8 hPa 0,0 mm 6,8 km/h (2 Bft) O 84 ° 1 min 0,000 mm 7,1 UV-I 898 W/m² 11,4 °C 22,0 °C 9,7 km/h (2 Bft)
27.05.2017 12:23 21,9 °C 22,0 °C 47 % 1018,8 hPa 0,0 mm 5,3 km/h (1 Bft) O-SO 114 ° 1 min 0,000 mm 7,1 UV-I 900 W/m² 10,1 °C 21,9 °C 8,0 km/h (2 Bft)
27.05.2017 12:24 21,7 °C 21,9 °C 54 % 1018,8 hPa 0,0 mm 4,5 km/h (1 Bft) O 80 ° 1 min 0,000 mm 7,1 UV-I 902 W/m² 12,0 °C 21,7 °C 6,4 km/h (2 Bft)
27.05.2017 12:25 21,8 °C 21,8 °C 49 % 1018,8 hPa 0,0 mm 6,6 km/h (2 Bft) O-NO 65 ° 1 min 0,000 mm 7,1 UV-I 902 W/m² 10,6 °C 21,8 °C 11,3 km/h (2 Bft)
27.05.2017 12:26 21,9 °C 21,9 °C 49 % 1018,7 hPa 0,0 mm 6,6 km/h (2 Bft) NO 46 ° 1 min 0,000 mm 7,1 UV-I 902 W/m² 10,7 °C 21,9 °C 9,7 km/h (2 Bft)
27.05.2017 12:27 21,9 °C 21,9 °C 48 % 1018,8 hPa 0,0 mm 4,2 km/h (1 Bft) N-NO 32 ° 1 min 0,000 mm 7,1 UV-I 902 W/m² 10,4 °C 21,9 °C 6,4 km/h (2 Bft)
27.05.2017 12:28 22,0 °C 22,0 °C 50 % 1018,8 hPa 0,0 mm 2,1 km/h (1 Bft) N-NO 32 ° 1 min 0,000 mm 7,1 UV-I 904 W/m² 11,1 °C 22,0 °C 4,8 km/h (1 Bft)
27.05.2017 12:29 22,0 °C 22,0 °C 52 % 1018,8 hPa 0,0 mm 3,8 km/h (1 Bft) O-SO 113 ° 1 min 0,000 mm 7,1 UV-I 904 W/m² 11,7 °C 22,0 °C 4,8 km/h (1 Bft)
27.05.2017 12:30 21,9 °C 22,0 °C 50 % 1018,8 hPa 0,0 mm 2,3 km/h (1 Bft) O-SO 122 ° 1 min 0,000 mm 7,1 UV-I 905 W/m² 11,0 °C 21,9 °C 3,2 km/h (1 Bft)
27.05.2017 12:31 21,9 °C 21,9 °C 52 % 1018,8 hPa 0,0 mm 3,3 km/h (1 Bft) O 94 ° 1 min 0,000 mm 7,1 UV-I 905 W/m² 11,6 °C 21,9 °C 9,7 km/h (2 Bft)
27.05.2017 12:32 21,9 °C 21,9 °C 50 % 1018,8 hPa 0,0 mm 7,8 km/h (2 Bft) O 80 ° 1 min 0,000 mm 7,1 UV-I 907 W/m² 11,0 °C 21,9 °C 11,3 km/h (2 Bft)
27.05.2017 12:33 21,9 °C 21,9 °C 47 % 1018,8 hPa 0,0 mm 1,3 km/h (1 Bft) O 80 ° 1 min 0,000 mm 7,1 UV-I 905 W/m² 10,1 °C 21,9 °C 4,8 km/h (1 Bft)
27.05.2017 12:34 21,9 °C 21,9 °C 58 % 1018,8 hPa 0,0 mm 0,6 km/h (0 Bft) O 80 ° 1 min 0,000 mm 7,1 UV-I 909 W/m² 13,3 °C 21,9 °C 3,2 km/h (1 Bft)
27.05.2017 12:35 21,9 °C 21,9 °C 56 % 1018,7 hPa 0,0 mm 0,3 km/h (0 Bft) N 5 ° 1 min 0,000 mm 7,2 UV-I 909 W/m² 12,7 °C 21,9 °C 4,8 km/h (1 Bft)
27.05.2017 12:36 22,2 °C 22,2 °C 50 % 1018,7 hPa 0,0 mm 3,7 km/h (1 Bft) N 5 ° 1 min 0,000 mm 7,2 UV-I 911 W/m² 11,3 °C 22,2 °C 6,4 km/h (2 Bft)
27.05.2017 12:37 22,3 °C 22,3 °C 51 % 1018,7 hPa 0,0 mm 6,7 km/h (2 Bft) N-NO 23 ° 1 min 0,000 mm 7,2 UV-I 912 W/m² 11,7 °C 22,3 °C 9,7 km/h (2 Bft)
27.05.2017 12:38 22,6 °C 22,6 °C 48 % 1018,7 hPa 0,0 mm 3,6 km/h (1 Bft) N 351 ° 1 min 0,000 mm 7,2 UV-I 911 W/m² 11,0 °C 22,6 °C 4,8 km/h (1 Bft)
27.05.2017 12:39 22,7 °C 22,7 °C 48 % 1018,7 hPa 0,0 mm 3,3 km/h (1 Bft) N 5 ° 1 min 0,000 mm 7,2 UV-I 912 W/m² 11,1 °C 22,7 °C 4,8 km/h (1 Bft)
27.05.2017 12:40 22,9 °C 22,9 °C 52 % 1018,7 hPa 0,0 mm 3,0 km/h (1 Bft) N 11 ° 1 min 0,000 mm 7,2 UV-I 912 W/m² 12,5 °C 22,9 °C 4,8 km/h (1 Bft)
27.05.2017 12:41 22,9 °C 22,9 °C 50 % 1018,6 hPa 0,0 mm 2,0 km/h (1 Bft) O-NO 63 ° 1 min 0,000 mm 7,2 UV-I 912 W/m² 11,9 °C 22,9 °C 3,2 km/h (1 Bft)
27.05.2017 12:42 22,8 °C 22,9 °C 45 % 1018,7 hPa 0,0 mm 5,5 km/h (1 Bft) O 84 ° 1 min 0,000 mm 7,3 UV-I 914 W/m² 10,2 °C 22,8 °C 8,0 km/h (2 Bft)
27.05.2017 12:43 22,6 °C 22,8 °C 45 % 1018,7 hPa 0,0 mm 3,4 km/h (1 Bft) O 88 ° 1 min 0,000 mm 7,3 UV-I 912 W/m² 10,1 °C 22,6 °C 4,8 km/h (1 Bft)
27.05.2017 12:44 22,4 °C 22,6 °C 47 % 1018,7 hPa 0,0 mm 1,2 km/h (1 Bft) O 88 ° 1 min 0,000 mm 7,3 UV-I 914 W/m² 10,5 °C 22,4 °C 1,6 km/h (1 Bft)
27.05.2017 12:45 22,3 °C 22,4 °C 44 % 1018,7 hPa 0,0 mm 2,2 km/h (1 Bft) NO 56 ° 1 min 0,000 mm 7,3 UV-I 916 W/m² 9,5 °C 22,3 °C 3,2 km/h (1 Bft)
27.05.2017 12:46 22,3 °C 22,3 °C 48 % 1018,6 hPa 0,0 mm 1,4 km/h (1 Bft) NO 55 ° 1 min 0,000 mm 7,3 UV-I 918 W/m² 10,8 °C 22,3 °C 3,2 km/h (1 Bft)
27.05.2017 12:47 22,3 °C 22,3 °C 49 % 1018,7 hPa 0,0 mm 4,8 km/h (1 Bft) O-NO 67 ° 1 min 0,000 mm 7,3 UV-I 916 W/m² 11,1 °C 22,3 °C 11,3 km/h (2 Bft)
27.05.2017 12:48 22,5 °C 22,5 °C 48 % 1018,7 hPa 0,0 mm 5,9 km/h (2 Bft) N-NO 30 ° 1 min 0,000 mm 7,3 UV-I 918 W/m² 10,9 °C 22,5 °C 8,0 km/h (2 Bft)
27.05.2017 12:49 22,6 °C 22,6 °C 51 % 1018,7 hPa 0,0 mm 7,8 km/h (2 Bft) NO 38 ° 1 min 0,000 mm 7,3 UV-I 916 W/m² 11,9 °C 22,6 °C 14,5 km/h (3 Bft)
27.05.2017 12:50 22,6 °C 22,6 °C 49 % 1018,7 hPa 0,0 mm 5,2 km/h (1 Bft) O 94 ° 1 min 0,000 mm 7,3 UV-I 916 W/m² 11,3 °C 22,6 °C 14,5 km/h (3 Bft)
27.05.2017 12:51 22,6 °C 22,6 °C 47 % 1018,7 hPa 0,0 mm 3,5 km/h (1 Bft) SO 144 ° 1 min 0,000 mm 7,3 UV-I 916 W/m² 10,7 °C 22,6 °C 8,0 km/h (2 Bft)
27.05.2017 12:52 22,3 °C 22,6 °C 46 % 1018,7 hPa 0,0 mm 2,2 km/h (1 Bft) O-NO 76 ° 1 min 0,000 mm 7,3 UV-I 918 W/m² 10,1 °C 22,3 °C 4,8 km/h (1 Bft)
27.05.2017 12:53 22,2 °C 22,3 °C 47 % 1018,7 hPa 0,0 mm 5,7 km/h (1 Bft) NO 51 ° 1 min 0,000 mm 7,3 UV-I 918 W/m² 10,3 °C 22,2 °C 9,7 km/h (2 Bft)
27.05.2017 12:54 22,2 °C 22,2 °C 46 % 1018,7 hPa 0,0 mm 4,6 km/h (1 Bft) NO 44 ° 1 min 0,000 mm 7,3 UV-I 918 W/m² 10,0 °C 22,2 °C 8,0 km/h (2 Bft)
27.05.2017 12:55 22,3 °C 22,3 °C 46 % 1018,7 hPa 0,0 mm 5,1 km/h (1 Bft) O-NO 77 ° 1 min 0,000 mm 7,3 UV-I 919 W/m² 10,1 °C 22,3 °C 8,0 km/h (2 Bft)
27.05.2017 12:56 22,3 °C 22,3 °C 48 % 1018,6 hPa 0,0 mm 4,0 km/h (1 Bft) NO 49 ° 1 min 0,000 mm 7,3 UV-I 919 W/m² 10,8 °C 22,3 °C 6,4 km/h (2 Bft)
27.05.2017 12:57 22,4 °C 22,4 °C 50 % 1018,7 hPa 0,0 mm 4,3 km/h (1 Bft) O-NO 60 ° 1 min 0,000 mm 7,3 UV-I 921 W/m² 11,5 °C 22,4 °C 12,9 km/h (3 Bft)
27.05.2017 12:58 22,4 °C 22,4 °C 45 % 1018,6 hPa 0,0 mm 8,4 km/h (2 Bft) N-NO 25 ° 1 min 0,000 mm 7,3 UV-I 921 W/m² 9,9 °C 22,4 °C 12,9 km/h (3 Bft)
27.05.2017 12:59 22,6 °C 22,6 °C 45 % 1018,6 hPa 0,0 mm 4,2 km/h (1 Bft) W 265 ° 1 min 0,000 mm 7,3 UV-I 921 W/m² 10,1 °C 22,6 °C 9,7 km/h (2 Bft)
27.05.2017 13:00 22,7 °C 22,7 °C 51 % 1018,6 hPa 0,0 mm 8,6 km/h (2 Bft) N-NO 13 ° 1 min 0,000 mm 7,3 UV-I 923 W/m² 12,0 °C 22,7 °C 17,7 km/h (3 Bft)
27.05.2017 13:01 22,9 °C 22,9 °C 46 % 1018,6 hPa 0,0 mm 13,6 km/h (3 Bft) N 5 ° 1 min 0,584 mm 7,3 UV-I 921 W/m² 10,7 °C 22,9 °C 16,1 km/h (3 Bft)
27.05.2017 13:02 22,9 °C 22,9 °C 45 % 1018,6 hPa 0,0 mm 13,3 km/h (3 Bft) N 5 ° 1 min 0,000 mm 7,3 UV-I 921 W/m² 10,3 °C 22,9 °C 16,1 km/h (3 Bft)
27.05.2017 13:03 22,9 °C 22,9 °C 44 % 1018,6 hPa 0,0 mm 6,7 km/h (2 Bft) O-NO 73 ° 1 min 0,000 mm 7,3 UV-I 921 W/m² 10,0 °C 22,9 °C 11,3 km/h (2 Bft)
27.05.2017 13:04 22,9 °C 22,9 °C 46 % 1018,6 hPa 0,0 mm 8,3 km/h (2 Bft) NO 38 ° 1 min 0,000 mm 7,3 UV-I 921 W/m² 10,7 °C 22,9 °C 11,3 km/h (2 Bft)
27.05.2017 13:05 22,8 °C 22,9 °C 44 % 1018,6 hPa 0,0 mm 4,6 km/h (1 Bft) N 350 ° 1 min 0,000 mm 7,3 UV-I 923 W/m² 9,9 °C 22,8 °C 8,0 km/h (2 Bft)
27.05.2017 13:06 22,7 °C 22,8 °C 49 % 1018,6 hPa 0,0 mm 1,7 km/h (1 Bft) N-NW 348 ° 1 min 0,000 mm 7,3 UV-I 923 W/m² 11,4 °C 22,7 °C 3,2 km/h (1 Bft)
27.05.2017 13:07 22,8 °C 22,8 °C 45 % 1018,6 hPa 0,0 mm 0,7 km/h (0 Bft) N-NO 26 ° 1 min 0,000 mm 7,3 UV-I 923 W/m² 10,2 °C 22,8 °C 3,2 km/h (1 Bft)
27.05.2017 13:08 22,8 °C 22,8 °C 55 % 1018,6 hPa 0,0 mm 4,6 km/h (1 Bft) O-NO 74 ° 1 min 0,000 mm 7,4 UV-I 921 W/m² 13,3 °C 22,8 °C 6,4 km/h (2 Bft)
27.05.2017 13:09 22,7 °C 22,8 °C 45 % 1018,6 hPa 0,0 mm 7,2 km/h (2 Bft) O 96 ° 1 min 0,000 mm 7,4 UV-I 923 W/m² 10,1 °C 22,7 °C 11,3 km/h (2 Bft)
27.05.2017 13:10 22,7 °C 22,8 °C 46 % 1018,6 hPa 0,0 mm 4,0 km/h (1 Bft) O 82 ° 1 min 0,000 mm 7,3 UV-I 925 W/m² 10,5 °C 22,7 °C 8,0 km/h (2 Bft)
27.05.2017 13:11 22,8 °C 22,8 °C 50 % 1018,6 hPa 0,0 mm 7,0 km/h (2 Bft) O 101 ° 1 min 0,000 mm 7,4 UV-I 925 W/m² 11,8 °C 22,8 °C 12,9 km/h (3 Bft)
27.05.2017 13:12 22,6 °C 22,8 °C 42 % 1018,6 hPa 0,0 mm 2,5 km/h (1 Bft) O-NO 61 ° 1 min 0,000 mm 7,4 UV-I 925 W/m² 9,0 °C 22,6 °C 4,8 km/h (1 Bft)
27.05.2017 13:13 22,6 °C 22,6 °C 46 % 1018,6 hPa 0,0 mm 6,8 km/h (2 Bft) O 96 ° 1 min 0,000 mm 7,4 UV-I 926 W/m² 10,4 °C 22,6 °C 11,3 km/h (2 Bft)
27.05.2017 13:14 22,7 °C 22,7 °C 48 % 1018,6 hPa 0,0 mm 4,0 km/h (1 Bft) O-NO 78 ° 1 min 0,000 mm 7,4 UV-I 923 W/m² 11,1 °C 22,7 °C 9,7 km/h (2 Bft)
27.05.2017 13:15 22,7 °C 22,7 °C 43 % 1018,6 hPa 0,0 mm 3,8 km/h (1 Bft) NO 42 ° 1 min 0,000 mm 7,4 UV-I 925 W/m² 9,5 °C 22,7 °C 4,8 km/h (1 Bft)
27.05.2017 13:16 22,7 °C 22,7 °C 43 % 1018,6 hPa 0,0 mm 2,4 km/h (1 Bft) O 82 ° 1 min 0,000 mm 7,4 UV-I 925 W/m² 9,5 °C 22,7 °C 6,4 km/h (2 Bft)
27.05.2017 13:17 22,8 °C 22,8 °C 47 % 1018,6 hPa 0,0 mm 5,0 km/h (1 Bft) N-NW 347 ° 1 min 0,000 mm 7,3 UV-I 921 W/m² 10,9 °C 22,8 °C 12,9 km/h (3 Bft)
27.05.2017 13:18 23,0 °C 23,0 °C 47 % 1018,5 hPa 0,0 mm 5,6 km/h (1 Bft) O-NO 65 ° 1 min 0,000 mm 7,3 UV-I 919 W/m² 11,1 °C 23,0 °C 12,9 km/h (3 Bft)
27.05.2017 13:19 23,1 °C 23,1 °C 44 % 1018,6 hPa 0,0 mm 7,7 km/h (2 Bft) N-NO 17 ° 1 min 0,000 mm 7,3 UV-I 919 W/m² 10,2 °C 23,1 °C 12,9 km/h (3 Bft)
27.05.2017 13:20 23,2 °C 23,2 °C 44 % 1018,5 hPa 0,0 mm 7,1 km/h (2 Bft) NO 53 ° 1 min 0,000 mm 7,3 UV-I 921 W/m² 10,3 °C 23,2 °C 11,3 km/h (2 Bft)
27.05.2017 13:21 23,2 °C 23,2 °C 43 % 1018,5 hPa 0,0 mm 4,5 km/h (1 Bft) O 84 ° 1 min 0,000 mm 7,3 UV-I 923 W/m² 9,9 °C 23,2 °C 11,3 km/h (2 Bft)
27.05.2017 13:22 23,1 °C 23,2 °C 43 % 1018,6 hPa 0,0 mm 6,0 km/h (2 Bft) SO 130 ° 1 min 0,000 mm 7,3 UV-I 923 W/m² 9,8 °C 23,1 °C 11,3 km/h (2 Bft)
27.05.2017 13:23 22,9 °C 23,1 °C 44 % 1018,5 hPa 0,0 mm 3,8 km/h (1 Bft) O 86 ° 1 min 0,000 mm 7,3 UV-I 925 W/m² 10,0 °C 22,9 °C 6,4 km/h (2 Bft)
27.05.2017 13:24 22,9 °C 22,9 °C 47 % 1018,5 hPa 0,0 mm 5,3 km/h (1 Bft) O-SO 111 ° 1 min 0,000 mm 7,3 UV-I 923 W/m² 11,0 °C 22,9 °C 6,4 km/h (2 Bft)
27.05.2017 13:25 22,8 °C 22,9 °C 42 % 1018,5 hPa 0,0 mm 3,7 km/h (1 Bft) O-SO 111 ° 1 min 0,000 mm 7,3 UV-I 925 W/m² 9,2 °C 22,8 °C 9,7 km/h (2 Bft)
27.05.2017 13:26 22,6 °C 22,8 °C 43 % 1018,5 hPa 0,0 mm 1,0 km/h (0 Bft) O-SO 113 ° 1 min 0,000 mm 7,4 UV-I 926 W/m² 9,4 °C 22,6 °C 3,2 km/h (1 Bft)
27.05.2017 13:27 22,6 °C 22,6 °C 46 % 1018,4 hPa 0,0 mm 1,0 km/h (0 Bft) O 94 ° 1 min 0,000 mm 7,4 UV-I 926 W/m² 10,4 °C 22,6 °C 4,8 km/h (1 Bft)
27.05.2017 13:28 22,7 °C 22,7 °C 43 % 1018,4 hPa 0,0 mm 4,0 km/h (1 Bft) O 94 ° 1 min 0,000 mm 7,3 UV-I 923 W/m² 9,5 °C 22,7 °C 6,4 km/h (2 Bft)
27.05.2017 13:29 22,7 °C 22,7 °C 43 % 1018,4 hPa 0,0 mm 0,3 km/h (0 Bft) O 94 ° 1 min 0,000 mm 7,3 UV-I 923 W/m² 9,5 °C 22,7 °C 1,6 km/h (1 Bft)
27.05.2017 13:30 22,8 °C 22,8 °C 48 % 1018,4 hPa 0,0 mm 4,3 km/h (1 Bft) N-NW 341 ° 1 min 0,000 mm 7,3 UV-I 921 W/m² 11,2 °C 22,8 °C 6,4 km/h (2 Bft)
27.05.2017 13:31 23,1 °C 23,1 °C 48 % 1018,4 hPa 0,0 mm 4,9 km/h (1 Bft) N 5 ° 1 min 0,000 mm 7,3 UV-I 919 W/m² 11,5 °C 23,1 °C 8,0 km/h (2 Bft)
27.05.2017 13:32 23,3 °C 23,3 °C 43 % 1018,4 hPa 0,0 mm 8,0 km/h (2 Bft) O 90 ° 1 min 0,000 mm 7,3 UV-I 919 W/m² 10,0 °C 23,3 °C 14,5 km/h (3 Bft)
27.05.2017 13:33 23,4 °C 23,4 °C 43 % 1018,4 hPa 0,0 mm 8,4 km/h (2 Bft) O-NO 57 ° 1 min 0,000 mm 7,3 UV-I 921 W/m² 10,1 °C 23,4 °C 14,5 km/h (3 Bft)
27.05.2017 13:34 23,4 °C 23,4 °C 44 % 1018,3 hPa 0,0 mm 6,2 km/h (2 Bft) O-NO 74 ° 1 min 0,000 mm 7,3 UV-I 921 W/m² 10,4 °C 23,4 °C 8,0 km/h (2 Bft)
27.05.2017 13:35 23,3 °C 23,4 °C 43 % 1018,4 hPa 0,0 mm 3,1 km/h (1 Bft) O 80 ° 1 min 0,000 mm 7,3 UV-I 923 W/m² 10,0 °C 23,3 °C 6,4 km/h (2 Bft)
27.05.2017 13:36 23,2 °C 23,3 °C 41 % 1018,3 hPa 0,0 mm 4,4 km/h (1 Bft) O-NO 61 ° 1 min 0,000 mm 7,3 UV-I 923 W/m² 9,2 °C 23,2 °C 6,4 km/h (2 Bft)
27.05.2017 13:37 23,2 °C 23,3 °C 41 % 1018,3 hPa 0,0 mm 5,6 km/h (1 Bft) O-NO 68 ° 1 min 0,000 mm 7,3 UV-I 921 W/m² 9,2 °C 23,2 °C 8,0 km/h (2 Bft)
27.05.2017 13:38 23,3 °C 23,3 °C 42 % 1018,3 hPa 0,0 mm 4,6 km/h (1 Bft) O-NO 67 ° 1 min 0,000 mm 7,3 UV-I 916 W/m² 9,7 °C 23,3 °C 9,7 km/h (2 Bft)
27.05.2017 13:39 23,3 °C 23,3 °C 43 % 1018,3 hPa 0,0 mm 3,4 km/h (1 Bft) N 355 ° 1 min 0,000 mm 7,3 UV-I 918 W/m² 10,0 °C 23,3 °C 8,0 km/h (2 Bft)
27.05.2017 13:40 23,3 °C 23,3 °C 44 % 1018,3 hPa 0,0 mm 5,7 km/h (1 Bft) N-NW 343 ° 1 min 0,000 mm 7,3 UV-I 919 W/m² 10,4 °C 23,3 °C 9,7 km/h (2 Bft)
27.05.2017 13:41 23,3 °C 23,3 °C 39 % 1018,3 hPa 0,0 mm 4,2 km/h (1 Bft) N-NW 340 ° 1 min 0,000 mm 7,3 UV-I 916 W/m² 8,6 °C 23,3 °C 6,4 km/h (2 Bft)
27.05.2017 13:42 23,4 °C 23,4 °C 42 % 1018,3 hPa 0,0 mm 4,8 km/h (1 Bft) NO 56 ° 1 min 0,000 mm 7,3 UV-I 916 W/m² 9,7 °C 23,4 °C 6,4 km/h (2 Bft)
27.05.2017 13:43 23,4 °C 23,4 °C 46 % 1018,3 hPa 0,0 mm 9,2 km/h (2 Bft) N-NO 17 ° 1 min 0,000 mm 7,3 UV-I 916 W/m² 11,1 °C 23,4 °C 12,9 km/h (3 Bft)
27.05.2017 13:44 23,4 °C 23,4 °C 42 % 1018,3 hPa 0,0 mm 10,2 km/h (2 Bft) N-NW 344 ° 1 min 0,000 mm 7,2 UV-I 916 W/m² 9,7 °C 23,4 °C 14,5 km/h (3 Bft)
27.05.2017 13:45 23,5 °C 23,6 °C 39 % 1018,3 hPa 0,0 mm 4,5 km/h (1 Bft) N-NW 342 ° 1 min 0,000 mm 7,2 UV-I 916 W/m² 8,7 °C 23,5 °C 6,4 km/h (2 Bft)
27.05.2017 13:46 23,4 °C 23,5 °C 42 % 1018,3 hPa 0,0 mm 5,6 km/h (1 Bft) N-NW 327 ° 1 min 0,000 mm 7,2 UV-I 918 W/m² 9,7 °C 23,4 °C 9,7 km/h (2 Bft)
27.05.2017 13:47 23,4 °C 23,5 °C 40 % 1018,3 hPa 0,0 mm 4,0 km/h (1 Bft) NW 324 ° 1 min 0,000 mm 7,2 UV-I 918 W/m² 9,0 °C 23,4 °C 6,4 km/h (2 Bft)
27.05.2017 13:48 23,4 °C 23,4 °C 43 % 1018,3 hPa 0,0 mm 4,1 km/h (1 Bft) NW 315 ° 1 min 0,000 mm 7,2 UV-I 918 W/m² 10,1 °C 23,4 °C 6,4 km/h (2 Bft)
27.05.2017 13:49 23,4 °C 23,4 °C 44 % 1018,3 hPa 0,0 mm 4,8 km/h (1 Bft) N 355 ° 1 min 0,000 mm 7,2 UV-I 918 W/m² 10,4 °C 23,4 °C 8,0 km/h (2 Bft)
27.05.2017 13:50 23,5 °C 23,5 °C 41 % 1018,3 hPa 0,0 mm 7,2 km/h (2 Bft) W-NW 298 ° 1 min 0,000 mm 7,2 UV-I 918 W/m² 9,5 °C 23,5 °C 14,5 km/h (3 Bft)
27.05.2017 13:51 23,4 °C 23,5 °C 40 % 1018,3 hPa 0,0 mm 6,5 km/h (2 Bft) NW 309 ° 1 min 0,000 mm 7,2 UV-I 916 W/m² 9,0 °C 23,4 °C 8,0 km/h (2 Bft)
27.05.2017 13:52 23,4 °C 23,4 °C 42 % 1018,3 hPa 0,0 mm 9,1 km/h (2 Bft) NW 317 ° 1 min 0,000 mm 7,2 UV-I 916 W/m² 9,7 °C 23,4 °C 14,5 km/h (3 Bft)
27.05.2017 13:53 23,4 °C 23,4 °C 41 % 1018,3 hPa 0,0 mm 8,6 km/h (2 Bft) NW 325 ° 1 min 0,000 mm 7,2 UV-I 914 W/m² 9,4 °C 23,4 °C 12,9 km/h (3 Bft)
27.05.2017 13:54 23,5 °C 23,5 °C 46 % 1018,3 hPa 0,0 mm 4,7 km/h (1 Bft) N-NW 346 ° 1 min 0,000 mm 7,2 UV-I 914 W/m² 11,2 °C 23,5 °C 8,0 km/h (2 Bft)
27.05.2017 13:55 23,6 °C 23,6 °C 45 % 1018,3 hPa 0,0 mm 2,5 km/h (1 Bft) NO 40 ° 1 min 0,000 mm 7,2 UV-I 914 W/m² 11,0 °C 23,6 °C 4,8 km/h (1 Bft)
27.05.2017 13:56 23,6 °C 23,6 °C 38 % 1018,2 hPa 0,0 mm 6,0 km/h (2 Bft) NO 46 ° 1 min 0,000 mm 7,2 UV-I 912 W/m² 8,4 °C 23,6 °C 9,7 km/h (2 Bft)
27.05.2017 13:57 23,4 °C 23,6 °C 37 % 1018,3 hPa 0,0 mm 0,1 km/h (0 Bft) NO 46 ° 1 min 0,000 mm 7,2 UV-I 912 W/m² 7,9 °C 23,4 °C 1,6 km/h (1 Bft)
27.05.2017 13:58 23,4 °C 23,4 °C 40 % 1018,3 hPa 0,0 mm 1,0 km/h (0 Bft) N 349 ° 1 min 0,000 mm 7,2 UV-I 912 W/m² 9,0 °C 23,4 °C 4,8 km/h (1 Bft)
27.05.2017 13:59 23,4 °C 23,4 °C 39 % 1018,3 hPa 0,0 mm 2,9 km/h (1 Bft) NW 306 ° 1 min 0,000 mm 7,2 UV-I 911 W/m² 8,6 °C 23,4 °C 3,2 km/h (1 Bft)
27.05.2017 14:00 23,6 °C 23,6 °C 41 % 1018,3 hPa 0,0 mm 4,0 km/h (1 Bft) N-NO 20 ° 1 min 0,000 mm 7,2 UV-I 909 W/m² 9,6 °C 23,6 °C 6,4 km/h (2 Bft)
27.05.2017 14:01 23,8 °C 23,8 °C 41 % 1018,3 hPa 0,0 mm 3,9 km/h (1 Bft) N 355 ° 1 min 0,610 mm 7,2 UV-I 909 W/m² 9,7 °C 23,8 °C 8,0 km/h (2 Bft)
27.05.2017 14:02 23,9 °C 23,9 °C 40 % 1018,3 hPa 0,0 mm 6,5 km/h (2 Bft) NW 324 ° 1 min 0,000 mm 7,1 UV-I 907 W/m² 9,5 °C 23,9 °C 9,7 km/h (2 Bft)
27.05.2017 14:03 23,8 °C 23,9 °C 36 % 1018,2 hPa 0,0 mm 3,4 km/h (1 Bft) NW 324 ° 1 min 0,000 mm 7,1 UV-I 907 W/m² 7,8 °C 23,8 °C 8,0 km/h (2 Bft)
27.05.2017 14:04 23,6 °C 23,8 °C 40 % 1018,2 hPa 0,0 mm 4,1 km/h (1 Bft) O 80 ° 1 min 0,000 mm 7,1 UV-I 905 W/m² 9,2 °C 23,6 °C 8,0 km/h (2 Bft)
27.05.2017 14:05 23,4 °C 23,6 °C 38 % 1018,2 hPa 0,0 mm 1,5 km/h (1 Bft) O 80 ° 1 min 0,000 mm 7,1 UV-I 904 W/m² 8,3 °C 23,4 °C 3,2 km/h (1 Bft)
27.05.2017 14:06 23,4 °C 23,4 °C 38 % 1018,2 hPa 0,0 mm 1,6 km/h (1 Bft) NO 44 ° 1 min 0,000 mm 7,1 UV-I 904 W/m² 8,3 °C 23,4 °C 3,2 km/h (1 Bft)
27.05.2017 14:07 23,6 °C 23,6 °C 39 % 1018,2 hPa 0,0 mm 6,6 km/h (2 Bft) N 5 ° 1 min 0,000 mm 7,1 UV-I 904 W/m² 8,8 °C 23,6 °C 8,0 km/h (2 Bft)
27.05.2017 14:08 23,8 °C 23,8 °C 39 % 1018,2 hPa 0,0 mm 3,9 km/h (1 Bft) N-NO 18 ° 1 min 0,000 mm 7,1 UV-I 905 W/m² 9,0 °C 23,8 °C 6,4 km/h (2 Bft)
27.05.2017 14:09 23,8 °C 23,9 °C 34 % 1018,2 hPa 0,0 mm 3,6 km/h (1 Bft) N-NO 19 ° 1 min 0,000 mm 7,1 UV-I 905 W/m² 7,0 °C 23,8 °C 8,0 km/h (2 Bft)
27.05.2017 14:10 23,8 °C 23,8 °C 40 % 1018,1 hPa 0,0 mm 5,4 km/h (1 Bft) NW 319 ° 1 min 0,000 mm 7,1 UV-I 905 W/m² 9,4 °C 23,8 °C 12,9 km/h (3 Bft)
27.05.2017 14:11 24,0 °C 24,0 °C 42 % 1018,1 hPa 0,0 mm 5,0 km/h (1 Bft) N 360 ° 1 min 0,000 mm 7,1 UV-I 905 W/m² 10,3 °C 24,0 °C 8,0 km/h (2 Bft)
27.05.2017 14:12 24,2 °C 24,2 °C 39 % 1018,1 hPa 0,0 mm 4,0 km/h (1 Bft) NW 318 ° 1 min 0,000 mm 7,1 UV-I 907 W/m² 9,4 °C 24,2 °C 6,4 km/h (2 Bft)
27.05.2017 14:13 24,2 °C 24,2 °C 36 % 1018,1 hPa 0,0 mm 3,2 km/h (1 Bft) NW 319 ° 1 min 0,000 mm 7,1 UV-I 905 W/m² 8,2 °C 24,2 °C 6,4 km/h (2 Bft)
27.05.2017 14:14 24,2 °C 24,2 °C 36 % 1018,1 hPa 0,0 mm 1,5 km/h (1 Bft) NW 322 ° 1 min 0,000 mm 7,1 UV-I 904 W/m² 8,2 °C 24,2 °C 3,2 km/h (1 Bft)
27.05.2017 14:15 24,3 °C 24,3 °C 41 % 1018,1 hPa 0,0 mm 1,4 km/h (1 Bft) NO 52 ° 1 min 0,000 mm 7,0 UV-I 902 W/m² 10,2 °C 24,3 °C 4,8 km/h (1 Bft)
27.05.2017 14:16 24,3 °C 24,3 °C 36 % 1018,1 hPa 0,0 mm 6,2 km/h (2 Bft) N-NO 19 ° 1 min 0,000 mm 7,0 UV-I 900 W/m² 8,3 °C 24,3 °C 9,7 km/h (2 Bft)
27.05.2017 14:17 24,2 °C 24,3 °C 36 % 1018,0 hPa 0,0 mm 4,8 km/h (1 Bft) NO 45 ° 1 min 0,000 mm 7,0 UV-I 900 W/m² 8,2 °C 24,2 °C 12,9 km/h (3 Bft)
27.05.2017 14:18 24,1 °C 24,2 °C 40 % 1018,2 hPa 0,0 mm 3,5 km/h (1 Bft) O-NO 69 ° 1 min 0,000 mm 7,0 UV-I 898 W/m² 9,6 °C 24,1 °C 4,8 km/h (1 Bft)
27.05.2017 14:19 23,8 °C 24,1 °C 37 % 1018,2 hPa 0,0 mm 2,6 km/h (1 Bft) N-NO 30 ° 1 min 0,000 mm 7,0 UV-I 898 W/m² 8,2 °C 23,8 °C 6,4 km/h (2 Bft)
27.05.2017 14:20 23,8 °C 23,8 °C 40 % 1018,1 hPa 0,0 mm 5,4 km/h (1 Bft) NW 326 ° 1 min 0,000 mm 7,0 UV-I 896 W/m² 9,4 °C 23,8 °C 9,7 km/h (2 Bft)
27.05.2017 14:21 23,8 °C 23,8 °C 42 % 1018,2 hPa 0,0 mm 5,5 km/h (1 Bft) NO 44 ° 1 min 0,000 mm 6,9 UV-I 896 W/m² 10,1 °C 23,8 °C 8,0 km/h (2 Bft)
27.05.2017 14:22 23,9 °C 23,9 °C 36 % 1018,1 hPa 0,0 mm 4,5 km/h (1 Bft) N 349 ° 1 min 0,000 mm 6,9 UV-I 895 W/m² 7,9 °C 23,9 °C 6,4 km/h (2 Bft)
27.05.2017 14:23 24,0 °C 24,0 °C 40 % 1018,1 hPa 0,0 mm 2,8 km/h (1 Bft) N-NO 14 ° 1 min 0,000 mm 6,9 UV-I 891 W/m² 9,6 °C 24,0 °C 4,8 km/h (1 Bft)
27.05.2017 14:24 23,9 °C 24,0 °C 38 % 1018,0 hPa 0,0 mm 7,3 km/h (2 Bft) NW 317 ° 1 min 0,000 mm 6,9 UV-I 891 W/m² 8,7 °C 23,9 °C 12,9 km/h (3 Bft)
27.05.2017 14:25 24,1 °C 24,1 °C 38 % 1018,0 hPa 0,0 mm 8,2 km/h (2 Bft) NW 321 ° 1 min 0,000 mm 6,9 UV-I 891 W/m² 8,9 °C 24,1 °C 12,9 km/h (3 Bft)
27.05.2017 14:26 24,2 °C 24,2 °C 42 % 1018,0 hPa 0,0 mm 8,1 km/h (2 Bft) N-NW 344 ° 1 min 0,000 mm 6,9 UV-I 889 W/m² 10,5 °C 24,2 °C 12,9 km/h (3 Bft)
27.05.2017 14:27 24,1 °C 24,2 °C 40 % 1018,0 hPa 0,0 mm 8,2 km/h (2 Bft) N-NW 340 ° 1 min 0,000 mm 6,9 UV-I 891 W/m² 9,6 °C 24,1 °C 12,9 km/h (3 Bft)
27.05.2017 14:28 24,0 °C 24,1 °C 39 % 1018,0 hPa 0,0 mm 4,4 km/h (1 Bft) NW 310 ° 1 min 0,000 mm 6,8 UV-I 888 W/m² 9,2 °C 24,0 °C 4,8 km/h (1 Bft)
27.05.2017 14:29 23,9 °C 24,0 °C 37 % 1018,0 hPa 0,0 mm 4,2 km/h (1 Bft) NW 316 ° 1 min 0,000 mm 6,8 UV-I 886 W/m² 8,3 °C 23,9 °C 6,4 km/h (2 Bft)
27.05.2017 14:30 23,9 °C 23,9 °C 39 % 1018,0 hPa 0,0 mm 4,2 km/h (1 Bft) N 360 ° 1 min 0,000 mm 6,8 UV-I 882 W/m² 9,1 °C 23,9 °C 6,4 km/h (2 Bft)
27.05.2017 14:31 24,0 °C 24,0 °C 38 % 1017,9 hPa 0,0 mm 8,2 km/h (2 Bft) N-NW 329 ° 1 min 0,000 mm 6,8 UV-I 882 W/m² 8,8 °C 24,0 °C 11,3 km/h (2 Bft)
27.05.2017 14:32 24,1 °C 24,1 °C 37 % 1017,9 hPa 0,0 mm 5,7 km/h (1 Bft) N 360 ° 1 min 0,000 mm 6,8 UV-I 881 W/m² 8,5 °C 24,1 °C 8,0 km/h (2 Bft)
27.05.2017 14:33 23,9 °C 24,1 °C 33 % 1017,9 hPa 0,0 mm 4,5 km/h (1 Bft) N 355 ° 1 min 0,000 mm 6,8 UV-I 881 W/m² 6,6 °C 23,9 °C 6,4 km/h (2 Bft)
27.05.2017 14:34 23,9 °C 23,9 °C 39 % 1017,9 hPa 0,0 mm 4,8 km/h (1 Bft) N-NO 23 ° 1 min 0,000 mm 6,7 UV-I 881 W/m² 9,1 °C 23,9 °C 6,4 km/h (2 Bft)
27.05.2017 14:35 24,1 °C 24,1 °C 38 % 1018,0 hPa 0,0 mm 7,8 km/h (2 Bft) N-NW 329 ° 1 min 0,000 mm 6,7 UV-I 881 W/m² 8,9 °C 24,1 °C 14,5 km/h (3 Bft)
27.05.2017 14:36 24,1 °C 24,1 °C 39 % 1017,9 hPa 0,0 mm 10,7 km/h (2 Bft) N 355 ° 1 min 0,000 mm 6,8 UV-I 881 W/m² 9,3 °C 24,1 °C 16,1 km/h (3 Bft)
27.05.2017 14:37 24,2 °C 24,2 °C 39 % 1018,0 hPa 0,0 mm 10,5 km/h (2 Bft) N 360 ° 1 min 0,000 mm 6,7 UV-I 881 W/m² 9,4 °C 24,2 °C 12,9 km/h (3 Bft)
27.05.2017 14:38 24,2 °C 24,2 °C 38 % 1017,9 hPa 0,0 mm 5,3 km/h (1 Bft) NW 313 ° 1 min 0,000 mm 6,7 UV-I 879 W/m² 9,0 °C 24,2 °C 12,9 km/h (3 Bft)
27.05.2017 14:39 24,3 °C 24,3 °C 39 % 1017,9 hPa 0,0 mm 6,7 km/h (2 Bft) N 5 ° 1 min 0,000 mm 6,7 UV-I 879 W/m² 9,4 °C 24,3 °C 8,0 km/h (2 Bft)
27.05.2017 14:40 24,3 °C 24,3 °C 39 % 1017,9 hPa 0,0 mm 5,8 km/h (2 Bft) N-NO 25 ° 1 min 0,000 mm 6,7 UV-I 875 W/m² 9,4 °C 24,3 °C 8,0 km/h (2 Bft)
27.05.2017 14:41 24,2 °C 24,3 °C 39 % 1017,9 hPa 0,0 mm 7,3 km/h (2 Bft) N 360 ° 1 min 0,000 mm 6,7 UV-I 874 W/m² 9,4 °C 24,2 °C 11,3 km/h (2 Bft)
27.05.2017 14:42 24,1 °C 24,2 °C 37 % 1017,9 hPa 0,0 mm 2,7 km/h (1 Bft) NO 36 ° 1 min 0,000 mm 6,6 UV-I 874 W/m² 8,5 °C 24,1 °C 6,4 km/h (2 Bft)
27.05.2017 14:43 24,1 °C 24,1 °C 38 % 1017,9 hPa 0,0 mm 3,5 km/h (1 Bft) NO 34 ° 1 min 0,000 mm 6,6 UV-I 870 W/m² 8,9 °C 24,1 °C 8,0 km/h (2 Bft)
27.05.2017 14:44 24,2 °C 24,2 °C 40 % 1017,9 hPa 0,0 mm 7,0 km/h (2 Bft) N-NO 20 ° 1 min 0,000 mm 6,6 UV-I 868 W/m² 9,7 °C 24,2 °C 9,7 km/h (2 Bft)
27.05.2017 14:45 24,3 °C 24,3 °C 40 % 1017,9 hPa 0,0 mm 7,3 km/h (2 Bft) NW 326 ° 1 min 0,000 mm 6,6 UV-I 868 W/m² 9,8 °C 24,3 °C 12,9 km/h (3 Bft)
27.05.2017 14:46 24,2 °C 24,3 °C 38 % 1017,9 hPa 0,0 mm 8,1 km/h (2 Bft) N-NW 337 ° 1 min 0,000 mm 6,6 UV-I 868 W/m² 9,0 °C 24,2 °C 9,7 km/h (2 Bft)
27.05.2017 14:47 24,2 °C 24,2 °C 39 % 1017,8 hPa 0,0 mm 7,1 km/h (2 Bft) NW 311 ° 1 min 0,000 mm 6,6 UV-I 867 W/m² 9,4 °C 24,2 °C 8,0 km/h (2 Bft)
27.05.2017 14:48 24,2 °C 24,2 °C 40 % 1017,8 hPa 0,0 mm 5,8 km/h (2 Bft) N 350 ° 1 min 0,000 mm 6,6 UV-I 865 W/m² 9,7 °C 24,2 °C 8,0 km/h (2 Bft)
27.05.2017 14:49 24,2 °C 24,2 °C 39 % 1017,8 hPa 0,0 mm 8,1 km/h (2 Bft) W-NW 300 ° 1 min 0,000 mm 6,5 UV-I 865 W/m² 9,4 °C 24,2 °C 12,9 km/h (3 Bft)
27.05.2017 14:50 24,1 °C 24,2 °C 42 % 1017,8 hPa 0,0 mm 6,6 km/h (2 Bft) NW 320 ° 1 min 0,000 mm 6,5 UV-I 863 W/m² 10,4 °C 24,1 °C 8,0 km/h (2 Bft)
27.05.2017 14:51 24,1 °C 24,1 °C 38 % 1017,8 hPa 0,0 mm 5,2 km/h (1 Bft) NW 319 ° 1 min 0,000 mm 6,5 UV-I 861 W/m² 8,9 °C 24,1 °C 9,7 km/h (2 Bft)
27.05.2017 14:52 24,0 °C 24,1 °C 38 % 1017,8 hPa 0,0 mm 6,5 km/h (2 Bft) W 280 ° 1 min 0,000 mm 6,5 UV-I 861 W/m² 8,8 °C 24,0 °C 9,7 km/h (2 Bft)
27.05.2017 14:53 23,9 °C 24,0 °C 37 % 1017,8 hPa 0,0 mm 5,6 km/h (1 Bft) W-NW 297 ° 1 min 0,000 mm 6,5 UV-I 860 W/m² 8,3 °C 23,9 °C 8,0 km/h (2 Bft)
27.05.2017 14:54 24,0 °C 24,0 °C 42 % 1017,8 hPa 0,0 mm 3,0 km/h (1 Bft) NO 41 ° 1 min 0,000 mm 6,4 UV-I 858 W/m² 10,3 °C 24,0 °C 6,4 km/h (2 Bft)
27.05.2017 14:55 24,1 °C 24,1 °C 39 % 1017,8 hPa 0,0 mm 6,4 km/h (2 Bft) N-NO 22 ° 1 min 0,000 mm 6,4 UV-I 856 W/m² 9,3 °C 24,1 °C 8,0 km/h (2 Bft)
27.05.2017 14:56 24,2 °C 24,2 °C 38 % 1017,8 hPa 0,0 mm 6,7 km/h (2 Bft) N-NO 15 ° 1 min 0,000 mm 6,4 UV-I 856 W/m² 9,0 °C 24,2 °C 9,7 km/h (2 Bft)
27.05.2017 14:57 24,2 °C 24,3 °C 38 % 1017,8 hPa 0,0 mm 4,1 km/h (1 Bft) NW 314 ° 1 min 0,000 mm 6,4 UV-I 853 W/m² 9,0 °C 24,2 °C 8,0 km/h (2 Bft)
27.05.2017 14:58 24,2 °C 24,3 °C 40 % 1017,8 hPa 0,0 mm 7,9 km/h (2 Bft) W-NW 301 ° 1 min 0,000 mm 6,4 UV-I 853 W/m² 9,7 °C 24,2 °C 11,3 km/h (2 Bft)
27.05.2017 14:59 24,2 °C 24,2 °C 38 % 1017,8 hPa 0,0 mm 4,5 km/h (1 Bft) W-NW 292 ° 1 min 0,000 mm 6,4 UV-I 853 W/m² 9,0 °C 24,2 °C 8,0 km/h (2 Bft)
27.05.2017 15:00 24,1 °C 24,2 °C 40 % 1017,8 hPa 0,0 mm 5,8 km/h (2 Bft) NO 34 ° 1 min 0,000 mm 6,4 UV-I 849 W/m² 9,6 °C 24,1 °C 8,0 km/h (2 Bft)
27.05.2017 15:01 24,1 °C 24,2 °C 37 % 1017,8 hPa 0,0 mm 5,0 km/h (1 Bft) NO 44 ° 1 min 0,584 mm 6,3 UV-I 851 W/m² 8,5 °C 24,1 °C 14,5 km/h (3 Bft)
27.05.2017 15:02 23,9 °C 24,1 °C 38 % 1017,8 hPa 0,0 mm 2,5 km/h (1 Bft) N-NO 28 ° 1 min 0,000 mm 6,3 UV-I 849 W/m² 8,7 °C 23,9 °C 3,2 km/h (1 Bft)
27.05.2017 15:03 24,1 °C 24,1 °C 41 % 1017,7 hPa 0,0 mm 7,1 km/h (2 Bft) N-NW 337 ° 1 min 0,000 mm 6,3 UV-I 844 W/m² 10,0 °C 24,1 °C 9,7 km/h (2 Bft)
27.05.2017 15:04 24,2 °C 24,2 °C 38 % 1017,8 hPa 0,0 mm 7,1 km/h (2 Bft) N-NW 344 ° 1 min 0,000 mm 6,3 UV-I 842 W/m² 9,0 °C 24,2 °C 11,3 km/h (2 Bft)
27.05.2017 15:05 24,2 °C 24,2 °C 40 % 1017,7 hPa 0,0 mm 4,2 km/h (1 Bft) NW 315 ° 1 min 0,000 mm 6,2 UV-I 842 W/m² 9,7 °C 24,2 °C 8,0 km/h (2 Bft)
27.05.2017 15:06 24,1 °C 24,2 °C 38 % 1017,7 hPa 0,0 mm 5,3 km/h (1 Bft) NW 309 ° 1 min 0,000 mm 6,2 UV-I 840 W/m² 8,9 °C 24,1 °C 8,0 km/h (2 Bft)
27.05.2017 15:07 23,9 °C 24,1 °C 36 % 1017,8 hPa 0,0 mm 5,5 km/h (1 Bft) N 355 ° 1 min 0,000 mm 6,2 UV-I 840 W/m² 7,9 °C 23,9 °C 6,4 km/h (2 Bft)
27.05.2017 15:08 23,9 °C 23,9 °C 41 % 1017,7 hPa 0,0 mm 5,6 km/h (1 Bft) N 355 ° 1 min 0,000 mm 6,2 UV-I 838 W/m² 9,8 °C 23,9 °C 8,0 km/h (2 Bft)
27.05.2017 15:09 24,1 °C 24,1 °C 38 % 1017,7 hPa 0,0 mm 7,2 km/h (2 Bft) NO 54 ° 1 min 0,000 mm 6,2 UV-I 837 W/m² 8,9 °C 24,1 °C 9,7 km/h (2 Bft)
27.05.2017 15:10 24,2 °C 24,2 °C 36 % 1017,7 hPa 0,0 mm 5,0 km/h (1 Bft) N-NO 17 ° 1 min 0,000 mm 6,2 UV-I 837 W/m² 8,2 °C 24,2 °C 6,4 km/h (2 Bft)
27.05.2017 15:11 24,2 °C 24,2 °C 36 % 1017,8 hPa 0,0 mm 4,0 km/h (1 Bft) N 5 ° 1 min 0,000 mm 6,1 UV-I 835 W/m² 8,2 °C 24,2 °C 6,4 km/h (2 Bft)
27.05.2017 15:12 24,2 °C 24,2 °C 39 % 1017,7 hPa 0,0 mm 0,1 km/h (0 Bft) N 5 ° 1 min 0,000 mm 6,1 UV-I 835 W/m² 9,4 °C 24,2 °C 1,6 km/h (1 Bft)
27.05.2017 15:13 24,1 °C 24,2 °C 36 % 1017,8 hPa 0,0 mm 2,7 km/h (1 Bft) O 90 ° 1 min 0,000 mm 6,1 UV-I 831 W/m² 8,1 °C 24,1 °C 4,8 km/h (1 Bft)
27.05.2017 15:14 23,9 °C 24,1 °C 36 % 1017,8 hPa 0,0 mm 4,7 km/h (1 Bft) N-NO 19 ° 1 min 0,000 mm 6,1 UV-I 831 W/m² 7,9 °C 23,9 °C 8,0 km/h (2 Bft)
27.05.2017 15:15 23,9 °C 23,9 °C 37 % 1017,8 hPa 0,0 mm 3,6 km/h (1 Bft) N-NO 15 ° 1 min 0,000 mm 6,1 UV-I 828 W/m² 8,3 °C 23,9 °C 6,4 km/h (2 Bft)
27.05.2017 15:16 23,9 °C 23,9 °C 39 % 1017,8 hPa 0,0 mm 0,9 km/h (0 Bft) N-NO 15 ° 1 min 0,000 mm 6,0 UV-I 828 W/m² 9,1 °C 23,9 °C 3,2 km/h (1 Bft)
27.05.2017 15:17 23,9 °C 23,9 °C 39 % 1017,8 hPa 0,0 mm 2,4 km/h (1 Bft) N-NO 32 ° 1 min 0,000 mm 6,0 UV-I 824 W/m² 9,1 °C 23,9 °C 4,8 km/h (1 Bft)
27.05.2017 15:18 24,1 °C 24,1 °C 43 % 1017,8 hPa 0,0 mm 6,2 km/h (2 Bft) N 355 ° 1 min 0,000 mm 6,0 UV-I 824 W/m² 10,7 °C 24,1 °C 11,3 km/h (2 Bft)
27.05.2017 15:19 24,2 °C 24,2 °C 35 % 1017,8 hPa 0,0 mm 5,7 km/h (1 Bft) N-NO 19 ° 1 min 0,000 mm 6,0 UV-I 821 W/m² 7,8 °C 24,2 °C 9,7 km/h (2 Bft)
27.05.2017 15:20 24,2 °C 24,2 °C 36 % 1017,8 hPa 0,0 mm 3,8 km/h (1 Bft) N 355 ° 1 min 0,000 mm 5,9 UV-I 821 W/m² 8,2 °C 24,2 °C 4,8 km/h (1 Bft)
27.05.2017 15:21 24,1 °C 24,2 °C 35 % 1017,8 hPa 0,0 mm 3,6 km/h (1 Bft) N-NO 18 ° 1 min 0,000 mm 5,9 UV-I 817 W/m² 7,7 °C 24,1 °C 4,8 km/h (1 Bft)
27.05.2017 15:22 24,0 °C 24,1 °C 35 % 1017,7 hPa 0,0 mm 4,0 km/h (1 Bft) O 92 ° 1 min 0,000 mm 5,9 UV-I 816 W/m² 7,6 °C 24,0 °C 9,7 km/h (2 Bft)
27.05.2017 15:23 24,0 °C 24,0 °C 39 % 1017,7 hPa 0,0 mm 4,2 km/h (1 Bft) NO 47 ° 1 min 0,000 mm 5,9 UV-I 816 W/m² 9,2 °C 24,0 °C 11,3 km/h (2 Bft)
27.05.2017 15:24 23,9 °C 24,0 °C 37 % 1017,7 hPa 0,0 mm 3,0 km/h (1 Bft) S-SO 159 ° 1 min 0,000 mm 5,8 UV-I 814 W/m² 8,3 °C 23,9 °C 6,4 km/h (2 Bft)
27.05.2017 15:25 23,9 °C 23,9 °C 37 % 1017,7 hPa 0,0 mm 1,9 km/h (1 Bft) S-SO 159 ° 1 min 0,000 mm 5,8 UV-I 814 W/m² 8,3 °C 23,9 °C 6,4 km/h (2 Bft)
27.05.2017 15:26 23,8 °C 23,9 °C 45 % 1017,7 hPa 0,0 mm 3,9 km/h (1 Bft) NO 55 ° 1 min 0,000 mm 5,8 UV-I 812 W/m² 11,1 °C 23,8 °C 6,4 km/h (2 Bft)
27.05.2017 15:27 24,1 °C 24,1 °C 39 % 1017,8 hPa 0,0 mm 6,8 km/h (2 Bft) NO 39 ° 1 min 0,000 mm 5,8 UV-I 807 W/m² 9,3 °C 24,1 °C 9,7 km/h (2 Bft)
27.05.2017 15:28 24,2 °C 24,2 °C 38 % 1017,7 hPa 0,0 mm 9,5 km/h (2 Bft) NO 54 ° 1 min 0,000 mm 5,8 UV-I 807 W/m² 9,0 °C 24,2 °C 12,9 km/h (3 Bft)
27.05.2017 15:29 24,2 °C 24,3 °C 35 % 1017,7 hPa 0,0 mm 2,6 km/h (1 Bft) NO 38 ° 1 min 0,000 mm 5,8 UV-I 805 W/m² 7,8 °C 24,2 °C 6,4 km/h (2 Bft)
27.05.2017 15:30 24,2 °C 24,2 °C 42 % 1017,7 hPa 0,0 mm 4,8 km/h (1 Bft) N-NO 28 ° 1 min 0,000 mm 5,8 UV-I 803 W/m² 10,5 °C 24,2 °C 11,3 km/h (2 Bft)
27.05.2017 15:31 24,2 °C 24,2 °C 37 % 1017,7 hPa 0,0 mm 4,3 km/h (1 Bft) N 360 ° 1 min 0,000 mm 5,7 UV-I 802 W/m² 8,6 °C 24,2 °C 6,4 km/h (2 Bft)
27.05.2017 15:32 24,2 °C 24,2 °C 37 % 1017,7 hPa 0,0 mm 6,8 km/h (2 Bft) N-NW 333 ° 1 min 0,000 mm 5,7 UV-I 800 W/m² 8,6 °C 24,2 °C 11,3 km/h (2 Bft)
27.05.2017 15:34 24,2 °C 24,3 °C 37 % 1017,8 hPa 0,0 mm 7,8 km/h (2 Bft) N-NW 344 ° 2 min 0,000 mm 5,6 UV-I 795 W/m² 8,6 °C 24,2 °C 14,5 km/h (3 Bft)
27.05.2017 15:35 24,2 °C 24,2 °C 36 % 1017,8 hPa 0,0 mm 6,5 km/h (2 Bft) N-NW 334 ° 1 min 0,000 mm 5,6 UV-I 793 W/m² 8,2 °C 24,2 °C 8,0 km/h (2 Bft)
27.05.2017 15:36 24,1 °C 24,2 °C 35 % 1017,7 hPa 0,0 mm 1,4 km/h (1 Bft) N-NW 335 ° 1 min 0,000 mm 5,6 UV-I 791 W/m² 7,7 °C 24,1 °C 3,2 km/h (1 Bft)
27.05.2017 15:37 23,9 °C 24,1 °C 36 % 1017,7 hPa 0,0 mm 2,2 km/h (1 Bft) NO 36 ° 1 min 0,000 mm 5,6 UV-I 789 W/m² 7,9 °C 23,9 °C 3,2 km/h (1 Bft)
27.05.2017 15:38 23,9 °C 23,9 °C 35 % 1017,7 hPa 0,0 mm 4,5 km/h (1 Bft) NW 319 ° 1 min 0,000 mm 5,6 UV-I 788 W/m² 7,5 °C 23,9 °C 6,4 km/h (2 Bft)
27.05.2017 15:39 23,9 °C 23,9 °C 37 % 1017,6 hPa 0,0 mm 3,6 km/h (1 Bft) NW 319 ° 1 min 0,000 mm 5,6 UV-I 786 W/m² 8,3 °C 23,9 °C 4,8 km/h (1 Bft)
27.05.2017 15:40 23,9 °C 23,9 °C 36 % 1017,6 hPa 0,0 mm 3,2 km/h (1 Bft) NW 319 ° 1 min 0,000 mm 5,4 UV-I 766 W/m² 7,9 °C 23,9 °C 6,4 km/h (2 Bft)
27.05.2017 15:41 24,1 °C 24,1 °C 38 % 1017,6 hPa 0,0 mm 5,0 km/h (1 Bft) N-NW 331 ° 1 min 0,000 mm 5,5 UV-I 784 W/m² 8,9 °C 24,1 °C 6,4 km/h (2 Bft)
27.05.2017 15:42 24,2 °C 24,2 °C 39 % 1017,6 hPa 0,0 mm 4,3 km/h (1 Bft) N-NW 344 ° 1 min 0,000 mm 5,5 UV-I 782 W/m² 9,4 °C 24,2 °C 6,4 km/h (2 Bft)
27.05.2017 15:43 24,3 °C 24,3 °C 37 % 1017,7 hPa 0,0 mm 4,9 km/h (1 Bft) N-NW 333 ° 1 min 0,000 mm 5,5 UV-I 780 W/m² 8,7 °C 24,3 °C 8,0 km/h (2 Bft)
27.05.2017 15:44 24,3 °C 24,4 °C 39 % 1017,6 hPa 0,0 mm 5,9 km/h (2 Bft) N-NO 21 ° 1 min 0,000 mm 5,5 UV-I 777 W/m² 9,4 °C 24,3 °C 8,0 km/h (2 Bft)
27.05.2017 15:45 24,3 °C 24,4 °C 36 % 1017,7 hPa 0,0 mm 6,1 km/h (2 Bft) NO 35 ° 1 min 0,000 mm 5,4 UV-I 775 W/m² 8,3 °C 24,3 °C 8,0 km/h (2 Bft)
27.05.2017 15:46 24,3 °C 24,3 °C 37 % 1017,7 hPa 0,0 mm 8,6 km/h (2 Bft) N 360 ° 1 min 0,000 mm 5,4 UV-I 772 W/m² 8,7 °C 24,3 °C 16,1 km/h (3 Bft)
27.05.2017 15:47 24,3 °C 24,3 °C 35 % 1017,6 hPa 0,0 mm 8,6 km/h (2 Bft) N-NO 15 ° 1 min 0,000 mm 5,4 UV-I 770 W/m² 7,8 °C 24,3 °C 12,9 km/h (3 Bft)
27.05.2017 15:48 24,3 °C 24,3 °C 39 % 1017,7 hPa 0,0 mm 10,2 km/h (2 Bft) N-NO 27 ° 1 min 0,000 mm 5,4 UV-I 770 W/m² 9,4 °C 24,3 °C 12,9 km/h (3 Bft)
27.05.2017 15:49 24,2 °C 24,3 °C 36 % 1017,6 hPa 0,0 mm 2,8 km/h (1 Bft) N-NO 24 ° 1 min 0,000 mm 5,3 UV-I 770 W/m² 8,2 °C 24,2 °C 4,8 km/h (1 Bft)
27.05.2017 15:50 24,2 °C 24,2 °C 38 % 1017,7 hPa 0,0 mm 4,8 km/h (1 Bft) N-NW 348 ° 1 min 0,000 mm 5,3 UV-I 765 W/m² 9,0 °C 24,2 °C 6,4 km/h (2 Bft)
27.05.2017 15:51 24,2 °C 24,2 °C 38 % 1017,6 hPa 0,0 mm 5,0 km/h (1 Bft) N 5 ° 1 min 0,000 mm 5,3 UV-I 761 W/m² 9,0 °C 24,2 °C 8,0 km/h (2 Bft)
27.05.2017 15:52 24,2 °C 24,2 °C 39 % 1017,6 hPa 0,0 mm 4,6 km/h (1 Bft) N-NO 30 ° 1 min 0,000 mm 5,2 UV-I 759 W/m² 9,4 °C 24,2 °C 8,0 km/h (2 Bft)
27.05.2017 15:53 24,2 °C 24,2 °C 36 % 1017,6 hPa 0,0 mm 3,2 km/h (1 Bft) N-NO 32 ° 1 min 0,000 mm 5,2 UV-I 758 W/m² 8,2 °C 24,2 °C 6,4 km/h (2 Bft)
27.05.2017 15:54 24,2 °C 24,2 °C 37 % 1017,6 hPa 0,0 mm 3,8 km/h (1 Bft) W-NW 302 ° 1 min 0,000 mm 5,2 UV-I 758 W/m² 8,6 °C 24,2 °C 8,0 km/h (2 Bft)
27.05.2017 15:55 24,1 °C 24,2 °C 39 % 1017,7 hPa 0,0 mm 5,8 km/h (2 Bft) N-NW 327 ° 1 min 0,000 mm 5,2 UV-I 754 W/m² 9,3 °C 24,1 °C 8,0 km/h (2 Bft)
27.05.2017 15:56 24,1 °C 24,1 °C 38 % 1017,7 hPa 0,0 mm 4,1 km/h (1 Bft) W-NW 301 ° 1 min 0,000 mm 5,2 UV-I 751 W/m² 8,9 °C 24,1 °C 6,4 km/h (2 Bft)
27.05.2017 15:57 23,9 °C 24,1 °C 35 % 1017,6 hPa 0,0 mm 4,3 km/h (1 Bft) N-NW 340 ° 1 min 0,000 mm 5,1 UV-I 751 W/m² 7,5 °C 23,9 °C 6,4 km/h (2 Bft)
27.05.2017 15:58 23,9 °C 23,9 °C 35 % 1017,6 hPa 0,0 mm 5,4 km/h (1 Bft) NW 311 ° 1 min 0,000 mm 5,1 UV-I 747 W/m² 7,5 °C 23,9 °C 8,0 km/h (2 Bft)
27.05.2017 15:59 23,9 °C 23,9 °C 36 % 1017,7 hPa 0,0 mm 2,4 km/h (1 Bft) N 355 ° 1 min 0,000 mm 5,1 UV-I 745 W/m² 7,9 °C 23,9 °C 3,2 km/h (1 Bft)
27.05.2017 16:00 23,8 °C 23,9 °C 40 % 1017,6 hPa 0,0 mm 6,0 km/h (2 Bft) N-NW 328 ° 1 min 0,000 mm 5,1 UV-I 742 W/m² 9,4 °C 23,8 °C 11,3 km/h (2 Bft)
27.05.2017 16:01 23,8 °C 23,8 °C 40 % 1017,6 hPa 0,0 mm 4,5 km/h (1 Bft) NW 315 ° 1 min 0,534 mm 5,0 UV-I 742 W/m² 9,4 °C 23,8 °C 6,4 km/h (2 Bft)
27.05.2017 16:02 23,8 °C 23,8 °C 38 % 1017,6 hPa 0,0 mm 3,6 km/h (1 Bft) NW 318 ° 1 min 0,000 mm 5,0 UV-I 737 W/m² 8,6 °C 23,8 °C 6,4 km/h (2 Bft)
27.05.2017 16:03 23,8 °C 23,8 °C 35 % 1017,5 hPa 0,0 mm 2,7 km/h (1 Bft) NW 318 ° 1 min 0,000 mm 5,0 UV-I 737 W/m² 7,4 °C 23,8 °C 3,2 km/h (1 Bft)
27.05.2017 16:04 23,8 °C 23,8 °C 36 % 1017,5 hPa 0,0 mm 1,5 km/h (1 Bft) NO 51 ° 1 min 0,000 mm 5,0 UV-I 735 W/m² 7,8 °C 23,8 °C 4,8 km/h (1 Bft)
27.05.2017 16:05 23,9 °C 23,9 °C 37 % 1017,5 hPa 0,0 mm 3,3 km/h (1 Bft) O-SO 113 ° 1 min 0,000 mm 5,0 UV-I 733 W/m² 8,3 °C 23,9 °C 4,8 km/h (1 Bft)
27.05.2017 16:06 23,8 °C 23,9 °C 36 % 1017,5 hPa 0,0 mm 2,8 km/h (1 Bft) O 85 ° 1 min 0,000 mm 4,9 UV-I 731 W/m² 7,8 °C 23,8 °C 4,8 km/h (1 Bft)
27.05.2017 16:07 23,8 °C 23,8 °C 37 % 1017,5 hPa 0,0 mm 3,6 km/h (1 Bft) NO 54 ° 1 min 0,000 mm 4,9 UV-I 719 W/m² 8,2 °C 23,8 °C 4,8 km/h (1 Bft)
27.05.2017 16:08 23,8 °C 23,8 °C 38 % 1017,5 hPa 0,0 mm 2,5 km/h (1 Bft) NO 56 ° 1 min 0,000 mm 4,4 UV-I 719 W/m² 8,6 °C 23,8 °C 4,8 km/h (1 Bft)
27.05.2017 16:09 23,8 °C 23,8 °C 38 % 1017,5 hPa 0,0 mm 3,7 km/h (1 Bft) O-SO 105 ° 1 min 0,000 mm 2,4 UV-I 719 W/m² 8,6 °C 23,8 °C 9,7 km/h (2 Bft)
27.05.2017 16:10 23,9 °C 23,9 °C 38 % 1017,5 hPa 0,0 mm 5,0 km/h (1 Bft) O-NO 71 ° 0 min 0,000 mm 0,0 UV-I 46 W/m² 8,7 °C 23,9 °C 11,3 km/h (2 Bft)
27.05.2017 16:11 24,1 °C 24,1 °C 40 % 1017,5 hPa 0,0 mm 11,3 km/h (2 Bft) O-SO 109 ° 0 min 0,000 mm 0,0 UV-I 46 W/m² 9,6 °C 24,1 °C 16,1 km/h (3 Bft)
27.05.2017 16:12 24,1 °C 24,1 °C 42 % 1017,4 hPa 0,0 mm 8,4 km/h (2 Bft) NO 39 ° 0 min 0,000 mm 0,0 UV-I 44 W/m² 10,4 °C 24,1 °C 14,5 km/h (3 Bft)
27.05.2017 16:13 24,1 °C 24,1 °C 38 % 1017,5 hPa 0,0 mm 7,0 km/h (2 Bft) N-NO 32 ° 0 min 0,000 mm 0,0 UV-I 44 W/m² 8,9 °C 24,1 °C 11,3 km/h (2 Bft)
27.05.2017 16:14 24,1 °C 24,1 °C 38 % 1017,5 hPa 0,0 mm 6,2 km/h (2 Bft) N-NW 344 ° 0 min 0,000 mm 0,0 UV-I 44 W/m² 8,9 °C 24,1 °C 8,0 km/h (2 Bft)
27.05.2017 16:15 24,1 °C 24,2 °C 39 % 1017,5 hPa 0,0 mm 9,7 km/h (2 Bft) N-NO 14 ° 0 min 0,000 mm 0,0 UV-I 44 W/m² 9,3 °C 24,1 °C 12,9 km/h (3 Bft)
27.05.2017 16:16 24,1 °C 24,2 °C 36 % 1017,5 hPa 0,0 mm 6,4 km/h (2 Bft) N-NO 12 ° 0 min 0,000 mm 0,0 UV-I 44 W/m² 8,1 °C 24,1 °C 12,9 km/h (3 Bft)
27.05.2017 16:17 24,1 °C 24,1 °C 38 % 1017,5 hPa 0,0 mm 10,1 km/h (2 Bft) NO 43 ° 0 min 0,000 mm 0,0 UV-I 49 W/m² 8,9 °C 24,1 °C 16,1 km/h (3 Bft)
27.05.2017 16:18 24,1 °C 24,1 °C 39 % 1017,4 hPa 0,0 mm 5,0 km/h (1 Bft) N-NO 24 ° 0 min 0,000 mm 0,0 UV-I 47 W/m² 9,3 °C 24,1 °C 8,0 km/h (2 Bft)
27.05.2017 16:19 23,9 °C 24,1 °C 37 % 1017,4 hPa 0,0 mm 4,9 km/h (1 Bft) N-NO 32 ° 0 min 0,000 mm 0,0 UV-I 44 W/m² 8,3 °C 23,9 °C 8,0 km/h (2 Bft)
27.05.2017 16:20 23,9 °C 24,0 °C 36 % 1017,4 hPa 0,0 mm 2,7 km/h (1 Bft) N-NO 24 ° 0 min 0,000 mm 0,0 UV-I 49 W/m² 7,9 °C 23,9 °C 4,8 km/h (1 Bft)
27.05.2017 16:21 23,9 °C 24,0 °C 37 % 1017,4 hPa 0,0 mm 1,7 km/h (1 Bft) N-NO 24 ° 0 min 0,000 mm 0,0 UV-I 49 W/m² 8,3 °C 23,9 °C 3,2 km/h (1 Bft)
27.05.2017 16:22 23,9 °C 24,0 °C 38 % 1017,4 hPa 0,0 mm 4,3 km/h (1 Bft) NO 43 ° 0 min 0,000 mm 2,1 UV-I 74 W/m² 8,7 °C 23,9 °C 6,4 km/h (2 Bft)
27.05.2017 16:23 24,0 °C 24,0 °C 38 % 1017,3 hPa 0,0 mm 3,0 km/h (1 Bft) NO 54 ° 0 min 0,000 mm 2,1 UV-I 74 W/m² 8,8 °C 24,0 °C 4,8 km/h (1 Bft)
27.05.2017 16:24 23,9 °C 24,0 °C 40 % 1017,4 hPa 0,0 mm 4,6 km/h (1 Bft) N-NO 20 ° 0 min 0,000 mm 2,2 UV-I 90 W/m² 9,5 °C 23,9 °C 6,4 km/h (2 Bft)
27.05.2017 16:25 24,0 °C 24,0 °C 39 % 1017,4 hPa 0,0 mm 6,2 km/h (2 Bft) N 360 ° 0 min 0,000 mm 2,1 UV-I 109 W/m² 9,2 °C 24,0 °C 8,0 km/h (2 Bft)
27.05.2017 16:26 24,1 °C 24,1 °C 38 % 1017,4 hPa 0,0 mm 6,9 km/h (2 Bft) N-NO 16 ° 0 min 0,000 mm 2,3 UV-I 211 W/m² 8,9 °C 24,1 °C 9,7 km/h (2 Bft)
27.05.2017 16:27 24,2 °C 24,2 °C 40 % 1017,5 hPa 0,0 mm 3,9 km/h (1 Bft) N 360 ° 0 min 0,000 mm 2,3 UV-I 211 W/m² 9,7 °C 24,2 °C 6,4 km/h (2 Bft)
27.05.2017 16:28 24,1 °C 24,2 °C 38 % 1017,4 hPa 0,0 mm 5,4 km/h (1 Bft) N 5 ° 0 min 0,000 mm 0,0 UV-I 44 W/m² 8,9 °C 24,1 °C 12,9 km/h (3 Bft)
27.05.2017 16:29 24,1 °C 24,1 °C 37 % 1017,4 hPa 0,0 mm 5,0 km/h (1 Bft) N-NO 13 ° 0 min 0,000 mm 0,0 UV-I 47 W/m² 8,5 °C 24,1 °C 11,3 km/h (2 Bft)
27.05.2017 16:30 24,1 °C 24,1 °C 37 % 1017,4 hPa 0,0 mm 4,8 km/h (1 Bft) N-NW 336 ° 0 min 0,000 mm 0,0 UV-I 44 W/m² 8,5 °C 24,1 °C 8,0 km/h (2 Bft)
27.05.2017 16:31 24,0 °C 24,1 °C 39 % 1017,4 hPa 0,0 mm 6,1 km/h (2 Bft) N 5 ° 0 min 0,000 mm 0,0 UV-I 44 W/m² 9,2 °C 24,0 °C 11,3 km/h (2 Bft)
27.05.2017 16:32 23,9 °C 24,0 °C 35 % 1017,5 hPa 0,0 mm 3,6 km/h (1 Bft) N 355 ° 0 min 0,000 mm 0,0 UV-I 44 W/m² 7,5 °C 23,9 °C 9,7 km/h (2 Bft)
27.05.2017 16:33 23,8 °C 23,9 °C 35 % 1017,4 hPa 0,0 mm 0,0 km/h (0 Bft) N 355 ° 0 min 0,000 mm 0,0 UV-I 44 W/m² 7,4 °C 23,8 °C 0,0 km/h (0 Bft)
27.05.2017 16:34 23,7 °C 23,8 °C 39 % 1017,4 hPa 0,0 mm 1,6 km/h (1 Bft) N 355 ° 0 min 0,000 mm 0,0 UV-I 44 W/m² 8,9 °C 23,7 °C 4,8 km/h (1 Bft)
27.05.2017 16:35 23,7 °C 23,7 °C 40 % 1017,5 hPa 0,0 mm 4,2 km/h (1 Bft) N 355 ° 0 min 0,000 mm 0,0 UV-I 44 W/m² 9,3 °C 23,7 °C 4,8 km/h (1 Bft)
27.05.2017 16:36 23,7 °C 23,7 °C 41 % 1017,4 hPa 0,0 mm 6,6 km/h (2 Bft) N-NW 346 ° 0 min 0,000 mm 0,0 UV-I 44 W/m² 9,7 °C 23,7 °C 12,9 km/h (3 Bft)
27.05.2017 16:37 23,8 °C 23,8 °C 38 % 1017,4 hPa 0,0 mm 10,5 km/h (2 Bft) N-NO 29 ° 0 min 0,000 mm 0,0 UV-I 42 W/m² 8,6 °C 23,8 °C 14,5 km/h (3 Bft)
27.05.2017 16:38 23,9 °C 23,9 °C 38 % 1017,5 hPa 0,0 mm 5,2 km/h (1 Bft) N-NW 340 ° 0 min 0,000 mm 0,0 UV-I 42 W/m² 8,7 °C 23,9 °C 8,0 km/h (2 Bft)
27.05.2017 16:39 23,9 °C 23,9 °C 38 % 1017,4 hPa 0,0 mm 3,2 km/h (1 Bft) N 350 ° 0 min 0,000 mm 0,0 UV-I 42 W/m² 8,7 °C 23,9 °C 4,8 km/h (1 Bft)
27.05.2017 16:40 23,8 °C 23,9 °C 37 % 1017,4 hPa 0,0 mm 1,3 km/h (1 Bft) N-NO 14 ° 0 min 0,000 mm 0,0 UV-I 42 W/m² 8,2 °C 23,8 °C 4,8 km/h (1 Bft)
27.05.2017 16:41 23,7 °C 23,8 °C 40 % 1017,4 hPa 0,0 mm 4,9 km/h (1 Bft) NW 312 ° 0 min 0,000 mm 0,0 UV-I 42 W/m² 9,3 °C 23,7 °C 9,7 km/h (2 Bft)
27.05.2017 16:42 23,6 °C 23,7 °C 40 % 1017,4 hPa 0,0 mm 5,1 km/h (1 Bft) N 349 ° 0 min 0,000 mm 0,0 UV-I 42 W/m² 9,2 °C 23,6 °C 8,0 km/h (2 Bft)
27.05.2017 16:43 23,6 °C 23,7 °C 40 % 1017,4 hPa 0,0 mm 2,9 km/h (1 Bft) N-NW 333 ° 0 min 0,000 mm 0,0 UV-I 42 W/m² 9,2 °C 23,6 °C 4,8 km/h (1 Bft)
27.05.2017 16:44 23,7 °C 23,7 °C 40 % 1017,4 hPa 0,0 mm 5,3 km/h (1 Bft) N 5 ° 0 min 0,000 mm 0,0 UV-I 44 W/m² 9,3 °C 23,7 °C 9,7 km/h (2 Bft)
27.05.2017 16:45 23,6 °C 23,7 °C 37 % 1017,4 hPa 0,0 mm 8,3 km/h (2 Bft) W-NW 288 ° 0 min 0,000 mm 0,0 UV-I 51 W/m² 8,0 °C 23,6 °C 12,9 km/h (3 Bft)
27.05.2017 16:46 23,7 °C 23,7 °C 40 % 1017,4 hPa 0,0 mm 6,7 km/h (2 Bft) NW 304 ° 0 min 0,000 mm 1,8 UV-I 65 W/m² 9,3 °C 23,7 °C 9,7 km/h (2 Bft)
27.05.2017 16:47 23,8 °C 23,8 °C 42 % 1017,4 hPa 0,0 mm 5,8 km/h (2 Bft) N-NW 341 ° 0 min 0,000 mm 0,0 UV-I 51 W/m² 10,1 °C 23,8 °C 9,7 km/h (2 Bft)
27.05.2017 16:48 23,8 °C 23,8 °C 38 % 1017,4 hPa 0,0 mm 5,1 km/h (1 Bft) N-NO 21 ° 0 min 0,000 mm 0,0 UV-I 46 W/m² 8,6 °C 23,8 °C 8,0 km/h (2 Bft)
27.05.2017 16:49 23,8 °C 23,8 °C 39 % 1017,4 hPa 0,0 mm 6,3 km/h (2 Bft) O-NO 78 ° 0 min 0,000 mm 0,0 UV-I 42 W/m² 9,0 °C 23,8 °C 9,7 km/h (2 Bft)
27.05.2017 16:50 23,8 °C 23,8 °C 39 % 1017,4 hPa 0,0 mm 6,2 km/h (2 Bft) N-NO 26 ° 0 min 0,000 mm 0,0 UV-I 42 W/m² 9,0 °C 23,8 °C 11,3 km/h (2 Bft)
27.05.2017 16:51 23,9 °C 23,9 °C 37 % 1017,4 hPa 0,0 mm 5,6 km/h (1 Bft) N-NO 12 ° 0 min 0,000 mm 0,0 UV-I 42 W/m² 8,3 °C 23,9 °C 11,3 km/h (2 Bft)
27.05.2017 16:52 23,8 °C 23,9 °C 37 % 1017,4 hPa 0,0 mm 4,0 km/h (1 Bft) W-NW 300 ° 0 min 0,000 mm 0,0 UV-I 44 W/m² 8,2 °C 23,8 °C 6,4 km/h (2 Bft)
27.05.2017 16:53 23,8 °C 23,8 °C 36 % 1017,4 hPa 0,0 mm 2,3 km/h (1 Bft) NW 326 ° 0 min 0,000 mm 1,7 UV-I 56 W/m² 7,8 °C 23,8 °C 6,4 km/h (2 Bft)
27.05.2017 16:54 23,8 °C 23,8 °C 38 % 1017,4 hPa 0,0 mm 3,8 km/h (1 Bft) O-NO 59 ° 0 min 0,000 mm 1,7 UV-I 51 W/m² 8,6 °C 23,8 °C 6,4 km/h (2 Bft)
27.05.2017 16:55 23,7 °C 23,8 °C 38 % 1017,4 hPa 0,0 mm 4,9 km/h (1 Bft) O-NO 66 ° 0 min 0,000 mm 0,0 UV-I 42 W/m² 8,5 °C 23,7 °C 6,4 km/h (2 Bft)
27.05.2017 16:56 23,7 °C 23,8 °C 39 % 1017,4 hPa 0,0 mm 5,1 km/h (1 Bft) N-NO 25 ° 0 min 0,000 mm 0,0 UV-I 42 W/m² 8,9 °C 23,7 °C 8,0 km/h (2 Bft)
27.05.2017 16:57 23,7 °C 23,8 °C 37 % 1017,4 hPa 0,0 mm 4,7 km/h (1 Bft) NO 46 ° 0 min 0,000 mm 0,0 UV-I 42 W/m² 8,1 °C 23,7 °C 6,4 km/h (2 Bft)
27.05.2017 16:58 23,7 °C 23,8 °C 36 % 1017,4 hPa 0,0 mm 4,4 km/h (1 Bft) NO 56 ° 0 min 0,000 mm 0,0 UV-I 42 W/m² 7,7 °C 23,7 °C 8,0 km/h (2 Bft)
27.05.2017 16:59 23,7 °C 23,7 °C 37 % 1017,4 hPa 0,0 mm 1,5 km/h (1 Bft) NO 56 ° 0 min 0,000 mm 0,0 UV-I 42 W/m² 8,1 °C 23,7 °C 4,8 km/h (1 Bft)
27.05.2017 17:00 23,7 °C 23,7 °C 37 % 1017,4 hPa 0,0 mm 2,7 km/h (1 Bft) NO 56 ° 0 min 0,000 mm 0,0 UV-I 42 W/m² 8,1 °C 23,7 °C 4,8 km/h (1 Bft)
27.05.2017 17:01 23,7 °C 23,7 °C 41 % 1017,4 hPa 0,0 mm 1,9 km/h (1 Bft) O 93 ° 0 min 0,152 mm 0,0 UV-I 42 W/m² 9,7 °C 23,7 °C 3,2 km/h (1 Bft)
27.05.2017 17:02 23,6 °C 23,7 °C 36 % 1017,4 hPa 0,0 mm 2,4 km/h (1 Bft) O-SO 123 ° 0 min 0,000 mm 0,0 UV-I 42 W/m² 7,6 °C 23,6 °C 4,8 km/h (1 Bft)
27.05.2017 17:03 23,6 °C 23,6 °C 39 % 1017,4 hPa 0,0 mm 4,9 km/h (1 Bft) N 350 ° 0 min 0,000 mm 0,0 UV-I 42 W/m² 8,8 °C 23,6 °C 6,4 km/h (2 Bft)
27.05.2017 17:04 23,6 °C 23,6 °C 38 % 1017,4 hPa 0,0 mm 7,4 km/h (2 Bft) NO 42 ° 0 min 0,000 mm 0,0 UV-I 42 W/m² 8,4 °C 23,6 °C 11,3 km/h (2 Bft)
27.05.2017 17:05 23,6 °C 23,6 °C 36 % 1017,5 hPa 0,0 mm 5,4 km/h (1 Bft) NO 42 ° 0 min 0,000 mm 0,0 UV-I 42 W/m² 7,6 °C 23,6 °C 9,7 km/h (2 Bft)
27.05.2017 17:06 23,6 °C 23,6 °C 38 % 1017,4 hPa 0,0 mm 4,7 km/h (1 Bft) N-NO 24 ° 0 min 0,000 mm 0,0 UV-I 42 W/m² 8,4 °C 23,6 °C 6,4 km/h (2 Bft)
27.05.2017 17:07 23,6 °C 23,6 °C 38 % 1017,4 hPa 0,0 mm 4,1 km/h (1 Bft) NO 43 ° 0 min 0,000 mm 0,0 UV-I 42 W/m² 8,4 °C 23,6 °C 6,4 km/h (2 Bft)
27.05.2017 17:08 23,6 °C 23,6 °C 38 % 1017,4 hPa 0,0 mm 3,7 km/h (1 Bft) N 5 ° 0 min 0,000 mm 0,0 UV-I 42 W/m² 8,4 °C 23,6 °C 8,0 km/h (2 Bft)
27.05.2017 17:09 23,7 °C 23,7 °C 38 % 1017,4 hPa 0,0 mm 5,2 km/h (1 Bft) N 5 ° 0 min 0,000 mm 0,0 UV-I 42 W/m² 8,5 °C 23,7 °C 8,0 km/h (2 Bft)
27.05.2017 17:10 23,7 °C 23,7 °C 38 % 1017,4 hPa 0,0 mm 3,8 km/h (1 Bft) N 360 ° 0 min 0,000 mm 0,0 UV-I 42 W/m² 8,5 °C 23,7 °C 6,4 km/h (2 Bft)
27.05.2017 17:11 23,8 °C 23,8 °C 37 % 1017,4 hPa 0,0 mm 5,3 km/h (1 Bft) N-NW 339 ° 0 min 0,000 mm 0,0 UV-I 46 W/m² 8,2 °C 23,8 °C 6,4 km/h (2 Bft)
27.05.2017 17:12 23,8 °C 23,8 °C 38 % 1017,4 hPa 0,0 mm 6,1 km/h (2 Bft) N-NW 344 ° 0 min 0,000 mm 0,0 UV-I 40 W/m² 8,6 °C 23,8 °C 8,0 km/h (2 Bft)
27.05.2017 17:13 23,8 °C 23,8 °C 39 % 1017,4 hPa 0,0 mm 4,1 km/h (1 Bft) NW 313 ° 0 min 0,000 mm 0,0 UV-I 42 W/m² 9,0 °C 23,8 °C 6,4 km/h (2 Bft)
27.05.2017 17:14 23,8 °C 23,8 °C 39 % 1017,4 hPa 0,0 mm 4,2 km/h (1 Bft) N 360 ° 0 min 0,000 mm 0,0 UV-I 42 W/m² 9,0 °C 23,8 °C 4,8 km/h (1 Bft)
27.05.2017 17:15 23,8 °C 23,8 °C 39 % 1017,4 hPa 0,0 mm 3,6 km/h (1 Bft) N 9 ° 0 min 0,000 mm 0,0 UV-I 42 W/m² 9,0 °C 23,8 °C 4,8 km/h (1 Bft)
27.05.2017 17:16 23,9 °C 23,9 °C 38 % 1017,4 hPa 0,0 mm 4,3 km/h (1 Bft) N-NW 346 ° 0 min 0,000 mm 0,0 UV-I 46 W/m² 8,7 °C 23,9 °C 6,4 km/h (2 Bft)
27.05.2017 17:17 23,9 °C 23,9 °C 39 % 1017,4 hPa 0,0 mm 5,4 km/h (1 Bft) N 9 ° 0 min 0,000 mm 0,0 UV-I 40 W/m² 9,1 °C 23,9 °C 12,9 km/h (3 Bft)
27.05.2017 17:18 24,0 °C 24,0 °C 38 % 1017,4 hPa 0,0 mm 9,0 km/h (2 Bft) N-NW 342 ° 0 min 0,000 mm 0,0 UV-I 42 W/m² 8,8 °C 24,0 °C 16,1 km/h (3 Bft)
27.05.2017 17:19 24,0 °C 24,1 °C 37 % 1017,4 hPa 0,0 mm 10,1 km/h (2 Bft) NO 37 ° 0 min 0,000 mm 0,0 UV-I 42 W/m² 8,4 °C 24,0 °C 14,5 km/h (3 Bft)
27.05.2017 17:20 24,0 °C 24,0 °C 37 % 1017,4 hPa 0,0 mm 8,4 km/h (2 Bft) N 360 ° 0 min 0,000 mm 0,0 UV-I 40 W/m² 8,4 °C 24,0 °C 12,9 km/h (3 Bft)
27.05.2017 17:21 23,9 °C 24,0 °C 37 % 1017,5 hPa 0,0 mm 7,8 km/h (2 Bft) N 355 ° 0 min 0,000 mm 0,0 UV-I 40 W/m² 8,3 °C 23,9 °C 12,9 km/h (3 Bft)
27.05.2017 17:22 23,9 °C 23,9 °C 38 % 1017,4 hPa 0,0 mm 3,2 km/h (1 Bft) N-NO 25 ° 0 min 0,000 mm 0,0 UV-I 40 W/m² 8,7 °C 23,9 °C 4,8 km/h (1 Bft)
27.05.2017 17:23 23,8 °C 23,9 °C 39 % 1017,4 hPa 0,0 mm 3,5 km/h (1 Bft) N-NO 20 ° 0 min 0,000 mm 0,0 UV-I 42 W/m² 9,0 °C 23,8 °C 4,8 km/h (1 Bft)
27.05.2017 17:24 23,7 °C 23,8 °C 40 % 1017,4 hPa 0,0 mm 2,3 km/h (1 Bft) N-NO 20 ° 0 min 0,000 mm 0,0 UV-I 56 W/m² 9,3 °C 23,7 °C 4,8 km/h (1 Bft)
27.05.2017 17:25 23,7 °C 23,8 °C 38 % 1017,4 hPa 0,0 mm 3,3 km/h (1 Bft) N-NO 19 ° 0 min 0,000 mm 0,0 UV-I 47 W/m² 8,5 °C 23,7 °C 4,8 km/h (1 Bft)
27.05.2017 17:26 23,7 °C 23,7 °C 37 % 1017,4 hPa 0,0 mm 5,3 km/h (1 Bft) N 355 ° 0 min 0,000 mm 0,0 UV-I 40 W/m² 8,1 °C 23,7 °C 8,0 km/h (2 Bft)
27.05.2017 17:27 23,8 °C 23,8 °C 39 % 1017,4 hPa 0,0 mm 10,4 km/h (2 Bft) N-NO 18 ° 0 min 0,000 mm 0,0 UV-I 40 W/m² 9,0 °C 23,8 °C 16,1 km/h (3 Bft)
27.05.2017 17:28 23,8 °C 23,8 °C 38 % 1017,4 hPa 0,0 mm 8,9 km/h (2 Bft) N 5 ° 0 min 0,000 mm 0,0 UV-I 40 W/m² 8,6 °C 23,8 °C 14,5 km/h (3 Bft)
27.05.2017 17:29 23,9 °C 23,9 °C 39 % 1017,4 hPa 0,0 mm 5,4 km/h (1 Bft) N-NO 15 ° 0 min 0,000 mm 0,0 UV-I 40 W/m² 9,1 °C 23,9 °C 8,0 km/h (2 Bft)
27.05.2017 17:30 23,9 °C 23,9 °C 40 % 1017,4 hPa 0,0 mm 4,5 km/h (1 Bft) O 82 ° 0 min 0,000 mm 0,0 UV-I 40 W/m² 9,5 °C 23,9 °C 8,0 km/h (2 Bft)
27.05.2017 17:31 23,9 °C 23,9 °C 37 % 1017,4 hPa 0,0 mm 6,8 km/h (2 Bft) O 94 ° 0 min 0,000 mm 0,0 UV-I 40 W/m² 8,3 °C 23,9 °C 11,3 km/h (2 Bft)
27.05.2017 17:32 23,8 °C 23,9 °C 37 % 1017,4 hPa 0,0 mm 4,5 km/h (1 Bft) O-SO 109 ° 0 min 0,000 mm 0,0 UV-I 40 W/m² 8,2 °C 23,8 °C 6,4 km/h (2 Bft)
27.05.2017 17:33 23,7 °C 23,8 °C 37 % 1017,3 hPa 0,0 mm 0,5 km/h (0 Bft) O 96 ° 0 min 0,000 mm 0,0 UV-I 46 W/m² 8,1 °C 23,7 °C 3,2 km/h (1 Bft)
27.05.2017 17:34 23,6 °C 23,7 °C 38 % 1017,3 hPa 0,0 mm 3,8 km/h (1 Bft) O-SO 111 ° 0 min 0,000 mm 0,0 UV-I 42 W/m² 8,4 °C 23,6 °C 4,8 km/h (1 Bft)
27.05.2017 17:35 23,6 °C 23,6 °C 38 % 1017,3 hPa 0,0 mm 10,0 km/h (2 Bft) O 94 ° 0 min 0,000 mm 0,0 UV-I 42 W/m² 8,4 °C 23,6 °C 14,5 km/h (3 Bft)
27.05.2017 17:36 23,6 °C 23,6 °C 38 % 1017,4 hPa 0,0 mm 6,6 km/h (2 Bft) O 79 ° 0 min 0,000 mm 0,0 UV-I 40 W/m² 8,4 °C 23,6 °C 9,7 km/h (2 Bft)
27.05.2017 17:37 23,6 °C 23,6 °C 40 % 1017,3 hPa 0,0 mm 4,9 km/h (1 Bft) O-NO 68 ° 0 min 0,000 mm 0,0 UV-I 40 W/m² 9,2 °C 23,6 °C 6,4 km/h (2 Bft)
27.05.2017 17:38 23,6 °C 23,6 °C 37 % 1017,4 hPa 0,0 mm 5,8 km/h (2 Bft) O 99 ° 0 min 0,000 mm 0,0 UV-I 40 W/m² 8,0 °C 23,6 °C 9,7 km/h (2 Bft)
27.05.2017 17:39 23,6 °C 23,6 °C 37 % 1017,4 hPa 0,0 mm 6,0 km/h (2 Bft) O 82 ° 0 min 0,000 mm 0,0 UV-I 40 W/m² 8,0 °C 23,6 °C 9,7 km/h (2 Bft)
27.05.2017 17:40 23,6 °C 23,6 °C 37 % 1017,3 hPa 0,0 mm 2,8 km/h (1 Bft) NO 55 ° 0 min 0,000 mm 0,0 UV-I 40 W/m² 8,0 °C 23,6 °C 4,8 km/h (1 Bft)
27.05.2017 17:41 23,5 °C 23,6 °C 37 % 1017,3 hPa 0,0 mm 3,6 km/h (1 Bft) O-NO 62 ° 0 min 0,000 mm 0,0 UV-I 40 W/m² 8,0 °C 23,5 °C 4,8 km/h (1 Bft)
27.05.2017 17:42 23,5 °C 23,6 °C 36 % 1017,4 hPa 0,0 mm 2,4 km/h (1 Bft) O-NO 62 ° 0 min 0,000 mm 0,0 UV-I 42 W/m² 7,6 °C 23,5 °C 4,8 km/h (1 Bft)
27.05.2017 17:43 23,6 °C 23,6 °C 36 % 1017,3 hPa 0,0 mm 0,5 km/h (0 Bft) O-NO 62 ° 0 min 0,000 mm 0,0 UV-I 40 W/m² 7,6 °C 23,6 °C 1,6 km/h (1 Bft)
27.05.2017 17:44 23,6 °C 23,6 °C 36 % 1017,3 hPa 0,0 mm 1,6 km/h (1 Bft) N 11 ° 0 min 0,000 mm 0,0 UV-I 40 W/m² 7,6 °C 23,6 °C 4,8 km/h (1 Bft)
27.05.2017 17:45 23,6 °C 23,6 °C 36 % 1017,3 hPa 0,0 mm 0,1 km/h (0 Bft) N 11 ° 0 min 0,000 mm 0,0 UV-I 40 W/m² 7,6 °C 23,6 °C 1,6 km/h (1 Bft)
27.05.2017 17:46 23,6 °C 23,6 °C 36 % 1017,3 hPa 0,0 mm 0,0 km/h (0 Bft) N 11 ° 0 min 0,000 mm 0,0 UV-I 40 W/m² 7,6 °C 23,6 °C 0,0 km/h (0 Bft)
27.05.2017 17:47 23,6 °C 23,6 °C 38 % 1017,3 hPa 0,0 mm 0,0 km/h (0 Bft) N 11 ° 0 min 0,000 mm 0,0 UV-I 49 W/m² 8,4 °C 23,6 °C 0,0 km/h (0 Bft)
27.05.2017 17:48 23,5 °C 23,6 °C 38 % 1017,3 hPa 0,0 mm 4,6 km/h (1 Bft) NO 54 ° 0 min 0,000 mm 1,3 UV-I 58 W/m² 8,4 °C 23,5 °C 8,0 km/h (2 Bft)
27.05.2017 17:49 23,6 °C 23,6 °C 36 % 1017,3 hPa 0,0 mm 1,6 km/h (1 Bft) NO 54 ° 0 min 0,000 mm 1,4 UV-I 60 W/m² 7,6 °C 23,6 °C 4,8 km/h (1 Bft)
27.05.2017 17:50 23,6 °C 23,6 °C 36 % 1017,3 hPa 0,0 mm 0,6 km/h (0 Bft) NO 54 ° 0 min 0,000 mm 0,0 UV-I 47 W/m² 7,6 °C 23,6 °C 3,2 km/h (1 Bft)
27.05.2017 17:51 23,5 °C 23,6 °C 37 % 1017,4 hPa 0,0 mm 2,2 km/h (1 Bft) N-NO 21 ° 0 min 0,000 mm 0,0 UV-I 40 W/m² 8,0 °C 23,5 °C 4,8 km/h (1 Bft)
27.05.2017 17:52 23,6 °C 23,6 °C 38 % 1017,3 hPa 0,0 mm 3,9 km/h (1 Bft) O-NO 63 ° 0 min 0,000 mm 0,0 UV-I 40 W/m² 8,4 °C 23,6 °C 6,4 km/h (2 Bft)
27.05.2017 17:53 23,6 °C 23,6 °C 36 % 1017,4 hPa 0,0 mm 3,8 km/h (1 Bft) O-NO 63 ° 0 min 0,000 mm 0,0 UV-I 42 W/m² 7,6 °C 23,6 °C 4,8 km/h (1 Bft)
27.05.2017 17:54 23,6 °C 23,6 °C 37 % 1017,4 hPa 0,0 mm 1,5 km/h (1 Bft) N-NW 348 ° 0 min 0,000 mm 0,0 UV-I 40 W/m² 8,0 °C 23,6 °C 4,8 km/h (1 Bft)
27.05.2017 17:55 23,6 °C 23,6 °C 40 % 1017,4 hPa 0,0 mm 5,6 km/h (1 Bft) NW 325 ° 0 min 0,000 mm 0,0 UV-I 49 W/m² 9,2 °C 23,6 °C 8,0 km/h (2 Bft)
27.05.2017 17:56 23,6 °C 23,6 °C 41 % 1017,4 hPa 0,0 mm 7,4 km/h (2 Bft) NW 326 ° 0 min 0,000 mm 0,0 UV-I 54 W/m² 9,6 °C 23,6 °C 11,3 km/h (2 Bft)
27.05.2017 17:57 23,6 °C 23,6 °C 40 % 1017,4 hPa 0,0 mm 3,3 km/h (1 Bft) NW 319 ° 0 min 0,000 mm 1,3 UV-I 63 W/m² 9,2 °C 23,6 °C 6,4 km/h (2 Bft)
27.05.2017 17:58 23,6 °C 23,6 °C 37 % 1017,4 hPa 0,0 mm 2,6 km/h (1 Bft) NW 319 ° 0 min 0,000 mm 1,3 UV-I 77 W/m² 8,0 °C 23,6 °C 3,2 km/h (1 Bft)
27.05.2017 17:59 23,6 °C 23,6 °C 37 % 1017,3 hPa 0,0 mm 1,8 km/h (1 Bft) NW 319 ° 0 min 0,000 mm 1,3 UV-I 111 W/m² 8,0 °C 23,6 °C 3,2 km/h (1 Bft)
27.05.2017 18:00 23,6 °C 23,6 °C 38 % 1017,4 hPa 0,0 mm 2,3 km/h (1 Bft) N-NO 21 ° 0 min 0,000 mm 1,5 UV-I 142 W/m² 8,4 °C 23,6 °C 4,8 km/h (1 Bft)
27.05.2017 18:01 23,7 °C 23,7 °C 38 % 1017,4 hPa 0,0 mm 4,7 km/h (1 Bft) N-NW 343 ° 0 min 0,076 mm 1,3 UV-I 77 W/m² 8,5 °C 23,7 °C 9,7 km/h (2 Bft)
27.05.2017 18:02 23,7 °C 23,7 °C 39 % 1017,4 hPa 0,0 mm 5,3 km/h (1 Bft) NO 36 ° 0 min 0,000 mm 0,0 UV-I 40 W/m² 8,9 °C 23,7 °C 8,0 km/h (2 Bft)
27.05.2017 18:03 23,7 °C 23,7 °C 38 % 1017,4 hPa 0,0 mm 4,1 km/h (1 Bft) N 360 ° 0 min 0,000 mm 0,0 UV-I 39 W/m² 8,5 °C 23,7 °C 8,0 km/h (2 Bft)
27.05.2017 18:04 23,7 °C 23,8 °C 35 % 1017,4 hPa 0,0 mm 5,7 km/h (1 Bft) N-NO 27 ° 0 min 0,000 mm 0,0 UV-I 39 W/m² 7,3 °C 23,7 °C 9,7 km/h (2 Bft)
27.05.2017 18:05 23,7 °C 23,7 °C 36 % 1017,4 hPa 0,0 mm 3,9 km/h (1 Bft) N-NO 32 ° 0 min 0,000 mm 0,0 UV-I 39 W/m² 7,7 °C 23,7 °C 6,4 km/h (2 Bft)
27.05.2017 18:06 23,8 °C 23,8 °C 36 % 1017,4 hPa 0,0 mm 3,0 km/h (1 Bft) N 5 ° 0 min 0,000 mm 0,0 UV-I 39 W/m² 7,8 °C 23,8 °C 4,8 km/h (1 Bft)
27.05.2017 18:07 23,8 °C 23,8 °C 38 % 1017,4 hPa 0,0 mm 6,0 km/h (2 Bft) N 355 ° 0 min 0,000 mm 0,0 UV-I 40 W/m² 8,6 °C 23,8 °C 8,0 km/h (2 Bft)
27.05.2017 18:08 23,8 °C 23,8 °C 37 % 1017,4 hPa 0,0 mm 3,7 km/h (1 Bft) N-NO 15 ° 0 min 0,000 mm 0,0 UV-I 39 W/m² 8,2 °C 23,8 °C 6,4 km/h (2 Bft)
27.05.2017 18:09 23,8 °C 23,8 °C 38 % 1017,4 hPa 0,0 mm 4,4 km/h (1 Bft) NO 36 ° 0 min 0,000 mm 0,0 UV-I 39 W/m² 8,6 °C 23,8 °C 4,8 km/h (1 Bft)
27.05.2017 18:10 23,8 °C 23,8 °C 37 % 1017,4 hPa 0,0 mm 8,3 km/h (2 Bft) NO 48 ° 0 min 0,000 mm 0,0 UV-I 39 W/m² 8,2 °C 23,8 °C 11,3 km/h (2 Bft)
27.05.2017 18:11 23,8 °C 23,9 °C 37 % 1017,4 hPa 0,0 mm 6,3 km/h (2 Bft) NO 34 ° 0 min 0,000 mm 0,0 UV-I 39 W/m² 8,2 °C 23,8 °C 9,7 km/h (2 Bft)
27.05.2017 18:12 23,8 °C 23,9 °C 35 % 1017,4 hPa 0,0 mm 4,7 km/h (1 Bft) N-NO 21 ° 0 min 0,000 mm 0,0 UV-I 39 W/m² 7,4 °C 23,8 °C 9,7 km/h (2 Bft)
27.05.2017 18:13 23,8 °C 23,8 °C 37 % 1017,4 hPa 0,0 mm 5,4 km/h (1 Bft) O-NO 61 ° 0 min 0,000 mm 0,0 UV-I 39 W/m² 8,2 °C 23,8 °C 8,0 km/h (2 Bft)
27.05.2017 18:14 23,8 °C 23,8 °C 38 % 1017,4 hPa 0,0 mm 3,4 km/h (1 Bft) N-NO 13 ° 0 min 0,000 mm 0,0 UV-I 42 W/m² 8,6 °C 23,8 °C 8,0 km/h (2 Bft)
27.05.2017 18:15 23,8 °C 23,8 °C 37 % 1017,4 hPa 0,0 mm 1,7 km/h (1 Bft) N-NO 13 ° 0 min 0,000 mm 0,0 UV-I 39 W/m² 8,2 °C 23,8 °C 3,2 km/h (1 Bft)
27.05.2017 18:16 23,8 °C 23,8 °C 37 % 1017,4 hPa 0,0 mm 1,3 km/h (1 Bft) N-NO 19 ° 0 min 0,000 mm 0,0 UV-I 39 W/m² 8,2 °C 23,8 °C 3,2 km/h (1 Bft)
27.05.2017 18:17 23,7 °C 23,8 °C 38 % 1017,4 hPa 0,0 mm 1,1 km/h (1 Bft) N-NO 18 ° 0 min 0,000 mm 0,0 UV-I 39 W/m² 8,5 °C 23,7 °C 3,2 km/h (1 Bft)
27.05.2017 18:18 23,7 °C 23,7 °C 37 % 1017,4 hPa 0,0 mm 4,0 km/h (1 Bft) N-NO 18 ° 0 min 0,000 mm 0,0 UV-I 40 W/m² 8,1 °C 23,7 °C 4,8 km/h (1 Bft)
27.05.2017 18:19 23,8 °C 23,8 °C 38 % 1017,4 hPa 0,0 mm 3,4 km/h (1 Bft) O-NO 59 ° 0 min 0,000 mm 0,0 UV-I 39 W/m² 8,6 °C 23,8 °C 4,8 km/h (1 Bft)
27.05.2017 18:20 23,8 °C 23,8 °C 38 % 1017,4 hPa 0,0 mm 7,7 km/h (2 Bft) N-NW 339 ° 0 min 0,000 mm 0,0 UV-I 39 W/m² 8,6 °C 23,8 °C 14,5 km/h (3 Bft)
27.05.2017 18:21 23,8 °C 23,8 °C 38 % 1017,4 hPa 0,0 mm 5,4 km/h (1 Bft) N 351 ° 0 min 0,000 mm 1,2 UV-I 58 W/m² 8,6 °C 23,8 °C 8,0 km/h (2 Bft)
27.05.2017 18:22 23,8 °C 23,8 °C 39 % 1017,4 hPa 0,0 mm 5,8 km/h (2 Bft) N 355 ° 0 min 0,000 mm 0,0 UV-I 40 W/m² 9,0 °C 23,8 °C 12,9 km/h (3 Bft)
27.05.2017 18:23 23,8 °C 23,8 °C 38 % 1017,4 hPa 0,0 mm 4,4 km/h (1 Bft) N-NW 340 ° 0 min 0,000 mm 0,0 UV-I 40 W/m² 8,6 °C 23,8 °C 6,4 km/h (2 Bft)
27.05.2017 18:24 23,8 °C 23,8 °C 38 % 1017,4 hPa 0,0 mm 7,4 km/h (2 Bft) N 360 ° 0 min 0,000 mm 0,0 UV-I 49 W/m² 8,6 °C 23,8 °C 12,9 km/h (3 Bft)
27.05.2017 18:25 23,7 °C 23,8 °C 36 % 1017,4 hPa 0,0 mm 8,9 km/h (2 Bft) N-NO 14 ° 0 min 0,000 mm 0,0 UV-I 42 W/m² 7,7 °C 23,7 °C 12,9 km/h (3 Bft)
27.05.2017 18:26 23,7 °C 23,8 °C 37 % 1017,4 hPa 0,0 mm 6,4 km/h (2 Bft) N-NW 345 ° 0 min 0,000 mm 0,0 UV-I 47 W/m² 8,1 °C 23,7 °C 9,7 km/h (2 Bft)
27.05.2017 18:27 23,8 °C 23,8 °C 37 % 1017,5 hPa 0,0 mm 3,4 km/h (1 Bft) O-NO 57 ° 0 min 0,000 mm 0,0 UV-I 40 W/m² 8,2 °C 23,8 °C 6,4 km/h (2 Bft)
27.05.2017 18:28 23,7 °C 23,8 °C 37 % 1017,4 hPa 0,0 mm 2,2 km/h (1 Bft) NO 56 ° 0 min 0,000 mm 0,0 UV-I 39 W/m² 8,1 °C 23,7 °C 4,8 km/h (1 Bft)
27.05.2017 18:29 23,8 °C 23,8 °C 38 % 1017,4 hPa 0,0 mm 3,0 km/h (1 Bft) N-NO 18 ° 0 min 0,000 mm 0,0 UV-I 40 W/m² 8,6 °C 23,8 °C 4,8 km/h (1 Bft)
27.05.2017 18:30 23,8 °C 23,8 °C 39 % 1017,4 hPa 0,0 mm 5,6 km/h (1 Bft) NO 51 ° 0 min 0,000 mm 0,0 UV-I 39 W/m² 9,0 °C 23,8 °C 8,0 km/h (2 Bft)
27.05.2017 18:31 23,8 °C 23,8 °C 38 % 1017,4 hPa 0,0 mm 1,9 km/h (1 Bft) NO 51 ° 0 min 0,000 mm 0,0 UV-I 39 W/m² 8,6 °C 23,8 °C 4,8 km/h (1 Bft)
27.05.2017 18:32 23,8 °C 23,8 °C 40 % 1017,4 hPa 0,0 mm 5,9 km/h (2 Bft) O-NO 61 ° 0 min 0,000 mm 0,0 UV-I 40 W/m² 9,4 °C 23,8 °C 9,7 km/h (2 Bft)
27.05.2017 18:33 23,7 °C 23,8 °C 36 % 1017,4 hPa 0,0 mm 4,2 km/h (1 Bft) N-NO 24 ° 0 min 0,000 mm 0,0 UV-I 42 W/m² 7,7 °C 23,7 °C 8,0 km/h (2 Bft)
27.05.2017 18:34 23,7 °C 23,8 °C 38 % 1017,4 hPa 0,0 mm 3,7 km/h (1 Bft) NW 321 ° 0 min 0,000 mm 0,0 UV-I 46 W/m² 8,5 °C 23,7 °C 4,8 km/h (1 Bft)
27.05.2017 18:35 23,7 °C 23,7 °C 36 % 1017,4 hPa 0,0 mm 6,3 km/h (2 Bft) N-NO 16 ° 0 min 0,000 mm 0,0 UV-I 47 W/m² 7,7 °C 23,7 °C 11,3 km/h (2 Bft)
27.05.2017 18:36 23,7 °C 23,7 °C 36 % 1017,3 hPa 0,0 mm 6,9 km/h (2 Bft) N-NO 16 ° 0 min 0,000 mm 0,0 UV-I 49 W/m² 7,7 °C 23,7 °C 12,9 km/h (3 Bft)
27.05.2017 18:37 23,7 °C 23,7 °C 37 % 1017,4 hPa 0,0 mm 7,7 km/h (2 Bft) N 5 ° 0 min 0,000 mm 0,0 UV-I 40 W/m² 8,1 °C 23,7 °C 9,7 km/h (2 Bft)
27.05.2017 18:38 23,7 °C 23,7 °C 37 % 1017,4 hPa 0,0 mm 5,4 km/h (1 Bft) N-NO 25 ° 0 min 0,000 mm 0,0 UV-I 49 W/m² 8,1 °C 23,7 °C 8,0 km/h (2 Bft)
27.05.2017 18:39 23,7 °C 23,7 °C 36 % 1017,4 hPa 0,0 mm 8,5 km/h (2 Bft) N-NW 340 ° 0 min 0,000 mm 0,0 UV-I 49 W/m² 7,7 °C 23,7 °C 11,3 km/h (2 Bft)
27.05.2017 18:40 23,7 °C 23,7 °C 37 % 1017,4 hPa 0,0 mm 5,9 km/h (2 Bft) N 5 ° 0 min 0,000 mm 0,0 UV-I 86 W/m² 8,1 °C 23,7 °C 8,0 km/h (2 Bft)
27.05.2017 18:41 23,7 °C 23,7 °C 38 % 1017,4 hPa 0,0 mm 3,9 km/h (1 Bft) N-NO 13 ° 0 min 0,000 mm 1,0 UV-I 97 W/m² 8,5 °C 23,7 °C 4,8 km/h (1 Bft)
27.05.2017 18:42 23,7 °C 23,7 °C 39 % 1017,4 hPa 0,0 mm 3,5 km/h (1 Bft) N 5 ° 0 min 0,000 mm 1,0 UV-I 62 W/m² 8,9 °C 23,7 °C 6,4 km/h (2 Bft)
27.05.2017 18:43 23,7 °C 23,8 °C 37 % 1017,5 hPa 0,0 mm 4,8 km/h (1 Bft) NO 38 ° 0 min 0,000 mm 1,1 UV-I 98 W/m² 8,1 °C 23,7 °C 8,0 km/h (2 Bft)
27.05.2017 18:44 23,7 °C 23,8 °C 36 % 1017,4 hPa 0,0 mm 3,6 km/h (1 Bft) N-NO 33 ° 0 min 0,000 mm 0,0 UV-I 47 W/m² 7,7 °C 23,7 °C 4,8 km/h (1 Bft)
27.05.2017 18:45 23,8 °C 23,8 °C 37 % 1017,4 hPa 0,0 mm 3,8 km/h (1 Bft) N-NO 19 ° 0 min 0,000 mm 0,0 UV-I 40 W/m² 8,2 °C 23,8 °C 6,4 km/h (2 Bft)
27.05.2017 18:46 23,8 °C 23,8 °C 36 % 1017,4 hPa 0,0 mm 5,7 km/h (1 Bft) N 355 ° 0 min 0,000 mm 0,0 UV-I 39 W/m² 7,8 °C 23,8 °C 9,7 km/h (2 Bft)
27.05.2017 18:47 23,8 °C 23,8 °C 37 % 1017,4 hPa 0,0 mm 3,2 km/h (1 Bft) NO 39 ° 0 min 0,000 mm 0,0 UV-I 39 W/m² 8,2 °C 23,8 °C 4,8 km/h (1 Bft)
27.05.2017 18:48 23,7 °C 23,8 °C 37 % 1017,4 hPa 0,0 mm 4,2 km/h (1 Bft) N-NO 28 ° 0 min 0,000 mm 0,9 UV-I 65 W/m² 8,1 °C 23,7 °C 4,8 km/h (1 Bft)
27.05.2017 18:49 23,7 °C 23,7 °C 37 % 1017,4 hPa 0,0 mm 4,4 km/h (1 Bft) N-NO 13 ° 0 min 0,000 mm 0,9 UV-I 127 W/m² 8,1 °C 23,7 °C 8,0 km/h (2 Bft)
27.05.2017 18:50 23,7 °C 23,8 °C 36 % 1017,4 hPa 0,0 mm 3,6 km/h (1 Bft) O-NO 61 ° 0 min 0,000 mm 0,9 UV-I 107 W/m² 7,7 °C 23,7 °C 6,4 km/h (2 Bft)
27.05.2017 18:51 23,7 °C 23,7 °C 37 % 1017,5 hPa 0,0 mm 7,2 km/h (2 Bft) N 360 ° 0 min 0,000 mm 0,9 UV-I 74 W/m² 8,1 °C 23,7 °C 12,9 km/h (3 Bft)
27.05.2017 18:52 23,6 °C 23,7 °C 35 % 1017,4 hPa 0,0 mm 6,6 km/h (2 Bft) N-NO 15 ° 0 min 0,000 mm 0,9 UV-I 62 W/m² 7,2 °C 23,6 °C 11,3 km/h (2 Bft)
27.05.2017 18:53 23,6 °C 23,6 °C 36 % 1017,4 hPa 0,0 mm 6,7 km/h (2 Bft) N 10 ° 0 min 0,000 mm 0,0 UV-I 54 W/m² 7,6 °C 23,6 °C 8,0 km/h (2 Bft)
27.05.2017 18:54 23,7 °C 23,7 °C 35 % 1017,5 hPa 0,0 mm 2,5 km/h (1 Bft) NO 44 ° 0 min 0,000 mm 0,0 UV-I 40 W/m² 7,3 °C 23,7 °C 3,2 km/h (1 Bft)
27.05.2017 18:55 23,6 °C 23,7 °C 37 % 1017,4 hPa 0,0 mm 3,3 km/h (1 Bft) NO 34 ° 0 min 0,000 mm 0,0 UV-I 40 W/m² 8,0 °C 23,6 °C 4,8 km/h (1 Bft)
27.05.2017 18:56 23,7 °C 23,7 °C 37 % 1017,4 hPa 0,0 mm 1,8 km/h (1 Bft) NO 38 ° 0 min 0,000 mm 0,0 UV-I 37 W/m² 8,1 °C 23,7 °C 4,8 km/h (1 Bft)
27.05.2017 18:57 23,6 °C 23,7 °C 38 % 1017,4 hPa 0,0 mm 4,8 km/h (1 Bft) N-NO 25 ° 0 min 0,000 mm 0,0 UV-I 37 W/m² 8,4 °C 23,6 °C 6,4 km/h (2 Bft)
27.05.2017 18:58 23,6 °C 23,6 °C 37 % 1017,4 hPa 0,0 mm 6,4 km/h (2 Bft) N-NO 27 ° 0 min 0,000 mm 0,0 UV-I 37 W/m² 8,0 °C 23,6 °C 8,0 km/h (2 Bft)
27.05.2017 18:59 23,7 °C 23,7 °C 37 % 1017,4 hPa 0,0 mm 4,3 km/h (1 Bft) N-NO 15 ° 0 min 0,000 mm 0,0 UV-I 37 W/m² 8,1 °C 23,7 °C 8,0 km/h (2 Bft)
27.05.2017 19:00 23,7 °C 23,7 °C 38 % 1017,4 hPa 0,0 mm 5,7 km/h (1 Bft) N 355 ° 0 min 0,000 mm 0,0 UV-I 46 W/m² 8,5 °C 23,7 °C 8,0 km/h (2 Bft)
27.05.2017 19:01 23,7 °C 23,7 °C 38 % 1017,4 hPa 0,0 mm 8,2 km/h (2 Bft) N-NO 12 ° 0 min 0,076 mm 0,0 UV-I 42 W/m² 8,5 °C 23,7 °C 11,3 km/h (2 Bft)
27.05.2017 19:02 23,7 °C 23,7 °C 37 % 1017,4 hPa 0,0 mm 5,0 km/h (1 Bft) N-NO 13 ° 0 min 0,000 mm 0,0 UV-I 42 W/m² 8,1 °C 23,7 °C 8,0 km/h (2 Bft)
27.05.2017 19:03 23,7 °C 23,7 °C 38 % 1017,4 hPa 0,0 mm 4,8 km/h (1 Bft) N 5 ° 0 min 0,000 mm 0,0 UV-I 46 W/m² 8,5 °C 23,7 °C 4,8 km/h (1 Bft)
27.05.2017 19:04 23,6 °C 23,7 °C 38 % 1017,4 hPa 0,0 mm 5,0 km/h (1 Bft) N 9 ° 0 min 0,000 mm 0,9 UV-I 114 W/m² 8,4 °C 23,6 °C 8,0 km/h (2 Bft)
27.05.2017 19:05 23,6 °C 23,6 °C 40 % 1017,4 hPa 0,0 mm 3,5 km/h (1 Bft) N 355 ° 0 min 0,000 mm 0,9 UV-I 121 W/m² 9,2 °C 23,6 °C 6,4 km/h (2 Bft)
27.05.2017 19:06 23,6 °C 23,6 °C 39 % 1017,4 hPa 0,0 mm 5,4 km/h (1 Bft) NO 53 ° 0 min 0,000 mm 0,8 UV-I 88 W/m² 8,8 °C 23,6 °C 8,0 km/h (2 Bft)
27.05.2017 19:07 23,6 °C 23,6 °C 38 % 1017,4 hPa 0,0 mm 5,2 km/h (1 Bft) O-NO 59 ° 0 min 0,000 mm 0,8 UV-I 70 W/m² 8,4 °C 23,6 °C 9,7 km/h (2 Bft)
27.05.2017 19:08 23,4 °C 23,6 °C 38 % 1017,4 hPa 0,0 mm 3,9 km/h (1 Bft) NO 42 ° 0 min 0,000 mm 0,8 UV-I 67 W/m² 8,3 °C 23,4 °C 8,0 km/h (2 Bft)
27.05.2017 19:09 23,4 °C 23,5 °C 38 % 1017,5 hPa 0,0 mm 5,2 km/h (1 Bft) N-NO 23 ° 0 min 0,000 mm 0,8 UV-I 58 W/m² 8,3 °C 23,4 °C 6,4 km/h (2 Bft)
27.05.2017 19:10 23,5 °C 23,5 °C 38 % 1017,5 hPa 0,0 mm 4,8 km/h (1 Bft) O 79 ° 0 min 0,000 mm 0,0 UV-I 46 W/m² 8,4 °C 23,5 °C 8,0 km/h (2 Bft)
27.05.2017 19:11 23,6 °C 23,6 °C 38 % 1017,5 hPa 0,0 mm 2,9 km/h (1 Bft) O-NO 66 ° 0 min 0,000 mm 0,0 UV-I 44 W/m² 8,4 °C 23,6 °C 8,0 km/h (2 Bft)
27.05.2017 19:12 23,5 °C 23,6 °C 39 % 1017,6 hPa 0,0 mm 2,2 km/h (1 Bft) O-NO 67 ° 0 min 0,000 mm 0,0 UV-I 39 W/m² 8,7 °C 23,5 °C 6,4 km/h (2 Bft)
27.05.2017 19:13 23,4 °C 23,5 °C 38 % 1017,6 hPa 0,0 mm 5,3 km/h (1 Bft) O-NO 78 ° 0 min 0,000 mm 0,0 UV-I 47 W/m² 8,3 °C 23,4 °C 8,0 km/h (2 Bft)
27.05.2017 19:14 23,4 °C 23,4 °C 38 % 1017,5 hPa 0,0 mm 4,9 km/h (1 Bft) O-NO 57 ° 0 min 0,000 mm 0,7 UV-I 62 W/m² 8,3 °C 23,4 °C 6,4 km/h (2 Bft)
27.05.2017 19:15 23,3 °C 23,4 °C 37 % 1017,6 hPa 0,0 mm 3,1 km/h (1 Bft) O-NO 61 ° 0 min 0,000 mm 0,7 UV-I 98 W/m² 7,8 °C 23,3 °C 4,8 km/h (1 Bft)
27.05.2017 19:16 23,3 °C 23,3 °C 37 % 1017,5 hPa 0,0 mm 3,0 km/h (1 Bft) O-NO 78 ° 0 min 0,000 mm 0,7 UV-I 58 W/m² 7,8 °C 23,3 °C 4,8 km/h (1 Bft)
27.05.2017 19:17 23,3 °C 23,3 °C 38 % 1017,5 hPa 0,0 mm 4,6 km/h (1 Bft) O 96 ° 0 min 0,000 mm 0,0 UV-I 42 W/m² 8,2 °C 23,3 °C 6,4 km/h (2 Bft)
27.05.2017 19:18 23,3 °C 23,3 °C 40 % 1017,6 hPa 0,0 mm 3,9 km/h (1 Bft) N-NO 28 ° 0 min 0,000 mm 0,7 UV-I 72 W/m² 8,9 °C 23,3 °C 6,4 km/h (2 Bft)
27.05.2017 19:19 23,2 °C 23,3 °C 40 % 1017,6 hPa 0,0 mm 4,8 km/h (1 Bft) NO 55 ° 0 min 0,000 mm 0,7 UV-I 97 W/m² 8,8 °C 23,2 °C 6,4 km/h (2 Bft)
27.05.2017 19:20 23,2 °C 23,2 °C 38 % 1017,6 hPa 0,0 mm 5,6 km/h (1 Bft) NO 51 ° 0 min 0,000 mm 0,7 UV-I 90 W/m² 8,1 °C 23,2 °C 9,7 km/h (2 Bft)
27.05.2017 19:21 23,2 °C 23,2 °C 38 % 1017,5 hPa 0,0 mm 4,6 km/h (1 Bft) O 84 ° 0 min 0,000 mm 0,7 UV-I 155 W/m² 8,1 °C 23,2 °C 6,4 km/h (2 Bft)
27.05.2017 19:22 23,2 °C 23,2 °C 37 % 1017,6 hPa 0,0 mm 7,3 km/h (2 Bft) O-NO 67 ° 0 min 0,000 mm 0,7 UV-I 172 W/m² 7,7 °C 23,2 °C 11,3 km/h (2 Bft)
27.05.2017 19:23 23,2 °C 23,2 °C 40 % 1017,5 hPa 0,0 mm 3,0 km/h (1 Bft) O 80 ° 0 min 0,000 mm 0,7 UV-I 185 W/m² 8,8 °C 23,2 °C 6,4 km/h (2 Bft)
27.05.2017 19:24 23,1 °C 23,2 °C 37 % 1017,6 hPa 0,0 mm 4,0 km/h (1 Bft) O 97 ° 0 min 0,000 mm 0,7 UV-I 181 W/m² 7,6 °C 23,1 °C 6,4 km/h (2 Bft)
27.05.2017 19:25 23,1 °C 23,1 °C 39 % 1017,6 hPa 0,0 mm 5,0 km/h (1 Bft) O 84 ° 0 min 0,000 mm 0,7 UV-I 179 W/m² 8,4 °C 23,1 °C 8,0 km/h (2 Bft)
27.05.2017 19:26 23,1 °C 23,1 °C 38 % 1017,5 hPa 0,0 mm 5,2 km/h (1 Bft) O 86 ° 0 min 0,000 mm 0,7 UV-I 176 W/m² 8,0 °C 23,1 °C 8,0 km/h (2 Bft)
27.05.2017 19:27 23,0 °C 23,1 °C 39 % 1017,5 hPa 0,0 mm 2,7 km/h (1 Bft) NO 47 ° 0 min 0,000 mm 0,7 UV-I 171 W/m² 8,3 °C 23,0 °C 8,0 km/h (2 Bft)
27.05.2017 19:28 23,0 °C 23,0 °C 38 % 1017,5 hPa 0,0 mm 4,7 km/h (1 Bft) N 11 ° 0 min 0,000 mm 0,6 UV-I 169 W/m² 7,9 °C 23,0 °C 6,4 km/h (2 Bft)
27.05.2017 19:29 23,1 °C 23,1 °C 40 % 1017,5 hPa 0,0 mm 5,3 km/h (1 Bft) N-NO 30 ° 0 min 0,000 mm 0,6 UV-I 167 W/m² 8,8 °C 23,1 °C 8,0 km/h (2 Bft)
27.05.2017 19:30 23,1 °C 23,1 °C 39 % 1017,6 hPa 0,0 mm 5,0 km/h (1 Bft) NO 52 ° 0 min 0,000 mm 0,6 UV-I 163 W/m² 8,4 °C 23,1 °C 8,0 km/h (2 Bft)
27.05.2017 19:31 23,2 °C 23,2 °C 39 % 1017,6 hPa 0,0 mm 3,5 km/h (1 Bft) N-NO 18 ° 0 min 0,000 mm 0,6 UV-I 160 W/m² 8,5 °C 23,2 °C 6,4 km/h (2 Bft)
27.05.2017 19:32 23,2 °C 23,2 °C 40 % 1017,6 hPa 0,0 mm 5,6 km/h (1 Bft) N-NO 16 ° 0 min 0,000 mm 0,6 UV-I 158 W/m² 8,8 °C 23,2 °C 8,0 km/h (2 Bft)
27.05.2017 19:33 23,2 °C 23,2 °C 38 % 1017,6 hPa 0,0 mm 3,7 km/h (1 Bft) N-NO 25 ° 0 min 0,000 mm 0,6 UV-I 153 W/m² 8,1 °C 23,2 °C 4,8 km/h (1 Bft)
27.05.2017 19:34 23,3 °C 23,3 °C 40 % 1017,6 hPa 0,0 mm 4,4 km/h (1 Bft) N-NW 339 ° 0 min 0,000 mm 0,6 UV-I 151 W/m² 8,9 °C 23,3 °C 8,0 km/h (2 Bft)
27.05.2017 19:35 23,2 °C 23,3 °C 40 % 1017,6 hPa 0,0 mm 3,0 km/h (1 Bft) N-NW 341 ° 0 min 0,000 mm 0,6 UV-I 148 W/m² 8,8 °C 23,2 °C 6,4 km/h (2 Bft)
27.05.2017 19:36 23,2 °C 23,2 °C 41 % 1017,6 hPa 0,0 mm 3,1 km/h (1 Bft) N 355 ° 0 min 0,000 mm 0,6 UV-I 146 W/m² 9,2 °C 23,2 °C 4,8 km/h (1 Bft)
27.05.2017 19:37 23,2 °C 23,2 °C 42 % 1017,6 hPa 0,0 mm 1,9 km/h (1 Bft) N 355 ° 0 min 0,000 mm 0,6 UV-I 144 W/m² 9,6 °C 23,2 °C 3,2 km/h (1 Bft)
27.05.2017 19:38 23,1 °C 23,2 °C 39 % 1017,6 hPa 0,0 mm 1,9 km/h (1 Bft) N-NO 14 ° 0 min 0,000 mm 0,5 UV-I 141 W/m² 8,4 °C 23,1 °C 4,8 km/h (1 Bft)
27.05.2017 19:39 23,1 °C 23,2 °C 40 % 1017,6 hPa 0,0 mm 1,4 km/h (1 Bft) N-NO 15 ° 0 min 0,000 mm 0,5 UV-I 135 W/m² 8,8 °C 23,1 °C 3,2 km/h (1 Bft)
27.05.2017 19:40 23,0 °C 23,1 °C 41 % 1017,6 hPa 0,0 mm 0,0 km/h (0 Bft) N-NO 15 ° 0 min 0,000 mm 0,5 UV-I 132 W/m² 9,0 °C 23,0 °C 0,0 km/h (0 Bft)
27.05.2017 19:41 22,9 °C 23,0 °C 41 % 1017,6 hPa 0,0 mm 0,2 km/h (0 Bft) N-NO 15 ° 0 min 0,000 mm 0,5 UV-I 130 W/m² 8,9 °C 22,9 °C 3,2 km/h (1 Bft)
27.05.2017 19:42 22,9 °C 22,9 °C 41 % 1017,6 hPa 0,0 mm 2,0 km/h (1 Bft) NO 49 ° 0 min 0,000 mm 0,5 UV-I 127 W/m² 8,9 °C 22,9 °C 3,2 km/h (1 Bft)
27.05.2017 19:43 22,9 °C 22,9 °C 42 % 1017,7 hPa 0,0 mm 0,6 km/h (0 Bft) NO 48 ° 0 min 0,000 mm 0,5 UV-I 125 W/m² 9,3 °C 22,9 °C 3,2 km/h (1 Bft)
27.05.2017 19:44 22,8 °C 22,9 °C 44 % 1017,7 hPa 0,0 mm 2,3 km/h (1 Bft) NO 48 ° 0 min 0,000 mm 0,5 UV-I 120 W/m² 9,9 °C 22,8 °C 3,2 km/h (1 Bft)
27.05.2017 19:45 22,9 °C 22,9 °C 40 % 1017,7 hPa 0,0 mm 1,1 km/h (1 Bft) NO 48 ° 0 min 0,000 mm 0,5 UV-I 116 W/m² 8,6 °C 22,9 °C 3,2 km/h (1 Bft)
27.05.2017 19:46 22,9 °C 22,9 °C 42 % 1017,7 hPa 0,0 mm 2,5 km/h (1 Bft) N-NW 337 ° 0 min 0,000 mm 0,5 UV-I 114 W/m² 9,3 °C 22,9 °C 6,4 km/h (2 Bft)
27.05.2017 19:47 22,9 °C 22,9 °C 43 % 1017,7 hPa 0,0 mm 3,6 km/h (1 Bft) N-NO 26 ° 0 min 0,000 mm 0,5 UV-I 113 W/m² 9,6 °C 22,9 °C 4,8 km/h (1 Bft)
27.05.2017 19:48 22,9 °C 22,9 °C 39 % 1017,7 hPa 0,0 mm 3,8 km/h (1 Bft) N-NO 25 ° 0 min 0,000 mm 0,0 UV-I 111 W/m² 8,2 °C 22,9 °C 4,8 km/h (1 Bft)
27.05.2017 19:49 22,9 °C 22,9 °C 42 % 1017,7 hPa 0,0 mm 2,5 km/h (1 Bft) N-NO 25 ° 0 min 0,000 mm 0,0 UV-I 107 W/m² 9,3 °C 22,9 °C 4,8 km/h (1 Bft)
27.05.2017 19:50 22,8 °C 22,9 °C 42 % 1017,7 hPa 0,0 mm 3,4 km/h (1 Bft) N-NO 23 ° 0 min 0,000 mm 0,0 UV-I 102 W/m² 9,2 °C 22,8 °C 6,4 km/h (2 Bft)
27.05.2017 19:51 22,8 °C 22,9 °C 41 % 1017,7 hPa 0,0 mm 2,9 km/h (1 Bft) N-NO 23 ° 0 min 0,000 mm 0,0 UV-I 100 W/m² 8,9 °C 22,8 °C 4,8 km/h (1 Bft)
27.05.2017 19:52 22,8 °C 22,8 °C 42 % 1017,7 hPa 0,0 mm 1,5 km/h (1 Bft) N-NO 23 ° 0 min 0,000 mm 0,0 UV-I 97 W/m² 9,2 °C 22,8 °C 3,2 km/h (1 Bft)
27.05.2017 19:53 22,7 °C 22,8 °C 42 % 1017,6 hPa 0,0 mm 0,3 km/h (0 Bft) N-NO 24 ° 0 min 0,000 mm 0,0 UV-I 95 W/m² 9,1 °C 22,7 °C 1,6 km/h (1 Bft)
27.05.2017 19:54 22,6 °C 22,7 °C 44 % 1017,7 hPa 0,0 mm 2,7 km/h (1 Bft) N-NO 28 ° 0 min 0,000 mm 0,0 UV-I 93 W/m² 9,7 °C 22,6 °C 4,8 km/h (1 Bft)
27.05.2017 19:55 22,5 °C 22,6 °C 41 % 1017,7 hPa 0,0 mm 3,3 km/h (1 Bft) N-NO 30 ° 0 min 0,000 mm 0,0 UV-I 91 W/m² 8,6 °C 22,5 °C 4,8 km/h (1 Bft)
27.05.2017 19:56 22,5 °C 22,5 °C 41 % 1017,7 hPa 0,0 mm 2,4 km/h (1 Bft) N-NO 30 ° 0 min 0,000 mm 0,0 UV-I 86 W/m² 8,6 °C 22,5 °C 3,2 km/h (1 Bft)
27.05.2017 19:57 22,6 °C 22,6 °C 42 % 1017,7 hPa 0,0 mm 1,7 km/h (1 Bft) N-NO 30 ° 0 min 0,000 mm 0,0 UV-I 84 W/m² 9,0 °C 22,6 °C 3,2 km/h (1 Bft)
27.05.2017 19:58 22,6 °C 22,6 °C 46 % 1017,7 hPa 0,0 mm 2,1 km/h (1 Bft) N-NW 344 ° 0 min 0,000 mm 0,0 UV-I 83 W/m² 10,4 °C 22,6 °C 4,8 km/h (1 Bft)
27.05.2017 19:59 22,4 °C 22,6 °C 44 % 1017,7 hPa 0,0 mm 1,4 km/h (1 Bft) NO 46 ° 0 min 0,000 mm 0,0 UV-I 81 W/m² 9,5 °C 22,4 °C 3,2 km/h (1 Bft)
27.05.2017 20:00 22,3 °C 22,4 °C 42 % 1017,7 hPa 0,0 mm 2,8 km/h (1 Bft) O-NO 67 ° 0 min 0,000 mm 0,0 UV-I 81 W/m² 8,8 °C 22,3 °C 4,8 km/h (1 Bft)
27.05.2017 20:01 22,3 °C 22,4 °C 45 % 1017,7 hPa 0,0 mm 0,3 km/h (0 Bft) O-NO 67 ° 0 min 0,102 mm 0,0 UV-I 77 W/m² 9,8 °C 22,3 °C 1,6 km/h (1 Bft)
27.05.2017 20:02 22,3 °C 22,3 °C 43 % 1017,8 hPa 0,0 mm 2,0 km/h (1 Bft) O-NO 67 ° 0 min 0,000 mm 0,0 UV-I 72 W/m² 9,1 °C 22,3 °C 3,2 km/h (1 Bft)
27.05.2017 20:03 22,2 °C 22,3 °C 43 % 1017,7 hPa 0,0 mm 1,1 km/h (1 Bft) O-NO 67 ° 0 min 0,000 mm 0,0 UV-I 70 W/m² 9,0 °C 22,2 °C 3,2 km/h (1 Bft)
27.05.2017 20:04 22,1 °C 22,2 °C 44 % 1017,7 hPa 0,0 mm 0,7 km/h (0 Bft) O-NO 67 ° 0 min 0,000 mm 0,0 UV-I 69 W/m² 9,3 °C 22,1 °C 1,6 km/h (1 Bft)
27.05.2017 20:05 22,1 °C 22,1 °C 43 % 1017,6 hPa 0,0 mm 0,0 km/h (0 Bft) O-NO 67 ° 0 min 0,000 mm 0,0 UV-I 67 W/m² 8,9 °C 22,1 °C 0,0 km/h (0 Bft)
27.05.2017 20:06 22,1 °C 22,1 °C 45 % 1017,7 hPa 0,0 mm 0,0 km/h (0 Bft) O-NO 67 ° 0 min 0,000 mm 0,0 UV-I 65 W/m² 9,6 °C 22,1 °C 0,0 km/h (0 Bft)
27.05.2017 20:07 22,1 °C 22,1 °C 44 % 1017,7 hPa 0,0 mm 0,0 km/h (0 Bft) O-NO 67 ° 0 min 0,000 mm 0,0 UV-I 62 W/m² 9,3 °C 22,1 °C 0,0 km/h (0 Bft)
27.05.2017 20:08 22,1 °C 22,1 °C 44 % 1017,7 hPa 0,0 mm 0,0 km/h (0 Bft) O-NO 67 ° 0 min 0,000 mm 0,0 UV-I 58 W/m² 9,3 °C 22,1 °C 0,0 km/h (0 Bft)
27.05.2017 20:09 22,0 °C 22,1 °C 44 % 1017,7 hPa 0,0 mm 0,0 km/h (0 Bft) O-NO 67 ° 0 min 0,000 mm 0,0 UV-I 56 W/m² 9,2 °C 22,0 °C 0,0 km/h (0 Bft)
27.05.2017 20:10 22,0 °C 22,0 °C 44 % 1017,7 hPa 0,0 mm 0,0 km/h (0 Bft) O-NO 67 ° 0 min 0,000 mm 0,0 UV-I 54 W/m² 9,2 °C 22,0 °C 0,0 km/h (0 Bft)
27.05.2017 20:11 21,9 °C 22,0 °C 48 % 1017,7 hPa 0,0 mm 0,0 km/h (0 Bft) O-NO 67 ° 0 min 0,000 mm 0,0 UV-I 53 W/m² 10,4 °C 21,9 °C 0,0 km/h (0 Bft)
27.05.2017 20:12 21,8 °C 21,9 °C 47 % 1017,7 hPa 0,0 mm 0,0 km/h (0 Bft) O-NO 67 ° 0 min 0,000 mm 0,0 UV-I 51 W/m² 10,0 °C 21,8 °C 0,0 km/h (0 Bft)
27.05.2017 20:13 21,6 °C 21,8 °C 46 % 1017,7 hPa 0,0 mm 0,0 km/h (0 Bft) O-NO 67 ° 0 min 0,000 mm 0,0 UV-I 49 W/m² 9,5 °C 21,6 °C 0,0 km/h (0 Bft)
27.05.2017 20:14 21,6 °C 21,6 °C 45 % 1017,7 hPa 0,0 mm 0,0 km/h (0 Bft) O-NO 67 ° 0 min 0,000 mm 0,0 UV-I 47 W/m² 9,2 °C 21,6 °C 0,0 km/h (0 Bft)
27.05.2017 20:15 21,4 °C 21,6 °C 48 % 1017,7 hPa 0,0 mm 0,0 km/h (0 Bft) O-NO 67 ° 0 min 0,000 mm 0,0 UV-I 46 W/m² 9,9 °C 21,4 °C 0,0 km/h (0 Bft)
27.05.2017 20:16 21,3 °C 21,4 °C 49 % 1017,7 hPa 0,0 mm 0,0 km/h (0 Bft) O-NO 67 ° 0 min 0,000 mm 0,0 UV-I 44 W/m² 10,1 °C 21,3 °C 0,0 km/h (0 Bft)
27.05.2017 20:17 21,2 °C 21,3 °C 49 % 1017,7 hPa 0,0 mm 0,0 km/h (0 Bft) O-NO 67 ° 0 min 0,000 mm 0,0 UV-I 44 W/m² 10,1 °C 21,2 °C 0,0 km/h (0 Bft)
27.05.2017 20:18 21,0 °C 21,2 °C 50 % 1017,7 hPa 0,0 mm 0,0 km/h (0 Bft) O-NO 67 ° 0 min 0,000 mm 0,0 UV-I 42 W/m² 10,2 °C 21,0 °C 0,0 km/h (0 Bft)
27.05.2017 20:19 20,9 °C 21,0 °C 49 % 1017,8 hPa 0,0 mm 0,3 km/h (0 Bft) O-NO 67 ° 0 min 0,000 mm 0,0 UV-I 40 W/m² 9,8 °C 20,9 °C 1,6 km/h (1 Bft)
27.05.2017 20:20 20,8 °C 20,9 °C 49 % 1017,8 hPa 0,0 mm 0,1 km/h (0 Bft) O-NO 67 ° 0 min 0,000 mm 0,0 UV-I 39 W/m² 9,7 °C 20,8 °C 1,6 km/h (1 Bft)
27.05.2017 20:21 20,8 °C 20,8 °C 49 % 1017,8 hPa 0,0 mm 0,0 km/h (0 Bft) O-NO 67 ° 0 min 0,000 mm 0,0 UV-I 37 W/m² 9,7 °C 20,8 °C 0,0 km/h (0 Bft)
27.05.2017 20:22 20,7 °C 20,8 °C 50 % 1017,8 hPa 0,0 mm 0,6 km/h (0 Bft) O-NO 67 ° 0 min 0,000 mm 0,0 UV-I 35 W/m² 9,9 °C 20,7 °C 3,2 km/h (1 Bft)
27.05.2017 20:23 20,7 °C 20,7 °C 51 % 1017,8 hPa 0,0 mm 1,2 km/h (1 Bft) O-NO 67 ° 0 min 0,000 mm 0,0 UV-I 35 W/m² 10,2 °C 20,7 °C 3,2 km/h (1 Bft)
27.05.2017 20:24 20,5 °C 20,7 °C 54 % 1017,8 hPa 0,0 mm 0,0 km/h (0 Bft) O-NO 67 ° 0 min 0,000 mm 0,0 UV-I 33 W/m² 10,9 °C 20,5 °C 0,0 km/h (0 Bft)
27.05.2017 20:25 20,3 °C 20,5 °C 52 % 1017,8 hPa 0,0 mm 0,0 km/h (0 Bft) O-NO 67 ° 0 min 0,000 mm 0,0 UV-I 30 W/m² 10,1 °C 20,3 °C 0,0 km/h (0 Bft)
27.05.2017 20:26 20,1 °C 20,3 °C 55 % 1017,9 hPa 0,0 mm 0,7 km/h (0 Bft) O-NO 67 ° 0 min 0,000 mm 0,0 UV-I 30 W/m² 10,8 °C 20,1 °C 1,6 km/h (1 Bft)
27.05.2017 20:27 20,0 °C 20,1 °C 50 % 1017,9 hPa 0,0 mm 0,5 km/h (0 Bft) O-NO 67 ° 0 min 0,000 mm 0,0 UV-I 28 W/m² 9,3 °C 20,0 °C 1,6 km/h (1 Bft)
27.05.2017 20:28 19,9 °C 20,0 °C 54 % 1017,8 hPa 0,0 mm 0,0 km/h (0 Bft) O-NO 67 ° 0 min 0,000 mm 0,0 UV-I 26 W/m² 10,3 °C 19,9 °C 0,0 km/h (0 Bft)
27.05.2017 20:29 19,8 °C 19,9 °C 52 % 1017,8 hPa 0,0 mm 0,0 km/h (0 Bft) O-NO 67 ° 0 min 0,000 mm 0,0 UV-I 26 W/m² 9,7 °C 19,8 °C 0,0 km/h (0 Bft)
27.05.2017 20:30 19,8 °C 19,8 °C 51 % 1017,8 hPa 0,0 mm 0,0 km/h (0 Bft) O-NO 67 ° 0 min 0,000 mm 0,0 UV-I 25 W/m² 9,4 °C 19,8 °C 0,0 km/h (0 Bft)
27.05.2017 20:31 19,9 °C 19,9 °C 51 % 1017,8 hPa 0,0 mm 0,0 km/h (0 Bft) O-NO 67 ° 0 min 0,000 mm 0,0 UV-I 23 W/m² 9,5 °C 19,9 °C 0,0 km/h (0 Bft)
27.05.2017 20:32 19,9 °C 20,0 °C 52 % 1017,8 hPa 0,0 mm 0,0 km/h (0 Bft) O-NO 67 ° 0 min 0,000 mm 0,0 UV-I 21 W/m² 9,7 °C 19,9 °C 0,0 km/h (0 Bft)
27.05.2017 20:33 19,9 °C 19,9 °C 50 % 1017,9 hPa 0,0 mm 0,0 km/h (0 Bft) O-NO 67 ° 0 min 0,000 mm 0,0 UV-I 19 W/m² 9,2 °C 19,9 °C 0,0 km/h (0 Bft)
27.05.2017 20:34 19,8 °C 19,9 °C 54 % 1017,9 hPa 0,0 mm 0,0 km/h (0 Bft) O-NO 67 ° 0 min 0,000 mm 0,0 UV-I 18 W/m² 10,2 °C 19,8 °C 0,0 km/h (0 Bft)
27.05.2017 20:35 19,4 °C 19,8 °C 57 % 1017,9 hPa 0,0 mm 0,0 km/h (0 Bft) O-NO 67 ° 0 min 0,000 mm 0,0 UV-I 18 W/m² 10,7 °C 19,4 °C 0,0 km/h (0 Bft)
27.05.2017 20:36 19,2 °C 19,4 °C 56 % 1017,8 hPa 0,0 mm 0,0 km/h (0 Bft) O-NO 67 ° 0 min 0,000 mm 0,0 UV-I 16 W/m² 10,2 °C 19,2 °C 0,0 km/h (0 Bft)
27.05.2017 20:37 19,1 °C 19,2 °C 57 % 1017,9 hPa 0,0 mm 0,0 km/h (0 Bft) O-NO 67 ° 0 min 0,000 mm 0,0 UV-I 16 W/m² 10,4 °C 19,1 °C 0,0 km/h (0 Bft)
27.05.2017 20:38 19,0 °C 19,1 °C 53 % 1017,9 hPa 0,0 mm 0,0 km/h (0 Bft) O-NO 67 ° 0 min 0,000 mm 0,0 UV-I 14 W/m² 9,2 °C 19,0 °C 0,0 km/h (0 Bft)
27.05.2017 20:39 19,1 °C 19,1 °C 52 % 1017,9 hPa 0,0 mm 0,3 km/h (0 Bft) O-NO 67 ° 0 min 0,000 mm 0,0 UV-I 14 W/m² 9,0 °C 19,1 °C 1,6 km/h (1 Bft)
27.05.2017 20:40 19,3 °C 19,3 °C 53 % 1017,9 hPa 0,0 mm 0,3 km/h (0 Bft) O-NO 67 ° 0 min 0,000 mm 0,0 UV-I 14 W/m² 9,5 °C 19,3 °C 1,6 km/h (1 Bft)
27.05.2017 20:41 19,3 °C 19,3 °C 53 % 1017,9 hPa 0,0 mm 1,0 km/h (0 Bft) O-NO 67 ° 0 min 0,000 mm 0,0 UV-I 14 W/m² 9,5 °C 19,3 °C 1,6 km/h (1 Bft)
27.05.2017 20:42 19,4 °C 19,4 °C 52 % 1017,9 hPa 0,0 mm 0,6 km/h (0 Bft) O-NO 67 ° 0 min 0,000 mm 0,0 UV-I 14 W/m² 9,3 °C 19,4 °C 1,6 km/h (1 Bft)
27.05.2017 20:43 19,4 °C 19,4 °C 54 % 1017,9 hPa 0,0 mm 1,2 km/h (1 Bft) O-NO 67 ° 0 min 0,000 mm 0,0 UV-I 12 W/m² 9,8 °C 19,4 °C 3,2 km/h (1 Bft)
27.05.2017 20:44 19,5 °C 19,5 °C 52 % 1017,9 hPa 0,0 mm 0,3 km/h (0 Bft) O-NO 67 ° 0 min 0,000 mm 0,0 UV-I 12 W/m² 9,4 °C 19,5 °C 1,6 km/h (1 Bft)
27.05.2017 20:45 19,6 °C 19,6 °C 51 % 1017,9 hPa 0,0 mm 0,5 km/h (0 Bft) O-NO 67 ° 0 min 0,000 mm 0,0 UV-I 12 W/m² 9,2 °C 19,6 °C 1,6 km/h (1 Bft)
27.05.2017 20:46 19,6 °C 19,6 °C 52 % 1017,9 hPa 0,0 mm 0,5 km/h (0 Bft) O-NO 67 ° 0 min 0,000 mm 0,0 UV-I 12 W/m² 9,5 °C 19,6 °C 1,6 km/h (1 Bft)
27.05.2017 20:47 19,5 °C 19,6 °C 54 % 1017,9 hPa 0,0 mm 0,0 km/h (0 Bft) O-NO 67 ° 0 min 0,000 mm 0,0 UV-I 11 W/m² 9,9 °C 19,5 °C 0,0 km/h (0 Bft)
27.05.2017 20:48 19,4 °C 19,5 °C 53 % 1017,9 hPa 0,0 mm 1,4 km/h (1 Bft) O-NO 67 ° 0 min 0,000 mm 0,0 UV-I 11 W/m² 9,6 °C 19,4 °C 3,2 km/h (1 Bft)
27.05.2017 20:49 19,3 °C 19,4 °C 55 % 1017,9 hPa 0,0 mm 0,0 km/h (0 Bft) O-NO 67 ° 0 min 0,000 mm 0,0 UV-I 9 W/m² 10,0 °C 19,3 °C 0,0 km/h (0 Bft)
27.05.2017 20:50 18,9 °C 19,3 °C 57 % 1018,0 hPa 0,0 mm 0,0 km/h (0 Bft) O-NO 67 ° 0 min 0,000 mm 0,0 UV-I 7 W/m² 10,2 °C 18,9 °C 0,0 km/h (0 Bft)
27.05.2017 20:51 18,6 °C 18,9 °C 58 % 1018,0 hPa 0,0 mm 0,0 km/h (0 Bft) O-NO 67 ° 0 min 0,000 mm 0,0 UV-I 7 W/m² 10,2 °C 18,6 °C 0,0 km/h (0 Bft)
27.05.2017 20:52 18,4 °C 18,6 °C 57 % 1018,0 hPa 0,0 mm 0,0 km/h (0 Bft) O-NO 67 ° 0 min 0,000 mm 0,0 UV-I 7 W/m² 9,7 °C 18,4 °C 0,0 km/h (0 Bft)
27.05.2017 20:53 18,3 °C 18,4 °C 60 % 1018,0 hPa 0,0 mm 0,0 km/h (0 Bft) O-NO 67 ° 0 min 0,000 mm 0,0 UV-I 7 W/m² 10,4 °C 18,3 °C 0,0 km/h (0 Bft)
27.05.2017 20:54 18,1 °C 18,3 °C 60 % 1018,0 hPa 0,0 mm 0,0 km/h (0 Bft) O-NO 67 ° 0 min 0,000 mm 0,0 UV-I 7 W/m² 10,2 °C 18,1 °C 0,0 km/h (0 Bft)
27.05.2017 20:55 17,9 °C 18,1 °C 60 % 1018,0 hPa 0,0 mm 0,0 km/h (0 Bft) O-NO 67 ° 0 min 0,000 mm 0,0 UV-I 5 W/m² 10,0 °C 17,9 °C 0,0 km/h (0 Bft)
27.05.2017 20:56 17,9 °C 17,9 °C 58 % 1018,0 hPa 0,0 mm 0,0 km/h (0 Bft) O-NO 67 ° 0 min 0,000 mm 0,0 UV-I 5 W/m² 9,5 °C 17,9 °C 0,0 km/h (0 Bft)
27.05.2017 20:57 17,9 °C 17,9 °C 60 % 1018,1 hPa 0,0 mm 0,0 km/h (0 Bft) O-NO 67 ° 0 min 0,000 mm 0,0 UV-I 5 W/m² 10,0 °C 17,9 °C 0,0 km/h (0 Bft)
27.05.2017 20:58 18,0 °C 18,0 °C 58 % 1018,1 hPa 0,0 mm 0,0 km/h (0 Bft) O-NO 67 ° 0 min 0,000 mm 0,0 UV-I 5 W/m² 9,6 °C 18,0 °C 0,0 km/h (0 Bft)
27.05.2017 20:59 18,1 °C 18,1 °C 57 % 1018,1 hPa 0,0 mm 0,0 km/h (0 Bft) O-NO 67 ° 0 min 0,000 mm 0,0 UV-I 5 W/m² 9,4 °C 18,1 °C 0,0 km/h (0 Bft)
27.05.2017 21:00 18,2 °C 18,2 °C 57 % 1018,1 hPa 0,0 mm 0,5 km/h (0 Bft) O-NO 67 ° 0 min 0,000 mm 0,0 UV-I 5 W/m² 9,5 °C 18,2 °C 1,6 km/h (1 Bft)
27.05.2017 21:01 18,3 °C 18,3 °C 57 % 1018,1 hPa 0,0 mm 0,0 km/h (0 Bft) O-NO 67 ° 0 min 0,025 mm 0,0 UV-I 5 W/m² 9,6 °C 18,3 °C 0,0 km/h (0 Bft)
27.05.2017 21:02 18,3 °C 18,3 °C 57 % 1018,1 hPa 0,0 mm 0,6 km/h (0 Bft) O-NO 67 ° 0 min 0,000 mm 0,0 UV-I 0 W/m² 9,6 °C 18,3 °C 3,2 km/h (1 Bft)
27.05.2017 21:03 18,3 °C 18,3 °C 58 % 1018,2 hPa 0,0 mm 0,6 km/h (0 Bft) O-NO 67 ° 0 min 0,000 mm 0,0 UV-I 0 W/m² 9,9 °C 18,3 °C 1,6 km/h (1 Bft)
27.05.2017 21:04 18,1 °C 18,3 °C 59 % 1018,2 hPa 0,0 mm 0,0 km/h (0 Bft) O-NO 67 ° 0 min 0,000 mm 0,0 UV-I 0 W/m² 10,0 °C 18,1 °C 0,0 km/h (0 Bft)
27.05.2017 21:05 17,9 °C 18,1 °C 59 % 1018,2 hPa 0,0 mm 0,8 km/h (0 Bft) O-NO 67 ° 0 min 0,000 mm 0,0 UV-I 0 W/m² 9,8 °C 17,9 °C 3,2 km/h (1 Bft)
27.05.2017 21:06 18,0 °C 18,0 °C 58 % 1018,1 hPa 0,0 mm 2,4 km/h (1 Bft) O-NO 67 ° 0 min 0,000 mm 0,0 UV-I 0 W/m² 9,6 °C 18,0 °C 3,2 km/h (1 Bft)
27.05.2017 21:07 18,1 °C 18,1 °C 58 % 1018,0 hPa 0,0 mm 1,5 km/h (1 Bft) O-NO 67 ° 0 min 0,000 mm 0,0 UV-I 0 W/m² 9,7 °C 18,1 °C 3,2 km/h (1 Bft)
27.05.2017 21:08 18,2 °C 18,2 °C 57 % 1018,2 hPa 0,0 mm 2,0 km/h (1 Bft) O-NO 67 ° 0 min 0,000 mm 0,0 UV-I 0 W/m² 9,5 °C 18,2 °C 3,2 km/h (1 Bft)
27.05.2017 21:09 18,2 °C 18,2 °C 57 % 1018,2 hPa 0,0 mm 1,5 km/h (1 Bft) O-NO 67 ° 0 min 0,000 mm 0,0 UV-I 0 W/m² 9,5 °C 18,2 °C 3,2 km/h (1 Bft)
27.05.2017 21:10 18,2 °C 18,3 °C 58 % 1018,2 hPa 0,0 mm 0,8 km/h (0 Bft) O-NO 67 ° 0 min 0,000 mm 0,0 UV-I 0 W/m² 9,8 °C 18,2 °C 1,6 km/h (1 Bft)
27.05.2017 21:11 18,1 °C 18,2 °C 58 % 1018,2 hPa 0,0 mm 0,0 km/h (0 Bft) O-NO 67 ° 0 min 0,000 mm 0,0 UV-I 0 W/m² 9,7 °C 18,1 °C 0,0 km/h (0 Bft)
27.05.2017 21:12 17,9 °C 18,1 °C 59 % 1018,2 hPa 0,0 mm 0,4 km/h (0 Bft) O-NO 67 ° 0 min 0,000 mm 0,0 UV-I 0 W/m² 9,8 °C 17,9 °C 1,6 km/h (1 Bft)
27.05.2017 21:13 17,8 °C 17,9 °C 60 % 1018,2 hPa 0,0 mm 0,5 km/h (0 Bft) O-NO 67 ° 0 min 0,000 mm 0,0 UV-I 0 W/m² 9,9 °C 17,8 °C 3,2 km/h (1 Bft)
27.05.2017 21:14 17,6 °C 17,8 °C 61 % 1018,3 hPa 0,0 mm 0,5 km/h (0 Bft) O-NO 67 ° 0 min 0,000 mm 0,0 UV-I 0 W/m² 10,0 °C 17,6 °C 3,2 km/h (1 Bft)
27.05.2017 21:15 17,3 °C 17,6 °C 62 % 1018,3 hPa 0,0 mm 0,0 km/h (0 Bft) O-NO 67 ° 0 min 0,000 mm 0,0 UV-I 0 W/m² 9,9 °C 17,3 °C 0,0 km/h (0 Bft)
27.05.2017 21:16 16,9 °C 17,3 °C 63 % 1018,3 hPa 0,0 mm 0,0 km/h (0 Bft) O-NO 67 ° 0 min 0,000 mm 0,0 UV-I 0 W/m² 9,8 °C 16,9 °C 0,0 km/h (0 Bft)
27.05.2017 21:17 16,6 °C 16,9 °C 66 % 1018,3 hPa 0,0 mm 0,0 km/h (0 Bft) O-NO 67 ° 0 min 0,000 mm 0,0 UV-I 0 W/m² 10,2 °C 16,6 °C 0,0 km/h (0 Bft)
27.05.2017 21:18 16,4 °C 16,6 °C 66 % 1018,3 hPa 0,0 mm 0,0 km/h (0 Bft) O-NO 67 ° 0 min 0,000 mm 0,0 UV-I 0 W/m² 10,0 °C 16,4 °C 0,0 km/h (0 Bft)
27.05.2017 21:19 16,3 °C 16,4 °C 67 % 1018,3 hPa 0,0 mm 0,0 km/h (0 Bft) O-NO 67 ° 0 min 0,000 mm 0,0 UV-I 0 W/m² 10,2 °C 16,3 °C 0,0 km/h (0 Bft)
27.05.2017 21:20 16,1 °C 16,3 °C 67 % 1018,3 hPa 0,0 mm 0,0 km/h (0 Bft) O-NO 67 ° 0 min 0,000 mm 0,0 UV-I 0 W/m² 10,0 °C 16,1 °C 0,0 km/h (0 Bft)
27.05.2017 21:21 16,1 °C 16,1 °C 68 % 1018,3 hPa 0,0 mm 0,0 km/h (0 Bft) O-NO 67 ° 0 min 0,000 mm 0,0 UV-I 0 W/m² 10,2 °C 16,1 °C 0,0 km/h (0 Bft)
27.05.2017 21:22 16,0 °C 16,1 °C 68 % 1018,3 hPa 0,0 mm 0,0 km/h (0 Bft) O-NO 67 ° 0 min 0,000 mm 0,0 UV-I 0 W/m² 10,1 °C 16,0 °C 0,0 km/h (0 Bft)
27.05.2017 21:23 15,9 °C 16,0 °C 68 % 1018,3 hPa 0,0 mm 0,0 km/h (0 Bft) O-NO 67 ° 0 min 0,000 mm 0,0 UV-I 0 W/m² 10,0 °C 15,9 °C 0,0 km/h (0 Bft)
27.05.2017 21:24 15,9 °C 15,9 °C 68 % 1018,3 hPa 0,0 mm 0,0 km/h (0 Bft) O-NO 67 ° 0 min 0,000 mm 0,0 UV-I 0 W/m² 10,0 °C 15,9 °C 0,0 km/h (0 Bft)
27.05.2017 21:25 15,8 °C 15,9 °C 68 % 1018,3 hPa 0,0 mm 0,0 km/h (0 Bft) O-NO 67 ° 0 min 0,000 mm 0,0 UV-I 0 W/m² 9,9 °C 15,8 °C 0,0 km/h (0 Bft)
27.05.2017 21:26 15,8 °C 15,8 °C 68 % 1018,4 hPa 0,0 mm 0,0 km/h (0 Bft) O-NO 67 ° 0 min 0,000 mm 0,0 UV-I 0 W/m² 9,9 °C 15,8 °C 0,0 km/h (0 Bft)
27.05.2017 21:27 15,7 °C 15,8 °C 69 % 1018,4 hPa 0,0 mm 0,0 km/h (0 Bft) O-NO 67 ° 0 min 0,000 mm 0,0 UV-I 0 W/m² 10,0 °C 15,7 °C 0,0 km/h (0 Bft)
27.05.2017 21:28 15,7 °C 15,7 °C 69 % 1018,4 hPa 0,0 mm 0,0 km/h (0 Bft) O-NO 67 ° 0 min 0,000 mm 0,0 UV-I 0 W/m² 10,0 °C 15,7 °C 0,0 km/h (0 Bft)
27.05.2017 21:29 15,7 °C 15,7 °C 69 % 1018,4 hPa 0,0 mm 0,0 km/h (0 Bft) O-NO 67 ° 0 min 0,000 mm 0,0 UV-I 0 W/m² 10,0 °C 15,7 °C 0,0 km/h (0 Bft)
27.05.2017 21:30 15,7 °C 15,7 °C 69 % 1018,4 hPa 0,0 mm 0,0 km/h (0 Bft) O-NO 67 ° 0 min 0,000 mm 0,0 UV-I 0 W/m² 10,0 °C 15,7 °C 0,0 km/h (0 Bft)
27.05.2017 21:31 15,6 °C 15,7 °C 69 % 1018,4 hPa 0,0 mm 0,0 km/h (0 Bft) O-NO 67 ° 0 min 0,000 mm 0,0 UV-I 0 W/m² 9,9 °C 15,6 °C 0,0 km/h (0 Bft)
27.05.2017 21:32 15,6 °C 15,6 °C 69 % 1018,4 hPa 0,0 mm 0,0 km/h (0 Bft) O-NO 67 ° 0 min 0,000 mm 0,0 UV-I 0 W/m² 9,9 °C 15,6 °C 0,0 km/h (0 Bft)
27.05.2017 21:33 15,5 °C 15,6 °C 69 % 1018,4 hPa 0,0 mm 0,0 km/h (0 Bft) O-NO 67 ° 0 min 0,000 mm 0,0 UV-I 0 W/m² 9,8 °C 15,5 °C 0,0 km/h (0 Bft)
27.05.2017 21:34 15,4 °C 15,5 °C 70 % 1018,5 hPa 0,0 mm 0,0 km/h (0 Bft) O-NO 67 ° 0 min 0,000 mm 0,0 UV-I 0 W/m² 10,0 °C 15,4 °C 0,0 km/h (0 Bft)
27.05.2017 21:35 15,4 °C 15,5 °C 70 % 1018,4 hPa 0,0 mm 0,0 km/h (0 Bft) O-NO 67 ° 0 min 0,000 mm 0,0 UV-I 0 W/m² 10,0 °C 15,4 °C 0,0 km/h (0 Bft)
27.05.2017 21:36 15,3 °C 15,4 °C 70 % 1018,5 hPa 0,0 mm 0,0 km/h (0 Bft) O-NO 67 ° 0 min 0,000 mm 0,0 UV-I 0 W/m² 9,9 °C 15,3 °C 0,0 km/h (0 Bft)
27.05.2017 21:37 15,3 °C 15,3 °C 70 % 1018,5 hPa 0,0 mm 0,0 km/h (0 Bft) O-NO 67 ° 0 min 0,000 mm 0,0 UV-I 0 W/m² 9,9 °C 15,3 °C 0,0 km/h (0 Bft)
27.05.2017 21:38 15,2 °C 15,3 °C 70 % 1018,5 hPa 0,0 mm 0,0 km/h (0 Bft) O-NO 67 ° 0 min 0,000 mm 0,0 UV-I 0 W/m² 9,8 °C 15,2 °C 0,0 km/h (0 Bft)
27.05.2017 21:39 15,2 °C 15,2 °C 71 % 1018,6 hPa 0,0 mm 0,0 km/h (0 Bft) O-NO 67 ° 0 min 0,000 mm 0,0 UV-I 0 W/m² 10,0 °C 15,2 °C 0,0 km/h (0 Bft)
27.05.2017 21:40 15,3 °C 15,3 °C 71 % 1018,6 hPa 0,0 mm 0,0 km/h (0 Bft) O-NO 67 ° 0 min 0,000 mm 0,0 UV-I 0 W/m² 10,1 °C 15,3 °C 0,0 km/h (0 Bft)
27.05.2017 21:41 15,3 °C 15,3 °C 70 % 1018,6 hPa 0,0 mm 0,0 km/h (0 Bft) O-NO 67 ° 0 min 0,000 mm 0,0 UV-I 0 W/m² 9,9 °C 15,3 °C 0,0 km/h (0 Bft)
27.05.2017 21:42 15,3 °C 15,3 °C 70 % 1018,6 hPa 0,0 mm 0,0 km/h (0 Bft) O-NO 67 ° 0 min 0,000 mm 0,0 UV-I 0 W/m² 9,9 °C 15,3 °C 0,0 km/h (0 Bft)
27.05.2017 21:43 15,3 °C 15,3 °C 70 % 1018,6 hPa 0,0 mm 0,0 km/h (0 Bft) O-NO 67 ° 0 min 0,000 mm 0,0 UV-I 0 W/m² 9,9 °C 15,3 °C 0,0 km/h (0 Bft)
27.05.2017 21:44 15,4 °C 15,4 °C 70 % 1018,6 hPa 0,0 mm 0,0 km/h (0 Bft) O-NO 67 ° 0 min 0,000 mm 0,0 UV-I 0 W/m² 10,0 °C 15,4 °C 0,0 km/h (0 Bft)
27.05.2017 21:45 15,4 °C 15,4 °C 70 % 1018,7 hPa 0,0 mm 0,0 km/h (0 Bft) O-NO 67 ° 0 min 0,000 mm 0,0 UV-I 0 W/m² 10,0 °C 15,4 °C 0,0 km/h (0 Bft)
27.05.2017 21:46 15,4 °C 15,4 °C 70 % 1018,7 hPa 0,0 mm 0,0 km/h (0 Bft) O-NO 67 ° 0 min 0,000 mm 0,0 UV-I 0 W/m² 10,0 °C 15,4 °C 0,0 km/h (0 Bft)
27.05.2017 21:47 15,4 °C 15,4 °C 70 % 1018,7 hPa 0,0 mm 0,0 km/h (0 Bft) O-NO 67 ° 0 min 0,000 mm 0,0 UV-I 0 W/m² 10,0 °C 15,4 °C 0,0 km/h (0 Bft)
27.05.2017 21:48 15,3 °C 15,4 °C 70 % 1018,7 hPa 0,0 mm 0,0 km/h (0 Bft) O-NO 67 ° 0 min 0,000 mm 0,0 UV-I 0 W/m² 9,9 °C 15,3 °C 0,0 km/h (0 Bft)
27.05.2017 21:49 15,3 °C 15,3 °C 70 % 1018,7 hPa 0,0 mm 0,0 km/h (0 Bft) O-NO 67 ° 0 min 0,000 mm 0,0 UV-I 0 W/m² 9,9 °C 15,3 °C 0,0 km/h (0 Bft)
27.05.2017 21:50 15,2 °C 15,3 °C 70 % 1018,7 hPa 0,0 mm 0,0 km/h (0 Bft) O-NO 67 ° 0 min 0,000 mm 0,0 UV-I 0 W/m² 9,8 °C 15,2 °C 0,0 km/h (0 Bft)
27.05.2017 21:51 15,1 °C 15,2 °C 71 % 1018,7 hPa 0,0 mm 0,0 km/h (0 Bft) O-NO 67 ° 0 min 0,000 mm 0,0 UV-I 0 W/m² 9,9 °C 15,1 °C 0,0 km/h (0 Bft)
27.05.2017 21:52 15,1 °C 15,1 °C 71 % 1018,7 hPa 0,0 mm 0,0 km/h (0 Bft) O-NO 67 ° 0 min 0,000 mm 0,0 UV-I 0 W/m² 9,9 °C 15,1 °C 0,0 km/h (0 Bft)
27.05.2017 21:53 15,0 °C 15,1 °C 72 % 1018,7 hPa 0,0 mm 0,0 km/h (0 Bft) O-NO 67 ° 0 min 0,000 mm 0,0 UV-I 0 W/m² 10,0 °C 15,0 °C 0,0 km/h (0 Bft)
27.05.2017 21:54 14,9 °C 15,0 °C 72 % 1018,7 hPa 0,0 mm 0,0 km/h (0 Bft) O-NO 67 ° 0 min 0,000 mm 0,0 UV-I 0 W/m² 9,9 °C 14,9 °C 0,0 km/h (0 Bft)
27.05.2017 21:55 14,9 °C 15,0 °C 72 % 1018,7 hPa 0,0 mm 0,0 km/h (0 Bft) O-NO 67 ° 0 min 0,000 mm 0,0 UV-I 0 W/m² 9,9 °C 14,9 °C 0,0 km/h (0 Bft)
27.05.2017 21:56 14,9 °C 14,9 °C 72 % 1018,8 hPa 0,0 mm 0,0 km/h (0 Bft) O-NO 67 ° 0 min 0,000 mm 0,0 UV-I 0 W/m² 9,9 °C 14,9 °C 0,0 km/h (0 Bft)
27.05.2017 21:57 14,9 °C 14,9 °C 72 % 1018,8 hPa 0,0 mm 0,0 km/h (0 Bft) O-NO 67 ° 0 min 0,000 mm 0,0 UV-I 0 W/m² 9,9 °C 14,9 °C 0,0 km/h (0 Bft)
27.05.2017 21:58 14,8 °C 14,9 °C 72 % 1018,8 hPa 0,0 mm 0,0 km/h (0 Bft) O-NO 67 ° 0 min 0,000 mm 0,0 UV-I 0 W/m² 9,8 °C 14,8 °C 0,0 km/h (0 Bft)
27.05.2017 21:59 14,8 °C 14,9 °C 72 % 1018,8 hPa 0,0 mm 0,0 km/h (0 Bft) O-NO 67 ° 0 min 0,000 mm 0,0 UV-I 0 W/m² 9,8 °C 14,8 °C 0,0 km/h (0 Bft)
27.05.2017 22:00 14,8 °C 14,8 °C 72 % 1018,8 hPa 0,0 mm 0,0 km/h (0 Bft) O-NO 67 ° 0 min 0,000 mm 0,0 UV-I 0 W/m² 9,8 °C 14,8 °C 0,0 km/h (0 Bft)
27.05.2017 22:01 14,8 °C 14,8 °C 73 % 1018,8 hPa 0,0 mm 0,0 km/h (0 Bft) O-NO 67 ° 0 min 0,000 mm 0,0 UV-I 0 W/m² 10,0 °C 14,8 °C 0,0 km/h (0 Bft)
27.05.2017 22:02 14,7 °C 14,8 °C 73 % 1018,8 hPa 0,0 mm 0,0 km/h (0 Bft) O-NO 67 ° 0 min 0,000 mm 0,0 UV-I 0 W/m² 9,9 °C 14,7 °C 0,0 km/h (0 Bft)
27.05.2017 22:03 14,7 °C 14,7 °C 74 % 1018,8 hPa 0,0 mm 0,0 km/h (0 Bft) O-NO 67 ° 0 min 0,000 mm 0,0 UV-I 0 W/m² 10,1 °C 14,7 °C 0,0 km/h (0 Bft)
27.05.2017 22:04 14,6 °C 14,7 °C 74 % 1018,8 hPa 0,0 mm 0,0 km/h (0 Bft) O-NO 67 ° 0 min 0,000 mm 0,0 UV-I 0 W/m² 10,0 °C 14,6 °C 0,0 km/h (0 Bft)
27.05.2017 22:05 14,6 °C 14,6 °C 74 % 1018,8 hPa 0,0 mm 0,0 km/h (0 Bft) O-NO 67 ° 0 min 0,000 mm 0,0 UV-I 0 W/m² 10,0 °C 14,6 °C 0,0 km/h (0 Bft)
27.05.2017 22:06 14,6 °C 14,6 °C 74 % 1018,8 hPa 0,0 mm 0,0 km/h (0 Bft) O-NO 67 ° 0 min 0,000 mm 0,0 UV-I 0 W/m² 10,0 °C 14,6 °C 0,0 km/h (0 Bft)
27.05.2017 22:07 14,5 °C 14,6 °C 74 % 1018,8 hPa 0,0 mm 0,0 km/h (0 Bft) O-NO 67 ° 0 min 0,000 mm 0,0 UV-I 0 W/m² 9,9 °C 14,5 °C 0,0 km/h (0 Bft)
27.05.2017 22:08 14,4 °C 14,5 °C 74 % 1018,8 hPa 0,0 mm 0,0 km/h (0 Bft) O-NO 67 ° 0 min 0,000 mm 0,0 UV-I 0 W/m² 9,8 °C 14,4 °C 0,0 km/h (0 Bft)
27.05.2017 22:09 14,3 °C 14,4 °C 75 % 1018,9 hPa 0,0 mm 0,0 km/h (0 Bft) O-NO 67 ° 0 min 0,000 mm 0,0 UV-I 0 W/m² 9,9 °C 14,3 °C 0,0 km/h (0 Bft)
27.05.2017 22:10 14,2 °C 14,3 °C 76 % 1018,9 hPa 0,0 mm 0,0 km/h (0 Bft) O-NO 67 ° 0 min 0,000 mm 0,0 UV-I 0 W/m² 10,0 °C 14,2 °C 0,0 km/h (0 Bft)
27.05.2017 22:11 14,1 °C 14,2 °C 75 % 1019,0 hPa 0,0 mm 0,0 km/h (0 Bft) O-NO 67 ° 0 min 0,000 mm 0,0 UV-I 0 W/m² 9,7 °C 14,1 °C 0,0 km/h (0 Bft)
27.05.2017 22:12 14,2 °C 14,2 °C 75 % 1018,9 hPa 0,0 mm 0,0 km/h (0 Bft) O-NO 67 ° 0 min 0,000 mm 0,0 UV-I 0 W/m² 9,8 °C 14,2 °C 0,0 km/h (0 Bft)
27.05.2017 22:13 14,2 °C 14,2 °C 75 % 1018,9 hPa 0,0 mm 0,0 km/h (0 Bft) O-NO 67 ° 0 min 0,000 mm 0,0 UV-I 0 W/m² 9,8 °C 14,2 °C 0,0 km/h (0 Bft)
27.05.2017 22:14 14,2 °C 14,2 °C 75 % 1018,9 hPa 0,0 mm 0,0 km/h (0 Bft) O-NO 67 ° 0 min 0,000 mm 0,0 UV-I 0 W/m² 9,8 °C 14,2 °C 0,0 km/h (0 Bft)
27.05.2017 22:15 14,2 °C 14,2 °C 75 % 1018,9 hPa 0,0 mm 0,0 km/h (0 Bft) O-NO 67 ° 0 min 0,000 mm 0,0 UV-I 0 W/m² 9,8 °C 14,2 °C 0,0 km/h (0 Bft)
27.05.2017 22:16 14,2 °C 14,2 °C 75 % 1018,9 hPa 0,0 mm 0,0 km/h (0 Bft) O-NO 67 ° 0 min 0,000 mm 0,0 UV-I 0 W/m² 9,8 °C 14,2 °C 0,0 km/h (0 Bft)
27.05.2017 22:17 14,1 °C 14,2 °C 75 % 1018,9 hPa 0,0 mm 0,0 km/h (0 Bft) O-NO 67 ° 0 min 0,000 mm 0,0 UV-I 0 W/m² 9,7 °C 14,1 °C 0,0 km/h (0 Bft)
27.05.2017 22:18 14,1 °C 14,2 °C 75 % 1019,0 hPa 0,0 mm 0,0 km/h (0 Bft) O-NO 67 ° 0 min 0,000 mm 0,0 UV-I 0 W/m² 9,7 °C 14,1 °C 0,0 km/h (0 Bft)
27.05.2017 22:19 14,1 °C 14,1 °C 75 % 1018,9 hPa 0,0 mm 0,0 km/h (0 Bft) O-NO 67 ° 0 min 0,000 mm 0,0 UV-I 0 W/m² 9,7 °C 14,1 °C 0,0 km/h (0 Bft)
27.05.2017 22:20 14,1 °C 14,1 °C 76 % 1018,9 hPa 0,0 mm 0,0 km/h (0 Bft) O-NO 67 ° 0 min 0,000 mm 0,0 UV-I 0 W/m² 9,9 °C 14,1 °C 0,0 km/h (0 Bft)
27.05.2017 22:21 14,1 °C 14,1 °C 75 % 1018,9 hPa 0,0 mm 0,0 km/h (0 Bft) O-NO 67 ° 0 min 0,000 mm 0,0 UV-I 0 W/m² 9,7 °C 14,1 °C 0,0 km/h (0 Bft)
27.05.2017 22:22 14,1 °C 14,1 °C 76 % 1018,9 hPa 0,0 mm 0,0 km/h (0 Bft) O-NO 67 ° 0 min 0,000 mm 0,0 UV-I 0 W/m² 9,9 °C 14,1 °C 0,0 km/h (0 Bft)
27.05.2017 22:23 14,0 °C 14,1 °C 76 % 1018,9 hPa 0,0 mm 0,0 km/h (0 Bft) O-NO 67 ° 0 min 0,000 mm 0,0 UV-I 0 W/m² 9,8 °C 14,0 °C 0,0 km/h (0 Bft)
27.05.2017 22:24 13,9 °C 14,0 °C 76 % 1018,9 hPa 0,0 mm 0,0 km/h (0 Bft) O-NO 67 ° 0 min 0,000 mm 0,0 UV-I 0 W/m² 9,7 °C 13,9 °C 0,0 km/h (0 Bft)
27.05.2017 22:25 13,9 °C 13,9 °C 76 % 1019,0 hPa 0,0 mm 0,0 km/h (0 Bft) O-NO 67 ° 0 min 0,000 mm 0,0 UV-I 0 W/m² 9,7 °C 13,9 °C 0,0 km/h (0 Bft)
27.05.2017 22:26 13,9 °C 13,9 °C 76 % 1019,0 hPa 0,0 mm 0,0 km/h (0 Bft) O-NO 67 ° 0 min 0,000 mm 0,0 UV-I 0 W/m² 9,7 °C 13,9 °C 0,0 km/h (0 Bft)
27.05.2017 22:27 13,9 °C 13,9 °C 76 % 1019,0 hPa 0,0 mm 0,0 km/h (0 Bft) O-NO 67 ° 0 min 0,000 mm 0,0 UV-I 0 W/m² 9,7 °C 13,9 °C 0,0 km/h (0 Bft)
27.05.2017 22:28 13,9 °C 13,9 °C 76 % 1019,1 hPa 0,0 mm 0,0 km/h (0 Bft) O-NO 67 ° 0 min 0,000 mm 0,0 UV-I 0 W/m² 9,7 °C 13,9 °C 0,0 km/h (0 Bft)
27.05.2017 22:29 13,9 °C 13,9 °C 76 % 1019,0 hPa 0,0 mm 0,0 km/h (0 Bft) O-NO 67 ° 0 min 0,000 mm 0,0 UV-I 0 W/m² 9,7 °C 13,9 °C 0,0 km/h (0 Bft)
27.05.2017 22:30 13,8 °C 13,9 °C 76 % 1019,1 hPa 0,0 mm 0,0 km/h (0 Bft) O-NO 67 ° 0 min 0,000 mm 0,0 UV-I 0 W/m² 9,6 °C 13,8 °C 0,0 km/h (0 Bft)
27.05.2017 22:31 13,8 °C 13,9 °C 76 % 1019,1 hPa 0,0 mm 0,0 km/h (0 Bft) O-NO 67 ° 0 min 0,000 mm 0,0 UV-I 0 W/m² 9,6 °C 13,8 °C 0,0 km/h (0 Bft)
27.05.2017 22:32 13,8 °C 13,8 °C 76 % 1019,1 hPa 0,0 mm 0,0 km/h (0 Bft) O-NO 67 ° 0 min 0,000 mm 0,0 UV-I 0 W/m² 9,6 °C 13,8 °C 0,0 km/h (0 Bft)
27.05.2017 22:34 13,8 °C 13,8 °C 76 % 1019,0 hPa 0,0 mm 0,0 km/h (0 Bft) O-NO 67 ° 0 min 0,000 mm 0,0 UV-I 0 W/m² 9,6 °C 13,8 °C 0,0 km/h (0 Bft)
27.05.2017 22:35 13,7 °C 13,8 °C 76 % 1019,0 hPa 0,0 mm 0,0 km/h (0 Bft) O-NO 67 ° 0 min 0,000 mm 0,0 UV-I 0 W/m² 9,5 °C 13,7 °C 0,0 km/h (0 Bft)
27.05.2017 22:36 13,7 °C 13,8 °C 76 % 1019,0 hPa 0,0 mm 0,0 km/h (0 Bft) O-NO 67 ° 0 min 0,000 mm 0,0 UV-I 0 W/m² 9,5 °C 13,7 °C 0,0 km/h (0 Bft)
27.05.2017 22:37 13,6 °C 13,7 °C 76 % 1019,0 hPa 0,0 mm 0,2 km/h (0 Bft) O-NO 67 ° 0 min 0,000 mm 0,0 UV-I 0 W/m² 9,4 °C 13,6 °C 1,6 km/h (1 Bft)
27.05.2017 22:38 13,5 °C 13,6 °C 76 % 1019,1 hPa 0,0 mm 0,0 km/h (0 Bft) O-NO 67 ° 0 min 0,000 mm 0,0 UV-I 0 W/m² 9,4 °C 13,5 °C 0,0 km/h (0 Bft)
27.05.2017 22:39 13,5 °C 13,5 °C 77 % 1019,0 hPa 0,0 mm 0,0 km/h (0 Bft) O-NO 67 ° 0 min 0,000 mm 0,0 UV-I 0 W/m² 9,5 °C 13,5 °C 0,0 km/h (0 Bft)
27.05.2017 22:40 13,5 °C 13,5 °C 77 % 1019,0 hPa 0,0 mm 0,0 km/h (0 Bft) O-NO 67 ° 0 min 0,000 mm 0,0 UV-I 0 W/m² 9,5 °C 13,5 °C 0,0 km/h (0 Bft)
27.05.2017 22:41 13,5 °C 13,5 °C 77 % 1019,0 hPa 0,0 mm 0,0 km/h (0 Bft) O-NO 67 ° 0 min 0,000 mm 0,0 UV-I 0 W/m² 9,5 °C 13,5 °C 0,0 km/h (0 Bft)
27.05.2017 22:42 13,4 °C 13,5 °C 77 % 1019,1 hPa 0,0 mm 0,0 km/h (0 Bft) O-NO 67 ° 0 min 0,000 mm 0,0 UV-I 0 W/m² 9,5 °C 13,4 °C 0,0 km/h (0 Bft)
27.05.2017 22:43 13,4 °C 13,4 °C 78 % 1019,1 hPa 0,0 mm 0,0 km/h (0 Bft) O-NO 67 ° 0 min 0,000 mm 0,0 UV-I 0 W/m² 9,6 °C 13,4 °C 0,0 km/h (0 Bft)
27.05.2017 22:44 13,4 °C 13,4 °C 77 % 1019,1 hPa 0,0 mm 0,0 km/h (0 Bft) O-NO 67 ° 0 min 0,000 mm 0,0 UV-I 0 W/m² 9,5 °C 13,4 °C 0,0 km/h (0 Bft)
27.05.2017 22:45 13,4 °C 13,4 °C 77 % 1019,1 hPa 0,0 mm 0,0 km/h (0 Bft) O-NO 67 ° 0 min 0,000 mm 0,0 UV-I 0 W/m² 9,5 °C 13,4 °C 0,0 km/h (0 Bft)
27.05.2017 22:46 13,4 °C 13,4 °C 77 % 1019,1 hPa 0,0 mm 0,0 km/h (0 Bft) O-NO 67 ° 0 min 0,000 mm 0,0 UV-I 0 W/m² 9,5 °C 13,4 °C 0,0 km/h (0 Bft)
27.05.2017 22:47 13,3 °C 13,4 °C 77 % 1019,1 hPa 0,0 mm 0,0 km/h (0 Bft) O-NO 67 ° 0 min 0,000 mm 0,0 UV-I 0 W/m² 9,4 °C 13,3 °C 0,0 km/h (0 Bft)
27.05.2017 22:48 13,4 °C 13,4 °C 77 % 1019,1 hPa 0,0 mm 0,0 km/h (0 Bft) O-NO 67 ° 0 min 0,000 mm 0,0 UV-I 0 W/m² 9,5 °C 13,4 °C 0,0 km/h (0 Bft)
27.05.2017 22:49 13,4 °C 13,4 °C 77 % 1019,1 hPa 0,0 mm 0,0 km/h (0 Bft) O-NO 67 ° 0 min 0,000 mm 0,0 UV-I 0 W/m² 9,5 °C 13,4 °C 0,0 km/h (0 Bft)
27.05.2017 22:50 13,5 °C 13,5 °C 77 % 1019,1 hPa 0,0 mm 0,0 km/h (0 Bft) O-NO 67 ° 0 min 0,000 mm 0,0 UV-I 0 W/m² 9,5 °C 13,5 °C 0,0 km/h (0 Bft)
27.05.2017 22:51 13,5 °C 13,5 °C 76 % 1019,1 hPa 0,0 mm 0,0 km/h (0 Bft) O-NO 67 ° 0 min 0,000 mm 0,0 UV-I 0 W/m² 9,4 °C 13,5 °C 0,0 km/h (0 Bft)
27.05.2017 22:52 13,5 °C 13,5 °C 76 % 1019,1 hPa 0,0 mm 0,0 km/h (0 Bft) O-NO 67 ° 0 min 0,000 mm 0,0 UV-I 0 W/m² 9,4 °C 13,5 °C 0,0 km/h (0 Bft)
27.05.2017 22:53 13,5 °C 13,5 °C 76 % 1019,1 hPa 0,0 mm 0,0 km/h (0 Bft) O-NO 67 ° 0 min 0,000 mm 0,0 UV-I 0 W/m² 9,4 °C 13,5 °C 0,0 km/h (0 Bft)
27.05.2017 22:54 13,4 °C 13,5 °C 76 % 1019,1 hPa 0,0 mm 0,0 km/h (0 Bft) O-NO 67 ° 0 min 0,000 mm 0,0 UV-I 0 W/m² 9,3 °C 13,4 °C 0,0 km/h (0 Bft)
27.05.2017 22:55 13,4 °C 13,5 °C 76 % 1019,0 hPa 0,0 mm 0,0 km/h (0 Bft) O-NO 67 ° 0 min 0,000 mm 0,0 UV-I 0 W/m² 9,3 °C 13,4 °C 0,0 km/h (0 Bft)
27.05.2017 22:56 13,4 °C 13,4 °C 77 % 1019,0 hPa 0,0 mm 0,0 km/h (0 Bft) O-NO 67 ° 0 min 0,000 mm 0,0 UV-I 0 W/m² 9,5 °C 13,4 °C 0,0 km/h (0 Bft)
27.05.2017 22:57 13,3 °C 13,4 °C 77 % 1019,1 hPa 0,0 mm 0,0 km/h (0 Bft) O-NO 67 ° 0 min 0,000 mm 0,0 UV-I 0 W/m² 9,4 °C 13,3 °C 0,0 km/h (0 Bft)
27.05.2017 22:58 13,2 °C 13,3 °C 77 % 1019,0 hPa 0,0 mm 0,0 km/h (0 Bft) O-NO 67 ° 0 min 0,000 mm 0,0 UV-I 0 W/m² 9,3 °C 13,2 °C 0,0 km/h (0 Bft)
27.05.2017 22:59 13,1 °C 13,2 °C 78 % 1019,1 hPa 0,0 mm 0,0 km/h (0 Bft) O-NO 67 ° 0 min 0,000 mm 0,0 UV-I 0 W/m² 9,4 °C 13,1 °C 0,0 km/h (0 Bft)
27.05.2017 23:00 13,1 °C 13,2 °C 78 % 1019,1 hPa 0,0 mm 0,0 km/h (0 Bft) O-NO 67 ° 0 min 0,000 mm 0,0 UV-I 0 W/m² 9,4 °C 13,1 °C 0,0 km/h (0 Bft)
27.05.2017 23:01 13,1 °C 13,1 °C 78 % 1019,1 hPa 0,0 mm 0,0 km/h (0 Bft) O-NO 67 ° 0 min 0,026 mm 0,0 UV-I 0 W/m² 9,4 °C 13,1 °C 0,0 km/h (0 Bft)
27.05.2017 23:02 13,1 °C 13,1 °C 78 % 1019,0 hPa 0,0 mm 0,0 km/h (0 Bft) O-NO 67 ° 0 min 0,000 mm 0,0 UV-I 0 W/m² 9,4 °C 13,1 °C 0,0 km/h (0 Bft)
27.05.2017 23:03 13,1 °C 13,1 °C 78 % 1019,0 hPa 0,0 mm 0,0 km/h (0 Bft) O-NO 67 ° 0 min 0,000 mm 0,0 UV-I 0 W/m² 9,4 °C 13,1 °C 0,0 km/h (0 Bft)
27.05.2017 23:04 13,1 °C 13,1 °C 78 % 1019,0 hPa 0,0 mm 0,0 km/h (0 Bft) O-NO 67 ° 0 min 0,000 mm 0,0 UV-I 0 W/m² 9,4 °C 13,1 °C 0,0 km/h (0 Bft)
27.05.2017 23:05 13,1 °C 13,1 °C 78 % 1019,0 hPa 0,0 mm 0,0 km/h (0 Bft) O-NO 67 ° 0 min 0,000 mm 0,0 UV-I 0 W/m² 9,4 °C 13,1 °C 0,0 km/h (0 Bft)
27.05.2017 23:06 13,2 °C 13,2 °C 78 % 1019,0 hPa 0,0 mm 0,0 km/h (0 Bft) O-NO 67 ° 0 min 0,000 mm 0,0 UV-I 0 W/m² 9,4 °C 13,2 °C 0,0 km/h (0 Bft)
27.05.2017 23:07 13,2 °C 13,2 °C 78 % 1019,0 hPa 0,0 mm 0,0 km/h (0 Bft) O-NO 67 ° 0 min 0,000 mm 0,0 UV-I 0 W/m² 9,4 °C 13,2 °C 0,0 km/h (0 Bft)
27.05.2017 23:08 13,1 °C 13,2 °C 78 % 1019,0 hPa 0,0 mm 0,0 km/h (0 Bft) O-NO 67 ° 0 min 0,000 mm 0,0 UV-I 0 W/m² 9,4 °C 13,1 °C 0,0 km/h (0 Bft)
27.05.2017 23:09 13,1 °C 13,1 °C 78 % 1019,0 hPa 0,0 mm 0,0 km/h (0 Bft) O-NO 67 ° 0 min 0,000 mm 0,0 UV-I 0 W/m² 9,4 °C 13,1 °C 0,0 km/h (0 Bft)
27.05.2017 23:10 13,1 °C 13,1 °C 78 % 1019,0 hPa 0,0 mm 0,0 km/h (0 Bft) O-NO 67 ° 0 min 0,000 mm 0,0 UV-I 0 W/m² 9,4 °C 13,1 °C 0,0 km/h (0 Bft)
27.05.2017 23:11 13,1 °C 13,1 °C 78 % 1019,0 hPa 0,0 mm 0,0 km/h (0 Bft) O-NO 67 ° 0 min 0,000 mm 0,0 UV-I 0 W/m² 9,4 °C 13,1 °C 0,0 km/h (0 Bft)
27.05.2017 23:12 13,1 °C 13,1 °C 78 % 1019,0 hPa 0,0 mm 0,0 km/h (0 Bft) O-NO 67 ° 0 min 0,000 mm 0,0 UV-I 0 W/m² 9,4 °C 13,1 °C 0,0 km/h (0 Bft)
27.05.2017 23:13 13,0 °C 13,1 °C 79 % 1019,0 hPa 0,0 mm 0,0 km/h (0 Bft) O-NO 67 ° 0 min 0,000 mm 0,0 UV-I 0 W/m² 9,4 °C 13,0 °C 0,0 km/h (0 Bft)
27.05.2017 23:14 13,0 °C 13,0 °C 79 % 1019,0 hPa 0,0 mm 0,0 km/h (0 Bft) O-NO 67 ° 0 min 0,000 mm 0,0 UV-I 0 W/m² 9,4 °C 13,0 °C 0,0 km/h (0 Bft)
27.05.2017 23:15 12,9 °C 13,0 °C 79 % 1019,0 hPa 0,0 mm 0,0 km/h (0 Bft) O-NO 67 ° 0 min 0,000 mm 0,0 UV-I 0 W/m² 9,3 °C 12,9 °C 0,0 km/h (0 Bft)
27.05.2017 23:16 12,9 °C 12,9 °C 79 % 1019,0 hPa 0,0 mm 0,0 km/h (0 Bft) O-NO 67 ° 0 min 0,000 mm 0,0 UV-I 0 W/m² 9,3 °C 12,9 °C 0,0 km/h (0 Bft)
27.05.2017 23:17 12,9 °C 12,9 °C 79 % 1019,0 hPa 0,0 mm 0,0 km/h (0 Bft) O-NO 67 ° 0 min 0,000 mm 0,0 UV-I 0 W/m² 9,3 °C 12,9 °C 0,0 km/h (0 Bft)
27.05.2017 23:18 12,9 °C 12,9 °C 79 % 1019,0 hPa 0,0 mm 0,0 km/h (0 Bft) O-NO 67 ° 0 min 0,000 mm 0,0 UV-I 0 W/m² 9,3 °C 12,9 °C 0,0 km/h (0 Bft)
27.05.2017 23:19 12,9 °C 12,9 °C 79 % 1019,0 hPa 0,0 mm 0,0 km/h (0 Bft) O-NO 67 ° 0 min 0,000 mm 0,0 UV-I 0 W/m² 9,3 °C 12,9 °C 0,0 km/h (0 Bft)
27.05.2017 23:20 12,9 °C 12,9 °C 79 % 1019,0 hPa 0,0 mm 0,0 km/h (0 Bft) O-NO 67 ° 0 min 0,000 mm 0,0 UV-I 0 W/m² 9,3 °C 12,9 °C 0,0 km/h (0 Bft)
27.05.2017 23:21 12,9 °C 12,9 °C 79 % 1019,0 hPa 0,0 mm 0,0 km/h (0 Bft) O-NO 67 ° 0 min 0,000 mm 0,0 UV-I 0 W/m² 9,3 °C 12,9 °C 0,0 km/h (0 Bft)
27.05.2017 23:22 12,9 °C 13,0 °C 79 % 1019,0 hPa 0,0 mm 0,0 km/h (0 Bft) O-NO 67 ° 0 min 0,000 mm 0,0 UV-I 0 W/m² 9,3 °C 12,9 °C 0,0 km/h (0 Bft)
27.05.2017 23:23 12,9 °C 12,9 °C 78 % 1019,0 hPa 0,0 mm 0,0 km/h (0 Bft) O-NO 67 ° 0 min 0,000 mm 0,0 UV-I 0 W/m² 9,2 °C 12,9 °C 0,0 km/h (0 Bft)
27.05.2017 23:24 12,9 °C 12,9 °C 79 % 1019,0 hPa 0,0 mm 0,0 km/h (0 Bft) O-NO 67 ° 0 min 0,000 mm 0,0 UV-I 0 W/m² 9,3 °C 12,9 °C 0,0 km/h (0 Bft)
27.05.2017 23:25 12,9 °C 12,9 °C 79 % 1019,0 hPa 0,0 mm 0,0 km/h (0 Bft) O-NO 67 ° 0 min 0,000 mm 0,0 UV-I 0 W/m² 9,3 °C 12,9 °C 0,0 km/h (0 Bft)
27.05.2017 23:26 12,9 °C 12,9 °C 79 % 1019,0 hPa 0,0 mm 0,0 km/h (0 Bft) O-NO 67 ° 0 min 0,000 mm 0,0 UV-I 0 W/m² 9,3 °C 12,9 °C 0,0 km/h (0 Bft)
27.05.2017 23:27 12,9 °C 12,9 °C 79 % 1019,1 hPa 0,0 mm 0,0 km/h (0 Bft) O-NO 67 ° 0 min 0,000 mm 0,0 UV-I 0 W/m² 9,3 °C 12,9 °C 0,0 km/h (0 Bft)
27.05.2017 23:28 12,9 °C 12,9 °C 79 % 1019,0 hPa 0,0 mm 0,0 km/h (0 Bft) O-NO 67 ° 0 min 0,000 mm 0,0 UV-I 0 W/m² 9,3 °C 12,9 °C 0,0 km/h (0 Bft)
27.05.2017 23:29 12,9 °C 12,9 °C 79 % 1019,0 hPa 0,0 mm 0,0 km/h (0 Bft) O-NO 67 ° 0 min 0,000 mm 0,0 UV-I 0 W/m² 9,3 °C 12,9 °C 0,0 km/h (0 Bft)
27.05.2017 23:30 12,8 °C 12,9 °C 80 % 1019,0 hPa 0,0 mm 0,0 km/h (0 Bft) O-NO 67 ° 0 min 0,000 mm 0,0 UV-I 0 W/m² 9,4 °C 12,8 °C 0,0 km/h (0 Bft)
27.05.2017 23:31 12,8 °C 12,8 °C 80 % 1019,0 hPa 0,0 mm 0,0 km/h (0 Bft) O-NO 67 ° 0 min 0,000 mm 0,0 UV-I 0 W/m² 9,4 °C 12,8 °C 0,0 km/h (0 Bft)
27.05.2017 23:32 12,7 °C 12,8 °C 80 % 1019,1 hPa 0,0 mm 0,0 km/h (0 Bft) O-NO 67 ° 0 min 0,000 mm 0,0 UV-I 0 W/m² 9,3 °C 12,7 °C 0,0 km/h (0 Bft)
27.05.2017 23:33 12,6 °C 12,7 °C 80 % 1019,1 hPa 0,0 mm 0,0 km/h (0 Bft) O-NO 67 ° 0 min 0,000 mm 0,0 UV-I 0 W/m² 9,2 °C 12,6 °C 0,0 km/h (0 Bft)
27.05.2017 23:34 12,6 °C 12,6 °C 80 % 1019,1 hPa 0,0 mm 0,0 km/h (0 Bft) O-NO 67 ° 0 min 0,000 mm 0,0 UV-I 0 W/m² 9,2 °C 12,6 °C 0,0 km/h (0 Bft)
27.05.2017 23:35 12,5 °C 12,6 °C 80 % 1019,1 hPa 0,0 mm 0,0 km/h (0 Bft) O-NO 67 ° 0 min 0,000 mm 0,0 UV-I 0 W/m² 9,1 °C 12,5 °C 0,0 km/h (0 Bft)
27.05.2017 23:36 12,5 °C 12,5 °C 81 % 1019,1 hPa 0,0 mm 0,0 km/h (0 Bft) O-NO 67 ° 0 min 0,000 mm 0,0 UV-I 0 W/m² 9,3 °C 12,5 °C 0,0 km/h (0 Bft)
27.05.2017 23:37 12,4 °C 12,5 °C 81 % 1019,2 hPa 0,0 mm 0,0 km/h (0 Bft) O-NO 67 ° 0 min 0,000 mm 0,0 UV-I 0 W/m² 9,2 °C 12,4 °C 0,0 km/h (0 Bft)
27.05.2017 23:38 12,4 °C 12,4 °C 81 % 1019,2 hPa 0,0 mm 0,0 km/h (0 Bft) O-NO 67 ° 0 min 0,000 mm 0,0 UV-I 0 W/m² 9,2 °C 12,4 °C 0,0 km/h (0 Bft)
27.05.2017 23:39 12,4 °C 12,4 °C 81 % 1019,1 hPa 0,0 mm 0,0 km/h (0 Bft) O-NO 67 ° 0 min 0,000 mm 0,0 UV-I 0 W/m² 9,2 °C 12,4 °C 0,0 km/h (0 Bft)
27.05.2017 23:40 12,4 °C 12,4 °C 81 % 1019,2 hPa 0,0 mm 0,0 km/h (0 Bft) O-NO 67 ° 0 min 0,000 mm 0,0 UV-I 0 W/m² 9,2 °C 12,4 °C 0,0 km/h (0 Bft)
27.05.2017 23:41 12,4 °C 12,4 °C 81 % 1019,2 hPa 0,0 mm 0,0 km/h (0 Bft) O-NO 67 ° 0 min 0,000 mm 0,0 UV-I 0 W/m² 9,2 °C 12,4 °C 0,0 km/h (0 Bft)
27.05.2017 23:42 12,4 °C 12,4 °C 81 % 1019,1 hPa 0,0 mm 0,0 km/h (0 Bft) O-NO 67 ° 0 min 0,000 mm 0,0 UV-I 0 W/m² 9,2 °C 12,4 °C 0,0 km/h (0 Bft)
27.05.2017 23:43 12,4 °C 12,4 °C 81 % 1019,2 hPa 0,0 mm 0,0 km/h (0 Bft) O-NO 67 ° 0 min 0,000 mm 0,0 UV-I 0 W/m² 9,2 °C 12,4 °C 0,0 km/h (0 Bft)
27.05.2017 23:44 12,3 °C 12,4 °C 81 % 1019,2 hPa 0,0 mm 0,0 km/h (0 Bft) O-NO 67 ° 0 min 0,000 mm 0,0 UV-I 0 W/m² 9,1 °C 12,3 °C 0,0 km/h (0 Bft)
27.05.2017 23:45 12,4 °C 12,4 °C 81 % 1019,1 hPa 0,0 mm 0,0 km/h (0 Bft) O-NO 67 ° 0 min 0,000 mm 0,0 UV-I 0 W/m² 9,2 °C 12,4 °C 0,0 km/h (0 Bft)
27.05.2017 23:46 12,3 °C 12,4 °C 81 % 1019,1 hPa 0,0 mm 0,0 km/h (0 Bft) O-NO 67 ° 0 min 0,000 mm 0,0 UV-I 0 W/m² 9,1 °C 12,3 °C 0,0 km/h (0 Bft)
27.05.2017 23:47 12,3 °C 12,3 °C 81 % 1019,1 hPa 0,0 mm 0,0 km/h (0 Bft) O-NO 67 ° 0 min 0,000 mm 0,0 UV-I 0 W/m² 9,1 °C 12,3 °C 0,0 km/h (0 Bft)
27.05.2017 23:48 12,3 °C 12,3 °C 81 % 1019,1 hPa 0,0 mm 0,0 km/h (0 Bft) O-NO 67 ° 0 min 0,000 mm 0,0 UV-I 0 W/m² 9,1 °C 12,3 °C 0,0 km/h (0 Bft)
27.05.2017 23:49 12,3 °C 12,3 °C 81 % 1019,1 hPa 0,0 mm 0,0 km/h (0 Bft) O-NO 67 ° 0 min 0,000 mm 0,0 UV-I 0 W/m² 9,1 °C 12,3 °C 0,0 km/h (0 Bft)
27.05.2017 23:50 12,3 °C 12,4 °C 81 % 1019,1 hPa 0,0 mm 0,0 km/h (0 Bft) O-NO 67 ° 0 min 0,000 mm 0,0 UV-I 0 W/m² 9,1 °C 12,3 °C 0,0 km/h (0 Bft)
27.05.2017 23:51 12,3 °C 12,3 °C 81 % 1019,1 hPa 0,0 mm 0,0 km/h (0 Bft) O-NO 67 ° 0 min 0,000 mm 0,0 UV-I 0 W/m² 9,1 °C 12,3 °C 0,0 km/h (0 Bft)
27.05.2017 23:52 12,3 °C 12,3 °C 81 % 1019,1 hPa 0,0 mm 0,0 km/h (0 Bft) O-NO 67 ° 0 min 0,000 mm 0,0 UV-I 0 W/m² 9,1 °C 12,3 °C 0,0 km/h (0 Bft)
27.05.2017 23:53 12,2 °C 12,3 °C 81 % 1019,1 hPa 0,0 mm 0,0 km/h (0 Bft) O-NO 67 ° 0 min 0,000 mm 0,0 UV-I 0 W/m² 9,0 °C 12,2 °C 0,0 km/h (0 Bft)
27.05.2017 23:54 12,2 °C 12,2 °C 82 % 1019,2 hPa 0,0 mm 0,0 km/h (0 Bft) O-NO 67 ° 0 min 0,000 mm 0,0 UV-I 0 W/m² 9,2 °C 12,2 °C 0,0 km/h (0 Bft)
27.05.2017 23:55 12,2 °C 12,2 °C 81 % 1019,2 hPa 0,0 mm 0,0 km/h (0 Bft) O-NO 67 ° 0 min 0,000 mm 0,0 UV-I 0 W/m² 9,0 °C 12,2 °C 0,0 km/h (0 Bft)
27.05.2017 23:56 12,2 °C 12,2 °C 81 % 1019,2 hPa 0,0 mm 0,0 km/h (0 Bft) O-NO 67 ° 0 min 0,000 mm 0,0 UV-I 0 W/m² 9,0 °C 12,2 °C 0,0 km/h (0 Bft)
27.05.2017 23:57 12,2 °C 12,2 °C 81 % 1019,2 hPa 0,0 mm 0,0 km/h (0 Bft) O-NO 67 ° 0 min 0,000 mm 0,0 UV-I 0 W/m² 9,0 °C 12,2 °C 0,0 km/h (0 Bft)
27.05.2017 23:58 12,2 °C 12,3 °C 81 % 1019,2 hPa 0,0 mm 0,0 km/h (0 Bft) O-NO 67 ° 0 min 0,000 mm 0,0 UV-I 0 W/m² 9,0 °C 12,2 °C 0,0 km/h (0 Bft)
27.05.2017 23:59 12,3 °C 12,3 °C 81 % 1019,2 hPa 0,0 mm 0,0 km/h (0 Bft) O-NO 67 ° 0 min 0,000 mm 0,0 UV-I 0 W/m² 9,1 °C 12,3 °C 0,0 km/h (0 Bft)
_ Min-Zeit 05:43 05:47 14:33 18:36 - 23:59 - - - - - - 05:41 05:47 23:59
Minimum _ 6,3 °C 6,4 °C 33 % 1017,3 hPa - 0,0 km/h (0 Bft) - - - - - - 5,2 °C 6,4 °C 0,0 km/h (0 Bft)
_ Max-Zeit 15:44 15:45 06:05 23:59 23:59 13:01 - - 15:34 14:01 13:27 13:27 12:18 15:48 13:00
Maximum _ 24,4 °C 24,4 °C 94 % 1019,2 hPa 0,0 mm 13,6 km/h
N (3 Bft)
- - 2 min 0,610 mm 7,4 UV-I 926 W/m² 13,4 °C 24,3 °C 17,7 km/h
N (3 Bft)
Durchschnitt _ 16,4 °C 16,4 °C 65 % 1018,2 hPa #0,0 mm 2,0 km/h (1 Bft) N-NO - #8:06 h #4,496 mm 4,5 UV-I 283 W/m² 8,7 °C 16,4 °C 3,4 km/h (1 Bft)